<?xml version="1.0" encoding="UTF-8" standalone="no" ?>
<gpx xmlns="http://www.topografix.com/GPX/1/1" xmlns:xsi="http://www.w3.org/2001/XMLSchema-instance" xsi:schemaLocation="http://www.topografix.com/GPX/1/1 http://www.topografix.com/GPX/1/1/gpx.xsd" version="1.1" creator="VisuGPX - https://www.visugpx.com">
  <metadata>
    <name>2024-02-04_09-29_Sun  Us Marines</name>
  </metadata>
  <trk>
    <name><![CDATA[2024-02-04_09-29_Sun  Us Marines_1]]></name>
    <trkseg>
      <trkpt lat="49.10009" lon="1.97059">
        <ele>50.1</ele>
        <time>2024-02-04T08:29:29Z</time>
      </trkpt>
      <trkpt lat="49.10015" lon="1.97053">
        <ele>50</ele>
        <time>2024-02-04T08:29:34Z</time>
      </trkpt>
      <trkpt lat="49.10021" lon="1.97051">
        <ele>50</ele>
        <time>2024-02-04T08:29:39Z</time>
      </trkpt>
      <trkpt lat="49.10028" lon="1.97051">
        <ele>50</ele>
        <time>2024-02-04T08:29:45Z</time>
      </trkpt>
      <trkpt lat="49.10033" lon="1.97048">
        <ele>50</ele>
        <time>2024-02-04T08:29:51Z</time>
      </trkpt>
      <trkpt lat="49.10034" lon="1.97046">
        <ele>50</ele>
        <time>2024-02-04T08:29:57Z</time>
      </trkpt>
      <trkpt lat="49.10037" lon="1.97043">
        <ele>50</ele>
        <time>2024-02-04T08:30:02Z</time>
      </trkpt>
      <trkpt lat="49.10042" lon="1.97041">
        <ele>50</ele>
        <time>2024-02-04T08:30:08Z</time>
      </trkpt>
      <trkpt lat="49.10045" lon="1.9704">
        <ele>50</ele>
        <time>2024-02-04T08:30:14Z</time>
      </trkpt>
      <trkpt lat="49.10054" lon="1.97036">
        <ele>50</ele>
        <time>2024-02-04T08:30:20Z</time>
      </trkpt>
      <trkpt lat="49.10062" lon="1.97031">
        <ele>50</ele>
        <time>2024-02-04T08:30:25Z</time>
      </trkpt>
      <trkpt lat="49.10071" lon="1.97028">
        <ele>50</ele>
        <time>2024-02-04T08:30:31Z</time>
      </trkpt>
      <trkpt lat="49.10085" lon="1.97033">
        <ele>49.6</ele>
        <time>2024-02-04T08:30:36Z</time>
      </trkpt>
      <trkpt lat="49.10091" lon="1.97038">
        <ele>49.1</ele>
        <time>2024-02-04T08:30:42Z</time>
      </trkpt>
      <trkpt lat="49.10097" lon="1.97042">
        <ele>48.7</ele>
        <time>2024-02-04T08:30:48Z</time>
      </trkpt>
      <trkpt lat="49.10102" lon="1.97046">
        <ele>48.5</ele>
        <time>2024-02-04T08:30:53Z</time>
      </trkpt>
      <trkpt lat="49.10108" lon="1.9705">
        <ele>48.2</ele>
        <time>2024-02-04T08:30:58Z</time>
      </trkpt>
      <trkpt lat="49.10114" lon="1.97056">
        <ele>48.1</ele>
        <time>2024-02-04T08:31:04Z</time>
      </trkpt>
      <trkpt lat="49.10119" lon="1.97059">
        <ele>48.2</ele>
        <time>2024-02-04T08:31:09Z</time>
      </trkpt>
      <trkpt lat="49.10123" lon="1.97063">
        <ele>48.2</ele>
        <time>2024-02-04T08:31:15Z</time>
      </trkpt>
      <trkpt lat="49.10126" lon="1.97069">
        <ele>48.1</ele>
        <time>2024-02-04T08:31:20Z</time>
      </trkpt>
      <trkpt lat="49.10126" lon="1.97079">
        <ele>47.7</ele>
        <time>2024-02-04T08:31:26Z</time>
      </trkpt>
      <trkpt lat="49.10125" lon="1.9709">
        <ele>47.4</ele>
        <time>2024-02-04T08:31:31Z</time>
      </trkpt>
      <trkpt lat="49.10124" lon="1.97105">
        <ele>47.1</ele>
        <time>2024-02-04T08:31:37Z</time>
      </trkpt>
      <trkpt lat="49.10122" lon="1.9712">
        <ele>47</ele>
        <time>2024-02-04T08:31:43Z</time>
      </trkpt>
      <trkpt lat="49.1012" lon="1.97133">
        <ele>47</ele>
        <time>2024-02-04T08:31:49Z</time>
      </trkpt>
      <trkpt lat="49.10117" lon="1.97141">
        <ele>47</ele>
        <time>2024-02-04T08:31:54Z</time>
      </trkpt>
      <trkpt lat="49.10113" lon="1.97149">
        <ele>47</ele>
        <time>2024-02-04T08:32:00Z</time>
      </trkpt>
      <trkpt lat="49.10105" lon="1.97163">
        <ele>47</ele>
        <time>2024-02-04T08:32:06Z</time>
      </trkpt>
      <trkpt lat="49.10097" lon="1.97172">
        <ele>47</ele>
        <time>2024-02-04T08:32:14Z</time>
      </trkpt>
      <trkpt lat="49.10094" lon="1.97182">
        <ele>47</ele>
        <time>2024-02-04T08:32:19Z</time>
      </trkpt>
      <trkpt lat="49.10092" lon="1.97191">
        <ele>47</ele>
        <time>2024-02-04T08:32:24Z</time>
      </trkpt>
      <trkpt lat="49.1009" lon="1.97203">
        <ele>47</ele>
        <time>2024-02-04T08:32:30Z</time>
      </trkpt>
      <trkpt lat="49.10089" lon="1.97211">
        <ele>47</ele>
        <time>2024-02-04T08:32:36Z</time>
      </trkpt>
      <trkpt lat="49.10089" lon="1.97221">
        <ele>47</ele>
        <time>2024-02-04T08:32:42Z</time>
      </trkpt>
      <trkpt lat="49.10088" lon="1.97231">
        <ele>47</ele>
        <time>2024-02-04T08:32:47Z</time>
      </trkpt>
      <trkpt lat="49.10085" lon="1.97242">
        <ele>47</ele>
        <time>2024-02-04T08:32:53Z</time>
      </trkpt>
      <trkpt lat="49.10084" lon="1.97253">
        <ele>47</ele>
        <time>2024-02-04T08:32:59Z</time>
      </trkpt>
      <trkpt lat="49.10083" lon="1.9726">
        <ele>47</ele>
        <time>2024-02-04T08:33:04Z</time>
      </trkpt>
      <trkpt lat="49.10083" lon="1.9727">
        <ele>47</ele>
        <time>2024-02-04T08:33:09Z</time>
      </trkpt>
      <trkpt lat="49.10081" lon="1.97278">
        <ele>47.1</ele>
        <time>2024-02-04T08:33:14Z</time>
      </trkpt>
      <trkpt lat="49.10078" lon="1.97289">
        <ele>47.5</ele>
        <time>2024-02-04T08:33:20Z</time>
      </trkpt>
      <trkpt lat="49.10074" lon="1.97297">
        <ele>47.8</ele>
        <time>2024-02-04T08:33:26Z</time>
      </trkpt>
      <trkpt lat="49.10069" lon="1.97304">
        <ele>48</ele>
        <time>2024-02-04T08:33:32Z</time>
      </trkpt>
      <trkpt lat="49.1007" lon="1.97311">
        <ele>48</ele>
        <time>2024-02-04T08:33:38Z</time>
      </trkpt>
      <trkpt lat="49.10074" lon="1.97321">
        <ele>48</ele>
        <time>2024-02-04T08:33:44Z</time>
      </trkpt>
      <trkpt lat="49.10076" lon="1.97332">
        <ele>48</ele>
        <time>2024-02-04T08:33:50Z</time>
      </trkpt>
      <trkpt lat="49.10074" lon="1.97341">
        <ele>47.7</ele>
        <time>2024-02-04T08:33:55Z</time>
      </trkpt>
      <trkpt lat="49.1007" lon="1.97353">
        <ele>47.3</ele>
        <time>2024-02-04T08:34:01Z</time>
      </trkpt>
      <trkpt lat="49.10067" lon="1.97361">
        <ele>47</ele>
        <time>2024-02-04T08:34:06Z</time>
      </trkpt>
      <trkpt lat="49.10065" lon="1.9737">
        <ele>47</ele>
        <time>2024-02-04T08:34:12Z</time>
      </trkpt>
      <trkpt lat="49.10062" lon="1.97382">
        <ele>47</ele>
        <time>2024-02-04T08:34:17Z</time>
      </trkpt>
      <trkpt lat="49.10059" lon="1.97393">
        <ele>47</ele>
        <time>2024-02-04T08:34:22Z</time>
      </trkpt>
      <trkpt lat="49.10057" lon="1.97402">
        <ele>47</ele>
        <time>2024-02-04T08:34:27Z</time>
      </trkpt>
      <trkpt lat="49.10056" lon="1.97411">
        <ele>47</ele>
        <time>2024-02-04T08:34:33Z</time>
      </trkpt>
      <trkpt lat="49.10052" lon="1.97422">
        <ele>46.8</ele>
        <time>2024-02-04T08:34:39Z</time>
      </trkpt>
      <trkpt lat="49.1005" lon="1.97434">
        <ele>46.5</ele>
        <time>2024-02-04T08:34:44Z</time>
      </trkpt>
      <trkpt lat="49.10049" lon="1.97443">
        <ele>46.3</ele>
        <time>2024-02-04T08:34:49Z</time>
      </trkpt>
      <trkpt lat="49.10046" lon="1.97455">
        <ele>46.6</ele>
        <time>2024-02-04T08:34:55Z</time>
      </trkpt>
      <trkpt lat="49.10042" lon="1.97469">
        <ele>46.9</ele>
        <time>2024-02-04T08:35:01Z</time>
      </trkpt>
      <trkpt lat="49.1004" lon="1.97478">
        <ele>47.1</ele>
        <time>2024-02-04T08:35:07Z</time>
      </trkpt>
      <trkpt lat="49.10038" lon="1.97488">
        <ele>47.3</ele>
        <time>2024-02-04T08:35:12Z</time>
      </trkpt>
      <trkpt lat="49.10036" lon="1.97496">
        <ele>47.6</ele>
        <time>2024-02-04T08:35:17Z</time>
      </trkpt>
      <trkpt lat="49.10031" lon="1.97508">
        <ele>47.9</ele>
        <time>2024-02-04T08:35:23Z</time>
      </trkpt>
      <trkpt lat="49.10028" lon="1.97518">
        <ele>48</ele>
        <time>2024-02-04T08:35:29Z</time>
      </trkpt>
      <trkpt lat="49.10026" lon="1.97529">
        <ele>48.1</ele>
        <time>2024-02-04T08:35:35Z</time>
      </trkpt>
      <trkpt lat="49.10023" lon="1.97538">
        <ele>48.7</ele>
        <time>2024-02-04T08:35:41Z</time>
      </trkpt>
      <trkpt lat="49.1002" lon="1.97546">
        <ele>49.1</ele>
        <time>2024-02-04T08:35:46Z</time>
      </trkpt>
      <trkpt lat="49.10018" lon="1.97559">
        <ele>49.9</ele>
        <time>2024-02-04T08:35:52Z</time>
      </trkpt>
      <trkpt lat="49.10017" lon="1.97568">
        <ele>50.5</ele>
        <time>2024-02-04T08:35:57Z</time>
      </trkpt>
      <trkpt lat="49.10015" lon="1.97578">
        <ele>51.1</ele>
        <time>2024-02-04T08:36:03Z</time>
      </trkpt>
      <trkpt lat="49.10012" lon="1.97584">
        <ele>51.5</ele>
        <time>2024-02-04T08:36:08Z</time>
      </trkpt>
      <trkpt lat="49.10005" lon="1.97589">
        <ele>51.6</ele>
        <time>2024-02-04T08:36:14Z</time>
      </trkpt>
      <trkpt lat="49.09999" lon="1.97592">
        <ele>51.6</ele>
        <time>2024-02-04T08:36:20Z</time>
      </trkpt>
      <trkpt lat="49.09992" lon="1.97598">
        <ele>52.1</ele>
        <time>2024-02-04T08:36:26Z</time>
      </trkpt>
      <trkpt lat="49.09984" lon="1.97604">
        <ele>52.5</ele>
        <time>2024-02-04T08:36:32Z</time>
      </trkpt>
      <trkpt lat="49.09978" lon="1.97607">
        <ele>52.7</ele>
        <time>2024-02-04T08:36:37Z</time>
      </trkpt>
      <trkpt lat="49.09971" lon="1.97612">
        <ele>53</ele>
        <time>2024-02-04T08:36:43Z</time>
      </trkpt>
      <trkpt lat="49.09965" lon="1.97615">
        <ele>53.3</ele>
        <time>2024-02-04T08:36:49Z</time>
      </trkpt>
      <trkpt lat="49.09959" lon="1.97621">
        <ele>53.7</ele>
        <time>2024-02-04T08:36:55Z</time>
      </trkpt>
      <trkpt lat="49.09952" lon="1.97624">
        <ele>54</ele>
        <time>2024-02-04T08:37:01Z</time>
      </trkpt>
      <trkpt lat="49.09948" lon="1.97629">
        <ele>54.3</ele>
        <time>2024-02-04T08:37:07Z</time>
      </trkpt>
      <trkpt lat="49.09941" lon="1.97634">
        <ele>54.6</ele>
        <time>2024-02-04T08:37:13Z</time>
      </trkpt>
      <trkpt lat="49.09934" lon="1.97637">
        <ele>54.9</ele>
        <time>2024-02-04T08:37:19Z</time>
      </trkpt>
      <trkpt lat="49.09929" lon="1.97641">
        <ele>55.1</ele>
        <time>2024-02-04T08:37:24Z</time>
      </trkpt>
      <trkpt lat="49.09922" lon="1.97648">
        <ele>55.6</ele>
        <time>2024-02-04T08:37:30Z</time>
      </trkpt>
      <trkpt lat="49.09914" lon="1.97653">
        <ele>56</ele>
        <time>2024-02-04T08:37:36Z</time>
      </trkpt>
      <trkpt lat="49.09909" lon="1.97657">
        <ele>56.3</ele>
        <time>2024-02-04T08:37:41Z</time>
      </trkpt>
      <trkpt lat="49.09902" lon="1.9766">
        <ele>56.5</ele>
        <time>2024-02-04T08:37:47Z</time>
      </trkpt>
      <trkpt lat="49.09896" lon="1.97664">
        <ele>56.8</ele>
        <time>2024-02-04T08:37:52Z</time>
      </trkpt>
      <trkpt lat="49.09888" lon="1.9767">
        <ele>57.2</ele>
        <time>2024-02-04T08:37:59Z</time>
      </trkpt>
      <trkpt lat="49.09882" lon="1.97675">
        <ele>57.6</ele>
        <time>2024-02-04T08:38:04Z</time>
      </trkpt>
      <trkpt lat="49.09875" lon="1.9768">
        <ele>58</ele>
        <time>2024-02-04T08:38:10Z</time>
      </trkpt>
      <trkpt lat="49.09869" lon="1.97686">
        <ele>58.4</ele>
        <time>2024-02-04T08:38:15Z</time>
      </trkpt>
      <trkpt lat="49.09862" lon="1.97691">
        <ele>58.7</ele>
        <time>2024-02-04T08:38:21Z</time>
      </trkpt>
      <trkpt lat="49.09855" lon="1.97696">
        <ele>58.9</ele>
        <time>2024-02-04T08:38:27Z</time>
      </trkpt>
      <trkpt lat="49.09849" lon="1.977">
        <ele>59</ele>
        <time>2024-02-04T08:38:32Z</time>
      </trkpt>
      <trkpt lat="49.09841" lon="1.97705">
        <ele>59</ele>
        <time>2024-02-04T08:38:38Z</time>
      </trkpt>
      <trkpt lat="49.09835" lon="1.97709">
        <ele>59.2</ele>
        <time>2024-02-04T08:38:43Z</time>
      </trkpt>
      <trkpt lat="49.09828" lon="1.97714">
        <ele>59.4</ele>
        <time>2024-02-04T08:38:49Z</time>
      </trkpt>
      <trkpt lat="49.09821" lon="1.97717">
        <ele>59.6</ele>
        <time>2024-02-04T08:38:55Z</time>
      </trkpt>
      <trkpt lat="49.09814" lon="1.97721">
        <ele>59.9</ele>
        <time>2024-02-04T08:39:01Z</time>
      </trkpt>
      <trkpt lat="49.09808" lon="1.97724">
        <ele>60.1</ele>
        <time>2024-02-04T08:39:06Z</time>
      </trkpt>
      <trkpt lat="49.09801" lon="1.97727">
        <ele>60.3</ele>
        <time>2024-02-04T08:39:12Z</time>
      </trkpt>
      <trkpt lat="49.09794" lon="1.97733">
        <ele>60.8</ele>
        <time>2024-02-04T08:39:18Z</time>
      </trkpt>
      <trkpt lat="49.09787" lon="1.97738">
        <ele>61.2</ele>
        <time>2024-02-04T08:39:23Z</time>
      </trkpt>
      <trkpt lat="49.09779" lon="1.97744">
        <ele>61.5</ele>
        <time>2024-02-04T08:39:29Z</time>
      </trkpt>
      <trkpt lat="49.0977" lon="1.97747">
        <ele>61.8</ele>
        <time>2024-02-04T08:39:35Z</time>
      </trkpt>
      <trkpt lat="49.09763" lon="1.97749">
        <ele>61.9</ele>
        <time>2024-02-04T08:39:40Z</time>
      </trkpt>
      <trkpt lat="49.09756" lon="1.97751">
        <ele>62</ele>
        <time>2024-02-04T08:39:46Z</time>
      </trkpt>
      <trkpt lat="49.09749" lon="1.9775">
        <ele>62</ele>
        <time>2024-02-04T08:39:52Z</time>
      </trkpt>
      <trkpt lat="49.09741" lon="1.9775">
        <ele>62</ele>
        <time>2024-02-04T08:39:57Z</time>
      </trkpt>
      <trkpt lat="49.09736" lon="1.97751">
        <ele>62.1</ele>
        <time>2024-02-04T08:40:02Z</time>
      </trkpt>
      <trkpt lat="49.09731" lon="1.97757">
        <ele>62.4</ele>
        <time>2024-02-04T08:40:08Z</time>
      </trkpt>
      <trkpt lat="49.09732" lon="1.97768">
        <ele>63.1</ele>
        <time>2024-02-04T08:40:14Z</time>
      </trkpt>
      <trkpt lat="49.09735" lon="1.97776">
        <ele>63.5</ele>
        <time>2024-02-04T08:40:19Z</time>
      </trkpt>
      <trkpt lat="49.0974" lon="1.97786">
        <ele>64</ele>
        <time>2024-02-04T08:40:25Z</time>
      </trkpt>
      <trkpt lat="49.09746" lon="1.97796">
        <ele>64.4</ele>
        <time>2024-02-04T08:40:31Z</time>
      </trkpt>
      <trkpt lat="49.09749" lon="1.97804">
        <ele>64.9</ele>
        <time>2024-02-04T08:40:36Z</time>
      </trkpt>
      <trkpt lat="49.09753" lon="1.97813">
        <ele>66</ele>
        <time>2024-02-04T08:40:42Z</time>
      </trkpt>
      <trkpt lat="49.09757" lon="1.97823">
        <ele>67.1</ele>
        <time>2024-02-04T08:40:48Z</time>
      </trkpt>
      <trkpt lat="49.0976" lon="1.97831">
        <ele>67.7</ele>
        <time>2024-02-04T08:40:53Z</time>
      </trkpt>
      <trkpt lat="49.09765" lon="1.9784">
        <ele>68.4</ele>
        <time>2024-02-04T08:40:59Z</time>
      </trkpt>
      <trkpt lat="49.09768" lon="1.97846">
        <ele>69.1</ele>
        <time>2024-02-04T08:41:04Z</time>
      </trkpt>
      <trkpt lat="49.09772" lon="1.97851">
        <ele>69.6</ele>
        <time>2024-02-04T08:41:09Z</time>
      </trkpt>
      <trkpt lat="49.09775" lon="1.97859">
        <ele>70.8</ele>
        <time>2024-02-04T08:41:15Z</time>
      </trkpt>
      <trkpt lat="49.09779" lon="1.97866">
        <ele>71.3</ele>
        <time>2024-02-04T08:41:20Z</time>
      </trkpt>
      <trkpt lat="49.09784" lon="1.97875">
        <ele>71.9</ele>
        <time>2024-02-04T08:41:26Z</time>
      </trkpt>
      <trkpt lat="49.09789" lon="1.97881">
        <ele>72.3</ele>
        <time>2024-02-04T08:41:31Z</time>
      </trkpt>
      <trkpt lat="49.09794" lon="1.97889">
        <ele>73</ele>
        <time>2024-02-04T08:41:37Z</time>
      </trkpt>
      <trkpt lat="49.098" lon="1.97894">
        <ele>73.4</ele>
        <time>2024-02-04T08:41:42Z</time>
      </trkpt>
      <trkpt lat="49.09805" lon="1.97901">
        <ele>73.8</ele>
        <time>2024-02-04T08:41:48Z</time>
      </trkpt>
      <trkpt lat="49.09811" lon="1.97905">
        <ele>74.2</ele>
        <time>2024-02-04T08:41:53Z</time>
      </trkpt>
      <trkpt lat="49.09817" lon="1.97911">
        <ele>74.6</ele>
        <time>2024-02-04T08:41:59Z</time>
      </trkpt>
      <trkpt lat="49.09822" lon="1.97917">
        <ele>75</ele>
        <time>2024-02-04T08:42:04Z</time>
      </trkpt>
      <trkpt lat="49.09827" lon="1.97923">
        <ele>75.7</ele>
        <time>2024-02-04T08:42:10Z</time>
      </trkpt>
      <trkpt lat="49.09834" lon="1.97926">
        <ele>76.1</ele>
        <time>2024-02-04T08:42:15Z</time>
      </trkpt>
      <trkpt lat="49.09841" lon="1.97929">
        <ele>76.6</ele>
        <time>2024-02-04T08:42:21Z</time>
      </trkpt>
      <trkpt lat="49.09846" lon="1.97936">
        <ele>77.6</ele>
        <time>2024-02-04T08:42:26Z</time>
      </trkpt>
      <trkpt lat="49.09852" lon="1.97943">
        <ele>78.5</ele>
        <time>2024-02-04T08:42:32Z</time>
      </trkpt>
      <trkpt lat="49.09856" lon="1.97944">
        <ele>78.8</ele>
        <time>2024-02-04T08:42:38Z</time>
      </trkpt>
      <trkpt lat="49.0986" lon="1.97946">
        <ele>79.1</ele>
        <time>2024-02-04T08:42:44Z</time>
      </trkpt>
      <trkpt lat="49.09867" lon="1.97946">
        <ele>79.3</ele>
        <time>2024-02-04T08:42:50Z</time>
      </trkpt>
      <trkpt lat="49.09876" lon="1.97944">
        <ele>79.5</ele>
        <time>2024-02-04T08:42:56Z</time>
      </trkpt>
      <trkpt lat="49.09885" lon="1.97941">
        <ele>79.4</ele>
        <time>2024-02-04T08:43:02Z</time>
      </trkpt>
      <trkpt lat="49.09894" lon="1.97939">
        <ele>79.6</ele>
        <time>2024-02-04T08:43:08Z</time>
      </trkpt>
      <trkpt lat="49.09902" lon="1.97937">
        <ele>79.7</ele>
        <time>2024-02-04T08:43:14Z</time>
      </trkpt>
      <trkpt lat="49.0991" lon="1.97936">
        <ele>79.9</ele>
        <time>2024-02-04T08:43:19Z</time>
      </trkpt>
      <trkpt lat="49.09916" lon="1.97934">
        <ele>79.8</ele>
        <time>2024-02-04T08:43:24Z</time>
      </trkpt>
      <trkpt lat="49.09925" lon="1.97933">
        <ele>79.8</ele>
        <time>2024-02-04T08:43:30Z</time>
      </trkpt>
      <trkpt lat="49.09933" lon="1.97932">
        <ele>79.9</ele>
        <time>2024-02-04T08:43:36Z</time>
      </trkpt>
      <trkpt lat="49.09941" lon="1.97933">
        <ele>80.1</ele>
        <time>2024-02-04T08:43:42Z</time>
      </trkpt>
      <trkpt lat="49.09946" lon="1.97931">
        <ele>80.1</ele>
        <time>2024-02-04T08:43:47Z</time>
      </trkpt>
      <trkpt lat="49.09954" lon="1.97929">
        <ele>80.4</ele>
        <time>2024-02-04T08:43:53Z</time>
      </trkpt>
      <trkpt lat="49.09961" lon="1.97926">
        <ele>80.6</ele>
        <time>2024-02-04T08:43:59Z</time>
      </trkpt>
      <trkpt lat="49.09968" lon="1.97923">
        <ele>81</ele>
        <time>2024-02-04T08:44:04Z</time>
      </trkpt>
      <trkpt lat="49.09975" lon="1.97921">
        <ele>81.2</ele>
        <time>2024-02-04T08:44:09Z</time>
      </trkpt>
      <trkpt lat="49.09981" lon="1.97919">
        <ele>81.1</ele>
        <time>2024-02-04T08:44:14Z</time>
      </trkpt>
      <trkpt lat="49.09988" lon="1.97914">
        <ele>80.7</ele>
        <time>2024-02-04T08:44:20Z</time>
      </trkpt>
      <trkpt lat="49.09996" lon="1.97912">
        <ele>80.4</ele>
        <time>2024-02-04T08:44:26Z</time>
      </trkpt>
      <trkpt lat="49.10001" lon="1.97908">
        <ele>80.2</ele>
        <time>2024-02-04T08:44:31Z</time>
      </trkpt>
      <trkpt lat="49.1001" lon="1.97904">
        <ele>80.5</ele>
        <time>2024-02-04T08:44:37Z</time>
      </trkpt>
      <trkpt lat="49.10018" lon="1.979">
        <ele>80.9</ele>
        <time>2024-02-04T08:44:43Z</time>
      </trkpt>
      <trkpt lat="49.10024" lon="1.97897">
        <ele>81.2</ele>
        <time>2024-02-04T08:44:48Z</time>
      </trkpt>
      <trkpt lat="49.1003" lon="1.97895">
        <ele>81.5</ele>
        <time>2024-02-04T08:44:54Z</time>
      </trkpt>
      <trkpt lat="49.10038" lon="1.97891">
        <ele>81.8</ele>
        <time>2024-02-04T08:45:00Z</time>
      </trkpt>
      <trkpt lat="49.10044" lon="1.97888">
        <ele>82.1</ele>
        <time>2024-02-04T08:45:05Z</time>
      </trkpt>
      <trkpt lat="49.10052" lon="1.97884">
        <ele>82.2</ele>
        <time>2024-02-04T08:45:11Z</time>
      </trkpt>
      <trkpt lat="49.10057" lon="1.97881">
        <ele>82.3</ele>
        <time>2024-02-04T08:45:16Z</time>
      </trkpt>
      <trkpt lat="49.10064" lon="1.97879">
        <ele>82.6</ele>
        <time>2024-02-04T08:45:21Z</time>
      </trkpt>
      <trkpt lat="49.10072" lon="1.97875">
        <ele>82.8</ele>
        <time>2024-02-04T08:45:27Z</time>
      </trkpt>
      <trkpt lat="49.10083" lon="1.97872">
        <ele>83.1</ele>
        <time>2024-02-04T08:45:33Z</time>
      </trkpt>
      <trkpt lat="49.10088" lon="1.97869">
        <ele>83.1</ele>
        <time>2024-02-04T08:45:38Z</time>
      </trkpt>
      <trkpt lat="49.10096" lon="1.97865">
        <ele>83.2</ele>
        <time>2024-02-04T08:45:44Z</time>
      </trkpt>
      <trkpt lat="49.10103" lon="1.97862">
        <ele>83.5</ele>
        <time>2024-02-04T08:45:50Z</time>
      </trkpt>
      <trkpt lat="49.10112" lon="1.97859">
        <ele>83.9</ele>
        <time>2024-02-04T08:45:56Z</time>
      </trkpt>
      <trkpt lat="49.10119" lon="1.97858">
        <ele>84.1</ele>
        <time>2024-02-04T08:46:02Z</time>
      </trkpt>
      <trkpt lat="49.10127" lon="1.97858">
        <ele>84.4</ele>
        <time>2024-02-04T08:46:08Z</time>
      </trkpt>
      <trkpt lat="49.10134" lon="1.9786">
        <ele>84.8</ele>
        <time>2024-02-04T08:46:13Z</time>
      </trkpt>
      <trkpt lat="49.10141" lon="1.97862">
        <ele>85.2</ele>
        <time>2024-02-04T08:46:18Z</time>
      </trkpt>
      <trkpt lat="49.10147" lon="1.97863">
        <ele>85.6</ele>
        <time>2024-02-04T08:46:23Z</time>
      </trkpt>
      <trkpt lat="49.10153" lon="1.97864">
        <ele>86.1</ele>
        <time>2024-02-04T08:46:29Z</time>
      </trkpt>
      <trkpt lat="49.10162" lon="1.97867">
        <ele>86.8</ele>
        <time>2024-02-04T08:46:35Z</time>
      </trkpt>
      <trkpt lat="49.10167" lon="1.9787">
        <ele>87.3</ele>
        <time>2024-02-04T08:46:40Z</time>
      </trkpt>
      <trkpt lat="49.10175" lon="1.97875">
        <ele>87.6</ele>
        <time>2024-02-04T08:46:46Z</time>
      </trkpt>
      <trkpt lat="49.10181" lon="1.97878">
        <ele>87.9</ele>
        <time>2024-02-04T08:46:51Z</time>
      </trkpt>
      <trkpt lat="49.10188" lon="1.97882">
        <ele>88.3</ele>
        <time>2024-02-04T08:46:57Z</time>
      </trkpt>
      <trkpt lat="49.10196" lon="1.97888">
        <ele>88.9</ele>
        <time>2024-02-04T08:47:03Z</time>
      </trkpt>
      <trkpt lat="49.10202" lon="1.97891">
        <ele>89</ele>
        <time>2024-02-04T08:47:08Z</time>
      </trkpt>
      <trkpt lat="49.10207" lon="1.97896">
        <ele>89.1</ele>
        <time>2024-02-04T08:47:13Z</time>
      </trkpt>
      <trkpt lat="49.10214" lon="1.97901">
        <ele>89.3</ele>
        <time>2024-02-04T08:47:19Z</time>
      </trkpt>
      <trkpt lat="49.1022" lon="1.97905">
        <ele>89.5</ele>
        <time>2024-02-04T08:47:24Z</time>
      </trkpt>
      <trkpt lat="49.10227" lon="1.97909">
        <ele>89.7</ele>
        <time>2024-02-04T08:47:29Z</time>
      </trkpt>
      <trkpt lat="49.10232" lon="1.97913">
        <ele>89.9</ele>
        <time>2024-02-04T08:47:34Z</time>
      </trkpt>
      <trkpt lat="49.10238" lon="1.97916">
        <ele>90</ele>
        <time>2024-02-04T08:47:39Z</time>
      </trkpt>
      <trkpt lat="49.10245" lon="1.97923">
        <ele>90.4</ele>
        <time>2024-02-04T08:47:45Z</time>
      </trkpt>
      <trkpt lat="49.10249" lon="1.97931">
        <ele>91</ele>
        <time>2024-02-04T08:47:53Z</time>
      </trkpt>
      <trkpt lat="49.1025" lon="1.9793">
        <ele>91</ele>
        <time>2024-02-04T08:47:58Z</time>
      </trkpt>
      <trkpt lat="49.10257" lon="1.97932">
        <ele>91.2</ele>
        <time>2024-02-04T08:48:04Z</time>
      </trkpt>
      <trkpt lat="49.10264" lon="1.97937">
        <ele>91.6</ele>
        <time>2024-02-04T08:48:10Z</time>
      </trkpt>
      <trkpt lat="49.10271" lon="1.97941">
        <ele>91.8</ele>
        <time>2024-02-04T08:48:16Z</time>
      </trkpt>
      <trkpt lat="49.10278" lon="1.97945">
        <ele>92.1</ele>
        <time>2024-02-04T08:48:22Z</time>
      </trkpt>
      <trkpt lat="49.10286" lon="1.97952">
        <ele>92.5</ele>
        <time>2024-02-04T08:48:28Z</time>
      </trkpt>
      <trkpt lat="49.10288" lon="1.97962">
        <ele>93</ele>
        <time>2024-02-04T08:48:34Z</time>
      </trkpt>
      <trkpt lat="49.10294" lon="1.97971">
        <ele>93.3</ele>
        <time>2024-02-04T08:48:40Z</time>
      </trkpt>
      <trkpt lat="49.10298" lon="1.97976">
        <ele>93.4</ele>
        <time>2024-02-04T08:48:45Z</time>
      </trkpt>
      <trkpt lat="49.10303" lon="1.97985">
        <ele>93.6</ele>
        <time>2024-02-04T08:48:51Z</time>
      </trkpt>
      <trkpt lat="49.10304" lon="1.97986">
        <ele>93.6</ele>
        <time>2024-02-04T08:48:57Z</time>
      </trkpt>
      <trkpt lat="49.10306" lon="1.97993">
        <ele>93.7</ele>
        <time>2024-02-04T08:49:03Z</time>
      </trkpt>
      <trkpt lat="49.10308" lon="1.98002">
        <ele>94</ele>
        <time>2024-02-04T08:49:09Z</time>
      </trkpt>
      <trkpt lat="49.10308" lon="1.98011">
        <ele>94.3</ele>
        <time>2024-02-04T08:49:15Z</time>
      </trkpt>
      <trkpt lat="49.1031" lon="1.9802">
        <ele>94.6</ele>
        <time>2024-02-04T08:49:21Z</time>
      </trkpt>
      <trkpt lat="49.10313" lon="1.98031">
        <ele>94.9</ele>
        <time>2024-02-04T08:49:27Z</time>
      </trkpt>
      <trkpt lat="49.10316" lon="1.9804">
        <ele>95.1</ele>
        <time>2024-02-04T08:49:33Z</time>
      </trkpt>
      <trkpt lat="49.10319" lon="1.98046">
        <ele>95.2</ele>
        <time>2024-02-04T08:49:38Z</time>
      </trkpt>
      <trkpt lat="49.10322" lon="1.98054">
        <ele>95.3</ele>
        <time>2024-02-04T08:49:43Z</time>
      </trkpt>
      <trkpt lat="49.10326" lon="1.98064">
        <ele>95.5</ele>
        <time>2024-02-04T08:49:49Z</time>
      </trkpt>
      <trkpt lat="49.10328" lon="1.98073">
        <ele>95.7</ele>
        <time>2024-02-04T08:49:54Z</time>
      </trkpt>
      <trkpt lat="49.10328" lon="1.98083">
        <ele>96</ele>
        <time>2024-02-04T08:50:00Z</time>
      </trkpt>
      <trkpt lat="49.1033" lon="1.98087">
        <ele>96.1</ele>
        <time>2024-02-04T08:50:05Z</time>
      </trkpt>
      <trkpt lat="49.10335" lon="1.98096">
        <ele>96.4</ele>
        <time>2024-02-04T08:50:11Z</time>
      </trkpt>
      <trkpt lat="49.10339" lon="1.98103">
        <ele>96.5</ele>
        <time>2024-02-04T08:50:16Z</time>
      </trkpt>
      <trkpt lat="49.10341" lon="1.98109">
        <ele>96.7</ele>
        <time>2024-02-04T08:50:22Z</time>
      </trkpt>
      <trkpt lat="49.10345" lon="1.98117">
        <ele>96.9</ele>
        <time>2024-02-04T08:50:28Z</time>
      </trkpt>
      <trkpt lat="49.10347" lon="1.98125">
        <ele>97.2</ele>
        <time>2024-02-04T08:50:34Z</time>
      </trkpt>
      <trkpt lat="49.10349" lon="1.98133">
        <ele>97.7</ele>
        <time>2024-02-04T08:50:40Z</time>
      </trkpt>
      <trkpt lat="49.10351" lon="1.98143">
        <ele>98.1</ele>
        <time>2024-02-04T08:50:46Z</time>
      </trkpt>
      <trkpt lat="49.10352" lon="1.98153">
        <ele>98.5</ele>
        <time>2024-02-04T08:50:51Z</time>
      </trkpt>
      <trkpt lat="49.10354" lon="1.98162">
        <ele>98.8</ele>
        <time>2024-02-04T08:50:56Z</time>
      </trkpt>
      <trkpt lat="49.10356" lon="1.98173">
        <ele>99.2</ele>
        <time>2024-02-04T08:51:02Z</time>
      </trkpt>
      <trkpt lat="49.10356" lon="1.98185">
        <ele>99.7</ele>
        <time>2024-02-04T08:51:08Z</time>
      </trkpt>
      <trkpt lat="49.10359" lon="1.98196">
        <ele>100</ele>
        <time>2024-02-04T08:51:13Z</time>
      </trkpt>
      <trkpt lat="49.10362" lon="1.98206">
        <ele>100.4</ele>
        <time>2024-02-04T08:51:19Z</time>
      </trkpt>
      <trkpt lat="49.10365" lon="1.98213">
        <ele>100.7</ele>
        <time>2024-02-04T08:51:24Z</time>
      </trkpt>
      <trkpt lat="49.10367" lon="1.98222">
        <ele>101</ele>
        <time>2024-02-04T08:51:30Z</time>
      </trkpt>
      <trkpt lat="49.1037" lon="1.98232">
        <ele>101.4</ele>
        <time>2024-02-04T08:51:36Z</time>
      </trkpt>
      <trkpt lat="49.10371" lon="1.98244">
        <ele>101.8</ele>
        <time>2024-02-04T08:51:42Z</time>
      </trkpt>
      <trkpt lat="49.10372" lon="1.98256">
        <ele>102</ele>
        <time>2024-02-04T08:51:48Z</time>
      </trkpt>
      <trkpt lat="49.10371" lon="1.98267">
        <ele>102</ele>
        <time>2024-02-04T08:51:54Z</time>
      </trkpt>
      <trkpt lat="49.10372" lon="1.98278">
        <ele>102</ele>
        <time>2024-02-04T08:51:59Z</time>
      </trkpt>
      <trkpt lat="49.10372" lon="1.98288">
        <ele>102.4</ele>
        <time>2024-02-04T08:52:05Z</time>
      </trkpt>
      <trkpt lat="49.10375" lon="1.98296">
        <ele>102.6</ele>
        <time>2024-02-04T08:52:11Z</time>
      </trkpt>
      <trkpt lat="49.10378" lon="1.98303">
        <ele>102.9</ele>
        <time>2024-02-04T08:52:16Z</time>
      </trkpt>
      <trkpt lat="49.10379" lon="1.98313">
        <ele>103</ele>
        <time>2024-02-04T08:52:22Z</time>
      </trkpt>
      <trkpt lat="49.10381" lon="1.98322">
        <ele>103</ele>
        <time>2024-02-04T08:52:28Z</time>
      </trkpt>
      <trkpt lat="49.1038" lon="1.98332">
        <ele>103</ele>
        <time>2024-02-04T08:52:33Z</time>
      </trkpt>
      <trkpt lat="49.10381" lon="1.98341">
        <ele>103.2</ele>
        <time>2024-02-04T08:52:38Z</time>
      </trkpt>
      <trkpt lat="49.10383" lon="1.98352">
        <ele>103.5</ele>
        <time>2024-02-04T08:52:44Z</time>
      </trkpt>
      <trkpt lat="49.10384" lon="1.98363">
        <ele>103.8</ele>
        <time>2024-02-04T08:52:50Z</time>
      </trkpt>
      <trkpt lat="49.10386" lon="1.98372">
        <ele>103.9</ele>
        <time>2024-02-04T08:52:55Z</time>
      </trkpt>
      <trkpt lat="49.10388" lon="1.98383">
        <ele>104</ele>
        <time>2024-02-04T08:53:01Z</time>
      </trkpt>
      <trkpt lat="49.1039" lon="1.98393">
        <ele>104</ele>
        <time>2024-02-04T08:53:06Z</time>
      </trkpt>
      <trkpt lat="49.10391" lon="1.98404">
        <ele>104</ele>
        <time>2024-02-04T08:53:12Z</time>
      </trkpt>
      <trkpt lat="49.10393" lon="1.98415">
        <ele>104</ele>
        <time>2024-02-04T08:53:17Z</time>
      </trkpt>
      <trkpt lat="49.10395" lon="1.9842">
        <ele>104</ele>
        <time>2024-02-04T08:53:22Z</time>
      </trkpt>
      <trkpt lat="49.10396" lon="1.98432">
        <ele>104</ele>
        <time>2024-02-04T08:53:27Z</time>
      </trkpt>
      <trkpt lat="49.10398" lon="1.98442">
        <ele>104</ele>
        <time>2024-02-04T08:53:33Z</time>
      </trkpt>
      <trkpt lat="49.10402" lon="1.98448">
        <ele>104.1</ele>
        <time>2024-02-04T08:53:38Z</time>
      </trkpt>
      <trkpt lat="49.10407" lon="1.98455">
        <ele>104.4</ele>
        <time>2024-02-04T08:53:44Z</time>
      </trkpt>
      <trkpt lat="49.10412" lon="1.98463">
        <ele>104.7</ele>
        <time>2024-02-04T08:53:50Z</time>
      </trkpt>
      <trkpt lat="49.10416" lon="1.98472">
        <ele>105</ele>
        <time>2024-02-04T08:53:55Z</time>
      </trkpt>
      <trkpt lat="49.10419" lon="1.98478">
        <ele>105</ele>
        <time>2024-02-04T08:54:00Z</time>
      </trkpt>
      <trkpt lat="49.10425" lon="1.98486">
        <ele>105</ele>
        <time>2024-02-04T08:54:06Z</time>
      </trkpt>
      <trkpt lat="49.10432" lon="1.98494">
        <ele>105</ele>
        <time>2024-02-04T08:54:12Z</time>
      </trkpt>
      <trkpt lat="49.10436" lon="1.98499">
        <ele>105</ele>
        <time>2024-02-04T08:54:17Z</time>
      </trkpt>
      <trkpt lat="49.10443" lon="1.98506">
        <ele>105</ele>
        <time>2024-02-04T08:54:23Z</time>
      </trkpt>
      <trkpt lat="49.10448" lon="1.98511">
        <ele>105</ele>
        <time>2024-02-04T08:54:28Z</time>
      </trkpt>
      <trkpt lat="49.10453" lon="1.98517">
        <ele>105</ele>
        <time>2024-02-04T08:54:33Z</time>
      </trkpt>
      <trkpt lat="49.10459" lon="1.98523">
        <ele>105</ele>
        <time>2024-02-04T08:54:39Z</time>
      </trkpt>
      <trkpt lat="49.10465" lon="1.9853">
        <ele>105</ele>
        <time>2024-02-04T08:54:45Z</time>
      </trkpt>
      <trkpt lat="49.1047" lon="1.98536">
        <ele>105</ele>
        <time>2024-02-04T08:54:50Z</time>
      </trkpt>
      <trkpt lat="49.10477" lon="1.98542">
        <ele>105.2</ele>
        <time>2024-02-04T08:54:56Z</time>
      </trkpt>
      <trkpt lat="49.10483" lon="1.98551">
        <ele>105.4</ele>
        <time>2024-02-04T08:55:02Z</time>
      </trkpt>
      <trkpt lat="49.10489" lon="1.98558">
        <ele>105.6</ele>
        <time>2024-02-04T08:55:08Z</time>
      </trkpt>
      <trkpt lat="49.10495" lon="1.98565">
        <ele>105.9</ele>
        <time>2024-02-04T08:55:14Z</time>
      </trkpt>
      <trkpt lat="49.10501" lon="1.9857">
        <ele>106</ele>
        <time>2024-02-04T08:55:20Z</time>
      </trkpt>
      <trkpt lat="49.10508" lon="1.98579">
        <ele>106</ele>
        <time>2024-02-04T08:55:26Z</time>
      </trkpt>
      <trkpt lat="49.10511" lon="1.98584">
        <ele>106</ele>
        <time>2024-02-04T08:55:31Z</time>
      </trkpt>
      <trkpt lat="49.10517" lon="1.9859">
        <ele>106</ele>
        <time>2024-02-04T08:55:36Z</time>
      </trkpt>
      <trkpt lat="49.10523" lon="1.98597">
        <ele>106</ele>
        <time>2024-02-04T08:55:42Z</time>
      </trkpt>
      <trkpt lat="49.10529" lon="1.98601">
        <ele>106</ele>
        <time>2024-02-04T08:55:48Z</time>
      </trkpt>
      <trkpt lat="49.10534" lon="1.98608">
        <ele>106</ele>
        <time>2024-02-04T08:55:53Z</time>
      </trkpt>
      <trkpt lat="49.10541" lon="1.98615">
        <ele>106</ele>
        <time>2024-02-04T08:55:59Z</time>
      </trkpt>
      <trkpt lat="49.10548" lon="1.98622">
        <ele>106</ele>
        <time>2024-02-04T08:56:05Z</time>
      </trkpt>
      <trkpt lat="49.10553" lon="1.98627">
        <ele>106</ele>
        <time>2024-02-04T08:56:10Z</time>
      </trkpt>
      <trkpt lat="49.1056" lon="1.98634">
        <ele>106.1</ele>
        <time>2024-02-04T08:56:16Z</time>
      </trkpt>
      <trkpt lat="49.10565" lon="1.9864">
        <ele>106.4</ele>
        <time>2024-02-04T08:56:21Z</time>
      </trkpt>
      <trkpt lat="49.10572" lon="1.98648">
        <ele>106.6</ele>
        <time>2024-02-04T08:56:27Z</time>
      </trkpt>
      <trkpt lat="49.10579" lon="1.98653">
        <ele>106.8</ele>
        <time>2024-02-04T08:56:33Z</time>
      </trkpt>
      <trkpt lat="49.10586" lon="1.98663">
        <ele>107</ele>
        <time>2024-02-04T08:56:39Z</time>
      </trkpt>
      <trkpt lat="49.10592" lon="1.98668">
        <ele>107</ele>
        <time>2024-02-04T08:56:45Z</time>
      </trkpt>
      <trkpt lat="49.10597" lon="1.98675">
        <ele>107</ele>
        <time>2024-02-04T08:56:50Z</time>
      </trkpt>
      <trkpt lat="49.10603" lon="1.98682">
        <ele>107</ele>
        <time>2024-02-04T08:56:56Z</time>
      </trkpt>
      <trkpt lat="49.10608" lon="1.98688">
        <ele>107</ele>
        <time>2024-02-04T08:57:01Z</time>
      </trkpt>
      <trkpt lat="49.10615" lon="1.98695">
        <ele>107</ele>
        <time>2024-02-04T08:57:07Z</time>
      </trkpt>
      <trkpt lat="49.10621" lon="1.987">
        <ele>107</ele>
        <time>2024-02-04T08:57:12Z</time>
      </trkpt>
      <trkpt lat="49.10627" lon="1.98706">
        <ele>107</ele>
        <time>2024-02-04T08:57:18Z</time>
      </trkpt>
      <trkpt lat="49.10634" lon="1.98713">
        <ele>107</ele>
        <time>2024-02-04T08:57:24Z</time>
      </trkpt>
      <trkpt lat="49.10638" lon="1.98719">
        <ele>107</ele>
        <time>2024-02-04T08:57:29Z</time>
      </trkpt>
      <trkpt lat="49.10645" lon="1.98727">
        <ele>107.2</ele>
        <time>2024-02-04T08:57:35Z</time>
      </trkpt>
      <trkpt lat="49.10649" lon="1.98734">
        <ele>107.4</ele>
        <time>2024-02-04T08:57:40Z</time>
      </trkpt>
      <trkpt lat="49.10655" lon="1.9874">
        <ele>107.6</ele>
        <time>2024-02-04T08:57:45Z</time>
      </trkpt>
      <trkpt lat="49.10661" lon="1.98747">
        <ele>107.8</ele>
        <time>2024-02-04T08:57:51Z</time>
      </trkpt>
      <trkpt lat="49.10669" lon="1.98755">
        <ele>108</ele>
        <time>2024-02-04T08:57:57Z</time>
      </trkpt>
      <trkpt lat="49.10673" lon="1.98761">
        <ele>108</ele>
        <time>2024-02-04T08:58:02Z</time>
      </trkpt>
      <trkpt lat="49.10679" lon="1.98771">
        <ele>108</ele>
        <time>2024-02-04T08:58:08Z</time>
      </trkpt>
      <trkpt lat="49.10685" lon="1.98777">
        <ele>108</ele>
        <time>2024-02-04T08:58:14Z</time>
      </trkpt>
      <trkpt lat="49.10692" lon="1.98782">
        <ele>108</ele>
        <time>2024-02-04T08:58:19Z</time>
      </trkpt>
      <trkpt lat="49.10699" lon="1.9879">
        <ele>108.2</ele>
        <time>2024-02-04T08:58:25Z</time>
      </trkpt>
      <trkpt lat="49.10704" lon="1.98792">
        <ele>108.4</ele>
        <time>2024-02-04T08:58:30Z</time>
      </trkpt>
      <trkpt lat="49.10712" lon="1.98798">
        <ele>108.6</ele>
        <time>2024-02-04T08:58:36Z</time>
      </trkpt>
      <trkpt lat="49.1072" lon="1.98799">
        <ele>108.9</ele>
        <time>2024-02-04T08:58:42Z</time>
      </trkpt>
      <trkpt lat="49.10728" lon="1.98799">
        <ele>109</ele>
        <time>2024-02-04T08:58:47Z</time>
      </trkpt>
      <trkpt lat="49.10735" lon="1.98799">
        <ele>108.9</ele>
        <time>2024-02-04T08:58:52Z</time>
      </trkpt>
      <trkpt lat="49.10742" lon="1.988">
        <ele>108.9</ele>
        <time>2024-02-04T08:58:58Z</time>
      </trkpt>
      <trkpt lat="49.1075" lon="1.98799">
        <ele>108.8</ele>
        <time>2024-02-04T08:59:04Z</time>
      </trkpt>
      <trkpt lat="49.10758" lon="1.98796">
        <ele>108.5</ele>
        <time>2024-02-04T08:59:10Z</time>
      </trkpt>
      <trkpt lat="49.10766" lon="1.98792">
        <ele>108.2</ele>
        <time>2024-02-04T08:59:16Z</time>
      </trkpt>
      <trkpt lat="49.10771" lon="1.98787">
        <ele>108.1</ele>
        <time>2024-02-04T08:59:22Z</time>
      </trkpt>
      <trkpt lat="49.10777" lon="1.98778">
        <ele>108</ele>
        <time>2024-02-04T08:59:27Z</time>
      </trkpt>
      <trkpt lat="49.10784" lon="1.98772">
        <ele>107.6</ele>
        <time>2024-02-04T08:59:33Z</time>
      </trkpt>
      <trkpt lat="49.10791" lon="1.98764">
        <ele>107</ele>
        <time>2024-02-04T08:59:39Z</time>
      </trkpt>
      <trkpt lat="49.10799" lon="1.98759">
        <ele>106.6</ele>
        <time>2024-02-04T08:59:45Z</time>
      </trkpt>
      <trkpt lat="49.10804" lon="1.98753">
        <ele>106.2</ele>
        <time>2024-02-04T08:59:50Z</time>
      </trkpt>
      <trkpt lat="49.10811" lon="1.98745">
        <ele>105.6</ele>
        <time>2024-02-04T08:59:56Z</time>
      </trkpt>
      <trkpt lat="49.10818" lon="1.98736">
        <ele>105</ele>
        <time>2024-02-04T09:00:02Z</time>
      </trkpt>
      <trkpt lat="49.10824" lon="1.98728">
        <ele>104.5</ele>
        <time>2024-02-04T09:00:07Z</time>
      </trkpt>
      <trkpt lat="49.10831" lon="1.9872">
        <ele>104.1</ele>
        <time>2024-02-04T09:00:13Z</time>
      </trkpt>
      <trkpt lat="49.10839" lon="1.98714">
        <ele>104.1</ele>
        <time>2024-02-04T09:00:19Z</time>
      </trkpt>
      <trkpt lat="49.10844" lon="1.98707">
        <ele>104.2</ele>
        <time>2024-02-04T09:00:25Z</time>
      </trkpt>
      <trkpt lat="49.10851" lon="1.987">
        <ele>104.1</ele>
        <time>2024-02-04T09:00:31Z</time>
      </trkpt>
      <trkpt lat="49.10857" lon="1.98691">
        <ele>103.9</ele>
        <time>2024-02-04T09:00:37Z</time>
      </trkpt>
      <trkpt lat="49.10863" lon="1.98683">
        <ele>103.6</ele>
        <time>2024-02-04T09:00:43Z</time>
      </trkpt>
      <trkpt lat="49.10871" lon="1.98675">
        <ele>103.3</ele>
        <time>2024-02-04T09:00:49Z</time>
      </trkpt>
      <trkpt lat="49.10875" lon="1.9867">
        <ele>103.1</ele>
        <time>2024-02-04T09:00:54Z</time>
      </trkpt>
      <trkpt lat="49.10878" lon="1.98665">
        <ele>103</ele>
        <time>2024-02-04T09:01:00Z</time>
      </trkpt>
      <trkpt lat="49.10882" lon="1.98657">
        <ele>102.7</ele>
        <time>2024-02-04T09:01:06Z</time>
      </trkpt>
      <trkpt lat="49.10889" lon="1.98652">
        <ele>102.5</ele>
        <time>2024-02-04T09:01:11Z</time>
      </trkpt>
      <trkpt lat="49.10895" lon="1.98645">
        <ele>102.2</ele>
        <time>2024-02-04T09:01:17Z</time>
      </trkpt>
      <trkpt lat="49.10903" lon="1.98638">
        <ele>102</ele>
        <time>2024-02-04T09:01:23Z</time>
      </trkpt>
      <trkpt lat="49.1091" lon="1.9863">
        <ele>101.5</ele>
        <time>2024-02-04T09:01:29Z</time>
      </trkpt>
      <trkpt lat="49.1092" lon="1.98621">
        <ele>100.8</ele>
        <time>2024-02-04T09:01:35Z</time>
      </trkpt>
      <trkpt lat="49.10928" lon="1.98615">
        <ele>100.7</ele>
        <time>2024-02-04T09:01:41Z</time>
      </trkpt>
      <trkpt lat="49.10933" lon="1.98609">
        <ele>100.4</ele>
        <time>2024-02-04T09:01:46Z</time>
      </trkpt>
      <trkpt lat="49.10938" lon="1.98601">
        <ele>99.9</ele>
        <time>2024-02-04T09:01:52Z</time>
      </trkpt>
      <trkpt lat="49.10943" lon="1.98591">
        <ele>98.9</ele>
        <time>2024-02-04T09:01:58Z</time>
      </trkpt>
      <trkpt lat="49.10945" lon="1.98579">
        <ele>98</ele>
        <time>2024-02-04T09:02:03Z</time>
      </trkpt>
      <trkpt lat="49.10948" lon="1.98567">
        <ele>98.2</ele>
        <time>2024-02-04T09:02:08Z</time>
      </trkpt>
      <trkpt lat="49.10952" lon="1.98557">
        <ele>98.3</ele>
        <time>2024-02-04T09:02:13Z</time>
      </trkpt>
      <trkpt lat="49.10954" lon="1.98544">
        <ele>97.9</ele>
        <time>2024-02-04T09:02:19Z</time>
      </trkpt>
      <trkpt lat="49.10956" lon="1.98532">
        <ele>97.6</ele>
        <time>2024-02-04T09:02:25Z</time>
      </trkpt>
      <trkpt lat="49.10957" lon="1.98522">
        <ele>97.3</ele>
        <time>2024-02-04T09:02:30Z</time>
      </trkpt>
      <trkpt lat="49.1096" lon="1.98513">
        <ele>97</ele>
        <time>2024-02-04T09:02:36Z</time>
      </trkpt>
      <trkpt lat="49.10963" lon="1.98499">
        <ele>96.7</ele>
        <time>2024-02-04T09:02:42Z</time>
      </trkpt>
      <trkpt lat="49.10966" lon="1.98485">
        <ele>96.2</ele>
        <time>2024-02-04T09:02:48Z</time>
      </trkpt>
      <trkpt lat="49.10967" lon="1.98477">
        <ele>96</ele>
        <time>2024-02-04T09:02:53Z</time>
      </trkpt>
      <trkpt lat="49.10968" lon="1.98464">
        <ele>95.8</ele>
        <time>2024-02-04T09:02:59Z</time>
      </trkpt>
      <trkpt lat="49.1097" lon="1.98451">
        <ele>95.9</ele>
        <time>2024-02-04T09:03:05Z</time>
      </trkpt>
      <trkpt lat="49.10973" lon="1.98439">
        <ele>96</ele>
        <time>2024-02-04T09:03:11Z</time>
      </trkpt>
      <trkpt lat="49.10975" lon="1.98428">
        <ele>96</ele>
        <time>2024-02-04T09:03:16Z</time>
      </trkpt>
      <trkpt lat="49.10977" lon="1.98414">
        <ele>96</ele>
        <time>2024-02-04T09:03:22Z</time>
      </trkpt>
      <trkpt lat="49.10978" lon="1.98405">
        <ele>96.1</ele>
        <time>2024-02-04T09:03:27Z</time>
      </trkpt>
      <trkpt lat="49.10979" lon="1.98394">
        <ele>96.2</ele>
        <time>2024-02-04T09:03:32Z</time>
      </trkpt>
      <trkpt lat="49.1098" lon="1.98381">
        <ele>96.3</ele>
        <time>2024-02-04T09:03:38Z</time>
      </trkpt>
      <trkpt lat="49.10981" lon="1.98373">
        <ele>96.3</ele>
        <time>2024-02-04T09:03:43Z</time>
      </trkpt>
      <trkpt lat="49.10983" lon="1.98362">
        <ele>96.4</ele>
        <time>2024-02-04T09:03:48Z</time>
      </trkpt>
      <trkpt lat="49.10984" lon="1.98353">
        <ele>96.7</ele>
        <time>2024-02-04T09:03:53Z</time>
      </trkpt>
      <trkpt lat="49.10986" lon="1.9834">
        <ele>97.2</ele>
        <time>2024-02-04T09:03:59Z</time>
      </trkpt>
      <trkpt lat="49.10987" lon="1.9833">
        <ele>97.5</ele>
        <time>2024-02-04T09:04:05Z</time>
      </trkpt>
      <trkpt lat="49.10988" lon="1.98316">
        <ele>97.6</ele>
        <time>2024-02-04T09:04:11Z</time>
      </trkpt>
      <trkpt lat="49.1099" lon="1.98306">
        <ele>97.7</ele>
        <time>2024-02-04T09:04:16Z</time>
      </trkpt>
      <trkpt lat="49.10992" lon="1.98294">
        <ele>97.7</ele>
        <time>2024-02-04T09:04:22Z</time>
      </trkpt>
      <trkpt lat="49.10993" lon="1.98282">
        <ele>97.7</ele>
        <time>2024-02-04T09:04:27Z</time>
      </trkpt>
      <trkpt lat="49.10994" lon="1.98275">
        <ele>97.8</ele>
        <time>2024-02-04T09:04:32Z</time>
      </trkpt>
      <trkpt lat="49.10997" lon="1.98263">
        <ele>97.9</ele>
        <time>2024-02-04T09:04:38Z</time>
      </trkpt>
      <trkpt lat="49.10998" lon="1.98249">
        <ele>97.9</ele>
        <time>2024-02-04T09:04:44Z</time>
      </trkpt>
      <trkpt lat="49.11002" lon="1.98234">
        <ele>98</ele>
        <time>2024-02-04T09:04:50Z</time>
      </trkpt>
      <trkpt lat="49.11004" lon="1.98221">
        <ele>98</ele>
        <time>2024-02-04T09:04:56Z</time>
      </trkpt>
      <trkpt lat="49.11005" lon="1.98212">
        <ele>98</ele>
        <time>2024-02-04T09:05:01Z</time>
      </trkpt>
      <trkpt lat="49.11007" lon="1.98201">
        <ele>98</ele>
        <time>2024-02-04T09:05:06Z</time>
      </trkpt>
      <trkpt lat="49.11009" lon="1.98186">
        <ele>97.9</ele>
        <time>2024-02-04T09:05:12Z</time>
      </trkpt>
      <trkpt lat="49.1101" lon="1.98175">
        <ele>97.7</ele>
        <time>2024-02-04T09:05:18Z</time>
      </trkpt>
      <trkpt lat="49.11012" lon="1.98164">
        <ele>97.5</ele>
        <time>2024-02-04T09:05:24Z</time>
      </trkpt>
      <trkpt lat="49.11014" lon="1.98153">
        <ele>97.3</ele>
        <time>2024-02-04T09:05:29Z</time>
      </trkpt>
      <trkpt lat="49.11015" lon="1.98144">
        <ele>97.1</ele>
        <time>2024-02-04T09:05:34Z</time>
      </trkpt>
      <trkpt lat="49.11017" lon="1.98133">
        <ele>97</ele>
        <time>2024-02-04T09:05:40Z</time>
      </trkpt>
      <trkpt lat="49.11019" lon="1.9812">
        <ele>97</ele>
        <time>2024-02-04T09:05:46Z</time>
      </trkpt>
      <trkpt lat="49.11022" lon="1.98113">
        <ele>97</ele>
        <time>2024-02-04T09:05:51Z</time>
      </trkpt>
      <trkpt lat="49.11024" lon="1.98102">
        <ele>96.7</ele>
        <time>2024-02-04T09:05:57Z</time>
      </trkpt>
      <trkpt lat="49.11027" lon="1.98091">
        <ele>96.3</ele>
        <time>2024-02-04T09:06:02Z</time>
      </trkpt>
      <trkpt lat="49.11031" lon="1.98077">
        <ele>96</ele>
        <time>2024-02-04T09:06:08Z</time>
      </trkpt>
      <trkpt lat="49.11035" lon="1.98064">
        <ele>95.8</ele>
        <time>2024-02-04T09:06:14Z</time>
      </trkpt>
      <trkpt lat="49.11037" lon="1.98057">
        <ele>95.7</ele>
        <time>2024-02-04T09:06:19Z</time>
      </trkpt>
      <trkpt lat="49.1104" lon="1.98047">
        <ele>95.4</ele>
        <time>2024-02-04T09:06:25Z</time>
      </trkpt>
      <trkpt lat="49.11045" lon="1.98035">
        <ele>95.1</ele>
        <time>2024-02-04T09:06:30Z</time>
      </trkpt>
      <trkpt lat="49.11048" lon="1.98023">
        <ele>94.9</ele>
        <time>2024-02-04T09:06:36Z</time>
      </trkpt>
      <trkpt lat="49.11051" lon="1.98014">
        <ele>94.6</ele>
        <time>2024-02-04T09:06:42Z</time>
      </trkpt>
      <trkpt lat="49.11053" lon="1.98004">
        <ele>94.2</ele>
        <time>2024-02-04T09:06:48Z</time>
      </trkpt>
      <trkpt lat="49.11056" lon="1.97993">
        <ele>93.7</ele>
        <time>2024-02-04T09:06:53Z</time>
      </trkpt>
      <trkpt lat="49.11059" lon="1.97979">
        <ele>93.1</ele>
        <time>2024-02-04T09:06:59Z</time>
      </trkpt>
      <trkpt lat="49.11061" lon="1.97967">
        <ele>92.8</ele>
        <time>2024-02-04T09:07:05Z</time>
      </trkpt>
      <trkpt lat="49.11063" lon="1.97955">
        <ele>92.6</ele>
        <time>2024-02-04T09:07:11Z</time>
      </trkpt>
      <trkpt lat="49.11064" lon="1.97946">
        <ele>92.4</ele>
        <time>2024-02-04T09:07:16Z</time>
      </trkpt>
      <trkpt lat="49.11065" lon="1.97932">
        <ele>92</ele>
        <time>2024-02-04T09:07:22Z</time>
      </trkpt>
      <trkpt lat="49.11066" lon="1.97919">
        <ele>91.7</ele>
        <time>2024-02-04T09:07:27Z</time>
      </trkpt>
      <trkpt lat="49.11067" lon="1.97905">
        <ele>91.2</ele>
        <time>2024-02-04T09:07:33Z</time>
      </trkpt>
      <trkpt lat="49.11068" lon="1.97893">
        <ele>90.7</ele>
        <time>2024-02-04T09:07:39Z</time>
      </trkpt>
      <trkpt lat="49.11068" lon="1.97884">
        <ele>90.4</ele>
        <time>2024-02-04T09:07:44Z</time>
      </trkpt>
      <trkpt lat="49.11068" lon="1.97871">
        <ele>89.9</ele>
        <time>2024-02-04T09:07:50Z</time>
      </trkpt>
      <trkpt lat="49.11068" lon="1.97856">
        <ele>89.5</ele>
        <time>2024-02-04T09:07:56Z</time>
      </trkpt>
      <trkpt lat="49.11067" lon="1.97847">
        <ele>89.3</ele>
        <time>2024-02-04T09:08:01Z</time>
      </trkpt>
      <trkpt lat="49.11068" lon="1.97836">
        <ele>89.1</ele>
        <time>2024-02-04T09:08:07Z</time>
      </trkpt>
      <trkpt lat="49.11067" lon="1.97825">
        <ele>89</ele>
        <time>2024-02-04T09:08:12Z</time>
      </trkpt>
      <trkpt lat="49.11067" lon="1.97812">
        <ele>89</ele>
        <time>2024-02-04T09:08:17Z</time>
      </trkpt>
      <trkpt lat="49.11067" lon="1.97798">
        <ele>88.8</ele>
        <time>2024-02-04T09:08:23Z</time>
      </trkpt>
      <trkpt lat="49.11067" lon="1.97789">
        <ele>88.6</ele>
        <time>2024-02-04T09:08:28Z</time>
      </trkpt>
      <trkpt lat="49.11068" lon="1.97778">
        <ele>88.5</ele>
        <time>2024-02-04T09:08:34Z</time>
      </trkpt>
      <trkpt lat="49.1107" lon="1.97769">
        <ele>88.4</ele>
        <time>2024-02-04T09:08:39Z</time>
      </trkpt>
      <trkpt lat="49.11078" lon="1.97763">
        <ele>88.4</ele>
        <time>2024-02-04T09:08:45Z</time>
      </trkpt>
      <trkpt lat="49.11084" lon="1.97767">
        <ele>88.7</ele>
        <time>2024-02-04T09:08:51Z</time>
      </trkpt>
      <trkpt lat="49.1109" lon="1.97777">
        <ele>89.2</ele>
        <time>2024-02-04T09:08:57Z</time>
      </trkpt>
      <trkpt lat="49.11094" lon="1.97784">
        <ele>89.4</ele>
        <time>2024-02-04T09:09:02Z</time>
      </trkpt>
      <trkpt lat="49.11099" lon="1.97791">
        <ele>89.6</ele>
        <time>2024-02-04T09:09:07Z</time>
      </trkpt>
      <trkpt lat="49.11103" lon="1.97797">
        <ele>89.7</ele>
        <time>2024-02-04T09:09:12Z</time>
      </trkpt>
      <trkpt lat="49.11108" lon="1.97805">
        <ele>89.9</ele>
        <time>2024-02-04T09:09:17Z</time>
      </trkpt>
      <trkpt lat="49.11115" lon="1.97813">
        <ele>90.2</ele>
        <time>2024-02-04T09:09:23Z</time>
      </trkpt>
      <trkpt lat="49.1112" lon="1.97819">
        <ele>90.3</ele>
        <time>2024-02-04T09:09:28Z</time>
      </trkpt>
      <trkpt lat="49.11126" lon="1.97826">
        <ele>90.5</ele>
        <time>2024-02-04T09:09:33Z</time>
      </trkpt>
      <trkpt lat="49.11132" lon="1.97834">
        <ele>90.7</ele>
        <time>2024-02-04T09:09:39Z</time>
      </trkpt>
      <trkpt lat="49.1114" lon="1.9784">
        <ele>91.1</ele>
        <time>2024-02-04T09:09:45Z</time>
      </trkpt>
      <trkpt lat="49.11147" lon="1.97847">
        <ele>91.6</ele>
        <time>2024-02-04T09:09:51Z</time>
      </trkpt>
      <trkpt lat="49.11153" lon="1.97854">
        <ele>92</ele>
        <time>2024-02-04T09:09:57Z</time>
      </trkpt>
      <trkpt lat="49.11158" lon="1.97864">
        <ele>92.4</ele>
        <time>2024-02-04T09:10:03Z</time>
      </trkpt>
      <trkpt lat="49.11163" lon="1.97873">
        <ele>92.7</ele>
        <time>2024-02-04T09:10:09Z</time>
      </trkpt>
      <trkpt lat="49.11169" lon="1.9788">
        <ele>93.1</ele>
        <time>2024-02-04T09:10:14Z</time>
      </trkpt>
      <trkpt lat="49.11174" lon="1.97887">
        <ele>93.3</ele>
        <time>2024-02-04T09:10:20Z</time>
      </trkpt>
      <trkpt lat="49.11179" lon="1.97898">
        <ele>93.3</ele>
        <time>2024-02-04T09:10:26Z</time>
      </trkpt>
      <trkpt lat="49.11183" lon="1.97904">
        <ele>93.4</ele>
        <time>2024-02-04T09:10:31Z</time>
      </trkpt>
      <trkpt lat="49.1119" lon="1.97912">
        <ele>93.7</ele>
        <time>2024-02-04T09:10:37Z</time>
      </trkpt>
      <trkpt lat="49.11196" lon="1.97921">
        <ele>93.9</ele>
        <time>2024-02-04T09:10:43Z</time>
      </trkpt>
      <trkpt lat="49.11202" lon="1.97927">
        <ele>94</ele>
        <time>2024-02-04T09:10:48Z</time>
      </trkpt>
      <trkpt lat="49.11208" lon="1.97935">
        <ele>94.2</ele>
        <time>2024-02-04T09:10:53Z</time>
      </trkpt>
      <trkpt lat="49.11214" lon="1.97944">
        <ele>94.4</ele>
        <time>2024-02-04T09:10:59Z</time>
      </trkpt>
      <trkpt lat="49.11219" lon="1.97949">
        <ele>94.6</ele>
        <time>2024-02-04T09:11:04Z</time>
      </trkpt>
      <trkpt lat="49.11226" lon="1.9796">
        <ele>94.6</ele>
        <time>2024-02-04T09:11:10Z</time>
      </trkpt>
      <trkpt lat="49.11231" lon="1.97967">
        <ele>94.8</ele>
        <time>2024-02-04T09:11:16Z</time>
      </trkpt>
      <trkpt lat="49.11236" lon="1.97973">
        <ele>95</ele>
        <time>2024-02-04T09:11:21Z</time>
      </trkpt>
      <trkpt lat="49.11243" lon="1.97981">
        <ele>95.2</ele>
        <time>2024-02-04T09:11:26Z</time>
      </trkpt>
      <trkpt lat="49.11248" lon="1.97988">
        <ele>95.3</ele>
        <time>2024-02-04T09:11:32Z</time>
      </trkpt>
      <trkpt lat="49.11255" lon="1.97995">
        <ele>95.4</ele>
        <time>2024-02-04T09:11:38Z</time>
      </trkpt>
      <trkpt lat="49.11262" lon="1.98002">
        <ele>95.4</ele>
        <time>2024-02-04T09:11:43Z</time>
      </trkpt>
      <trkpt lat="49.11266" lon="1.98007">
        <ele>95.5</ele>
        <time>2024-02-04T09:11:48Z</time>
      </trkpt>
      <trkpt lat="49.11273" lon="1.98014">
        <ele>95.7</ele>
        <time>2024-02-04T09:11:54Z</time>
      </trkpt>
      <trkpt lat="49.1128" lon="1.98022">
        <ele>96.1</ele>
        <time>2024-02-04T09:12:00Z</time>
      </trkpt>
      <trkpt lat="49.11285" lon="1.98027">
        <ele>96.3</ele>
        <time>2024-02-04T09:12:05Z</time>
      </trkpt>
      <trkpt lat="49.11292" lon="1.98031">
        <ele>96.4</ele>
        <time>2024-02-04T09:12:10Z</time>
      </trkpt>
      <trkpt lat="49.11297" lon="1.98035">
        <ele>96.4</ele>
        <time>2024-02-04T09:12:15Z</time>
      </trkpt>
      <trkpt lat="49.11305" lon="1.98041">
        <ele>96.5</ele>
        <time>2024-02-04T09:12:21Z</time>
      </trkpt>
      <trkpt lat="49.11313" lon="1.98048">
        <ele>96.6</ele>
        <time>2024-02-04T09:12:27Z</time>
      </trkpt>
      <trkpt lat="49.11319" lon="1.98054">
        <ele>96.5</ele>
        <time>2024-02-04T09:12:32Z</time>
      </trkpt>
      <trkpt lat="49.11328" lon="1.98059">
        <ele>96.7</ele>
        <time>2024-02-04T09:12:38Z</time>
      </trkpt>
      <trkpt lat="49.11332" lon="1.98061">
        <ele>96.8</ele>
        <time>2024-02-04T09:12:43Z</time>
      </trkpt>
      <trkpt lat="49.11339" lon="1.98066">
        <ele>96.9</ele>
        <time>2024-02-04T09:12:49Z</time>
      </trkpt>
      <trkpt lat="49.11345" lon="1.98072">
        <ele>97.1</ele>
        <time>2024-02-04T09:12:54Z</time>
      </trkpt>
      <trkpt lat="49.11352" lon="1.98077">
        <ele>97.4</ele>
        <time>2024-02-04T09:13:00Z</time>
      </trkpt>
      <trkpt lat="49.11358" lon="1.98082">
        <ele>97.8</ele>
        <time>2024-02-04T09:13:06Z</time>
      </trkpt>
      <trkpt lat="49.11365" lon="1.98084">
        <ele>98.1</ele>
        <time>2024-02-04T09:13:12Z</time>
      </trkpt>
      <trkpt lat="49.11372" lon="1.98089">
        <ele>98.1</ele>
        <time>2024-02-04T09:13:18Z</time>
      </trkpt>
      <trkpt lat="49.11381" lon="1.98097">
        <ele>98.1</ele>
        <time>2024-02-04T09:13:24Z</time>
      </trkpt>
      <trkpt lat="49.11388" lon="1.98102">
        <ele>98.2</ele>
        <time>2024-02-04T09:13:29Z</time>
      </trkpt>
      <trkpt lat="49.11395" lon="1.98107">
        <ele>98.2</ele>
        <time>2024-02-04T09:13:35Z</time>
      </trkpt>
      <trkpt lat="49.11401" lon="1.98112">
        <ele>98</ele>
        <time>2024-02-04T09:13:40Z</time>
      </trkpt>
      <trkpt lat="49.11408" lon="1.98117">
        <ele>97.9</ele>
        <time>2024-02-04T09:13:46Z</time>
      </trkpt>
      <trkpt lat="49.11416" lon="1.98124">
        <ele>98</ele>
        <time>2024-02-04T09:13:52Z</time>
      </trkpt>
      <trkpt lat="49.11422" lon="1.9813">
        <ele>98.3</ele>
        <time>2024-02-04T09:13:58Z</time>
      </trkpt>
      <trkpt lat="49.11429" lon="1.98133">
        <ele>98.5</ele>
        <time>2024-02-04T09:14:03Z</time>
      </trkpt>
      <trkpt lat="49.11436" lon="1.98137">
        <ele>98.8</ele>
        <time>2024-02-04T09:14:08Z</time>
      </trkpt>
      <trkpt lat="49.11441" lon="1.98141">
        <ele>98.8</ele>
        <time>2024-02-04T09:14:13Z</time>
      </trkpt>
      <trkpt lat="49.11449" lon="1.98146">
        <ele>98.9</ele>
        <time>2024-02-04T09:14:19Z</time>
      </trkpt>
      <trkpt lat="49.11456" lon="1.98153">
        <ele>99.1</ele>
        <time>2024-02-04T09:14:25Z</time>
      </trkpt>
      <trkpt lat="49.11462" lon="1.98158">
        <ele>99.4</ele>
        <time>2024-02-04T09:14:31Z</time>
      </trkpt>
      <trkpt lat="49.11469" lon="1.98164">
        <ele>99.8</ele>
        <time>2024-02-04T09:14:36Z</time>
      </trkpt>
      <trkpt lat="49.11476" lon="1.98169">
        <ele>100</ele>
        <time>2024-02-04T09:14:42Z</time>
      </trkpt>
      <trkpt lat="49.11483" lon="1.98174">
        <ele>100.1</ele>
        <time>2024-02-04T09:14:48Z</time>
      </trkpt>
      <trkpt lat="49.1149" lon="1.98177">
        <ele>100.2</ele>
        <time>2024-02-04T09:14:53Z</time>
      </trkpt>
      <trkpt lat="49.11496" lon="1.98182">
        <ele>100.3</ele>
        <time>2024-02-04T09:14:59Z</time>
      </trkpt>
      <trkpt lat="49.11504" lon="1.98189">
        <ele>100.3</ele>
        <time>2024-02-04T09:15:05Z</time>
      </trkpt>
      <trkpt lat="49.1151" lon="1.98192">
        <ele>100.5</ele>
        <time>2024-02-04T09:15:10Z</time>
      </trkpt>
      <trkpt lat="49.11518" lon="1.98195">
        <ele>100.6</ele>
        <time>2024-02-04T09:15:16Z</time>
      </trkpt>
      <trkpt lat="49.11525" lon="1.98198">
        <ele>100.9</ele>
        <time>2024-02-04T09:15:21Z</time>
      </trkpt>
      <trkpt lat="49.11532" lon="1.98199">
        <ele>101.3</ele>
        <time>2024-02-04T09:15:27Z</time>
      </trkpt>
      <trkpt lat="49.1154" lon="1.982">
        <ele>101.8</ele>
        <time>2024-02-04T09:15:33Z</time>
      </trkpt>
      <trkpt lat="49.11545" lon="1.98201">
        <ele>102.3</ele>
        <time>2024-02-04T09:15:38Z</time>
      </trkpt>
      <trkpt lat="49.11553" lon="1.98201">
        <ele>102.9</ele>
        <time>2024-02-04T09:15:43Z</time>
      </trkpt>
      <trkpt lat="49.11562" lon="1.98201">
        <ele>103.2</ele>
        <time>2024-02-04T09:15:49Z</time>
      </trkpt>
      <trkpt lat="49.11567" lon="1.98201">
        <ele>103.4</ele>
        <time>2024-02-04T09:15:54Z</time>
      </trkpt>
      <trkpt lat="49.11574" lon="1.982">
        <ele>103.7</ele>
        <time>2024-02-04T09:15:59Z</time>
      </trkpt>
      <trkpt lat="49.11583" lon="1.98198">
        <ele>104</ele>
        <time>2024-02-04T09:16:05Z</time>
      </trkpt>
      <trkpt lat="49.11589" lon="1.98197">
        <ele>104.2</ele>
        <time>2024-02-04T09:16:10Z</time>
      </trkpt>
      <trkpt lat="49.11597" lon="1.98195">
        <ele>104.5</ele>
        <time>2024-02-04T09:16:16Z</time>
      </trkpt>
      <trkpt lat="49.11605" lon="1.98192">
        <ele>104.8</ele>
        <time>2024-02-04T09:16:22Z</time>
      </trkpt>
      <trkpt lat="49.11614" lon="1.98191">
        <ele>105.1</ele>
        <time>2024-02-04T09:16:28Z</time>
      </trkpt>
      <trkpt lat="49.11621" lon="1.98189">
        <ele>105.4</ele>
        <time>2024-02-04T09:16:33Z</time>
      </trkpt>
      <trkpt lat="49.11628" lon="1.98187">
        <ele>105.6</ele>
        <time>2024-02-04T09:16:38Z</time>
      </trkpt>
      <trkpt lat="49.11635" lon="1.98185">
        <ele>105.9</ele>
        <time>2024-02-04T09:16:43Z</time>
      </trkpt>
      <trkpt lat="49.11642" lon="1.98183">
        <ele>106.1</ele>
        <time>2024-02-04T09:16:49Z</time>
      </trkpt>
      <trkpt lat="49.11649" lon="1.98181">
        <ele>106.4</ele>
        <time>2024-02-04T09:16:55Z</time>
      </trkpt>
      <trkpt lat="49.11656" lon="1.98179">
        <ele>106.6</ele>
        <time>2024-02-04T09:17:00Z</time>
      </trkpt>
      <trkpt lat="49.11662" lon="1.98177">
        <ele>106.8</ele>
        <time>2024-02-04T09:17:05Z</time>
      </trkpt>
      <trkpt lat="49.1167" lon="1.98176">
        <ele>107</ele>
        <time>2024-02-04T09:17:10Z</time>
      </trkpt>
      <trkpt lat="49.11676" lon="1.98175">
        <ele>107</ele>
        <time>2024-02-04T09:17:15Z</time>
      </trkpt>
      <trkpt lat="49.11683" lon="1.98173">
        <ele>107</ele>
        <time>2024-02-04T09:17:21Z</time>
      </trkpt>
      <trkpt lat="49.11691" lon="1.9817">
        <ele>107</ele>
        <time>2024-02-04T09:17:27Z</time>
      </trkpt>
      <trkpt lat="49.11699" lon="1.98168">
        <ele>107.2</ele>
        <time>2024-02-04T09:17:33Z</time>
      </trkpt>
      <trkpt lat="49.11707" lon="1.98168">
        <ele>107.4</ele>
        <time>2024-02-04T09:17:39Z</time>
      </trkpt>
      <trkpt lat="49.11712" lon="1.98173">
        <ele>107.6</ele>
        <time>2024-02-04T09:17:44Z</time>
      </trkpt>
      <trkpt lat="49.11719" lon="1.98179">
        <ele>107.9</ele>
        <time>2024-02-04T09:17:50Z</time>
      </trkpt>
      <trkpt lat="49.1172" lon="1.98184">
        <ele>107.9</ele>
        <time>2024-02-04T09:17:56Z</time>
      </trkpt>
      <trkpt lat="49.11721" lon="1.98186">
        <ele>108</ele>
        <time>2024-02-04T09:18:01Z</time>
      </trkpt>
      <trkpt lat="49.11722" lon="1.98186">
        <ele>108</ele>
        <time>2024-02-04T09:18:07Z</time>
      </trkpt>
      <trkpt lat="49.11722" lon="1.98186">
        <ele>108</ele>
        <time>2024-02-04T09:18:12Z</time>
      </trkpt>
      <trkpt lat="49.11723" lon="1.98186">
        <ele>108</ele>
        <time>2024-02-04T09:18:17Z</time>
      </trkpt>
      <trkpt lat="49.11726" lon="1.98193">
        <ele>108</ele>
        <time>2024-02-04T09:18:23Z</time>
      </trkpt>
      <trkpt lat="49.11729" lon="1.98202">
        <ele>108</ele>
        <time>2024-02-04T09:18:28Z</time>
      </trkpt>
      <trkpt lat="49.11733" lon="1.98213">
        <ele>108</ele>
        <time>2024-02-04T09:18:34Z</time>
      </trkpt>
      <trkpt lat="49.11737" lon="1.98222">
        <ele>108</ele>
        <time>2024-02-04T09:18:40Z</time>
      </trkpt>
      <trkpt lat="49.1174" lon="1.98232">
        <ele>108</ele>
        <time>2024-02-04T09:18:45Z</time>
      </trkpt>
      <trkpt lat="49.11743" lon="1.9824">
        <ele>108</ele>
        <time>2024-02-04T09:18:50Z</time>
      </trkpt>
      <trkpt lat="49.11746" lon="1.98251">
        <ele>108</ele>
        <time>2024-02-04T09:18:56Z</time>
      </trkpt>
      <trkpt lat="49.1175" lon="1.98263">
        <ele>108</ele>
        <time>2024-02-04T09:19:02Z</time>
      </trkpt>
      <trkpt lat="49.11755" lon="1.98273">
        <ele>108</ele>
        <time>2024-02-04T09:19:08Z</time>
      </trkpt>
      <trkpt lat="49.11758" lon="1.98283">
        <ele>108</ele>
        <time>2024-02-04T09:19:13Z</time>
      </trkpt>
      <trkpt lat="49.11763" lon="1.98291">
        <ele>108</ele>
        <time>2024-02-04T09:19:18Z</time>
      </trkpt>
      <trkpt lat="49.11766" lon="1.983">
        <ele>108</ele>
        <time>2024-02-04T09:19:23Z</time>
      </trkpt>
      <trkpt lat="49.1177" lon="1.98312">
        <ele>108.2</ele>
        <time>2024-02-04T09:19:29Z</time>
      </trkpt>
      <trkpt lat="49.11774" lon="1.98323">
        <ele>108.5</ele>
        <time>2024-02-04T09:19:35Z</time>
      </trkpt>
      <trkpt lat="49.11777" lon="1.98331">
        <ele>108.9</ele>
        <time>2024-02-04T09:19:40Z</time>
      </trkpt>
      <trkpt lat="49.11783" lon="1.98342">
        <ele>109</ele>
        <time>2024-02-04T09:19:45Z</time>
      </trkpt>
      <trkpt lat="49.11787" lon="1.98352">
        <ele>109</ele>
        <time>2024-02-04T09:19:50Z</time>
      </trkpt>
      <trkpt lat="49.1179" lon="1.98361">
        <ele>109</ele>
        <time>2024-02-04T09:19:56Z</time>
      </trkpt>
      <trkpt lat="49.11792" lon="1.98369">
        <ele>109</ele>
        <time>2024-02-04T09:20:01Z</time>
      </trkpt>
      <trkpt lat="49.11795" lon="1.98377">
        <ele>109</ele>
        <time>2024-02-04T09:20:06Z</time>
      </trkpt>
      <trkpt lat="49.118" lon="1.98387">
        <ele>109</ele>
        <time>2024-02-04T09:20:11Z</time>
      </trkpt>
      <trkpt lat="49.11803" lon="1.984">
        <ele>109.4</ele>
        <time>2024-02-04T09:20:17Z</time>
      </trkpt>
      <trkpt lat="49.11805" lon="1.98408">
        <ele>109.7</ele>
        <time>2024-02-04T09:20:22Z</time>
      </trkpt>
      <trkpt lat="49.1181" lon="1.98417">
        <ele>110</ele>
        <time>2024-02-04T09:20:28Z</time>
      </trkpt>
      <trkpt lat="49.11813" lon="1.98428">
        <ele>110</ele>
        <time>2024-02-04T09:20:33Z</time>
      </trkpt>
      <trkpt lat="49.11816" lon="1.98439">
        <ele>110</ele>
        <time>2024-02-04T09:20:39Z</time>
      </trkpt>
      <trkpt lat="49.11819" lon="1.98447">
        <ele>109.9</ele>
        <time>2024-02-04T09:20:44Z</time>
      </trkpt>
      <trkpt lat="49.11824" lon="1.98459">
        <ele>109.8</ele>
        <time>2024-02-04T09:20:50Z</time>
      </trkpt>
      <trkpt lat="49.1183" lon="1.9847">
        <ele>109.9</ele>
        <time>2024-02-04T09:20:56Z</time>
      </trkpt>
      <trkpt lat="49.11833" lon="1.98478">
        <ele>110</ele>
        <time>2024-02-04T09:21:01Z</time>
      </trkpt>
      <trkpt lat="49.11838" lon="1.98492">
        <ele>110.2</ele>
        <time>2024-02-04T09:21:07Z</time>
      </trkpt>
      <trkpt lat="49.11842" lon="1.98503">
        <ele>110.3</ele>
        <time>2024-02-04T09:21:13Z</time>
      </trkpt>
      <trkpt lat="49.11845" lon="1.98511">
        <ele>110.4</ele>
        <time>2024-02-04T09:21:18Z</time>
      </trkpt>
      <trkpt lat="49.11849" lon="1.98523">
        <ele>110.6</ele>
        <time>2024-02-04T09:21:24Z</time>
      </trkpt>
      <trkpt lat="49.11854" lon="1.98534">
        <ele>110.7</ele>
        <time>2024-02-04T09:21:30Z</time>
      </trkpt>
      <trkpt lat="49.11858" lon="1.98545">
        <ele>110.9</ele>
        <time>2024-02-04T09:21:36Z</time>
      </trkpt>
      <trkpt lat="49.11861" lon="1.98554">
        <ele>111</ele>
        <time>2024-02-04T09:21:42Z</time>
      </trkpt>
      <trkpt lat="49.11864" lon="1.98565">
        <ele>111.1</ele>
        <time>2024-02-04T09:21:48Z</time>
      </trkpt>
      <trkpt lat="49.11867" lon="1.98575">
        <ele>111.2</ele>
        <time>2024-02-04T09:21:53Z</time>
      </trkpt>
      <trkpt lat="49.11872" lon="1.98586">
        <ele>111.4</ele>
        <time>2024-02-04T09:21:59Z</time>
      </trkpt>
      <trkpt lat="49.11876" lon="1.98593">
        <ele>111.5</ele>
        <time>2024-02-04T09:22:04Z</time>
      </trkpt>
      <trkpt lat="49.11879" lon="1.98602">
        <ele>111.7</ele>
        <time>2024-02-04T09:22:09Z</time>
      </trkpt>
      <trkpt lat="49.11883" lon="1.98613">
        <ele>111.8</ele>
        <time>2024-02-04T09:22:14Z</time>
      </trkpt>
      <trkpt lat="49.11885" lon="1.98622">
        <ele>111.9</ele>
        <time>2024-02-04T09:22:19Z</time>
      </trkpt>
      <trkpt lat="49.1189" lon="1.98634">
        <ele>112</ele>
        <time>2024-02-04T09:22:25Z</time>
      </trkpt>
      <trkpt lat="49.11895" lon="1.98647">
        <ele>112.2</ele>
        <time>2024-02-04T09:22:31Z</time>
      </trkpt>
      <trkpt lat="49.11899" lon="1.98656">
        <ele>112.4</ele>
        <time>2024-02-04T09:22:36Z</time>
      </trkpt>
      <trkpt lat="49.11902" lon="1.98666">
        <ele>112.5</ele>
        <time>2024-02-04T09:22:42Z</time>
      </trkpt>
      <trkpt lat="49.11906" lon="1.98677">
        <ele>112.6</ele>
        <time>2024-02-04T09:22:48Z</time>
      </trkpt>
      <trkpt lat="49.11909" lon="1.98687">
        <ele>112.7</ele>
        <time>2024-02-04T09:22:54Z</time>
      </trkpt>
      <trkpt lat="49.11913" lon="1.987">
        <ele>112.9</ele>
        <time>2024-02-04T09:23:00Z</time>
      </trkpt>
      <trkpt lat="49.11917" lon="1.9871">
        <ele>113</ele>
        <time>2024-02-04T09:23:06Z</time>
      </trkpt>
      <trkpt lat="49.11922" lon="1.98722">
        <ele>113.2</ele>
        <time>2024-02-04T09:23:12Z</time>
      </trkpt>
      <trkpt lat="49.11926" lon="1.98734">
        <ele>113.6</ele>
        <time>2024-02-04T09:23:18Z</time>
      </trkpt>
      <trkpt lat="49.11929" lon="1.98742">
        <ele>113.8</ele>
        <time>2024-02-04T09:23:23Z</time>
      </trkpt>
      <trkpt lat="49.11933" lon="1.98752">
        <ele>114</ele>
        <time>2024-02-04T09:23:28Z</time>
      </trkpt>
      <trkpt lat="49.11936" lon="1.98765">
        <ele>114.4</ele>
        <time>2024-02-04T09:23:34Z</time>
      </trkpt>
      <trkpt lat="49.1194" lon="1.98773">
        <ele>114.7</ele>
        <time>2024-02-04T09:23:40Z</time>
      </trkpt>
      <trkpt lat="49.11942" lon="1.98783">
        <ele>114.9</ele>
        <time>2024-02-04T09:23:45Z</time>
      </trkpt>
      <trkpt lat="49.11946" lon="1.98794">
        <ele>115</ele>
        <time>2024-02-04T09:23:51Z</time>
      </trkpt>
      <trkpt lat="49.1195" lon="1.98805">
        <ele>115</ele>
        <time>2024-02-04T09:23:57Z</time>
      </trkpt>
      <trkpt lat="49.11953" lon="1.98814">
        <ele>115.1</ele>
        <time>2024-02-04T09:24:02Z</time>
      </trkpt>
      <trkpt lat="49.11956" lon="1.98822">
        <ele>115.3</ele>
        <time>2024-02-04T09:24:07Z</time>
      </trkpt>
      <trkpt lat="49.11961" lon="1.98833">
        <ele>115.6</ele>
        <time>2024-02-04T09:24:13Z</time>
      </trkpt>
      <trkpt lat="49.11963" lon="1.98844">
        <ele>115.8</ele>
        <time>2024-02-04T09:24:19Z</time>
      </trkpt>
      <trkpt lat="49.11966" lon="1.98854">
        <ele>115.9</ele>
        <time>2024-02-04T09:24:24Z</time>
      </trkpt>
      <trkpt lat="49.1197" lon="1.98865">
        <ele>116</ele>
        <time>2024-02-04T09:24:29Z</time>
      </trkpt>
      <trkpt lat="49.11974" lon="1.98876">
        <ele>116</ele>
        <time>2024-02-04T09:24:35Z</time>
      </trkpt>
      <trkpt lat="49.11976" lon="1.98884">
        <ele>116.1</ele>
        <time>2024-02-04T09:24:40Z</time>
      </trkpt>
      <trkpt lat="49.1198" lon="1.98895">
        <ele>116.4</ele>
        <time>2024-02-04T09:24:46Z</time>
      </trkpt>
      <trkpt lat="49.11983" lon="1.98905">
        <ele>116.7</ele>
        <time>2024-02-04T09:24:51Z</time>
      </trkpt>
      <trkpt lat="49.11986" lon="1.98914">
        <ele>116.9</ele>
        <time>2024-02-04T09:24:56Z</time>
      </trkpt>
      <trkpt lat="49.11991" lon="1.98923">
        <ele>117</ele>
        <time>2024-02-04T09:25:02Z</time>
      </trkpt>
      <trkpt lat="49.11994" lon="1.98932">
        <ele>117</ele>
        <time>2024-02-04T09:25:07Z</time>
      </trkpt>
      <trkpt lat="49.11999" lon="1.98944">
        <ele>117</ele>
        <time>2024-02-04T09:25:13Z</time>
      </trkpt>
      <trkpt lat="49.12003" lon="1.98952">
        <ele>117.3</ele>
        <time>2024-02-04T09:25:18Z</time>
      </trkpt>
      <trkpt lat="49.12007" lon="1.98965">
        <ele>117.8</ele>
        <time>2024-02-04T09:25:24Z</time>
      </trkpt>
      <trkpt lat="49.12012" lon="1.98974">
        <ele>118</ele>
        <time>2024-02-04T09:25:29Z</time>
      </trkpt>
      <trkpt lat="49.12017" lon="1.98984">
        <ele>118.2</ele>
        <time>2024-02-04T09:25:35Z</time>
      </trkpt>
      <trkpt lat="49.12021" lon="1.98995">
        <ele>118.6</ele>
        <time>2024-02-04T09:25:41Z</time>
      </trkpt>
      <trkpt lat="49.12026" lon="1.99005">
        <ele>118.9</ele>
        <time>2024-02-04T09:25:47Z</time>
      </trkpt>
      <trkpt lat="49.12029" lon="1.99013">
        <ele>119</ele>
        <time>2024-02-04T09:25:52Z</time>
      </trkpt>
      <trkpt lat="49.12032" lon="1.99025">
        <ele>119.1</ele>
        <time>2024-02-04T09:25:58Z</time>
      </trkpt>
      <trkpt lat="49.12035" lon="1.99038">
        <ele>119.5</ele>
        <time>2024-02-04T09:26:04Z</time>
      </trkpt>
      <trkpt lat="49.12038" lon="1.99048">
        <ele>119.8</ele>
        <time>2024-02-04T09:26:10Z</time>
      </trkpt>
      <trkpt lat="49.12042" lon="1.9906">
        <ele>120</ele>
        <time>2024-02-04T09:26:16Z</time>
      </trkpt>
      <trkpt lat="49.12047" lon="1.9907">
        <ele>120</ele>
        <time>2024-02-04T09:26:21Z</time>
      </trkpt>
      <trkpt lat="49.12049" lon="1.99077">
        <ele>120</ele>
        <time>2024-02-04T09:26:26Z</time>
      </trkpt>
      <trkpt lat="49.12053" lon="1.99088">
        <ele>120</ele>
        <time>2024-02-04T09:26:32Z</time>
      </trkpt>
      <trkpt lat="49.12057" lon="1.99099">
        <ele>120</ele>
        <time>2024-02-04T09:26:38Z</time>
      </trkpt>
      <trkpt lat="49.1206" lon="1.99108">
        <ele>120.2</ele>
        <time>2024-02-04T09:26:44Z</time>
      </trkpt>
      <trkpt lat="49.12064" lon="1.99119">
        <ele>120.5</ele>
        <time>2024-02-04T09:26:49Z</time>
      </trkpt>
      <trkpt lat="49.12067" lon="1.9913">
        <ele>120.8</ele>
        <time>2024-02-04T09:26:55Z</time>
      </trkpt>
      <trkpt lat="49.12071" lon="1.99141">
        <ele>121</ele>
        <time>2024-02-04T09:27:01Z</time>
      </trkpt>
      <trkpt lat="49.12074" lon="1.99151">
        <ele>121.3</ele>
        <time>2024-02-04T09:27:06Z</time>
      </trkpt>
      <trkpt lat="49.12077" lon="1.9916">
        <ele>121.6</ele>
        <time>2024-02-04T09:27:11Z</time>
      </trkpt>
      <trkpt lat="49.12078" lon="1.9917">
        <ele>121.8</ele>
        <time>2024-02-04T09:27:17Z</time>
      </trkpt>
      <trkpt lat="49.12072" lon="1.99177">
        <ele>121.7</ele>
        <time>2024-02-04T09:27:23Z</time>
      </trkpt>
      <trkpt lat="49.12065" lon="1.99181">
        <ele>121.7</ele>
        <time>2024-02-04T09:27:29Z</time>
      </trkpt>
      <trkpt lat="49.12058" lon="1.99188">
        <ele>121.8</ele>
        <time>2024-02-04T09:27:35Z</time>
      </trkpt>
      <trkpt lat="49.12053" lon="1.99194">
        <ele>121.9</ele>
        <time>2024-02-04T09:27:40Z</time>
      </trkpt>
      <trkpt lat="49.12047" lon="1.99204">
        <ele>122</ele>
        <time>2024-02-04T09:27:46Z</time>
      </trkpt>
      <trkpt lat="49.12042" lon="1.99208">
        <ele>122</ele>
        <time>2024-02-04T09:27:51Z</time>
      </trkpt>
      <trkpt lat="49.12035" lon="1.99215">
        <ele>122</ele>
        <time>2024-02-04T09:27:56Z</time>
      </trkpt>
      <trkpt lat="49.12027" lon="1.99221">
        <ele>121.9</ele>
        <time>2024-02-04T09:28:02Z</time>
      </trkpt>
      <trkpt lat="49.12022" lon="1.99225">
        <ele>121.9</ele>
        <time>2024-02-04T09:28:07Z</time>
      </trkpt>
      <trkpt lat="49.12015" lon="1.99229">
        <ele>121.9</ele>
        <time>2024-02-04T09:28:12Z</time>
      </trkpt>
      <trkpt lat="49.12008" lon="1.99233">
        <ele>122</ele>
        <time>2024-02-04T09:28:18Z</time>
      </trkpt>
      <trkpt lat="49.12001" lon="1.99237">
        <ele>122.1</ele>
        <time>2024-02-04T09:28:24Z</time>
      </trkpt>
      <trkpt lat="49.11994" lon="1.9924">
        <ele>121.9</ele>
        <time>2024-02-04T09:28:29Z</time>
      </trkpt>
      <trkpt lat="49.11988" lon="1.99246">
        <ele>121.9</ele>
        <time>2024-02-04T09:28:35Z</time>
      </trkpt>
      <trkpt lat="49.1198" lon="1.9925">
        <ele>121.5</ele>
        <time>2024-02-04T09:28:41Z</time>
      </trkpt>
      <trkpt lat="49.11974" lon="1.99252">
        <ele>121.2</ele>
        <time>2024-02-04T09:28:46Z</time>
      </trkpt>
      <trkpt lat="49.11966" lon="1.99256">
        <ele>121</ele>
        <time>2024-02-04T09:28:51Z</time>
      </trkpt>
      <trkpt lat="49.11958" lon="1.99261">
        <ele>120.9</ele>
        <time>2024-02-04T09:28:57Z</time>
      </trkpt>
      <trkpt lat="49.11953" lon="1.99263">
        <ele>120.7</ele>
        <time>2024-02-04T09:29:02Z</time>
      </trkpt>
      <trkpt lat="49.11945" lon="1.99265">
        <ele>120.6</ele>
        <time>2024-02-04T09:29:08Z</time>
      </trkpt>
      <trkpt lat="49.11937" lon="1.99268">
        <ele>120.2</ele>
        <time>2024-02-04T09:29:13Z</time>
      </trkpt>
      <trkpt lat="49.11929" lon="1.99274">
        <ele>119.8</ele>
        <time>2024-02-04T09:29:19Z</time>
      </trkpt>
      <trkpt lat="49.11922" lon="1.99279">
        <ele>119.4</ele>
        <time>2024-02-04T09:29:25Z</time>
      </trkpt>
      <trkpt lat="49.11915" lon="1.99285">
        <ele>119.2</ele>
        <time>2024-02-04T09:29:31Z</time>
      </trkpt>
      <trkpt lat="49.11906" lon="1.99291">
        <ele>119.1</ele>
        <time>2024-02-04T09:29:37Z</time>
      </trkpt>
      <trkpt lat="49.11898" lon="1.99294">
        <ele>118.9</ele>
        <time>2024-02-04T09:29:42Z</time>
      </trkpt>
      <trkpt lat="49.11891" lon="1.99298">
        <ele>118.8</ele>
        <time>2024-02-04T09:29:48Z</time>
      </trkpt>
      <trkpt lat="49.11886" lon="1.99302">
        <ele>118.8</ele>
        <time>2024-02-04T09:29:53Z</time>
      </trkpt>
      <trkpt lat="49.11877" lon="1.99308">
        <ele>118.7</ele>
        <time>2024-02-04T09:29:59Z</time>
      </trkpt>
      <trkpt lat="49.11869" lon="1.99313">
        <ele>118.6</ele>
        <time>2024-02-04T09:30:04Z</time>
      </trkpt>
      <trkpt lat="49.11861" lon="1.99318">
        <ele>118.4</ele>
        <time>2024-02-04T09:30:10Z</time>
      </trkpt>
      <trkpt lat="49.11855" lon="1.99321">
        <ele>118.3</ele>
        <time>2024-02-04T09:30:15Z</time>
      </trkpt>
      <trkpt lat="49.11848" lon="1.99326">
        <ele>118.3</ele>
        <time>2024-02-04T09:30:21Z</time>
      </trkpt>
      <trkpt lat="49.11838" lon="1.99332">
        <ele>118.1</ele>
        <time>2024-02-04T09:30:27Z</time>
      </trkpt>
      <trkpt lat="49.1183" lon="1.9934">
        <ele>117.9</ele>
        <time>2024-02-04T09:30:33Z</time>
      </trkpt>
      <trkpt lat="49.11824" lon="1.99343">
        <ele>117.8</ele>
        <time>2024-02-04T09:30:38Z</time>
      </trkpt>
      <trkpt lat="49.11818" lon="1.99348">
        <ele>117.7</ele>
        <time>2024-02-04T09:30:43Z</time>
      </trkpt>
      <trkpt lat="49.1181" lon="1.99355">
        <ele>117.8</ele>
        <time>2024-02-04T09:30:49Z</time>
      </trkpt>
      <trkpt lat="49.11802" lon="1.9936">
        <ele>118</ele>
        <time>2024-02-04T09:30:55Z</time>
      </trkpt>
      <trkpt lat="49.11796" lon="1.99364">
        <ele>118</ele>
        <time>2024-02-04T09:31:01Z</time>
      </trkpt>
      <trkpt lat="49.1179" lon="1.99368">
        <ele>118.1</ele>
        <time>2024-02-04T09:31:06Z</time>
      </trkpt>
      <trkpt lat="49.11782" lon="1.99372">
        <ele>118.3</ele>
        <time>2024-02-04T09:31:11Z</time>
      </trkpt>
      <trkpt lat="49.11775" lon="1.99377">
        <ele>118.5</ele>
        <time>2024-02-04T09:31:17Z</time>
      </trkpt>
      <trkpt lat="49.1177" lon="1.99381">
        <ele>118.4</ele>
        <time>2024-02-04T09:31:22Z</time>
      </trkpt>
      <trkpt lat="49.11764" lon="1.99386">
        <ele>118.4</ele>
        <time>2024-02-04T09:31:28Z</time>
      </trkpt>
      <trkpt lat="49.11759" lon="1.99391">
        <ele>118.5</ele>
        <time>2024-02-04T09:31:34Z</time>
      </trkpt>
      <trkpt lat="49.11753" lon="1.99397">
        <ele>118.7</ele>
        <time>2024-02-04T09:31:39Z</time>
      </trkpt>
      <trkpt lat="49.11747" lon="1.99402">
        <ele>118.8</ele>
        <time>2024-02-04T09:31:44Z</time>
      </trkpt>
      <trkpt lat="49.11742" lon="1.99407">
        <ele>119</ele>
        <time>2024-02-04T09:31:49Z</time>
      </trkpt>
      <trkpt lat="49.11735" lon="1.99414">
        <ele>119.3</ele>
        <time>2024-02-04T09:31:55Z</time>
      </trkpt>
      <trkpt lat="49.11732" lon="1.99418">
        <ele>119.4</ele>
        <time>2024-02-04T09:32:00Z</time>
      </trkpt>
      <trkpt lat="49.11728" lon="1.99427">
        <ele>119.8</ele>
        <time>2024-02-04T09:32:06Z</time>
      </trkpt>
      <trkpt lat="49.11722" lon="1.99433">
        <ele>120.2</ele>
        <time>2024-02-04T09:32:12Z</time>
      </trkpt>
      <trkpt lat="49.11718" lon="1.99439">
        <ele>120.3</ele>
        <time>2024-02-04T09:32:17Z</time>
      </trkpt>
      <trkpt lat="49.11713" lon="1.99448">
        <ele>120.5</ele>
        <time>2024-02-04T09:32:22Z</time>
      </trkpt>
      <trkpt lat="49.11708" lon="1.99458">
        <ele>120.7</ele>
        <time>2024-02-04T09:32:28Z</time>
      </trkpt>
      <trkpt lat="49.11703" lon="1.99463">
        <ele>120.7</ele>
        <time>2024-02-04T09:32:34Z</time>
      </trkpt>
      <trkpt lat="49.11698" lon="1.99471">
        <ele>121</ele>
        <time>2024-02-04T09:32:39Z</time>
      </trkpt>
      <trkpt lat="49.11691" lon="1.99479">
        <ele>120.8</ele>
        <time>2024-02-04T09:32:45Z</time>
      </trkpt>
      <trkpt lat="49.11687" lon="1.99487">
        <ele>120.6</ele>
        <time>2024-02-04T09:32:51Z</time>
      </trkpt>
      <trkpt lat="49.11682" lon="1.99494">
        <ele>120.4</ele>
        <time>2024-02-04T09:32:56Z</time>
      </trkpt>
      <trkpt lat="49.11677" lon="1.99501">
        <ele>120.4</ele>
        <time>2024-02-04T09:33:01Z</time>
      </trkpt>
      <trkpt lat="49.11671" lon="1.99509">
        <ele>120.5</ele>
        <time>2024-02-04T09:33:06Z</time>
      </trkpt>
      <trkpt lat="49.11664" lon="1.99517">
        <ele>120.5</ele>
        <time>2024-02-04T09:33:12Z</time>
      </trkpt>
      <trkpt lat="49.11659" lon="1.99527">
        <ele>120.7</ele>
        <time>2024-02-04T09:33:18Z</time>
      </trkpt>
      <trkpt lat="49.11653" lon="1.99533">
        <ele>120.7</ele>
        <time>2024-02-04T09:33:24Z</time>
      </trkpt>
      <trkpt lat="49.11648" lon="1.99542">
        <ele>120.8</ele>
        <time>2024-02-04T09:33:29Z</time>
      </trkpt>
      <trkpt lat="49.11642" lon="1.99553">
        <ele>121</ele>
        <time>2024-02-04T09:33:35Z</time>
      </trkpt>
      <trkpt lat="49.11639" lon="1.99559">
        <ele>121</ele>
        <time>2024-02-04T09:33:40Z</time>
      </trkpt>
      <trkpt lat="49.11635" lon="1.99567">
        <ele>120.7</ele>
        <time>2024-02-04T09:33:45Z</time>
      </trkpt>
      <trkpt lat="49.11628" lon="1.99578">
        <ele>120.2</ele>
        <time>2024-02-04T09:33:51Z</time>
      </trkpt>
      <trkpt lat="49.11625" lon="1.99585">
        <ele>120</ele>
        <time>2024-02-04T09:33:56Z</time>
      </trkpt>
      <trkpt lat="49.1162" lon="1.99596">
        <ele>120</ele>
        <time>2024-02-04T09:34:02Z</time>
      </trkpt>
      <trkpt lat="49.11616" lon="1.99607">
        <ele>120</ele>
        <time>2024-02-04T09:34:07Z</time>
      </trkpt>
      <trkpt lat="49.11612" lon="1.99615">
        <ele>120.2</ele>
        <time>2024-02-04T09:34:12Z</time>
      </trkpt>
      <trkpt lat="49.11609" lon="1.99621">
        <ele>120.2</ele>
        <time>2024-02-04T09:34:17Z</time>
      </trkpt>
      <trkpt lat="49.11605" lon="1.9963">
        <ele>120.3</ele>
        <time>2024-02-04T09:34:22Z</time>
      </trkpt>
      <trkpt lat="49.11599" lon="1.99642">
        <ele>120.1</ele>
        <time>2024-02-04T09:34:28Z</time>
      </trkpt>
      <trkpt lat="49.11595" lon="1.9965">
        <ele>120.1</ele>
        <time>2024-02-04T09:34:33Z</time>
      </trkpt>
      <trkpt lat="49.1159" lon="1.99658">
        <ele>120</ele>
        <time>2024-02-04T09:34:39Z</time>
      </trkpt>
      <trkpt lat="49.11586" lon="1.99667">
        <ele>120.1</ele>
        <time>2024-02-04T09:34:44Z</time>
      </trkpt>
      <trkpt lat="49.1158" lon="1.99678">
        <ele>120.2</ele>
        <time>2024-02-04T09:34:50Z</time>
      </trkpt>
      <trkpt lat="49.11578" lon="1.99685">
        <ele>120.3</ele>
        <time>2024-02-04T09:34:55Z</time>
      </trkpt>
      <trkpt lat="49.11575" lon="1.99692">
        <ele>120.3</ele>
        <time>2024-02-04T09:35:00Z</time>
      </trkpt>
      <trkpt lat="49.11569" lon="1.99703">
        <ele>120.1</ele>
        <time>2024-02-04T09:35:06Z</time>
      </trkpt>
      <trkpt lat="49.11564" lon="1.99711">
        <ele>120</ele>
        <time>2024-02-04T09:35:11Z</time>
      </trkpt>
      <trkpt lat="49.11559" lon="1.99719">
        <ele>120</ele>
        <time>2024-02-04T09:35:17Z</time>
      </trkpt>
      <trkpt lat="49.11554" lon="1.99726">
        <ele>120.1</ele>
        <time>2024-02-04T09:35:23Z</time>
      </trkpt>
      <trkpt lat="49.11548" lon="1.99736">
        <ele>120.2</ele>
        <time>2024-02-04T09:35:29Z</time>
      </trkpt>
      <trkpt lat="49.11542" lon="1.99746">
        <ele>120.4</ele>
        <time>2024-02-04T09:35:34Z</time>
      </trkpt>
      <trkpt lat="49.11537" lon="1.99754">
        <ele>120.4</ele>
        <time>2024-02-04T09:35:40Z</time>
      </trkpt>
      <trkpt lat="49.11531" lon="1.99763">
        <ele>120.5</ele>
        <time>2024-02-04T09:35:46Z</time>
      </trkpt>
      <trkpt lat="49.11526" lon="1.99771">
        <ele>120.7</ele>
        <time>2024-02-04T09:35:51Z</time>
      </trkpt>
      <trkpt lat="49.11522" lon="1.99779">
        <ele>120.6</ele>
        <time>2024-02-04T09:35:56Z</time>
      </trkpt>
      <trkpt lat="49.11517" lon="1.99788">
        <ele>120.2</ele>
        <time>2024-02-04T09:36:02Z</time>
      </trkpt>
      <trkpt lat="49.11511" lon="1.99799">
        <ele>119.8</ele>
        <time>2024-02-04T09:36:08Z</time>
      </trkpt>
      <trkpt lat="49.11506" lon="1.99809">
        <ele>119.7</ele>
        <time>2024-02-04T09:36:14Z</time>
      </trkpt>
      <trkpt lat="49.11502" lon="1.99817">
        <ele>119.9</ele>
        <time>2024-02-04T09:36:19Z</time>
      </trkpt>
      <trkpt lat="49.11496" lon="1.99826">
        <ele>120.4</ele>
        <time>2024-02-04T09:36:25Z</time>
      </trkpt>
      <trkpt lat="49.11491" lon="1.99836">
        <ele>120.7</ele>
        <time>2024-02-04T09:36:31Z</time>
      </trkpt>
      <trkpt lat="49.11486" lon="1.99844">
        <ele>120.7</ele>
        <time>2024-02-04T09:36:37Z</time>
      </trkpt>
      <trkpt lat="49.11482" lon="1.99851">
        <ele>120.8</ele>
        <time>2024-02-04T09:36:42Z</time>
      </trkpt>
      <trkpt lat="49.11476" lon="1.9986">
        <ele>121</ele>
        <time>2024-02-04T09:36:48Z</time>
      </trkpt>
      <trkpt lat="49.11472" lon="1.99867">
        <ele>121</ele>
        <time>2024-02-04T09:36:53Z</time>
      </trkpt>
      <trkpt lat="49.11467" lon="1.99876">
        <ele>121</ele>
        <time>2024-02-04T09:36:58Z</time>
      </trkpt>
      <trkpt lat="49.11461" lon="1.99886">
        <ele>121</ele>
        <time>2024-02-04T09:37:04Z</time>
      </trkpt>
      <trkpt lat="49.11456" lon="1.99894">
        <ele>121.2</ele>
        <time>2024-02-04T09:37:10Z</time>
      </trkpt>
      <trkpt lat="49.11452" lon="1.99904">
        <ele>121.6</ele>
        <time>2024-02-04T09:37:16Z</time>
      </trkpt>
      <trkpt lat="49.11447" lon="1.99915">
        <ele>121.9</ele>
        <time>2024-02-04T09:37:22Z</time>
      </trkpt>
      <trkpt lat="49.11443" lon="1.99926">
        <ele>122</ele>
        <time>2024-02-04T09:37:28Z</time>
      </trkpt>
      <trkpt lat="49.11439" lon="1.99935">
        <ele>121.9</ele>
        <time>2024-02-04T09:37:34Z</time>
      </trkpt>
      <trkpt lat="49.11434" lon="1.99946">
        <ele>122</ele>
        <time>2024-02-04T09:37:40Z</time>
      </trkpt>
      <trkpt lat="49.11429" lon="1.99953">
        <ele>122.1</ele>
        <time>2024-02-04T09:37:45Z</time>
      </trkpt>
      <trkpt lat="49.11423" lon="1.99958">
        <ele>122.1</ele>
        <time>2024-02-04T09:37:51Z</time>
      </trkpt>
      <trkpt lat="49.11416" lon="1.99965">
        <ele>122</ele>
        <time>2024-02-04T09:37:57Z</time>
      </trkpt>
      <trkpt lat="49.11411" lon="1.99972">
        <ele>121.8</ele>
        <time>2024-02-04T09:38:03Z</time>
      </trkpt>
      <trkpt lat="49.11408" lon="1.99979">
        <ele>121.9</ele>
        <time>2024-02-04T09:38:08Z</time>
      </trkpt>
      <trkpt lat="49.11404" lon="1.99988">
        <ele>121.9</ele>
        <time>2024-02-04T09:38:13Z</time>
      </trkpt>
      <trkpt lat="49.11401" lon="1.99998">
        <ele>121.8</ele>
        <time>2024-02-04T09:38:19Z</time>
      </trkpt>
      <trkpt lat="49.11396" lon="2.00006">
        <ele>121.9</ele>
        <time>2024-02-04T09:38:25Z</time>
      </trkpt>
      <trkpt lat="49.1139" lon="2.00017">
        <ele>122.3</ele>
        <time>2024-02-04T09:38:31Z</time>
      </trkpt>
      <trkpt lat="49.11387" lon="2.00028">
        <ele>122.9</ele>
        <time>2024-02-04T09:38:37Z</time>
      </trkpt>
      <trkpt lat="49.11384" lon="2.00039">
        <ele>122.8</ele>
        <time>2024-02-04T09:38:42Z</time>
      </trkpt>
      <trkpt lat="49.11382" lon="2.00049">
        <ele>122.7</ele>
        <time>2024-02-04T09:38:48Z</time>
      </trkpt>
      <trkpt lat="49.11377" lon="2.0006">
        <ele>122.6</ele>
        <time>2024-02-04T09:38:54Z</time>
      </trkpt>
      <trkpt lat="49.11373" lon="2.00066">
        <ele>122.4</ele>
        <time>2024-02-04T09:38:59Z</time>
      </trkpt>
      <trkpt lat="49.11368" lon="2.00073">
        <ele>122.2</ele>
        <time>2024-02-04T09:39:04Z</time>
      </trkpt>
      <trkpt lat="49.11361" lon="2.00084">
        <ele>122</ele>
        <time>2024-02-04T09:39:10Z</time>
      </trkpt>
      <trkpt lat="49.11357" lon="2.0009">
        <ele>121.9</ele>
        <time>2024-02-04T09:39:15Z</time>
      </trkpt>
      <trkpt lat="49.11351" lon="2.00099">
        <ele>121.7</ele>
        <time>2024-02-04T09:39:21Z</time>
      </trkpt>
      <trkpt lat="49.11347" lon="2.00108">
        <ele>121.5</ele>
        <time>2024-02-04T09:39:26Z</time>
      </trkpt>
      <trkpt lat="49.11343" lon="2.00117">
        <ele>121.2</ele>
        <time>2024-02-04T09:39:31Z</time>
      </trkpt>
      <trkpt lat="49.11339" lon="2.00127">
        <ele>120.7</ele>
        <time>2024-02-04T09:39:37Z</time>
      </trkpt>
      <trkpt lat="49.11334" lon="2.00135">
        <ele>120.2</ele>
        <time>2024-02-04T09:39:42Z</time>
      </trkpt>
      <trkpt lat="49.1133" lon="2.00144">
        <ele>119.9</ele>
        <time>2024-02-04T09:39:48Z</time>
      </trkpt>
      <trkpt lat="49.11327" lon="2.00155">
        <ele>119.6</ele>
        <time>2024-02-04T09:39:53Z</time>
      </trkpt>
      <trkpt lat="49.11323" lon="2.00166">
        <ele>119.3</ele>
        <time>2024-02-04T09:39:58Z</time>
      </trkpt>
      <trkpt lat="49.11321" lon="2.00176">
        <ele>119.1</ele>
        <time>2024-02-04T09:40:03Z</time>
      </trkpt>
      <trkpt lat="49.11318" lon="2.00186">
        <ele>118.9</ele>
        <time>2024-02-04T09:40:09Z</time>
      </trkpt>
      <trkpt lat="49.11314" lon="2.00197">
        <ele>118.6</ele>
        <time>2024-02-04T09:40:14Z</time>
      </trkpt>
      <trkpt lat="49.11312" lon="2.0021">
        <ele>118</ele>
        <time>2024-02-04T09:40:20Z</time>
      </trkpt>
      <trkpt lat="49.11308" lon="2.00222">
        <ele>117.3</ele>
        <time>2024-02-04T09:40:26Z</time>
      </trkpt>
      <trkpt lat="49.11306" lon="2.00231">
        <ele>117</ele>
        <time>2024-02-04T09:40:32Z</time>
      </trkpt>
      <trkpt lat="49.11303" lon="2.00244">
        <ele>116.9</ele>
        <time>2024-02-04T09:40:38Z</time>
      </trkpt>
      <trkpt lat="49.11302" lon="2.00255">
        <ele>116.9</ele>
        <time>2024-02-04T09:40:43Z</time>
      </trkpt>
      <trkpt lat="49.11301" lon="2.00267">
        <ele>116.8</ele>
        <time>2024-02-04T09:40:49Z</time>
      </trkpt>
      <trkpt lat="49.11299" lon="2.00278">
        <ele>116.8</ele>
        <time>2024-02-04T09:40:55Z</time>
      </trkpt>
      <trkpt lat="49.11298" lon="2.00287">
        <ele>116.6</ele>
        <time>2024-02-04T09:41:00Z</time>
      </trkpt>
      <trkpt lat="49.11295" lon="2.003">
        <ele>116.3</ele>
        <time>2024-02-04T09:41:06Z</time>
      </trkpt>
      <trkpt lat="49.11294" lon="2.00314">
        <ele>116.1</ele>
        <time>2024-02-04T09:41:12Z</time>
      </trkpt>
      <trkpt lat="49.11294" lon="2.00324">
        <ele>115.9</ele>
        <time>2024-02-04T09:41:17Z</time>
      </trkpt>
      <trkpt lat="49.11292" lon="2.00336">
        <ele>115.4</ele>
        <time>2024-02-04T09:41:23Z</time>
      </trkpt>
      <trkpt lat="49.1129" lon="2.00348">
        <ele>114.9</ele>
        <time>2024-02-04T09:41:28Z</time>
      </trkpt>
      <trkpt lat="49.11288" lon="2.0036">
        <ele>114.2</ele>
        <time>2024-02-04T09:41:34Z</time>
      </trkpt>
      <trkpt lat="49.11287" lon="2.00369">
        <ele>113.7</ele>
        <time>2024-02-04T09:41:39Z</time>
      </trkpt>
      <trkpt lat="49.11286" lon="2.00381">
        <ele>113.1</ele>
        <time>2024-02-04T09:41:45Z</time>
      </trkpt>
      <trkpt lat="49.11286" lon="2.00395">
        <ele>112.9</ele>
        <time>2024-02-04T09:41:51Z</time>
      </trkpt>
      <trkpt lat="49.11285" lon="2.00404">
        <ele>112.8</ele>
        <time>2024-02-04T09:41:56Z</time>
      </trkpt>
      <trkpt lat="49.11284" lon="2.00416">
        <ele>112.7</ele>
        <time>2024-02-04T09:42:02Z</time>
      </trkpt>
      <trkpt lat="49.11283" lon="2.00428">
        <ele>112.5</ele>
        <time>2024-02-04T09:42:07Z</time>
      </trkpt>
      <trkpt lat="49.11283" lon="2.00438">
        <ele>112.4</ele>
        <time>2024-02-04T09:42:12Z</time>
      </trkpt>
      <trkpt lat="49.11281" lon="2.00452">
        <ele>112.3</ele>
        <time>2024-02-04T09:42:18Z</time>
      </trkpt>
      <trkpt lat="49.11281" lon="2.0046">
        <ele>112.2</ele>
        <time>2024-02-04T09:42:23Z</time>
      </trkpt>
      <trkpt lat="49.1128" lon="2.00472">
        <ele>112.2</ele>
        <time>2024-02-04T09:42:29Z</time>
      </trkpt>
      <trkpt lat="49.1128" lon="2.0048">
        <ele>111.9</ele>
        <time>2024-02-04T09:42:35Z</time>
      </trkpt>
      <trkpt lat="49.1128" lon="2.00487">
        <ele>111.6</ele>
        <time>2024-02-04T09:42:40Z</time>
      </trkpt>
      <trkpt lat="49.11279" lon="2.00498">
        <ele>111.2</ele>
        <time>2024-02-04T09:42:46Z</time>
      </trkpt>
      <trkpt lat="49.11278" lon="2.00509">
        <ele>111</ele>
        <time>2024-02-04T09:42:52Z</time>
      </trkpt>
      <trkpt lat="49.11276" lon="2.0052">
        <ele>110.9</ele>
        <time>2024-02-04T09:42:58Z</time>
      </trkpt>
      <trkpt lat="49.11276" lon="2.00529">
        <ele>110.9</ele>
        <time>2024-02-04T09:43:03Z</time>
      </trkpt>
      <trkpt lat="49.11275" lon="2.00539">
        <ele>110.8</ele>
        <time>2024-02-04T09:43:09Z</time>
      </trkpt>
      <trkpt lat="49.11274" lon="2.00553">
        <ele>110.7</ele>
        <time>2024-02-04T09:43:15Z</time>
      </trkpt>
      <trkpt lat="49.11272" lon="2.00562">
        <ele>110.6</ele>
        <time>2024-02-04T09:43:20Z</time>
      </trkpt>
      <trkpt lat="49.11268" lon="2.00575">
        <ele>110.3</ele>
        <time>2024-02-04T09:43:26Z</time>
      </trkpt>
      <trkpt lat="49.11266" lon="2.00583">
        <ele>110.2</ele>
        <time>2024-02-04T09:43:31Z</time>
      </trkpt>
      <trkpt lat="49.11265" lon="2.00592">
        <ele>110.1</ele>
        <time>2024-02-04T09:43:36Z</time>
      </trkpt>
      <trkpt lat="49.11263" lon="2.00604">
        <ele>109.9</ele>
        <time>2024-02-04T09:43:42Z</time>
      </trkpt>
      <trkpt lat="49.11261" lon="2.00616">
        <ele>109.8</ele>
        <time>2024-02-04T09:43:48Z</time>
      </trkpt>
      <trkpt lat="49.11258" lon="2.00627">
        <ele>109.6</ele>
        <time>2024-02-04T09:43:53Z</time>
      </trkpt>
      <trkpt lat="49.11256" lon="2.00637">
        <ele>109.5</ele>
        <time>2024-02-04T09:43:58Z</time>
      </trkpt>
      <trkpt lat="49.11254" lon="2.00648">
        <ele>109.3</ele>
        <time>2024-02-04T09:44:04Z</time>
      </trkpt>
      <trkpt lat="49.11252" lon="2.00659">
        <ele>109.1</ele>
        <time>2024-02-04T09:44:09Z</time>
      </trkpt>
      <trkpt lat="49.1125" lon="2.0067">
        <ele>109</ele>
        <time>2024-02-04T09:44:15Z</time>
      </trkpt>
      <trkpt lat="49.11247" lon="2.00682">
        <ele>108.9</ele>
        <time>2024-02-04T09:44:21Z</time>
      </trkpt>
      <trkpt lat="49.11245" lon="2.00692">
        <ele>108.8</ele>
        <time>2024-02-04T09:44:26Z</time>
      </trkpt>
      <trkpt lat="49.11243" lon="2.00701">
        <ele>108.8</ele>
        <time>2024-02-04T09:44:31Z</time>
      </trkpt>
      <trkpt lat="49.11241" lon="2.00713">
        <ele>108.7</ele>
        <time>2024-02-04T09:44:37Z</time>
      </trkpt>
      <trkpt lat="49.11239" lon="2.00724">
        <ele>108.6</ele>
        <time>2024-02-04T09:44:42Z</time>
      </trkpt>
      <trkpt lat="49.11238" lon="2.00737">
        <ele>108.6</ele>
        <time>2024-02-04T09:44:48Z</time>
      </trkpt>
      <trkpt lat="49.11236" lon="2.00746">
        <ele>108.5</ele>
        <time>2024-02-04T09:44:53Z</time>
      </trkpt>
      <trkpt lat="49.11233" lon="2.0076">
        <ele>108.4</ele>
        <time>2024-02-04T09:44:59Z</time>
      </trkpt>
      <trkpt lat="49.11231" lon="2.00768">
        <ele>108.3</ele>
        <time>2024-02-04T09:45:05Z</time>
      </trkpt>
      <trkpt lat="49.11229" lon="2.00775">
        <ele>108.2</ele>
        <time>2024-02-04T09:45:10Z</time>
      </trkpt>
      <trkpt lat="49.11227" lon="2.00787">
        <ele>108.1</ele>
        <time>2024-02-04T09:45:16Z</time>
      </trkpt>
      <trkpt lat="49.11223" lon="2.00797">
        <ele>108</ele>
        <time>2024-02-04T09:45:22Z</time>
      </trkpt>
      <trkpt lat="49.11219" lon="2.00809">
        <ele>107.9</ele>
        <time>2024-02-04T09:45:28Z</time>
      </trkpt>
      <trkpt lat="49.11216" lon="2.00818">
        <ele>107.8</ele>
        <time>2024-02-04T09:45:33Z</time>
      </trkpt>
      <trkpt lat="49.11213" lon="2.00828">
        <ele>107.7</ele>
        <time>2024-02-04T09:45:39Z</time>
      </trkpt>
      <trkpt lat="49.11208" lon="2.00838">
        <ele>107.6</ele>
        <time>2024-02-04T09:45:45Z</time>
      </trkpt>
      <trkpt lat="49.11204" lon="2.00846">
        <ele>107.6</ele>
        <time>2024-02-04T09:45:50Z</time>
      </trkpt>
      <trkpt lat="49.112" lon="2.00857">
        <ele>107.9</ele>
        <time>2024-02-04T09:45:56Z</time>
      </trkpt>
      <trkpt lat="49.11195" lon="2.00867">
        <ele>108.2</ele>
        <time>2024-02-04T09:46:02Z</time>
      </trkpt>
      <trkpt lat="49.11192" lon="2.00873">
        <ele>108.5</ele>
        <time>2024-02-04T09:46:07Z</time>
      </trkpt>
      <trkpt lat="49.11188" lon="2.00881">
        <ele>108.9</ele>
        <time>2024-02-04T09:46:13Z</time>
      </trkpt>
      <trkpt lat="49.11185" lon="2.00888">
        <ele>109.3</ele>
        <time>2024-02-04T09:46:18Z</time>
      </trkpt>
      <trkpt lat="49.11185" lon="2.00896">
        <ele>109.2</ele>
        <time>2024-02-04T09:46:23Z</time>
      </trkpt>
      <trkpt lat="49.11188" lon="2.00903">
        <ele>109.1</ele>
        <time>2024-02-04T09:46:28Z</time>
      </trkpt>
      <trkpt lat="49.11193" lon="2.00912">
        <ele>109</ele>
        <time>2024-02-04T09:46:34Z</time>
      </trkpt>
      <trkpt lat="49.11197" lon="2.0092">
        <ele>109.2</ele>
        <time>2024-02-04T09:46:39Z</time>
      </trkpt>
      <trkpt lat="49.11202" lon="2.00929">
        <ele>109.7</ele>
        <time>2024-02-04T09:46:45Z</time>
      </trkpt>
      <trkpt lat="49.11207" lon="2.00939">
        <ele>110.2</ele>
        <time>2024-02-04T09:46:51Z</time>
      </trkpt>
      <trkpt lat="49.11213" lon="2.00948">
        <ele>110.4</ele>
        <time>2024-02-04T09:46:57Z</time>
      </trkpt>
      <trkpt lat="49.1122" lon="2.00957">
        <ele>110.1</ele>
        <time>2024-02-04T09:47:03Z</time>
      </trkpt>
      <trkpt lat="49.11224" lon="2.00966">
        <ele>110</ele>
        <time>2024-02-04T09:47:09Z</time>
      </trkpt>
      <trkpt lat="49.11226" lon="2.00975">
        <ele>110.3</ele>
        <time>2024-02-04T09:47:14Z</time>
      </trkpt>
      <trkpt lat="49.11229" lon="2.00985">
        <ele>111.1</ele>
        <time>2024-02-04T09:47:20Z</time>
      </trkpt>
      <trkpt lat="49.11232" lon="2.00996">
        <ele>111.8</ele>
        <time>2024-02-04T09:47:26Z</time>
      </trkpt>
      <trkpt lat="49.11235" lon="2.01006">
        <ele>112.2</ele>
        <time>2024-02-04T09:47:32Z</time>
      </trkpt>
      <trkpt lat="49.11238" lon="2.01016">
        <ele>112.6</ele>
        <time>2024-02-04T09:47:37Z</time>
      </trkpt>
      <trkpt lat="49.11241" lon="2.01027">
        <ele>113</ele>
        <time>2024-02-04T09:47:43Z</time>
      </trkpt>
      <trkpt lat="49.11244" lon="2.01037">
        <ele>113</ele>
        <time>2024-02-04T09:47:49Z</time>
      </trkpt>
      <trkpt lat="49.11247" lon="2.01048">
        <ele>113</ele>
        <time>2024-02-04T09:47:55Z</time>
      </trkpt>
      <trkpt lat="49.1125" lon="2.01058">
        <ele>113.1</ele>
        <time>2024-02-04T09:48:00Z</time>
      </trkpt>
      <trkpt lat="49.11253" lon="2.01066">
        <ele>113.5</ele>
        <time>2024-02-04T09:48:05Z</time>
      </trkpt>
      <trkpt lat="49.11257" lon="2.01077">
        <ele>114</ele>
        <time>2024-02-04T09:48:11Z</time>
      </trkpt>
      <trkpt lat="49.1126" lon="2.01085">
        <ele>114.4</ele>
        <time>2024-02-04T09:48:16Z</time>
      </trkpt>
      <trkpt lat="49.11264" lon="2.01096">
        <ele>114.7</ele>
        <time>2024-02-04T09:48:22Z</time>
      </trkpt>
      <trkpt lat="49.11267" lon="2.01106">
        <ele>114.9</ele>
        <time>2024-02-04T09:48:28Z</time>
      </trkpt>
      <trkpt lat="49.1127" lon="2.01117">
        <ele>115.2</ele>
        <time>2024-02-04T09:48:35Z</time>
      </trkpt>
      <trkpt lat="49.11272" lon="2.01125">
        <ele>115.5</ele>
        <time>2024-02-04T09:48:40Z</time>
      </trkpt>
      <trkpt lat="49.11274" lon="2.01133">
        <ele>115.8</ele>
        <time>2024-02-04T09:48:45Z</time>
      </trkpt>
      <trkpt lat="49.11276" lon="2.01143">
        <ele>116.3</ele>
        <time>2024-02-04T09:48:51Z</time>
      </trkpt>
      <trkpt lat="49.11279" lon="2.01151">
        <ele>116.9</ele>
        <time>2024-02-04T09:48:56Z</time>
      </trkpt>
      <trkpt lat="49.11283" lon="2.01161">
        <ele>117.5</ele>
        <time>2024-02-04T09:49:02Z</time>
      </trkpt>
      <trkpt lat="49.11287" lon="2.01169">
        <ele>117.8</ele>
        <time>2024-02-04T09:49:07Z</time>
      </trkpt>
      <trkpt lat="49.11291" lon="2.01178">
        <ele>118.1</ele>
        <time>2024-02-04T09:49:12Z</time>
      </trkpt>
      <trkpt lat="49.11295" lon="2.01189">
        <ele>118.7</ele>
        <time>2024-02-04T09:49:18Z</time>
      </trkpt>
      <trkpt lat="49.11298" lon="2.012">
        <ele>119.3</ele>
        <time>2024-02-04T09:49:24Z</time>
      </trkpt>
      <trkpt lat="49.11299" lon="2.01208">
        <ele>119.9</ele>
        <time>2024-02-04T09:49:29Z</time>
      </trkpt>
      <trkpt lat="49.11299" lon="2.01218">
        <ele>120.5</ele>
        <time>2024-02-04T09:49:35Z</time>
      </trkpt>
      <trkpt lat="49.11297" lon="2.01229">
        <ele>120.9</ele>
        <time>2024-02-04T09:49:41Z</time>
      </trkpt>
      <trkpt lat="49.11294" lon="2.01239">
        <ele>121.2</ele>
        <time>2024-02-04T09:49:47Z</time>
      </trkpt>
      <trkpt lat="49.11291" lon="2.01248">
        <ele>121.4</ele>
        <time>2024-02-04T09:49:52Z</time>
      </trkpt>
      <trkpt lat="49.11288" lon="2.01259">
        <ele>121.7</ele>
        <time>2024-02-04T09:49:58Z</time>
      </trkpt>
      <trkpt lat="49.11284" lon="2.01269">
        <ele>121.9</ele>
        <time>2024-02-04T09:50:04Z</time>
      </trkpt>
      <trkpt lat="49.11283" lon="2.01278">
        <ele>122.2</ele>
        <time>2024-02-04T09:50:09Z</time>
      </trkpt>
      <trkpt lat="49.11284" lon="2.0129">
        <ele>122.6</ele>
        <time>2024-02-04T09:50:15Z</time>
      </trkpt>
      <trkpt lat="49.11286" lon="2.01298">
        <ele>123</ele>
        <time>2024-02-04T09:50:20Z</time>
      </trkpt>
      <trkpt lat="49.1129" lon="2.01307">
        <ele>123.5</ele>
        <time>2024-02-04T09:50:26Z</time>
      </trkpt>
      <trkpt lat="49.11294" lon="2.01314">
        <ele>123.9</ele>
        <time>2024-02-04T09:50:31Z</time>
      </trkpt>
      <trkpt lat="49.113" lon="2.01322">
        <ele>124.4</ele>
        <time>2024-02-04T09:50:37Z</time>
      </trkpt>
      <trkpt lat="49.11306" lon="2.01329">
        <ele>124.8</ele>
        <time>2024-02-04T09:50:42Z</time>
      </trkpt>
      <trkpt lat="49.11311" lon="2.01337">
        <ele>125.3</ele>
        <time>2024-02-04T09:50:48Z</time>
      </trkpt>
      <trkpt lat="49.11315" lon="2.01345">
        <ele>125.8</ele>
        <time>2024-02-04T09:50:53Z</time>
      </trkpt>
      <trkpt lat="49.1132" lon="2.01352">
        <ele>126.2</ele>
        <time>2024-02-04T09:50:58Z</time>
      </trkpt>
      <trkpt lat="49.11325" lon="2.0136">
        <ele>126.7</ele>
        <time>2024-02-04T09:51:04Z</time>
      </trkpt>
      <trkpt lat="49.11331" lon="2.01366">
        <ele>127.1</ele>
        <time>2024-02-04T09:51:09Z</time>
      </trkpt>
      <trkpt lat="49.11337" lon="2.01372">
        <ele>127.5</ele>
        <time>2024-02-04T09:51:15Z</time>
      </trkpt>
      <trkpt lat="49.11344" lon="2.01379">
        <ele>128</ele>
        <time>2024-02-04T09:51:21Z</time>
      </trkpt>
      <trkpt lat="49.1135" lon="2.01387">
        <ele>128.5</ele>
        <time>2024-02-04T09:51:27Z</time>
      </trkpt>
      <trkpt lat="49.11355" lon="2.01394">
        <ele>129</ele>
        <time>2024-02-04T09:51:32Z</time>
      </trkpt>
      <trkpt lat="49.11361" lon="2.01404">
        <ele>129.5</ele>
        <time>2024-02-04T09:51:38Z</time>
      </trkpt>
      <trkpt lat="49.11366" lon="2.01412">
        <ele>129.8</ele>
        <time>2024-02-04T09:51:44Z</time>
      </trkpt>
      <trkpt lat="49.11372" lon="2.0142">
        <ele>130.1</ele>
        <time>2024-02-04T09:51:50Z</time>
      </trkpt>
      <trkpt lat="49.11378" lon="2.01428">
        <ele>130.4</ele>
        <time>2024-02-04T09:51:56Z</time>
      </trkpt>
      <trkpt lat="49.11383" lon="2.01437">
        <ele>130.7</ele>
        <time>2024-02-04T09:52:02Z</time>
      </trkpt>
      <trkpt lat="49.11388" lon="2.01443">
        <ele>131</ele>
        <time>2024-02-04T09:52:07Z</time>
      </trkpt>
      <trkpt lat="49.11393" lon="2.01453">
        <ele>131.5</ele>
        <time>2024-02-04T09:52:13Z</time>
      </trkpt>
      <trkpt lat="49.11397" lon="2.0146">
        <ele>132</ele>
        <time>2024-02-04T09:52:18Z</time>
      </trkpt>
      <trkpt lat="49.114" lon="2.01468">
        <ele>132.6</ele>
        <time>2024-02-04T09:52:23Z</time>
      </trkpt>
      <trkpt lat="49.11404" lon="2.01478">
        <ele>133.3</ele>
        <time>2024-02-04T09:52:29Z</time>
      </trkpt>
      <trkpt lat="49.11408" lon="2.01487">
        <ele>133.9</ele>
        <time>2024-02-04T09:52:35Z</time>
      </trkpt>
      <trkpt lat="49.11412" lon="2.01497">
        <ele>134.6</ele>
        <time>2024-02-04T09:52:41Z</time>
      </trkpt>
      <trkpt lat="49.11416" lon="2.01506">
        <ele>135.2</ele>
        <time>2024-02-04T09:52:47Z</time>
      </trkpt>
      <trkpt lat="49.11419" lon="2.01514">
        <ele>135.7</ele>
        <time>2024-02-04T09:52:52Z</time>
      </trkpt>
      <trkpt lat="49.11424" lon="2.01523">
        <ele>136.3</ele>
        <time>2024-02-04T09:52:58Z</time>
      </trkpt>
      <trkpt lat="49.11428" lon="2.0153">
        <ele>136.8</ele>
        <time>2024-02-04T09:53:03Z</time>
      </trkpt>
      <trkpt lat="49.11432" lon="2.01538">
        <ele>137.3</ele>
        <time>2024-02-04T09:53:08Z</time>
      </trkpt>
      <trkpt lat="49.11435" lon="2.01548">
        <ele>137.8</ele>
        <time>2024-02-04T09:53:14Z</time>
      </trkpt>
      <trkpt lat="49.11437" lon="2.01557">
        <ele>138.3</ele>
        <time>2024-02-04T09:53:20Z</time>
      </trkpt>
      <trkpt lat="49.1144" lon="2.01565">
        <ele>138.6</ele>
        <time>2024-02-04T09:53:25Z</time>
      </trkpt>
      <trkpt lat="49.11442" lon="2.01573">
        <ele>138.8</ele>
        <time>2024-02-04T09:53:30Z</time>
      </trkpt>
      <trkpt lat="49.11445" lon="2.01572">
        <ele>139</ele>
        <time>2024-02-04T09:53:35Z</time>
      </trkpt>
      <trkpt lat="49.11451" lon="2.01568">
        <ele>139.5</ele>
        <time>2024-02-04T09:53:41Z</time>
      </trkpt>
      <trkpt lat="49.11456" lon="2.01562">
        <ele>139.8</ele>
        <time>2024-02-04T09:53:46Z</time>
      </trkpt>
      <trkpt lat="49.1146" lon="2.01553">
        <ele>140.1</ele>
        <time>2024-02-04T09:53:52Z</time>
      </trkpt>
      <trkpt lat="49.11464" lon="2.01545">
        <ele>140.3</ele>
        <time>2024-02-04T09:53:57Z</time>
      </trkpt>
      <trkpt lat="49.11468" lon="2.01536">
        <ele>140.6</ele>
        <time>2024-02-04T09:54:03Z</time>
      </trkpt>
      <trkpt lat="49.11472" lon="2.01528">
        <ele>141</ele>
        <time>2024-02-04T09:54:08Z</time>
      </trkpt>
      <trkpt lat="49.11477" lon="2.01519">
        <ele>140.9</ele>
        <time>2024-02-04T09:54:13Z</time>
      </trkpt>
      <trkpt lat="49.11481" lon="2.01512">
        <ele>140.6</ele>
        <time>2024-02-04T09:54:18Z</time>
      </trkpt>
      <trkpt lat="49.11485" lon="2.01505">
        <ele>140.4</ele>
        <time>2024-02-04T09:54:23Z</time>
      </trkpt>
      <trkpt lat="49.1149" lon="2.01496">
        <ele>140</ele>
        <time>2024-02-04T09:54:29Z</time>
      </trkpt>
      <trkpt lat="49.11495" lon="2.01485">
        <ele>139.6</ele>
        <time>2024-02-04T09:54:35Z</time>
      </trkpt>
      <trkpt lat="49.11499" lon="2.01476">
        <ele>139.2</ele>
        <time>2024-02-04T09:54:40Z</time>
      </trkpt>
      <trkpt lat="49.11504" lon="2.01469">
        <ele>138.8</ele>
        <time>2024-02-04T09:54:45Z</time>
      </trkpt>
      <trkpt lat="49.1151" lon="2.01461">
        <ele>138.2</ele>
        <time>2024-02-04T09:54:51Z</time>
      </trkpt>
      <trkpt lat="49.11517" lon="2.01457">
        <ele>137.9</ele>
        <time>2024-02-04T09:54:57Z</time>
      </trkpt>
      <trkpt lat="49.11524" lon="2.01456">
        <ele>138.1</ele>
        <time>2024-02-04T09:55:03Z</time>
      </trkpt>
      <trkpt lat="49.11531" lon="2.01458">
        <ele>138.5</ele>
        <time>2024-02-04T09:55:09Z</time>
      </trkpt>
      <trkpt lat="49.11538" lon="2.01463">
        <ele>139</ele>
        <time>2024-02-04T09:55:15Z</time>
      </trkpt>
      <trkpt lat="49.11544" lon="2.01467">
        <ele>139.4</ele>
        <time>2024-02-04T09:55:20Z</time>
      </trkpt>
      <trkpt lat="49.1155" lon="2.01472">
        <ele>139.9</ele>
        <time>2024-02-04T09:55:26Z</time>
      </trkpt>
      <trkpt lat="49.11556" lon="2.01475">
        <ele>140.3</ele>
        <time>2024-02-04T09:55:31Z</time>
      </trkpt>
      <trkpt lat="49.11562" lon="2.01479">
        <ele>140.5</ele>
        <time>2024-02-04T09:55:37Z</time>
      </trkpt>
      <trkpt lat="49.11569" lon="2.01483">
        <ele>140.7</ele>
        <time>2024-02-04T09:55:43Z</time>
      </trkpt>
      <trkpt lat="49.11575" lon="2.01486">
        <ele>140.8</ele>
        <time>2024-02-04T09:55:49Z</time>
      </trkpt>
      <trkpt lat="49.11581" lon="2.01492">
        <ele>141.2</ele>
        <time>2024-02-04T09:55:55Z</time>
      </trkpt>
      <trkpt lat="49.11586" lon="2.01497">
        <ele>141.4</ele>
        <time>2024-02-04T09:56:00Z</time>
      </trkpt>
      <trkpt lat="49.11591" lon="2.01503">
        <ele>141.4</ele>
        <time>2024-02-04T09:56:06Z</time>
      </trkpt>
      <trkpt lat="49.11596" lon="2.01507">
        <ele>141.3</ele>
        <time>2024-02-04T09:56:11Z</time>
      </trkpt>
      <trkpt lat="49.11602" lon="2.0151">
        <ele>141.1</ele>
        <time>2024-02-04T09:56:17Z</time>
      </trkpt>
      <trkpt lat="49.11607" lon="2.01512">
        <ele>140.8</ele>
        <time>2024-02-04T09:56:23Z</time>
      </trkpt>
      <trkpt lat="49.11609" lon="2.01514">
        <ele>140.7</ele>
        <time>2024-02-04T09:56:28Z</time>
      </trkpt>
      <trkpt lat="49.11605" lon="2.01514">
        <ele>141.1</ele>
        <time>2024-02-04T09:56:34Z</time>
      </trkpt>
      <trkpt lat="49.11599" lon="2.01512">
        <ele>141.6</ele>
        <time>2024-02-04T09:56:39Z</time>
      </trkpt>
      <trkpt lat="49.11593" lon="2.01512">
        <ele>142.2</ele>
        <time>2024-02-04T09:56:45Z</time>
      </trkpt>
      <trkpt lat="49.11592" lon="2.01517">
        <ele>142.8</ele>
        <time>2024-02-04T09:56:50Z</time>
      </trkpt>
      <trkpt lat="49.11592" lon="2.01524">
        <ele>143.7</ele>
        <time>2024-02-04T09:56:55Z</time>
      </trkpt>
      <trkpt lat="49.11592" lon="2.01532">
        <ele>144.4</ele>
        <time>2024-02-04T09:57:00Z</time>
      </trkpt>
      <trkpt lat="49.11592" lon="2.01541">
        <ele>145.1</ele>
        <time>2024-02-04T09:57:06Z</time>
      </trkpt>
      <trkpt lat="49.11592" lon="2.0155">
        <ele>145.9</ele>
        <time>2024-02-04T09:57:12Z</time>
      </trkpt>
      <trkpt lat="49.11591" lon="2.01557">
        <ele>146.5</ele>
        <time>2024-02-04T09:57:17Z</time>
      </trkpt>
      <trkpt lat="49.11589" lon="2.01564">
        <ele>147</ele>
        <time>2024-02-04T09:57:23Z</time>
      </trkpt>
      <trkpt lat="49.11585" lon="2.01573">
        <ele>147.6</ele>
        <time>2024-02-04T09:57:28Z</time>
      </trkpt>
      <trkpt lat="49.11581" lon="2.01583">
        <ele>148</ele>
        <time>2024-02-04T09:57:34Z</time>
      </trkpt>
      <trkpt lat="49.11577" lon="2.01594">
        <ele>148</ele>
        <time>2024-02-04T09:57:40Z</time>
      </trkpt>
      <trkpt lat="49.11573" lon="2.01603">
        <ele>148</ele>
        <time>2024-02-04T09:57:45Z</time>
      </trkpt>
      <trkpt lat="49.11569" lon="2.01611">
        <ele>148</ele>
        <time>2024-02-04T09:57:51Z</time>
      </trkpt>
      <trkpt lat="49.11565" lon="2.01622">
        <ele>148.1</ele>
        <time>2024-02-04T09:57:57Z</time>
      </trkpt>
      <trkpt lat="49.11562" lon="2.01634">
        <ele>148.2</ele>
        <time>2024-02-04T09:58:03Z</time>
      </trkpt>
      <trkpt lat="49.11558" lon="2.01643">
        <ele>148.1</ele>
        <time>2024-02-04T09:58:08Z</time>
      </trkpt>
      <trkpt lat="49.11554" lon="2.01653">
        <ele>147.9</ele>
        <time>2024-02-04T09:58:14Z</time>
      </trkpt>
      <trkpt lat="49.11551" lon="2.0166">
        <ele>147.5</ele>
        <time>2024-02-04T09:58:20Z</time>
      </trkpt>
      <trkpt lat="49.11548" lon="2.01666">
        <ele>147.2</ele>
        <time>2024-02-04T09:58:25Z</time>
      </trkpt>
      <trkpt lat="49.11545" lon="2.01673">
        <ele>146.8</ele>
        <time>2024-02-04T09:58:30Z</time>
      </trkpt>
      <trkpt lat="49.11542" lon="2.0168">
        <ele>146.5</ele>
        <time>2024-02-04T09:58:35Z</time>
      </trkpt>
      <trkpt lat="49.11541" lon="2.0169">
        <ele>146.5</ele>
        <time>2024-02-04T09:58:41Z</time>
      </trkpt>
      <trkpt lat="49.11544" lon="2.01696">
        <ele>146.6</ele>
        <time>2024-02-04T09:58:46Z</time>
      </trkpt>
      <trkpt lat="49.11549" lon="2.01704">
        <ele>146.9</ele>
        <time>2024-02-04T09:58:52Z</time>
      </trkpt>
      <trkpt lat="49.11553" lon="2.01714">
        <ele>147</ele>
        <time>2024-02-04T09:58:58Z</time>
      </trkpt>
      <trkpt lat="49.11553" lon="2.01721">
        <ele>147</ele>
        <time>2024-02-04T09:59:03Z</time>
      </trkpt>
      <trkpt lat="49.11549" lon="2.01728">
        <ele>147.2</ele>
        <time>2024-02-04T09:59:08Z</time>
      </trkpt>
      <trkpt lat="49.11545" lon="2.01736">
        <ele>147.3</ele>
        <time>2024-02-04T09:59:14Z</time>
      </trkpt>
      <trkpt lat="49.11543" lon="2.01743">
        <ele>147.4</ele>
        <time>2024-02-04T09:59:20Z</time>
      </trkpt>
      <trkpt lat="49.11539" lon="2.01753">
        <ele>147.3</ele>
        <time>2024-02-04T09:59:26Z</time>
      </trkpt>
      <trkpt lat="49.11534" lon="2.01763">
        <ele>147.1</ele>
        <time>2024-02-04T09:59:32Z</time>
      </trkpt>
      <trkpt lat="49.1153" lon="2.01771">
        <ele>147</ele>
        <time>2024-02-04T09:59:38Z</time>
      </trkpt>
      <trkpt lat="49.11527" lon="2.01782">
        <ele>146.9</ele>
        <time>2024-02-04T09:59:44Z</time>
      </trkpt>
      <trkpt lat="49.11527" lon="2.01792">
        <ele>146.9</ele>
        <time>2024-02-04T09:59:49Z</time>
      </trkpt>
      <trkpt lat="49.11527" lon="2.01806">
        <ele>146.9</ele>
        <time>2024-02-04T09:59:55Z</time>
      </trkpt>
      <trkpt lat="49.11529" lon="2.01814">
        <ele>146.7</ele>
        <time>2024-02-04T10:00:01Z</time>
      </trkpt>
      <trkpt lat="49.1153" lon="2.01819">
        <ele>146.5</ele>
        <time>2024-02-04T10:00:07Z</time>
      </trkpt>
      <trkpt lat="49.11532" lon="2.01823">
        <ele>146.4</ele>
        <time>2024-02-04T10:00:12Z</time>
      </trkpt>
      <trkpt lat="49.11533" lon="2.01824">
        <ele>146.3</ele>
        <time>2024-02-04T10:00:18Z</time>
      </trkpt>
      <trkpt lat="49.11533" lon="2.01821">
        <ele>146.4</ele>
        <time>2024-02-04T10:00:23Z</time>
      </trkpt>
      <trkpt lat="49.11532" lon="2.01815">
        <ele>146.7</ele>
        <time>2024-02-04T10:00:29Z</time>
      </trkpt>
      <trkpt lat="49.11531" lon="2.01811">
        <ele>146.8</ele>
        <time>2024-02-04T10:00:35Z</time>
      </trkpt>
      <trkpt lat="49.11531" lon="2.01809">
        <ele>146.9</ele>
        <time>2024-02-04T10:00:41Z</time>
      </trkpt>
      <trkpt lat="49.11531" lon="2.01808">
        <ele>146.9</ele>
        <time>2024-02-04T10:00:47Z</time>
      </trkpt>
      <trkpt lat="49.11531" lon="2.01807">
        <ele>147</ele>
        <time>2024-02-04T10:00:53Z</time>
      </trkpt>
      <trkpt lat="49.11531" lon="2.01806">
        <ele>147</ele>
        <time>2024-02-04T10:00:58Z</time>
      </trkpt>
      <trkpt lat="49.11532" lon="2.01806">
        <ele>147</ele>
        <time>2024-02-04T10:01:04Z</time>
      </trkpt>
      <trkpt lat="49.11533" lon="2.01809">
        <ele>146.9</ele>
        <time>2024-02-04T10:01:10Z</time>
      </trkpt>
      <trkpt lat="49.11537" lon="2.01814">
        <ele>146.7</ele>
        <time>2024-02-04T10:01:15Z</time>
      </trkpt>
      <trkpt lat="49.11538" lon="2.01816">
        <ele>146.6</ele>
        <time>2024-02-04T10:01:21Z</time>
      </trkpt>
      <trkpt lat="49.11539" lon="2.0182">
        <ele>146.5</ele>
        <time>2024-02-04T10:01:27Z</time>
      </trkpt>
      <trkpt lat="49.11539" lon="2.01821">
        <ele>146.4</ele>
        <time>2024-02-04T10:01:32Z</time>
      </trkpt>
      <trkpt lat="49.11539" lon="2.01821">
        <ele>146.4</ele>
        <time>2024-02-04T10:01:38Z</time>
      </trkpt>
      <trkpt lat="49.11539" lon="2.01823">
        <ele>146.4</ele>
        <time>2024-02-04T10:01:44Z</time>
      </trkpt>
      <trkpt lat="49.11541" lon="2.01829">
        <ele>146.1</ele>
        <time>2024-02-04T10:01:50Z</time>
      </trkpt>
      <trkpt lat="49.11549" lon="2.01827">
        <ele>146.2</ele>
        <time>2024-02-04T10:01:56Z</time>
      </trkpt>
      <trkpt lat="49.11557" lon="2.01823">
        <ele>146.4</ele>
        <time>2024-02-04T10:02:02Z</time>
      </trkpt>
      <trkpt lat="49.11562" lon="2.01823">
        <ele>146.4</ele>
        <time>2024-02-04T10:02:08Z</time>
      </trkpt>
      <trkpt lat="49.11563" lon="2.01826">
        <ele>146.3</ele>
        <time>2024-02-04T10:02:13Z</time>
      </trkpt>
      <trkpt lat="49.11568" lon="2.01828">
        <ele>146.2</ele>
        <time>2024-02-04T10:02:19Z</time>
      </trkpt>
      <trkpt lat="49.11574" lon="2.01828">
        <ele>146.2</ele>
        <time>2024-02-04T10:02:24Z</time>
      </trkpt>
      <trkpt lat="49.11582" lon="2.01825">
        <ele>146.3</ele>
        <time>2024-02-04T10:02:30Z</time>
      </trkpt>
      <trkpt lat="49.1159" lon="2.01825">
        <ele>146.5</ele>
        <time>2024-02-04T10:02:36Z</time>
      </trkpt>
      <trkpt lat="49.11596" lon="2.01828">
        <ele>146.6</ele>
        <time>2024-02-04T10:02:42Z</time>
      </trkpt>
      <trkpt lat="49.11602" lon="2.01839">
        <ele>146.7</ele>
        <time>2024-02-04T10:02:48Z</time>
      </trkpt>
      <trkpt lat="49.11607" lon="2.01849">
        <ele>146.8</ele>
        <time>2024-02-04T10:02:54Z</time>
      </trkpt>
      <trkpt lat="49.11612" lon="2.01858">
        <ele>147</ele>
        <time>2024-02-04T10:03:00Z</time>
      </trkpt>
      <trkpt lat="49.11613" lon="2.01868">
        <ele>147</ele>
        <time>2024-02-04T10:03:05Z</time>
      </trkpt>
      <trkpt lat="49.11616" lon="2.01878">
        <ele>147</ele>
        <time>2024-02-04T10:03:11Z</time>
      </trkpt>
      <trkpt lat="49.1162" lon="2.01884">
        <ele>147</ele>
        <time>2024-02-04T10:03:16Z</time>
      </trkpt>
      <trkpt lat="49.11625" lon="2.01894">
        <ele>147</ele>
        <time>2024-02-04T10:03:22Z</time>
      </trkpt>
      <trkpt lat="49.11632" lon="2.019">
        <ele>147</ele>
        <time>2024-02-04T10:03:28Z</time>
      </trkpt>
      <trkpt lat="49.1164" lon="2.01905">
        <ele>147</ele>
        <time>2024-02-04T10:03:34Z</time>
      </trkpt>
      <trkpt lat="49.11645" lon="2.01912">
        <ele>147.2</ele>
        <time>2024-02-04T10:03:39Z</time>
      </trkpt>
      <trkpt lat="49.11649" lon="2.01922">
        <ele>147.3</ele>
        <time>2024-02-04T10:03:44Z</time>
      </trkpt>
      <trkpt lat="49.1165" lon="2.01937">
        <ele>147.1</ele>
        <time>2024-02-04T10:03:50Z</time>
      </trkpt>
      <trkpt lat="49.11655" lon="2.01947">
        <ele>147</ele>
        <time>2024-02-04T10:03:56Z</time>
      </trkpt>
      <trkpt lat="49.11658" lon="2.01957">
        <ele>147</ele>
        <time>2024-02-04T10:04:02Z</time>
      </trkpt>
      <trkpt lat="49.1166" lon="2.01967">
        <ele>147</ele>
        <time>2024-02-04T10:04:07Z</time>
      </trkpt>
      <trkpt lat="49.11662" lon="2.01978">
        <ele>147</ele>
        <time>2024-02-04T10:04:12Z</time>
      </trkpt>
      <trkpt lat="49.11665" lon="2.01989">
        <ele>147</ele>
        <time>2024-02-04T10:04:18Z</time>
      </trkpt>
      <trkpt lat="49.11667" lon="2.02">
        <ele>147</ele>
        <time>2024-02-04T10:04:24Z</time>
      </trkpt>
      <trkpt lat="49.11668" lon="2.02013">
        <ele>147</ele>
        <time>2024-02-04T10:04:30Z</time>
      </trkpt>
      <trkpt lat="49.11668" lon="2.02023">
        <ele>147</ele>
        <time>2024-02-04T10:04:35Z</time>
      </trkpt>
      <trkpt lat="49.11669" lon="2.02035">
        <ele>146.7</ele>
        <time>2024-02-04T10:04:40Z</time>
      </trkpt>
      <trkpt lat="49.11675" lon="2.02045">
        <ele>146.4</ele>
        <time>2024-02-04T10:04:46Z</time>
      </trkpt>
      <trkpt lat="49.11678" lon="2.02054">
        <ele>146.1</ele>
        <time>2024-02-04T10:04:51Z</time>
      </trkpt>
      <trkpt lat="49.1168" lon="2.02064">
        <ele>145.8</ele>
        <time>2024-02-04T10:04:56Z</time>
      </trkpt>
      <trkpt lat="49.11682" lon="2.02075">
        <ele>145.7</ele>
        <time>2024-02-04T10:05:02Z</time>
      </trkpt>
      <trkpt lat="49.11684" lon="2.02085">
        <ele>145.6</ele>
        <time>2024-02-04T10:05:08Z</time>
      </trkpt>
      <trkpt lat="49.11689" lon="2.02095">
        <ele>145.5</ele>
        <time>2024-02-04T10:05:13Z</time>
      </trkpt>
      <trkpt lat="49.11692" lon="2.02105">
        <ele>145.2</ele>
        <time>2024-02-04T10:05:19Z</time>
      </trkpt>
      <trkpt lat="49.11695" lon="2.02113">
        <ele>144.9</ele>
        <time>2024-02-04T10:05:24Z</time>
      </trkpt>
      <trkpt lat="49.11699" lon="2.02123">
        <ele>144.7</ele>
        <time>2024-02-04T10:05:30Z</time>
      </trkpt>
      <trkpt lat="49.11703" lon="2.02131">
        <ele>144.5</ele>
        <time>2024-02-04T10:05:35Z</time>
      </trkpt>
      <trkpt lat="49.11706" lon="2.02143">
        <ele>144.3</ele>
        <time>2024-02-04T10:05:41Z</time>
      </trkpt>
      <trkpt lat="49.1171" lon="2.02155">
        <ele>144</ele>
        <time>2024-02-04T10:05:47Z</time>
      </trkpt>
      <trkpt lat="49.11715" lon="2.02155">
        <ele>144.2</ele>
        <time>2024-02-04T10:05:52Z</time>
      </trkpt>
      <trkpt lat="49.11722" lon="2.02147">
        <ele>144.7</ele>
        <time>2024-02-04T10:05:58Z</time>
      </trkpt>
      <trkpt lat="49.11729" lon="2.02139">
        <ele>144.8</ele>
        <time>2024-02-04T10:06:04Z</time>
      </trkpt>
      <trkpt lat="49.11732" lon="2.02132">
        <ele>144.7</ele>
        <time>2024-02-04T10:06:09Z</time>
      </trkpt>
      <trkpt lat="49.11738" lon="2.02124">
        <ele>144.7</ele>
        <time>2024-02-04T10:06:15Z</time>
      </trkpt>
      <trkpt lat="49.1174" lon="2.02121">
        <ele>144.8</ele>
        <time>2024-02-04T10:06:20Z</time>
      </trkpt>
      <trkpt lat="49.11742" lon="2.02119">
        <ele>144.8</ele>
        <time>2024-02-04T10:06:26Z</time>
      </trkpt>
      <trkpt lat="49.11747" lon="2.02113">
        <ele>144.9</ele>
        <time>2024-02-04T10:06:32Z</time>
      </trkpt>
      <trkpt lat="49.11752" lon="2.02107">
        <ele>144.9</ele>
        <time>2024-02-04T10:06:37Z</time>
      </trkpt>
      <trkpt lat="49.11757" lon="2.02098">
        <ele>144.5</ele>
        <time>2024-02-04T10:06:43Z</time>
      </trkpt>
      <trkpt lat="49.11762" lon="2.02092">
        <ele>144.1</ele>
        <time>2024-02-04T10:06:48Z</time>
      </trkpt>
      <trkpt lat="49.11766" lon="2.02086">
        <ele>143.8</ele>
        <time>2024-02-04T10:06:53Z</time>
      </trkpt>
      <trkpt lat="49.11773" lon="2.02075">
        <ele>143.1</ele>
        <time>2024-02-04T10:06:59Z</time>
      </trkpt>
      <trkpt lat="49.11779" lon="2.02067">
        <ele>142.4</ele>
        <time>2024-02-04T10:07:04Z</time>
      </trkpt>
      <trkpt lat="49.11784" lon="2.02059">
        <ele>141.9</ele>
        <time>2024-02-04T10:07:10Z</time>
      </trkpt>
      <trkpt lat="49.11791" lon="2.02051">
        <ele>141.5</ele>
        <time>2024-02-04T10:07:16Z</time>
      </trkpt>
      <trkpt lat="49.11796" lon="2.02046">
        <ele>141.2</ele>
        <time>2024-02-04T10:07:21Z</time>
      </trkpt>
      <trkpt lat="49.118" lon="2.02038">
        <ele>140.8</ele>
        <time>2024-02-04T10:07:27Z</time>
      </trkpt>
      <trkpt lat="49.11803" lon="2.02031">
        <ele>140.3</ele>
        <time>2024-02-04T10:07:32Z</time>
      </trkpt>
      <trkpt lat="49.11808" lon="2.02022">
        <ele>139.8</ele>
        <time>2024-02-04T10:07:38Z</time>
      </trkpt>
      <trkpt lat="49.11815" lon="2.02013">
        <ele>139.3</ele>
        <time>2024-02-04T10:07:44Z</time>
      </trkpt>
      <trkpt lat="49.11822" lon="2.02004">
        <ele>138.8</ele>
        <time>2024-02-04T10:07:50Z</time>
      </trkpt>
      <trkpt lat="49.11828" lon="2.01996">
        <ele>138.2</ele>
        <time>2024-02-04T10:07:56Z</time>
      </trkpt>
      <trkpt lat="49.11833" lon="2.01987">
        <ele>137.5</ele>
        <time>2024-02-04T10:08:02Z</time>
      </trkpt>
      <trkpt lat="49.11839" lon="2.01978">
        <ele>136.8</ele>
        <time>2024-02-04T10:08:08Z</time>
      </trkpt>
      <trkpt lat="49.11845" lon="2.01971">
        <ele>136.2</ele>
        <time>2024-02-04T10:08:13Z</time>
      </trkpt>
      <trkpt lat="49.1185" lon="2.01963">
        <ele>135.8</ele>
        <time>2024-02-04T10:08:19Z</time>
      </trkpt>
      <trkpt lat="49.11856" lon="2.01955">
        <ele>135.3</ele>
        <time>2024-02-04T10:08:25Z</time>
      </trkpt>
      <trkpt lat="49.11862" lon="2.0195">
        <ele>134.9</ele>
        <time>2024-02-04T10:08:30Z</time>
      </trkpt>
      <trkpt lat="49.1187" lon="2.01948">
        <ele>134</ele>
        <time>2024-02-04T10:08:36Z</time>
      </trkpt>
      <trkpt lat="49.11878" lon="2.01945">
        <ele>133.1</ele>
        <time>2024-02-04T10:08:42Z</time>
      </trkpt>
      <trkpt lat="49.11884" lon="2.0194">
        <ele>132.7</ele>
        <time>2024-02-04T10:08:47Z</time>
      </trkpt>
      <trkpt lat="49.11892" lon="2.01935">
        <ele>132</ele>
        <time>2024-02-04T10:08:53Z</time>
      </trkpt>
      <trkpt lat="49.11899" lon="2.01935">
        <ele>131.2</ele>
        <time>2024-02-04T10:08:58Z</time>
      </trkpt>
      <trkpt lat="49.11906" lon="2.01934">
        <ele>130.5</ele>
        <time>2024-02-04T10:09:04Z</time>
      </trkpt>
      <trkpt lat="49.11914" lon="2.01931">
        <ele>129.7</ele>
        <time>2024-02-04T10:09:10Z</time>
      </trkpt>
      <trkpt lat="49.11924" lon="2.01929">
        <ele>128.9</ele>
        <time>2024-02-04T10:09:16Z</time>
      </trkpt>
      <trkpt lat="49.1193" lon="2.01928">
        <ele>128.3</ele>
        <time>2024-02-04T10:09:22Z</time>
      </trkpt>
      <trkpt lat="49.11936" lon="2.01927">
        <ele>127.8</ele>
        <time>2024-02-04T10:09:27Z</time>
      </trkpt>
      <trkpt lat="49.11945" lon="2.01924">
        <ele>126.9</ele>
        <time>2024-02-04T10:09:33Z</time>
      </trkpt>
      <trkpt lat="49.1195" lon="2.01922">
        <ele>126.4</ele>
        <time>2024-02-04T10:09:38Z</time>
      </trkpt>
      <trkpt lat="49.11956" lon="2.01919">
        <ele>125.8</ele>
        <time>2024-02-04T10:09:44Z</time>
      </trkpt>
      <trkpt lat="49.11962" lon="2.01914">
        <ele>125.1</ele>
        <time>2024-02-04T10:09:49Z</time>
      </trkpt>
      <trkpt lat="49.11972" lon="2.0191">
        <ele>124.1</ele>
        <time>2024-02-04T10:09:55Z</time>
      </trkpt>
      <trkpt lat="49.11978" lon="2.01908">
        <ele>123.6</ele>
        <time>2024-02-04T10:10:01Z</time>
      </trkpt>
      <trkpt lat="49.11986" lon="2.01903">
        <ele>123</ele>
        <time>2024-02-04T10:10:07Z</time>
      </trkpt>
      <trkpt lat="49.11993" lon="2.01896">
        <ele>122.5</ele>
        <time>2024-02-04T10:10:13Z</time>
      </trkpt>
      <trkpt lat="49.11997" lon="2.01894">
        <ele>122.2</ele>
        <time>2024-02-04T10:10:18Z</time>
      </trkpt>
      <trkpt lat="49.12003" lon="2.01895">
        <ele>121.8</ele>
        <time>2024-02-04T10:10:23Z</time>
      </trkpt>
      <trkpt lat="49.12011" lon="2.01897">
        <ele>121</ele>
        <time>2024-02-04T10:10:29Z</time>
      </trkpt>
      <trkpt lat="49.12019" lon="2.01904">
        <ele>120.2</ele>
        <time>2024-02-04T10:10:35Z</time>
      </trkpt>
      <trkpt lat="49.12025" lon="2.0191">
        <ele>119.5</ele>
        <time>2024-02-04T10:10:41Z</time>
      </trkpt>
      <trkpt lat="49.12032" lon="2.01917">
        <ele>118.7</ele>
        <time>2024-02-04T10:10:47Z</time>
      </trkpt>
      <trkpt lat="49.12038" lon="2.01922">
        <ele>118.4</ele>
        <time>2024-02-04T10:10:52Z</time>
      </trkpt>
      <trkpt lat="49.12046" lon="2.01928">
        <ele>117.8</ele>
        <time>2024-02-04T10:10:58Z</time>
      </trkpt>
      <trkpt lat="49.12053" lon="2.01933">
        <ele>117.3</ele>
        <time>2024-02-04T10:11:03Z</time>
      </trkpt>
      <trkpt lat="49.1206" lon="2.01936">
        <ele>116.8</ele>
        <time>2024-02-04T10:11:09Z</time>
      </trkpt>
      <trkpt lat="49.12066" lon="2.01941">
        <ele>116.6</ele>
        <time>2024-02-04T10:11:14Z</time>
      </trkpt>
      <trkpt lat="49.12073" lon="2.01948">
        <ele>116.4</ele>
        <time>2024-02-04T10:11:20Z</time>
      </trkpt>
      <trkpt lat="49.12079" lon="2.01956">
        <ele>116.2</ele>
        <time>2024-02-04T10:11:26Z</time>
      </trkpt>
      <trkpt lat="49.12085" lon="2.01959">
        <ele>115.9</ele>
        <time>2024-02-04T10:11:32Z</time>
      </trkpt>
      <trkpt lat="49.12091" lon="2.01963">
        <ele>115.7</ele>
        <time>2024-02-04T10:11:37Z</time>
      </trkpt>
      <trkpt lat="49.12095" lon="2.01972">
        <ele>115.6</ele>
        <time>2024-02-04T10:11:42Z</time>
      </trkpt>
      <trkpt lat="49.121" lon="2.01979">
        <ele>115.3</ele>
        <time>2024-02-04T10:11:47Z</time>
      </trkpt>
      <trkpt lat="49.12107" lon="2.01985">
        <ele>114.7</ele>
        <time>2024-02-04T10:11:53Z</time>
      </trkpt>
      <trkpt lat="49.12113" lon="2.01992">
        <ele>114.3</ele>
        <time>2024-02-04T10:11:58Z</time>
      </trkpt>
      <trkpt lat="49.12118" lon="2.01998">
        <ele>114.1</ele>
        <time>2024-02-04T10:12:04Z</time>
      </trkpt>
      <trkpt lat="49.12123" lon="2.02003">
        <ele>114</ele>
        <time>2024-02-04T10:12:10Z</time>
      </trkpt>
      <trkpt lat="49.12131" lon="2.02008">
        <ele>114</ele>
        <time>2024-02-04T10:12:16Z</time>
      </trkpt>
      <trkpt lat="49.12138" lon="2.02013">
        <ele>114</ele>
        <time>2024-02-04T10:12:21Z</time>
      </trkpt>
      <trkpt lat="49.12144" lon="2.02018">
        <ele>113.9</ele>
        <time>2024-02-04T10:12:27Z</time>
      </trkpt>
      <trkpt lat="49.12151" lon="2.02023">
        <ele>113.9</ele>
        <time>2024-02-04T10:12:33Z</time>
      </trkpt>
      <trkpt lat="49.12161" lon="2.02026">
        <ele>113.9</ele>
        <time>2024-02-04T10:12:39Z</time>
      </trkpt>
      <trkpt lat="49.12167" lon="2.02027">
        <ele>114</ele>
        <time>2024-02-04T10:12:44Z</time>
      </trkpt>
      <trkpt lat="49.12174" lon="2.02029">
        <ele>113.7</ele>
        <time>2024-02-04T10:12:50Z</time>
      </trkpt>
      <trkpt lat="49.12182" lon="2.02031">
        <ele>113.4</ele>
        <time>2024-02-04T10:12:56Z</time>
      </trkpt>
      <trkpt lat="49.12189" lon="2.02032">
        <ele>113.2</ele>
        <time>2024-02-04T10:13:02Z</time>
      </trkpt>
      <trkpt lat="49.12196" lon="2.02032">
        <ele>112.9</ele>
        <time>2024-02-04T10:13:08Z</time>
      </trkpt>
      <trkpt lat="49.12203" lon="2.02031">
        <ele>112.2</ele>
        <time>2024-02-04T10:13:13Z</time>
      </trkpt>
      <trkpt lat="49.1221" lon="2.02028">
        <ele>111.4</ele>
        <time>2024-02-04T10:13:19Z</time>
      </trkpt>
      <trkpt lat="49.12217" lon="2.02027">
        <ele>110.6</ele>
        <time>2024-02-04T10:13:24Z</time>
      </trkpt>
      <trkpt lat="49.12226" lon="2.02024">
        <ele>110.6</ele>
        <time>2024-02-04T10:13:30Z</time>
      </trkpt>
      <trkpt lat="49.12233" lon="2.02021">
        <ele>111.3</ele>
        <time>2024-02-04T10:13:35Z</time>
      </trkpt>
      <trkpt lat="49.12242" lon="2.02018">
        <ele>112</ele>
        <time>2024-02-04T10:13:41Z</time>
      </trkpt>
      <trkpt lat="49.12252" lon="2.02015">
        <ele>112.4</ele>
        <time>2024-02-04T10:13:47Z</time>
      </trkpt>
      <trkpt lat="49.12259" lon="2.02013">
        <ele>112.4</ele>
        <time>2024-02-04T10:13:53Z</time>
      </trkpt>
      <trkpt lat="49.12267" lon="2.02011">
        <ele>112.2</ele>
        <time>2024-02-04T10:14:00Z</time>
      </trkpt>
      <trkpt lat="49.12276" lon="2.02008">
        <ele>112</ele>
        <time>2024-02-04T10:14:06Z</time>
      </trkpt>
      <trkpt lat="49.12285" lon="2.02009">
        <ele>112</ele>
        <time>2024-02-04T10:14:12Z</time>
      </trkpt>
      <trkpt lat="49.12292" lon="2.02006">
        <ele>112</ele>
        <time>2024-02-04T10:14:18Z</time>
      </trkpt>
      <trkpt lat="49.12296" lon="2.02005">
        <ele>112</ele>
        <time>2024-02-04T10:14:23Z</time>
      </trkpt>
      <trkpt lat="49.12301" lon="2.02005">
        <ele>112</ele>
        <time>2024-02-04T10:14:28Z</time>
      </trkpt>
      <trkpt lat="49.1231" lon="2.02002">
        <ele>112</ele>
        <time>2024-02-04T10:14:34Z</time>
      </trkpt>
      <trkpt lat="49.12318" lon="2.01999">
        <ele>112.1</ele>
        <time>2024-02-04T10:14:40Z</time>
      </trkpt>
      <trkpt lat="49.12325" lon="2.01995">
        <ele>112.2</ele>
        <time>2024-02-04T10:14:45Z</time>
      </trkpt>
      <trkpt lat="49.12333" lon="2.01993">
        <ele>112.2</ele>
        <time>2024-02-04T10:14:51Z</time>
      </trkpt>
      <trkpt lat="49.1234" lon="2.01994">
        <ele>112.2</ele>
        <time>2024-02-04T10:14:56Z</time>
      </trkpt>
      <trkpt lat="49.12348" lon="2.01995">
        <ele>112.2</ele>
        <time>2024-02-04T10:15:01Z</time>
      </trkpt>
      <trkpt lat="49.12356" lon="2.01991">
        <ele>112.3</ele>
        <time>2024-02-04T10:15:07Z</time>
      </trkpt>
      <trkpt lat="49.12357" lon="2.01983">
        <ele>112.6</ele>
        <time>2024-02-04T10:15:13Z</time>
      </trkpt>
      <trkpt lat="49.12358" lon="2.01976">
        <ele>112.9</ele>
        <time>2024-02-04T10:15:18Z</time>
      </trkpt>
      <trkpt lat="49.1236" lon="2.01966">
        <ele>113</ele>
        <time>2024-02-04T10:15:24Z</time>
      </trkpt>
      <trkpt lat="49.12363" lon="2.01956">
        <ele>113</ele>
        <time>2024-02-04T10:15:30Z</time>
      </trkpt>
      <trkpt lat="49.12366" lon="2.01945">
        <ele>113</ele>
        <time>2024-02-04T10:15:36Z</time>
      </trkpt>
      <trkpt lat="49.12369" lon="2.01935">
        <ele>113.1</ele>
        <time>2024-02-04T10:15:42Z</time>
      </trkpt>
      <trkpt lat="49.12374" lon="2.01924">
        <ele>113.3</ele>
        <time>2024-02-04T10:15:48Z</time>
      </trkpt>
      <trkpt lat="49.12378" lon="2.01916">
        <ele>113.6</ele>
        <time>2024-02-04T10:15:54Z</time>
      </trkpt>
      <trkpt lat="49.12381" lon="2.01908">
        <ele>113.8</ele>
        <time>2024-02-04T10:15:59Z</time>
      </trkpt>
      <trkpt lat="49.12384" lon="2.01897">
        <ele>114</ele>
        <time>2024-02-04T10:16:05Z</time>
      </trkpt>
      <trkpt lat="49.12388" lon="2.01887">
        <ele>114.1</ele>
        <time>2024-02-04T10:16:11Z</time>
      </trkpt>
      <trkpt lat="49.12391" lon="2.01878">
        <ele>114.5</ele>
        <time>2024-02-04T10:16:16Z</time>
      </trkpt>
      <trkpt lat="49.12394" lon="2.0187">
        <ele>114.9</ele>
        <time>2024-02-04T10:16:21Z</time>
      </trkpt>
      <trkpt lat="49.12398" lon="2.0186">
        <ele>115.4</ele>
        <time>2024-02-04T10:16:27Z</time>
      </trkpt>
      <trkpt lat="49.12401" lon="2.0185">
        <ele>115.8</ele>
        <time>2024-02-04T10:16:33Z</time>
      </trkpt>
      <trkpt lat="49.12404" lon="2.01842">
        <ele>116.2</ele>
        <time>2024-02-04T10:16:38Z</time>
      </trkpt>
      <trkpt lat="49.12407" lon="2.01831">
        <ele>116.7</ele>
        <time>2024-02-04T10:16:44Z</time>
      </trkpt>
      <trkpt lat="49.1241" lon="2.0182">
        <ele>116.9</ele>
        <time>2024-02-04T10:16:50Z</time>
      </trkpt>
      <trkpt lat="49.12414" lon="2.0181">
        <ele>117</ele>
        <time>2024-02-04T10:16:56Z</time>
      </trkpt>
      <trkpt lat="49.12417" lon="2.01801">
        <ele>117.2</ele>
        <time>2024-02-04T10:17:02Z</time>
      </trkpt>
      <trkpt lat="49.12421" lon="2.01791">
        <ele>117.7</ele>
        <time>2024-02-04T10:17:08Z</time>
      </trkpt>
      <trkpt lat="49.12424" lon="2.01782">
        <ele>118.1</ele>
        <time>2024-02-04T10:17:13Z</time>
      </trkpt>
      <trkpt lat="49.12428" lon="2.0177">
        <ele>118.4</ele>
        <time>2024-02-04T10:17:19Z</time>
      </trkpt>
      <trkpt lat="49.12431" lon="2.01761">
        <ele>118.5</ele>
        <time>2024-02-04T10:17:24Z</time>
      </trkpt>
      <trkpt lat="49.12433" lon="2.01753">
        <ele>118.6</ele>
        <time>2024-02-04T10:17:29Z</time>
      </trkpt>
      <trkpt lat="49.12435" lon="2.01745">
        <ele>118.8</ele>
        <time>2024-02-04T10:17:34Z</time>
      </trkpt>
      <trkpt lat="49.12438" lon="2.01734">
        <ele>119.4</ele>
        <time>2024-02-04T10:17:40Z</time>
      </trkpt>
      <trkpt lat="49.12441" lon="2.01726">
        <ele>119.7</ele>
        <time>2024-02-04T10:17:45Z</time>
      </trkpt>
      <trkpt lat="49.12444" lon="2.01717">
        <ele>120</ele>
        <time>2024-02-04T10:17:51Z</time>
      </trkpt>
      <trkpt lat="49.12447" lon="2.01709">
        <ele>120</ele>
        <time>2024-02-04T10:17:56Z</time>
      </trkpt>
      <trkpt lat="49.12451" lon="2.01699">
        <ele>120.2</ele>
        <time>2024-02-04T10:18:02Z</time>
      </trkpt>
      <trkpt lat="49.12455" lon="2.01691">
        <ele>120.3</ele>
        <time>2024-02-04T10:18:07Z</time>
      </trkpt>
      <trkpt lat="49.12458" lon="2.0168">
        <ele>120.2</ele>
        <time>2024-02-04T10:18:13Z</time>
      </trkpt>
      <trkpt lat="49.1246" lon="2.01669">
        <ele>120.1</ele>
        <time>2024-02-04T10:18:19Z</time>
      </trkpt>
      <trkpt lat="49.12462" lon="2.01661">
        <ele>120.1</ele>
        <time>2024-02-04T10:18:24Z</time>
      </trkpt>
      <trkpt lat="49.12466" lon="2.01649">
        <ele>120.5</ele>
        <time>2024-02-04T10:18:30Z</time>
      </trkpt>
      <trkpt lat="49.12469" lon="2.0164">
        <ele>120.9</ele>
        <time>2024-02-04T10:18:35Z</time>
      </trkpt>
      <trkpt lat="49.12472" lon="2.0163">
        <ele>120.7</ele>
        <time>2024-02-04T10:18:41Z</time>
      </trkpt>
      <trkpt lat="49.12477" lon="2.01618">
        <ele>120.2</ele>
        <time>2024-02-04T10:18:47Z</time>
      </trkpt>
      <trkpt lat="49.1248" lon="2.01609">
        <ele>120</ele>
        <time>2024-02-04T10:18:52Z</time>
      </trkpt>
      <trkpt lat="49.12484" lon="2.016">
        <ele>120</ele>
        <time>2024-02-04T10:18:57Z</time>
      </trkpt>
      <trkpt lat="49.12488" lon="2.01591">
        <ele>120</ele>
        <time>2024-02-04T10:19:03Z</time>
      </trkpt>
      <trkpt lat="49.12491" lon="2.01583">
        <ele>120</ele>
        <time>2024-02-04T10:19:08Z</time>
      </trkpt>
      <trkpt lat="49.12494" lon="2.01572">
        <ele>119.7</ele>
        <time>2024-02-04T10:19:13Z</time>
      </trkpt>
      <trkpt lat="49.12498" lon="2.0156">
        <ele>119.2</ele>
        <time>2024-02-04T10:19:19Z</time>
      </trkpt>
      <trkpt lat="49.12501" lon="2.01551">
        <ele>119</ele>
        <time>2024-02-04T10:19:24Z</time>
      </trkpt>
      <trkpt lat="49.12505" lon="2.01542">
        <ele>119</ele>
        <time>2024-02-04T10:19:29Z</time>
      </trkpt>
      <trkpt lat="49.12509" lon="2.01532">
        <ele>119</ele>
        <time>2024-02-04T10:19:35Z</time>
      </trkpt>
      <trkpt lat="49.12513" lon="2.01521">
        <ele>119</ele>
        <time>2024-02-04T10:19:41Z</time>
      </trkpt>
      <trkpt lat="49.12515" lon="2.01513">
        <ele>119</ele>
        <time>2024-02-04T10:19:46Z</time>
      </trkpt>
      <trkpt lat="49.12519" lon="2.01503">
        <ele>119</ele>
        <time>2024-02-04T10:19:52Z</time>
      </trkpt>
      <trkpt lat="49.12524" lon="2.01494">
        <ele>118.8</ele>
        <time>2024-02-04T10:19:58Z</time>
      </trkpt>
      <trkpt lat="49.12532" lon="2.01496">
        <ele>118.7</ele>
        <time>2024-02-04T10:20:04Z</time>
      </trkpt>
      <trkpt lat="49.12536" lon="2.01503">
        <ele>118.7</ele>
        <time>2024-02-04T10:20:09Z</time>
      </trkpt>
      <trkpt lat="49.12541" lon="2.0151">
        <ele>118.5</ele>
        <time>2024-02-04T10:20:14Z</time>
      </trkpt>
      <trkpt lat="49.12547" lon="2.01519">
        <ele>118.3</ele>
        <time>2024-02-04T10:20:20Z</time>
      </trkpt>
      <trkpt lat="49.12552" lon="2.01527">
        <ele>118.1</ele>
        <time>2024-02-04T10:20:26Z</time>
      </trkpt>
      <trkpt lat="49.12556" lon="2.01534">
        <ele>118.2</ele>
        <time>2024-02-04T10:20:31Z</time>
      </trkpt>
      <trkpt lat="49.12561" lon="2.01544">
        <ele>118.5</ele>
        <time>2024-02-04T10:20:37Z</time>
      </trkpt>
      <trkpt lat="49.12565" lon="2.01552">
        <ele>118.6</ele>
        <time>2024-02-04T10:20:42Z</time>
      </trkpt>
      <trkpt lat="49.1257" lon="2.01562">
        <ele>118.5</ele>
        <time>2024-02-04T10:20:48Z</time>
      </trkpt>
      <trkpt lat="49.12574" lon="2.01571">
        <ele>118.3</ele>
        <time>2024-02-04T10:20:54Z</time>
      </trkpt>
      <trkpt lat="49.12579" lon="2.01581">
        <ele>118.1</ele>
        <time>2024-02-04T10:21:00Z</time>
      </trkpt>
      <trkpt lat="49.12583" lon="2.01589">
        <ele>118.2</ele>
        <time>2024-02-04T10:21:05Z</time>
      </trkpt>
      <trkpt lat="49.12588" lon="2.016">
        <ele>118.3</ele>
        <time>2024-02-04T10:21:11Z</time>
      </trkpt>
      <trkpt lat="49.12592" lon="2.01609">
        <ele>118.3</ele>
        <time>2024-02-04T10:21:16Z</time>
      </trkpt>
      <trkpt lat="49.12596" lon="2.01619">
        <ele>118.4</ele>
        <time>2024-02-04T10:21:22Z</time>
      </trkpt>
      <trkpt lat="49.126" lon="2.0163">
        <ele>118.5</ele>
        <time>2024-02-04T10:21:28Z</time>
      </trkpt>
      <trkpt lat="49.12603" lon="2.01639">
        <ele>118.6</ele>
        <time>2024-02-04T10:21:33Z</time>
      </trkpt>
      <trkpt lat="49.12606" lon="2.01647">
        <ele>118.3</ele>
        <time>2024-02-04T10:21:38Z</time>
      </trkpt>
      <trkpt lat="49.12612" lon="2.01656">
        <ele>118</ele>
        <time>2024-02-04T10:21:44Z</time>
      </trkpt>
      <trkpt lat="49.12616" lon="2.01664">
        <ele>117.8</ele>
        <time>2024-02-04T10:21:49Z</time>
      </trkpt>
      <trkpt lat="49.1262" lon="2.01672">
        <ele>117.8</ele>
        <time>2024-02-04T10:21:54Z</time>
      </trkpt>
      <trkpt lat="49.12624" lon="2.01683">
        <ele>117.8</ele>
        <time>2024-02-04T10:22:00Z</time>
      </trkpt>
      <trkpt lat="49.12627" lon="2.01693">
        <ele>117.8</ele>
        <time>2024-02-04T10:22:06Z</time>
      </trkpt>
      <trkpt lat="49.12631" lon="2.01701">
        <ele>117.6</ele>
        <time>2024-02-04T10:22:11Z</time>
      </trkpt>
      <trkpt lat="49.12637" lon="2.01711">
        <ele>117.2</ele>
        <time>2024-02-04T10:22:17Z</time>
      </trkpt>
      <trkpt lat="49.1264" lon="2.01718">
        <ele>117</ele>
        <time>2024-02-04T10:22:22Z</time>
      </trkpt>
      <trkpt lat="49.12645" lon="2.01729">
        <ele>117.2</ele>
        <time>2024-02-04T10:22:28Z</time>
      </trkpt>
      <trkpt lat="49.12649" lon="2.0174">
        <ele>117.4</ele>
        <time>2024-02-04T10:22:34Z</time>
      </trkpt>
      <trkpt lat="49.12652" lon="2.01748">
        <ele>117.5</ele>
        <time>2024-02-04T10:22:39Z</time>
      </trkpt>
      <trkpt lat="49.12657" lon="2.01756">
        <ele>117.2</ele>
        <time>2024-02-04T10:22:45Z</time>
      </trkpt>
      <trkpt lat="49.12661" lon="2.01765">
        <ele>117</ele>
        <time>2024-02-04T10:22:50Z</time>
      </trkpt>
      <trkpt lat="49.12665" lon="2.01774">
        <ele>117</ele>
        <time>2024-02-04T10:22:55Z</time>
      </trkpt>
      <trkpt lat="49.1267" lon="2.01784">
        <ele>117.2</ele>
        <time>2024-02-04T10:23:01Z</time>
      </trkpt>
      <trkpt lat="49.12676" lon="2.01792">
        <ele>117.2</ele>
        <time>2024-02-04T10:23:07Z</time>
      </trkpt>
      <trkpt lat="49.1268" lon="2.01802">
        <ele>117.3</ele>
        <time>2024-02-04T10:23:13Z</time>
      </trkpt>
      <trkpt lat="49.12685" lon="2.0181">
        <ele>117.2</ele>
        <time>2024-02-04T10:23:18Z</time>
      </trkpt>
      <trkpt lat="49.1269" lon="2.01818">
        <ele>117.3</ele>
        <time>2024-02-04T10:23:23Z</time>
      </trkpt>
      <trkpt lat="49.12695" lon="2.01825">
        <ele>117.4</ele>
        <time>2024-02-04T10:23:28Z</time>
      </trkpt>
      <trkpt lat="49.12701" lon="2.01833">
        <ele>117.3</ele>
        <time>2024-02-04T10:23:34Z</time>
      </trkpt>
      <trkpt lat="49.12707" lon="2.01841">
        <ele>117</ele>
        <time>2024-02-04T10:23:40Z</time>
      </trkpt>
      <trkpt lat="49.12712" lon="2.01847">
        <ele>116.6</ele>
        <time>2024-02-04T10:23:45Z</time>
      </trkpt>
      <trkpt lat="49.12718" lon="2.01856">
        <ele>116.3</ele>
        <time>2024-02-04T10:23:51Z</time>
      </trkpt>
      <trkpt lat="49.12723" lon="2.01862">
        <ele>116</ele>
        <time>2024-02-04T10:23:56Z</time>
      </trkpt>
      <trkpt lat="49.12729" lon="2.01869">
        <ele>116.2</ele>
        <time>2024-02-04T10:24:02Z</time>
      </trkpt>
      <trkpt lat="49.12736" lon="2.01876">
        <ele>116.3</ele>
        <time>2024-02-04T10:24:08Z</time>
      </trkpt>
      <trkpt lat="49.12742" lon="2.01882">
        <ele>116.3</ele>
        <time>2024-02-04T10:24:13Z</time>
      </trkpt>
      <trkpt lat="49.12749" lon="2.01888">
        <ele>116</ele>
        <time>2024-02-04T10:24:19Z</time>
      </trkpt>
      <trkpt lat="49.12755" lon="2.01893">
        <ele>116</ele>
        <time>2024-02-04T10:24:24Z</time>
      </trkpt>
      <trkpt lat="49.12762" lon="2.019">
        <ele>116</ele>
        <time>2024-02-04T10:24:30Z</time>
      </trkpt>
      <trkpt lat="49.12768" lon="2.01908">
        <ele>116</ele>
        <time>2024-02-04T10:24:36Z</time>
      </trkpt>
      <trkpt lat="49.12774" lon="2.01917">
        <ele>116.1</ele>
        <time>2024-02-04T10:24:42Z</time>
      </trkpt>
      <trkpt lat="49.1278" lon="2.01927">
        <ele>116.2</ele>
        <time>2024-02-04T10:24:48Z</time>
      </trkpt>
      <trkpt lat="49.12784" lon="2.01933">
        <ele>116.1</ele>
        <time>2024-02-04T10:24:53Z</time>
      </trkpt>
      <trkpt lat="49.12789" lon="2.01939">
        <ele>116</ele>
        <time>2024-02-04T10:24:58Z</time>
      </trkpt>
      <trkpt lat="49.12796" lon="2.01944">
        <ele>115.7</ele>
        <time>2024-02-04T10:25:04Z</time>
      </trkpt>
      <trkpt lat="49.12801" lon="2.01954">
        <ele>115.6</ele>
        <time>2024-02-04T10:25:10Z</time>
      </trkpt>
      <trkpt lat="49.12807" lon="2.01963">
        <ele>115.6</ele>
        <time>2024-02-04T10:25:16Z</time>
      </trkpt>
      <trkpt lat="49.12812" lon="2.01971">
        <ele>115.5</ele>
        <time>2024-02-04T10:25:21Z</time>
      </trkpt>
      <trkpt lat="49.12819" lon="2.01979">
        <ele>115.3</ele>
        <time>2024-02-04T10:25:27Z</time>
      </trkpt>
      <trkpt lat="49.12825" lon="2.01986">
        <ele>115</ele>
        <time>2024-02-04T10:25:33Z</time>
      </trkpt>
      <trkpt lat="49.12831" lon="2.01994">
        <ele>115</ele>
        <time>2024-02-04T10:25:39Z</time>
      </trkpt>
      <trkpt lat="49.12836" lon="2.02001">
        <ele>114.8</ele>
        <time>2024-02-04T10:25:44Z</time>
      </trkpt>
      <trkpt lat="49.12841" lon="2.02008">
        <ele>114.7</ele>
        <time>2024-02-04T10:25:49Z</time>
      </trkpt>
      <trkpt lat="49.12847" lon="2.02016">
        <ele>114.6</ele>
        <time>2024-02-04T10:25:55Z</time>
      </trkpt>
      <trkpt lat="49.12853" lon="2.02023">
        <ele>114.4</ele>
        <time>2024-02-04T10:26:01Z</time>
      </trkpt>
      <trkpt lat="49.12858" lon="2.0203">
        <ele>114.3</ele>
        <time>2024-02-04T10:26:06Z</time>
      </trkpt>
      <trkpt lat="49.12863" lon="2.02038">
        <ele>114.2</ele>
        <time>2024-02-04T10:26:11Z</time>
      </trkpt>
      <trkpt lat="49.1287" lon="2.02046">
        <ele>114.2</ele>
        <time>2024-02-04T10:26:17Z</time>
      </trkpt>
      <trkpt lat="49.12876" lon="2.02055">
        <ele>113.9</ele>
        <time>2024-02-04T10:26:23Z</time>
      </trkpt>
      <trkpt lat="49.12882" lon="2.02064">
        <ele>113.8</ele>
        <time>2024-02-04T10:26:29Z</time>
      </trkpt>
      <trkpt lat="49.12886" lon="2.02071">
        <ele>113.8</ele>
        <time>2024-02-04T10:26:34Z</time>
      </trkpt>
      <trkpt lat="49.12892" lon="2.02081">
        <ele>113.7</ele>
        <time>2024-02-04T10:26:40Z</time>
      </trkpt>
      <trkpt lat="49.12895" lon="2.02087">
        <ele>113.7</ele>
        <time>2024-02-04T10:26:45Z</time>
      </trkpt>
      <trkpt lat="49.129" lon="2.02098">
        <ele>113.5</ele>
        <time>2024-02-04T10:26:51Z</time>
      </trkpt>
      <trkpt lat="49.12905" lon="2.02109">
        <ele>113.2</ele>
        <time>2024-02-04T10:26:57Z</time>
      </trkpt>
      <trkpt lat="49.1291" lon="2.02117">
        <ele>112.9</ele>
        <time>2024-02-04T10:27:02Z</time>
      </trkpt>
      <trkpt lat="49.12914" lon="2.02124">
        <ele>112.7</ele>
        <time>2024-02-04T10:27:08Z</time>
      </trkpt>
      <trkpt lat="49.12916" lon="2.02128">
        <ele>112.6</ele>
        <time>2024-02-04T10:27:15Z</time>
      </trkpt>
      <trkpt lat="49.12923" lon="2.0213">
        <ele>112.5</ele>
        <time>2024-02-04T10:27:20Z</time>
      </trkpt>
      <trkpt lat="49.12928" lon="2.02121">
        <ele>112.2</ele>
        <time>2024-02-04T10:27:26Z</time>
      </trkpt>
      <trkpt lat="49.1293" lon="2.02111">
        <ele>112</ele>
        <time>2024-02-04T10:27:31Z</time>
      </trkpt>
      <trkpt lat="49.12933" lon="2.02098">
        <ele>112</ele>
        <time>2024-02-04T10:27:37Z</time>
      </trkpt>
      <trkpt lat="49.12934" lon="2.0209">
        <ele>112</ele>
        <time>2024-02-04T10:27:42Z</time>
      </trkpt>
      <trkpt lat="49.12937" lon="2.02082">
        <ele>112</ele>
        <time>2024-02-04T10:27:47Z</time>
      </trkpt>
      <trkpt lat="49.1294" lon="2.02072">
        <ele>112.3</ele>
        <time>2024-02-04T10:27:53Z</time>
      </trkpt>
      <trkpt lat="49.12942" lon="2.02062">
        <ele>112.7</ele>
        <time>2024-02-04T10:27:59Z</time>
      </trkpt>
      <trkpt lat="49.12945" lon="2.02054">
        <ele>113.1</ele>
        <time>2024-02-04T10:28:04Z</time>
      </trkpt>
      <trkpt lat="49.12947" lon="2.02043">
        <ele>113.5</ele>
        <time>2024-02-04T10:28:10Z</time>
      </trkpt>
      <trkpt lat="49.12949" lon="2.02033">
        <ele>114</ele>
        <time>2024-02-04T10:28:15Z</time>
      </trkpt>
      <trkpt lat="49.12952" lon="2.02022">
        <ele>114.5</ele>
        <time>2024-02-04T10:28:21Z</time>
      </trkpt>
      <trkpt lat="49.12954" lon="2.02013">
        <ele>114.9</ele>
        <time>2024-02-04T10:28:26Z</time>
      </trkpt>
      <trkpt lat="49.12956" lon="2.02005">
        <ele>115.2</ele>
        <time>2024-02-04T10:28:31Z</time>
      </trkpt>
      <trkpt lat="49.12958" lon="2.01995">
        <ele>115.7</ele>
        <time>2024-02-04T10:28:37Z</time>
      </trkpt>
      <trkpt lat="49.12961" lon="2.01985">
        <ele>116.1</ele>
        <time>2024-02-04T10:28:43Z</time>
      </trkpt>
      <trkpt lat="49.12964" lon="2.01975">
        <ele>116.6</ele>
        <time>2024-02-04T10:28:49Z</time>
      </trkpt>
      <trkpt lat="49.12967" lon="2.01963">
        <ele>116.8</ele>
        <time>2024-02-04T10:28:55Z</time>
      </trkpt>
      <trkpt lat="49.1297" lon="2.01952">
        <ele>116.9</ele>
        <time>2024-02-04T10:29:01Z</time>
      </trkpt>
      <trkpt lat="49.12972" lon="2.01944">
        <ele>117</ele>
        <time>2024-02-04T10:29:06Z</time>
      </trkpt>
      <trkpt lat="49.12974" lon="2.01934">
        <ele>117.4</ele>
        <time>2024-02-04T10:29:12Z</time>
      </trkpt>
      <trkpt lat="49.12977" lon="2.01923">
        <ele>117.8</ele>
        <time>2024-02-04T10:29:18Z</time>
      </trkpt>
      <trkpt lat="49.12979" lon="2.01911">
        <ele>118</ele>
        <time>2024-02-04T10:29:24Z</time>
      </trkpt>
      <trkpt lat="49.12982" lon="2.019">
        <ele>118</ele>
        <time>2024-02-04T10:29:29Z</time>
      </trkpt>
      <trkpt lat="49.12982" lon="2.01891">
        <ele>118</ele>
        <time>2024-02-04T10:29:35Z</time>
      </trkpt>
      <trkpt lat="49.12985" lon="2.01882">
        <ele>118.1</ele>
        <time>2024-02-04T10:29:40Z</time>
      </trkpt>
      <trkpt lat="49.12988" lon="2.01871">
        <ele>118.4</ele>
        <time>2024-02-04T10:29:46Z</time>
      </trkpt>
      <trkpt lat="49.12989" lon="2.01862">
        <ele>118.6</ele>
        <time>2024-02-04T10:29:51Z</time>
      </trkpt>
      <trkpt lat="49.12993" lon="2.01851">
        <ele>118.7</ele>
        <time>2024-02-04T10:29:57Z</time>
      </trkpt>
      <trkpt lat="49.12996" lon="2.0184">
        <ele>118.9</ele>
        <time>2024-02-04T10:30:03Z</time>
      </trkpt>
      <trkpt lat="49.12999" lon="2.01828">
        <ele>119</ele>
        <time>2024-02-04T10:30:09Z</time>
      </trkpt>
      <trkpt lat="49.13002" lon="2.01818">
        <ele>119.1</ele>
        <time>2024-02-04T10:30:15Z</time>
      </trkpt>
      <trkpt lat="49.13004" lon="2.01808">
        <ele>119.1</ele>
        <time>2024-02-04T10:30:21Z</time>
      </trkpt>
      <trkpt lat="49.13007" lon="2.01795">
        <ele>119.2</ele>
        <time>2024-02-04T10:30:27Z</time>
      </trkpt>
      <trkpt lat="49.13008" lon="2.01787">
        <ele>119.3</ele>
        <time>2024-02-04T10:30:32Z</time>
      </trkpt>
      <trkpt lat="49.13011" lon="2.01777">
        <ele>119.4</ele>
        <time>2024-02-04T10:30:37Z</time>
      </trkpt>
      <trkpt lat="49.13013" lon="2.01764">
        <ele>119.5</ele>
        <time>2024-02-04T10:30:43Z</time>
      </trkpt>
      <trkpt lat="49.13016" lon="2.01754">
        <ele>119.6</ele>
        <time>2024-02-04T10:30:49Z</time>
      </trkpt>
      <trkpt lat="49.1302" lon="2.01741">
        <ele>119.7</ele>
        <time>2024-02-04T10:30:55Z</time>
      </trkpt>
      <trkpt lat="49.13023" lon="2.01732">
        <ele>119.8</ele>
        <time>2024-02-04T10:31:01Z</time>
      </trkpt>
      <trkpt lat="49.13025" lon="2.01721">
        <ele>119.9</ele>
        <time>2024-02-04T10:31:06Z</time>
      </trkpt>
      <trkpt lat="49.13027" lon="2.01709">
        <ele>120</ele>
        <time>2024-02-04T10:31:11Z</time>
      </trkpt>
      <trkpt lat="49.13029" lon="2.017">
        <ele>120</ele>
        <time>2024-02-04T10:31:17Z</time>
      </trkpt>
      <trkpt lat="49.13032" lon="2.01687">
        <ele>120</ele>
        <time>2024-02-04T10:31:23Z</time>
      </trkpt>
      <trkpt lat="49.13035" lon="2.01676">
        <ele>120</ele>
        <time>2024-02-04T10:31:28Z</time>
      </trkpt>
      <trkpt lat="49.13038" lon="2.01663">
        <ele>119.9</ele>
        <time>2024-02-04T10:31:34Z</time>
      </trkpt>
      <trkpt lat="49.13042" lon="2.01653">
        <ele>119.8</ele>
        <time>2024-02-04T10:31:39Z</time>
      </trkpt>
      <trkpt lat="49.13045" lon="2.01644">
        <ele>119.7</ele>
        <time>2024-02-04T10:31:44Z</time>
      </trkpt>
      <trkpt lat="49.13047" lon="2.01635">
        <ele>119.7</ele>
        <time>2024-02-04T10:31:49Z</time>
      </trkpt>
      <trkpt lat="49.13048" lon="2.01621">
        <ele>119.7</ele>
        <time>2024-02-04T10:31:55Z</time>
      </trkpt>
      <trkpt lat="49.13051" lon="2.01607">
        <ele>119.8</ele>
        <time>2024-02-04T10:32:01Z</time>
      </trkpt>
      <trkpt lat="49.13054" lon="2.01595">
        <ele>120</ele>
        <time>2024-02-04T10:32:07Z</time>
      </trkpt>
      <trkpt lat="49.13057" lon="2.01583">
        <ele>120.1</ele>
        <time>2024-02-04T10:32:12Z</time>
      </trkpt>
      <trkpt lat="49.13059" lon="2.01572">
        <ele>120.1</ele>
        <time>2024-02-04T10:32:18Z</time>
      </trkpt>
      <trkpt lat="49.13063" lon="2.01563">
        <ele>120.3</ele>
        <time>2024-02-04T10:32:23Z</time>
      </trkpt>
      <trkpt lat="49.13065" lon="2.0155">
        <ele>120.4</ele>
        <time>2024-02-04T10:32:29Z</time>
      </trkpt>
      <trkpt lat="49.13068" lon="2.01539">
        <ele>120.5</ele>
        <time>2024-02-04T10:32:35Z</time>
      </trkpt>
      <trkpt lat="49.13071" lon="2.0153">
        <ele>120.6</ele>
        <time>2024-02-04T10:32:40Z</time>
      </trkpt>
      <trkpt lat="49.13073" lon="2.01518">
        <ele>120.8</ele>
        <time>2024-02-04T10:32:46Z</time>
      </trkpt>
      <trkpt lat="49.13076" lon="2.01509">
        <ele>120.9</ele>
        <time>2024-02-04T10:32:51Z</time>
      </trkpt>
      <trkpt lat="49.13079" lon="2.01496">
        <ele>121.1</ele>
        <time>2024-02-04T10:32:57Z</time>
      </trkpt>
      <trkpt lat="49.1308" lon="2.01487">
        <ele>121.4</ele>
        <time>2024-02-04T10:33:02Z</time>
      </trkpt>
      <trkpt lat="49.13083" lon="2.01475">
        <ele>121.9</ele>
        <time>2024-02-04T10:33:08Z</time>
      </trkpt>
      <trkpt lat="49.13087" lon="2.01464">
        <ele>122</ele>
        <time>2024-02-04T10:33:14Z</time>
      </trkpt>
      <trkpt lat="49.13089" lon="2.01455">
        <ele>122.1</ele>
        <time>2024-02-04T10:33:19Z</time>
      </trkpt>
      <trkpt lat="49.13092" lon="2.01445">
        <ele>122.3</ele>
        <time>2024-02-04T10:33:24Z</time>
      </trkpt>
      <trkpt lat="49.13094" lon="2.01436">
        <ele>122.4</ele>
        <time>2024-02-04T10:33:29Z</time>
      </trkpt>
      <trkpt lat="49.13098" lon="2.01424">
        <ele>122.5</ele>
        <time>2024-02-04T10:33:35Z</time>
      </trkpt>
      <trkpt lat="49.13101" lon="2.01413">
        <ele>122.8</ele>
        <time>2024-02-04T10:33:41Z</time>
      </trkpt>
      <trkpt lat="49.13102" lon="2.01403">
        <ele>123.2</ele>
        <time>2024-02-04T10:33:46Z</time>
      </trkpt>
      <trkpt lat="49.13103" lon="2.01393">
        <ele>123.6</ele>
        <time>2024-02-04T10:33:52Z</time>
      </trkpt>
      <trkpt lat="49.13105" lon="2.01384">
        <ele>123.8</ele>
        <time>2024-02-04T10:33:57Z</time>
      </trkpt>
      <trkpt lat="49.13107" lon="2.01371">
        <ele>123.9</ele>
        <time>2024-02-04T10:34:03Z</time>
      </trkpt>
      <trkpt lat="49.13109" lon="2.01362">
        <ele>123.9</ele>
        <time>2024-02-04T10:34:08Z</time>
      </trkpt>
      <trkpt lat="49.13112" lon="2.01349">
        <ele>124</ele>
        <time>2024-02-04T10:34:14Z</time>
      </trkpt>
      <trkpt lat="49.13115" lon="2.01336">
        <ele>124.1</ele>
        <time>2024-02-04T10:34:20Z</time>
      </trkpt>
      <trkpt lat="49.13118" lon="2.01324">
        <ele>124.5</ele>
        <time>2024-02-04T10:34:26Z</time>
      </trkpt>
      <trkpt lat="49.13121" lon="2.01314">
        <ele>124.8</ele>
        <time>2024-02-04T10:34:31Z</time>
      </trkpt>
      <trkpt lat="49.13123" lon="2.01302">
        <ele>125.1</ele>
        <time>2024-02-04T10:34:37Z</time>
      </trkpt>
      <trkpt lat="49.13126" lon="2.01291">
        <ele>125.3</ele>
        <time>2024-02-04T10:34:43Z</time>
      </trkpt>
      <trkpt lat="49.13128" lon="2.01281">
        <ele>125.6</ele>
        <time>2024-02-04T10:34:48Z</time>
      </trkpt>
      <trkpt lat="49.13131" lon="2.0127">
        <ele>125.7</ele>
        <time>2024-02-04T10:34:53Z</time>
      </trkpt>
      <trkpt lat="49.13133" lon="2.01259">
        <ele>125.8</ele>
        <time>2024-02-04T10:34:59Z</time>
      </trkpt>
      <trkpt lat="49.13135" lon="2.01248">
        <ele>125.9</ele>
        <time>2024-02-04T10:35:05Z</time>
      </trkpt>
      <trkpt lat="49.13138" lon="2.01239">
        <ele>126.3</ele>
        <time>2024-02-04T10:35:11Z</time>
      </trkpt>
      <trkpt lat="49.1314" lon="2.01227">
        <ele>126.8</ele>
        <time>2024-02-04T10:35:17Z</time>
      </trkpt>
      <trkpt lat="49.13144" lon="2.01216">
        <ele>127</ele>
        <time>2024-02-04T10:35:23Z</time>
      </trkpt>
      <trkpt lat="49.13148" lon="2.01203">
        <ele>127</ele>
        <time>2024-02-04T10:35:29Z</time>
      </trkpt>
      <trkpt lat="49.13151" lon="2.01192">
        <ele>127</ele>
        <time>2024-02-04T10:35:34Z</time>
      </trkpt>
      <trkpt lat="49.13153" lon="2.01181">
        <ele>127.2</ele>
        <time>2024-02-04T10:35:40Z</time>
      </trkpt>
      <trkpt lat="49.13154" lon="2.01171">
        <ele>127.5</ele>
        <time>2024-02-04T10:35:45Z</time>
      </trkpt>
      <trkpt lat="49.13155" lon="2.01161">
        <ele>127.6</ele>
        <time>2024-02-04T10:35:51Z</time>
      </trkpt>
      <trkpt lat="49.13158" lon="2.01149">
        <ele>127.7</ele>
        <time>2024-02-04T10:35:58Z</time>
      </trkpt>
      <trkpt lat="49.1316" lon="2.01143">
        <ele>127.8</ele>
        <time>2024-02-04T10:36:03Z</time>
      </trkpt>
      <trkpt lat="49.13161" lon="2.01143">
        <ele>127.8</ele>
        <time>2024-02-04T10:36:09Z</time>
      </trkpt>
      <trkpt lat="49.13165" lon="2.01148">
        <ele>127.9</ele>
        <time>2024-02-04T10:36:15Z</time>
      </trkpt>
      <trkpt lat="49.1317" lon="2.01155">
        <ele>127.9</ele>
        <time>2024-02-04T10:36:21Z</time>
      </trkpt>
      <trkpt lat="49.13176" lon="2.01164">
        <ele>127.7</ele>
        <time>2024-02-04T10:36:27Z</time>
      </trkpt>
      <trkpt lat="49.13182" lon="2.01173">
        <ele>127.5</ele>
        <time>2024-02-04T10:36:33Z</time>
      </trkpt>
      <trkpt lat="49.13188" lon="2.01181">
        <ele>127.5</ele>
        <time>2024-02-04T10:36:38Z</time>
      </trkpt>
      <trkpt lat="49.13195" lon="2.01191">
        <ele>127.9</ele>
        <time>2024-02-04T10:36:44Z</time>
      </trkpt>
      <trkpt lat="49.132" lon="2.01199">
        <ele>127.7</ele>
        <time>2024-02-04T10:36:50Z</time>
      </trkpt>
      <trkpt lat="49.13208" lon="2.01205">
        <ele>127.3</ele>
        <time>2024-02-04T10:36:56Z</time>
      </trkpt>
      <trkpt lat="49.13216" lon="2.01211">
        <ele>127.1</ele>
        <time>2024-02-04T10:37:02Z</time>
      </trkpt>
      <trkpt lat="49.13223" lon="2.01214">
        <ele>127</ele>
        <time>2024-02-04T10:37:07Z</time>
      </trkpt>
      <trkpt lat="49.1323" lon="2.01218">
        <ele>127</ele>
        <time>2024-02-04T10:37:13Z</time>
      </trkpt>
      <trkpt lat="49.13237" lon="2.01223">
        <ele>127</ele>
        <time>2024-02-04T10:37:19Z</time>
      </trkpt>
      <trkpt lat="49.13244" lon="2.01227">
        <ele>127.1</ele>
        <time>2024-02-04T10:37:24Z</time>
      </trkpt>
      <trkpt lat="49.13253" lon="2.01232">
        <ele>127.3</ele>
        <time>2024-02-04T10:37:30Z</time>
      </trkpt>
      <trkpt lat="49.13259" lon="2.01236">
        <ele>127.3</ele>
        <time>2024-02-04T10:37:35Z</time>
      </trkpt>
      <trkpt lat="49.13266" lon="2.01241">
        <ele>127.3</ele>
        <time>2024-02-04T10:37:41Z</time>
      </trkpt>
      <trkpt lat="49.13275" lon="2.01245">
        <ele>127.1</ele>
        <time>2024-02-04T10:37:47Z</time>
      </trkpt>
      <trkpt lat="49.13282" lon="2.01249">
        <ele>127</ele>
        <time>2024-02-04T10:37:52Z</time>
      </trkpt>
      <trkpt lat="49.13289" lon="2.01254">
        <ele>127</ele>
        <time>2024-02-04T10:37:58Z</time>
      </trkpt>
      <trkpt lat="49.13295" lon="2.01259">
        <ele>127</ele>
        <time>2024-02-04T10:38:04Z</time>
      </trkpt>
      <trkpt lat="49.13302" lon="2.01263">
        <ele>127</ele>
        <time>2024-02-04T10:38:09Z</time>
      </trkpt>
      <trkpt lat="49.13309" lon="2.01266">
        <ele>127</ele>
        <time>2024-02-04T10:38:15Z</time>
      </trkpt>
      <trkpt lat="49.13314" lon="2.01269">
        <ele>127</ele>
        <time>2024-02-04T10:38:20Z</time>
      </trkpt>
      <trkpt lat="49.13321" lon="2.01273">
        <ele>127</ele>
        <time>2024-02-04T10:38:25Z</time>
      </trkpt>
      <trkpt lat="49.13329" lon="2.01278">
        <ele>127</ele>
        <time>2024-02-04T10:38:31Z</time>
      </trkpt>
      <trkpt lat="49.13335" lon="2.01281">
        <ele>127.2</ele>
        <time>2024-02-04T10:38:36Z</time>
      </trkpt>
      <trkpt lat="49.13343" lon="2.01285">
        <ele>127.5</ele>
        <time>2024-02-04T10:38:42Z</time>
      </trkpt>
      <trkpt lat="49.13352" lon="2.01285">
        <ele>127.8</ele>
        <time>2024-02-04T10:38:48Z</time>
      </trkpt>
      <trkpt lat="49.13359" lon="2.01277">
        <ele>127.9</ele>
        <time>2024-02-04T10:38:54Z</time>
      </trkpt>
      <trkpt lat="49.13361" lon="2.01266">
        <ele>128</ele>
        <time>2024-02-04T10:39:00Z</time>
      </trkpt>
      <trkpt lat="49.13364" lon="2.01254">
        <ele>127.9</ele>
        <time>2024-02-04T10:39:06Z</time>
      </trkpt>
      <trkpt lat="49.13369" lon="2.0124">
        <ele>127.3</ele>
        <time>2024-02-04T10:39:12Z</time>
      </trkpt>
      <trkpt lat="49.13374" lon="2.0123">
        <ele>126.8</ele>
        <time>2024-02-04T10:39:17Z</time>
      </trkpt>
      <trkpt lat="49.13376" lon="2.0122">
        <ele>126.4</ele>
        <time>2024-02-04T10:39:22Z</time>
      </trkpt>
      <trkpt lat="49.13379" lon="2.01209">
        <ele>125.9</ele>
        <time>2024-02-04T10:39:28Z</time>
      </trkpt>
      <trkpt lat="49.13381" lon="2.01199">
        <ele>125.4</ele>
        <time>2024-02-04T10:39:33Z</time>
      </trkpt>
      <trkpt lat="49.13384" lon="2.01189">
        <ele>125</ele>
        <time>2024-02-04T10:39:38Z</time>
      </trkpt>
      <trkpt lat="49.13388" lon="2.01178">
        <ele>124.4</ele>
        <time>2024-02-04T10:39:44Z</time>
      </trkpt>
      <trkpt lat="49.13392" lon="2.01168">
        <ele>123.9</ele>
        <time>2024-02-04T10:39:50Z</time>
      </trkpt>
      <trkpt lat="49.13396" lon="2.01159">
        <ele>123.6</ele>
        <time>2024-02-04T10:39:55Z</time>
      </trkpt>
      <trkpt lat="49.13399" lon="2.01147">
        <ele>123.2</ele>
        <time>2024-02-04T10:40:01Z</time>
      </trkpt>
      <trkpt lat="49.13402" lon="2.01136">
        <ele>123</ele>
        <time>2024-02-04T10:40:06Z</time>
      </trkpt>
      <trkpt lat="49.13406" lon="2.01125">
        <ele>122.7</ele>
        <time>2024-02-04T10:40:12Z</time>
      </trkpt>
      <trkpt lat="49.1341" lon="2.01115">
        <ele>122.3</ele>
        <time>2024-02-04T10:40:18Z</time>
      </trkpt>
      <trkpt lat="49.13413" lon="2.01105">
        <ele>121.9</ele>
        <time>2024-02-04T10:40:23Z</time>
      </trkpt>
      <trkpt lat="49.13417" lon="2.01093">
        <ele>121.3</ele>
        <time>2024-02-04T10:40:29Z</time>
      </trkpt>
      <trkpt lat="49.13421" lon="2.01084">
        <ele>121.1</ele>
        <time>2024-02-04T10:40:34Z</time>
      </trkpt>
      <trkpt lat="49.13424" lon="2.01073">
        <ele>121.2</ele>
        <time>2024-02-04T10:40:40Z</time>
      </trkpt>
      <trkpt lat="49.13428" lon="2.01061">
        <ele>121.1</ele>
        <time>2024-02-04T10:40:46Z</time>
      </trkpt>
      <trkpt lat="49.13431" lon="2.0105">
        <ele>120.8</ele>
        <time>2024-02-04T10:40:52Z</time>
      </trkpt>
      <trkpt lat="49.13433" lon="2.01041">
        <ele>120.5</ele>
        <time>2024-02-04T10:40:58Z</time>
      </trkpt>
      <trkpt lat="49.13436" lon="2.01032">
        <ele>120.2</ele>
        <time>2024-02-04T10:41:04Z</time>
      </trkpt>
      <trkpt lat="49.1344" lon="2.0102">
        <ele>119.5</ele>
        <time>2024-02-04T10:41:10Z</time>
      </trkpt>
      <trkpt lat="49.13444" lon="2.01011">
        <ele>118.8</ele>
        <time>2024-02-04T10:41:15Z</time>
      </trkpt>
      <trkpt lat="49.13446" lon="2.01001">
        <ele>118</ele>
        <time>2024-02-04T10:41:21Z</time>
      </trkpt>
      <trkpt lat="49.1345" lon="2.00989">
        <ele>117.9</ele>
        <time>2024-02-04T10:41:27Z</time>
      </trkpt>
      <trkpt lat="49.13453" lon="2.00977">
        <ele>117.7</ele>
        <time>2024-02-04T10:41:33Z</time>
      </trkpt>
      <trkpt lat="49.13457" lon="2.00966">
        <ele>117.4</ele>
        <time>2024-02-04T10:41:38Z</time>
      </trkpt>
      <trkpt lat="49.13462" lon="2.00952">
        <ele>117.1</ele>
        <time>2024-02-04T10:41:44Z</time>
      </trkpt>
      <trkpt lat="49.13466" lon="2.00942">
        <ele>116.9</ele>
        <time>2024-02-04T10:41:49Z</time>
      </trkpt>
      <trkpt lat="49.13469" lon="2.00933">
        <ele>116.6</ele>
        <time>2024-02-04T10:41:55Z</time>
      </trkpt>
      <trkpt lat="49.13471" lon="2.00923">
        <ele>116.2</ele>
        <time>2024-02-04T10:42:01Z</time>
      </trkpt>
      <trkpt lat="49.13474" lon="2.00915">
        <ele>116</ele>
        <time>2024-02-04T10:42:06Z</time>
      </trkpt>
      <trkpt lat="49.13479" lon="2.00901">
        <ele>116</ele>
        <time>2024-02-04T10:42:12Z</time>
      </trkpt>
      <trkpt lat="49.13483" lon="2.0089">
        <ele>116</ele>
        <time>2024-02-04T10:42:18Z</time>
      </trkpt>
      <trkpt lat="49.13484" lon="2.00882">
        <ele>116</ele>
        <time>2024-02-04T10:42:23Z</time>
      </trkpt>
      <trkpt lat="49.13486" lon="2.00871">
        <ele>116</ele>
        <time>2024-02-04T10:42:29Z</time>
      </trkpt>
      <trkpt lat="49.13492" lon="2.00858">
        <ele>116</ele>
        <time>2024-02-04T10:42:35Z</time>
      </trkpt>
      <trkpt lat="49.13496" lon="2.00846">
        <ele>116</ele>
        <time>2024-02-04T10:42:40Z</time>
      </trkpt>
      <trkpt lat="49.135" lon="2.00833">
        <ele>116</ele>
        <time>2024-02-04T10:42:46Z</time>
      </trkpt>
      <trkpt lat="49.13504" lon="2.00824">
        <ele>115.9</ele>
        <time>2024-02-04T10:42:52Z</time>
      </trkpt>
      <trkpt lat="49.13507" lon="2.00813">
        <ele>115.9</ele>
        <time>2024-02-04T10:42:58Z</time>
      </trkpt>
      <trkpt lat="49.1351" lon="2.008">
        <ele>116</ele>
        <time>2024-02-04T10:43:04Z</time>
      </trkpt>
      <trkpt lat="49.13513" lon="2.00789">
        <ele>116</ele>
        <time>2024-02-04T10:43:09Z</time>
      </trkpt>
      <trkpt lat="49.13517" lon="2.0078">
        <ele>116</ele>
        <time>2024-02-04T10:43:15Z</time>
      </trkpt>
      <trkpt lat="49.13519" lon="2.00771">
        <ele>116</ele>
        <time>2024-02-04T10:43:20Z</time>
      </trkpt>
      <trkpt lat="49.13522" lon="2.0076">
        <ele>116</ele>
        <time>2024-02-04T10:43:25Z</time>
      </trkpt>
      <trkpt lat="49.13526" lon="2.0075">
        <ele>116</ele>
        <time>2024-02-04T10:43:30Z</time>
      </trkpt>
      <trkpt lat="49.1353" lon="2.00739">
        <ele>116</ele>
        <time>2024-02-04T10:43:36Z</time>
      </trkpt>
      <trkpt lat="49.13534" lon="2.00729">
        <ele>116</ele>
        <time>2024-02-04T10:43:42Z</time>
      </trkpt>
      <trkpt lat="49.13538" lon="2.00717">
        <ele>116.1</ele>
        <time>2024-02-04T10:43:48Z</time>
      </trkpt>
      <trkpt lat="49.13542" lon="2.00706">
        <ele>116.3</ele>
        <time>2024-02-04T10:43:54Z</time>
      </trkpt>
      <trkpt lat="49.13546" lon="2.00696">
        <ele>116.3</ele>
        <time>2024-02-04T10:44:00Z</time>
      </trkpt>
      <trkpt lat="49.13549" lon="2.00686">
        <ele>116.5</ele>
        <time>2024-02-04T10:44:05Z</time>
      </trkpt>
      <trkpt lat="49.13551" lon="2.00673">
        <ele>116.8</ele>
        <time>2024-02-04T10:44:11Z</time>
      </trkpt>
      <trkpt lat="49.13553" lon="2.00665">
        <ele>117</ele>
        <time>2024-02-04T10:44:16Z</time>
      </trkpt>
      <trkpt lat="49.13556" lon="2.00654">
        <ele>117</ele>
        <time>2024-02-04T10:44:22Z</time>
      </trkpt>
      <trkpt lat="49.1356" lon="2.00646">
        <ele>117</ele>
        <time>2024-02-04T10:44:27Z</time>
      </trkpt>
      <trkpt lat="49.13564" lon="2.00645">
        <ele>117</ele>
        <time>2024-02-04T10:44:32Z</time>
      </trkpt>
      <trkpt lat="49.13564" lon="2.00646">
        <ele>117</ele>
        <time>2024-02-04T10:44:38Z</time>
      </trkpt>
      <trkpt lat="49.13563" lon="2.00647">
        <ele>117</ele>
        <time>2024-02-04T10:44:44Z</time>
      </trkpt>
      <trkpt lat="49.13563" lon="2.00647">
        <ele>117</ele>
        <time>2024-02-04T10:44:49Z</time>
      </trkpt>
      <trkpt lat="49.13564" lon="2.00646">
        <ele>117</ele>
        <time>2024-02-04T10:44:55Z</time>
      </trkpt>
      <trkpt lat="49.13563" lon="2.00646">
        <ele>117</ele>
        <time>2024-02-04T10:45:01Z</time>
      </trkpt>
      <trkpt lat="49.13563" lon="2.00646">
        <ele>117</ele>
        <time>2024-02-04T10:45:06Z</time>
      </trkpt>
      <trkpt lat="49.13563" lon="2.00645">
        <ele>117</ele>
        <time>2024-02-04T10:45:12Z</time>
      </trkpt>
      <trkpt lat="49.13564" lon="2.00645">
        <ele>117</ele>
        <time>2024-02-04T10:45:19Z</time>
      </trkpt>
      <trkpt lat="49.13564" lon="2.00645">
        <ele>117</ele>
        <time>2024-02-04T10:45:24Z</time>
      </trkpt>
      <trkpt lat="49.13564" lon="2.00645">
        <ele>117</ele>
        <time>2024-02-04T10:45:29Z</time>
      </trkpt>
      <trkpt lat="49.13565" lon="2.00647">
        <ele>117</ele>
        <time>2024-02-04T10:45:35Z</time>
      </trkpt>
      <trkpt lat="49.1357" lon="2.00653">
        <ele>117</ele>
        <time>2024-02-04T10:45:40Z</time>
      </trkpt>
      <trkpt lat="49.13577" lon="2.00658">
        <ele>117</ele>
        <time>2024-02-04T10:45:46Z</time>
      </trkpt>
      <trkpt lat="49.13583" lon="2.00662">
        <ele>117</ele>
        <time>2024-02-04T10:45:52Z</time>
      </trkpt>
      <trkpt lat="49.13588" lon="2.00667">
        <ele>117</ele>
        <time>2024-02-04T10:45:57Z</time>
      </trkpt>
      <trkpt lat="49.13595" lon="2.00672">
        <ele>116.8</ele>
        <time>2024-02-04T10:46:02Z</time>
      </trkpt>
      <trkpt lat="49.13604" lon="2.00678">
        <ele>116.6</ele>
        <time>2024-02-04T10:46:08Z</time>
      </trkpt>
      <trkpt lat="49.13609" lon="2.00683">
        <ele>116.4</ele>
        <time>2024-02-04T10:46:13Z</time>
      </trkpt>
      <trkpt lat="49.13616" lon="2.00689">
        <ele>116.2</ele>
        <time>2024-02-04T10:46:19Z</time>
      </trkpt>
      <trkpt lat="49.13623" lon="2.00696">
        <ele>116</ele>
        <time>2024-02-04T10:46:25Z</time>
      </trkpt>
      <trkpt lat="49.1363" lon="2.00701">
        <ele>115.8</ele>
        <time>2024-02-04T10:46:31Z</time>
      </trkpt>
      <trkpt lat="49.13635" lon="2.00706">
        <ele>115.6</ele>
        <time>2024-02-04T10:46:36Z</time>
      </trkpt>
      <trkpt lat="49.13644" lon="2.00712">
        <ele>115.3</ele>
        <time>2024-02-04T10:46:42Z</time>
      </trkpt>
      <trkpt lat="49.13651" lon="2.00718">
        <ele>115.1</ele>
        <time>2024-02-04T10:46:47Z</time>
      </trkpt>
      <trkpt lat="49.13659" lon="2.00723">
        <ele>115</ele>
        <time>2024-02-04T10:46:52Z</time>
      </trkpt>
      <trkpt lat="49.13667" lon="2.00727">
        <ele>114.8</ele>
        <time>2024-02-04T10:46:58Z</time>
      </trkpt>
      <trkpt lat="49.13674" lon="2.00732">
        <ele>114.6</ele>
        <time>2024-02-04T10:47:03Z</time>
      </trkpt>
      <trkpt lat="49.13679" lon="2.00738">
        <ele>114.5</ele>
        <time>2024-02-04T10:47:08Z</time>
      </trkpt>
      <trkpt lat="49.13686" lon="2.00743">
        <ele>114.6</ele>
        <time>2024-02-04T10:47:14Z</time>
      </trkpt>
      <trkpt lat="49.13695" lon="2.00749">
        <ele>114.9</ele>
        <time>2024-02-04T10:47:20Z</time>
      </trkpt>
      <trkpt lat="49.13703" lon="2.00752">
        <ele>114.7</ele>
        <time>2024-02-04T10:47:26Z</time>
      </trkpt>
      <trkpt lat="49.13709" lon="2.00756">
        <ele>114.6</ele>
        <time>2024-02-04T10:47:31Z</time>
      </trkpt>
      <trkpt lat="49.13714" lon="2.00762">
        <ele>114.6</ele>
        <time>2024-02-04T10:47:37Z</time>
      </trkpt>
      <trkpt lat="49.13721" lon="2.00767">
        <ele>114.6</ele>
        <time>2024-02-04T10:47:42Z</time>
      </trkpt>
      <trkpt lat="49.1373" lon="2.00772">
        <ele>115.1</ele>
        <time>2024-02-04T10:47:48Z</time>
      </trkpt>
      <trkpt lat="49.13736" lon="2.00777">
        <ele>115.5</ele>
        <time>2024-02-04T10:47:53Z</time>
      </trkpt>
      <trkpt lat="49.13741" lon="2.0078">
        <ele>115.9</ele>
        <time>2024-02-04T10:47:58Z</time>
      </trkpt>
      <trkpt lat="49.13748" lon="2.00787">
        <ele>116.6</ele>
        <time>2024-02-04T10:48:04Z</time>
      </trkpt>
      <trkpt lat="49.13753" lon="2.00792">
        <ele>117.1</ele>
        <time>2024-02-04T10:48:09Z</time>
      </trkpt>
      <trkpt lat="49.1376" lon="2.00796">
        <ele>117.4</ele>
        <time>2024-02-04T10:48:15Z</time>
      </trkpt>
      <trkpt lat="49.13767" lon="2.00803">
        <ele>117.9</ele>
        <time>2024-02-04T10:48:21Z</time>
      </trkpt>
      <trkpt lat="49.13773" lon="2.00807">
        <ele>118</ele>
        <time>2024-02-04T10:48:26Z</time>
      </trkpt>
      <trkpt lat="49.13783" lon="2.00813">
        <ele>117.9</ele>
        <time>2024-02-04T10:48:32Z</time>
      </trkpt>
      <trkpt lat="49.13789" lon="2.00814">
        <ele>117.7</ele>
        <time>2024-02-04T10:48:38Z</time>
      </trkpt>
      <trkpt lat="49.13794" lon="2.00807">
        <ele>117.4</ele>
        <time>2024-02-04T10:48:44Z</time>
      </trkpt>
      <trkpt lat="49.13798" lon="2.00795">
        <ele>116.9</ele>
        <time>2024-02-04T10:48:49Z</time>
      </trkpt>
      <trkpt lat="49.138" lon="2.00785">
        <ele>116.4</ele>
        <time>2024-02-04T10:48:54Z</time>
      </trkpt>
      <trkpt lat="49.13803" lon="2.00776">
        <ele>116</ele>
        <time>2024-02-04T10:48:59Z</time>
      </trkpt>
      <trkpt lat="49.13809" lon="2.00765">
        <ele>115.5</ele>
        <time>2024-02-04T10:49:05Z</time>
      </trkpt>
      <trkpt lat="49.13811" lon="2.00754">
        <ele>115.1</ele>
        <time>2024-02-04T10:49:10Z</time>
      </trkpt>
      <trkpt lat="49.13813" lon="2.00744">
        <ele>114.9</ele>
        <time>2024-02-04T10:49:15Z</time>
      </trkpt>
      <trkpt lat="49.13817" lon="2.00733">
        <ele>114.7</ele>
        <time>2024-02-04T10:49:21Z</time>
      </trkpt>
      <trkpt lat="49.13822" lon="2.00723">
        <ele>114.4</ele>
        <time>2024-02-04T10:49:27Z</time>
      </trkpt>
      <trkpt lat="49.13825" lon="2.00714">
        <ele>114.2</ele>
        <time>2024-02-04T10:49:32Z</time>
      </trkpt>
      <trkpt lat="49.13827" lon="2.00703">
        <ele>114.1</ele>
        <time>2024-02-04T10:49:37Z</time>
      </trkpt>
      <trkpt lat="49.13831" lon="2.00692">
        <ele>114</ele>
        <time>2024-02-04T10:49:43Z</time>
      </trkpt>
      <trkpt lat="49.13835" lon="2.00681">
        <ele>114</ele>
        <time>2024-02-04T10:49:49Z</time>
      </trkpt>
      <trkpt lat="49.13839" lon="2.00674">
        <ele>114</ele>
        <time>2024-02-04T10:49:54Z</time>
      </trkpt>
      <trkpt lat="49.13844" lon="2.00664">
        <ele>114</ele>
        <time>2024-02-04T10:50:00Z</time>
      </trkpt>
      <trkpt lat="49.13847" lon="2.00655">
        <ele>113.8</ele>
        <time>2024-02-04T10:50:05Z</time>
      </trkpt>
      <trkpt lat="49.13849" lon="2.00658">
        <ele>113.8</ele>
        <time>2024-02-04T10:50:11Z</time>
      </trkpt>
      <trkpt lat="49.13847" lon="2.00669">
        <ele>114</ele>
        <time>2024-02-04T10:50:17Z</time>
      </trkpt>
      <trkpt lat="49.13848" lon="2.00678">
        <ele>114</ele>
        <time>2024-02-04T10:50:22Z</time>
      </trkpt>
      <trkpt lat="49.13849" lon="2.00687">
        <ele>114</ele>
        <time>2024-02-04T10:50:27Z</time>
      </trkpt>
      <trkpt lat="49.1385" lon="2.00699">
        <ele>114</ele>
        <time>2024-02-04T10:50:32Z</time>
      </trkpt>
      <trkpt lat="49.13851" lon="2.00712">
        <ele>114</ele>
        <time>2024-02-04T10:50:38Z</time>
      </trkpt>
      <trkpt lat="49.13853" lon="2.00722">
        <ele>114</ele>
        <time>2024-02-04T10:50:43Z</time>
      </trkpt>
      <trkpt lat="49.13855" lon="2.00737">
        <ele>114.1</ele>
        <time>2024-02-04T10:50:49Z</time>
      </trkpt>
      <trkpt lat="49.13856" lon="2.00749">
        <ele>114.2</ele>
        <time>2024-02-04T10:50:54Z</time>
      </trkpt>
      <trkpt lat="49.13858" lon="2.00759">
        <ele>114.4</ele>
        <time>2024-02-04T10:51:00Z</time>
      </trkpt>
      <trkpt lat="49.13862" lon="2.00767">
        <ele>114.6</ele>
        <time>2024-02-04T10:51:05Z</time>
      </trkpt>
      <trkpt lat="49.13866" lon="2.00776">
        <ele>114.9</ele>
        <time>2024-02-04T10:51:10Z</time>
      </trkpt>
      <trkpt lat="49.13868" lon="2.00784">
        <ele>115.2</ele>
        <time>2024-02-04T10:51:15Z</time>
      </trkpt>
      <trkpt lat="49.13872" lon="2.00798">
        <ele>115.7</ele>
        <time>2024-02-04T10:51:21Z</time>
      </trkpt>
      <trkpt lat="49.13875" lon="2.00807">
        <ele>116</ele>
        <time>2024-02-04T10:51:26Z</time>
      </trkpt>
      <trkpt lat="49.13877" lon="2.00815">
        <ele>116</ele>
        <time>2024-02-04T10:51:32Z</time>
      </trkpt>
      <trkpt lat="49.13883" lon="2.00827">
        <ele>116</ele>
        <time>2024-02-04T10:51:38Z</time>
      </trkpt>
      <trkpt lat="49.13886" lon="2.00835">
        <ele>116</ele>
        <time>2024-02-04T10:51:43Z</time>
      </trkpt>
      <trkpt lat="49.1389" lon="2.00844">
        <ele>116</ele>
        <time>2024-02-04T10:51:49Z</time>
      </trkpt>
      <trkpt lat="49.13895" lon="2.00851">
        <ele>116</ele>
        <time>2024-02-04T10:51:54Z</time>
      </trkpt>
      <trkpt lat="49.13898" lon="2.00857">
        <ele>116</ele>
        <time>2024-02-04T10:51:59Z</time>
      </trkpt>
      <trkpt lat="49.13903" lon="2.00869">
        <ele>116.3</ele>
        <time>2024-02-04T10:52:05Z</time>
      </trkpt>
      <trkpt lat="49.13908" lon="2.00876">
        <ele>116.5</ele>
        <time>2024-02-04T10:52:10Z</time>
      </trkpt>
      <trkpt lat="49.13913" lon="2.00886">
        <ele>116.9</ele>
        <time>2024-02-04T10:52:16Z</time>
      </trkpt>
      <trkpt lat="49.13918" lon="2.00898">
        <ele>117</ele>
        <time>2024-02-04T10:52:21Z</time>
      </trkpt>
      <trkpt lat="49.13922" lon="2.00904">
        <ele>117.2</ele>
        <time>2024-02-04T10:52:27Z</time>
      </trkpt>
      <trkpt lat="49.13928" lon="2.00912">
        <ele>117.4</ele>
        <time>2024-02-04T10:52:32Z</time>
      </trkpt>
      <trkpt lat="49.13932" lon="2.00916">
        <ele>117.6</ele>
        <time>2024-02-04T10:52:38Z</time>
      </trkpt>
      <trkpt lat="49.13937" lon="2.00926">
        <ele>117.8</ele>
        <time>2024-02-04T10:52:44Z</time>
      </trkpt>
      <trkpt lat="49.13942" lon="2.00932">
        <ele>118</ele>
        <time>2024-02-04T10:52:49Z</time>
      </trkpt>
      <trkpt lat="49.13949" lon="2.0094">
        <ele>118.2</ele>
        <time>2024-02-04T10:52:55Z</time>
      </trkpt>
      <trkpt lat="49.13954" lon="2.00946">
        <ele>118.3</ele>
        <time>2024-02-04T10:53:00Z</time>
      </trkpt>
      <trkpt lat="49.13959" lon="2.00955">
        <ele>118.5</ele>
        <time>2024-02-04T10:53:06Z</time>
      </trkpt>
      <trkpt lat="49.13963" lon="2.00963">
        <ele>118.7</ele>
        <time>2024-02-04T10:53:11Z</time>
      </trkpt>
      <trkpt lat="49.13967" lon="2.00969">
        <ele>118.8</ele>
        <time>2024-02-04T10:53:16Z</time>
      </trkpt>
      <trkpt lat="49.13972" lon="2.00975">
        <ele>119</ele>
        <time>2024-02-04T10:53:21Z</time>
      </trkpt>
      <trkpt lat="49.13977" lon="2.00981">
        <ele>119.2</ele>
        <time>2024-02-04T10:53:27Z</time>
      </trkpt>
      <trkpt lat="49.13981" lon="2.00993">
        <ele>119.3</ele>
        <time>2024-02-04T10:53:33Z</time>
      </trkpt>
      <trkpt lat="49.13986" lon="2.01">
        <ele>119.5</ele>
        <time>2024-02-04T10:53:38Z</time>
      </trkpt>
      <trkpt lat="49.13983" lon="2.01003">
        <ele>119.5</ele>
        <time>2024-02-04T10:53:44Z</time>
      </trkpt>
      <trkpt lat="49.1398" lon="2.01012">
        <ele>119.6</ele>
        <time>2024-02-04T10:53:50Z</time>
      </trkpt>
      <trkpt lat="49.13978" lon="2.01024">
        <ele>119.9</ele>
        <time>2024-02-04T10:53:55Z</time>
      </trkpt>
      <trkpt lat="49.13976" lon="2.01035">
        <ele>120</ele>
        <time>2024-02-04T10:54:00Z</time>
      </trkpt>
      <trkpt lat="49.13974" lon="2.01045">
        <ele>120</ele>
        <time>2024-02-04T10:54:06Z</time>
      </trkpt>
      <trkpt lat="49.13973" lon="2.01055">
        <ele>120</ele>
        <time>2024-02-04T10:54:12Z</time>
      </trkpt>
      <trkpt lat="49.13972" lon="2.01065">
        <ele>120.3</ele>
        <time>2024-02-04T10:54:17Z</time>
      </trkpt>
      <trkpt lat="49.1397" lon="2.01072">
        <ele>120.6</ele>
        <time>2024-02-04T10:54:23Z</time>
      </trkpt>
      <trkpt lat="49.13966" lon="2.01079">
        <ele>120.8</ele>
        <time>2024-02-04T10:54:28Z</time>
      </trkpt>
      <trkpt lat="49.13963" lon="2.01091">
        <ele>121.1</ele>
        <time>2024-02-04T10:54:34Z</time>
      </trkpt>
      <trkpt lat="49.13963" lon="2.01102">
        <ele>121.2</ele>
        <time>2024-02-04T10:54:39Z</time>
      </trkpt>
      <trkpt lat="49.13962" lon="2.01115">
        <ele>121.5</ele>
        <time>2024-02-04T10:54:45Z</time>
      </trkpt>
      <trkpt lat="49.13962" lon="2.01124">
        <ele>121.8</ele>
        <time>2024-02-04T10:54:50Z</time>
      </trkpt>
      <trkpt lat="49.13959" lon="2.01135">
        <ele>122.3</ele>
        <time>2024-02-04T10:54:56Z</time>
      </trkpt>
      <trkpt lat="49.13958" lon="2.01145">
        <ele>122.6</ele>
        <time>2024-02-04T10:55:02Z</time>
      </trkpt>
      <trkpt lat="49.13959" lon="2.01152">
        <ele>122.7</ele>
        <time>2024-02-04T10:55:08Z</time>
      </trkpt>
      <trkpt lat="49.13957" lon="2.0116">
        <ele>122.9</ele>
        <time>2024-02-04T10:55:14Z</time>
      </trkpt>
      <trkpt lat="49.13955" lon="2.01172">
        <ele>123.2</ele>
        <time>2024-02-04T10:55:20Z</time>
      </trkpt>
      <trkpt lat="49.13952" lon="2.01181">
        <ele>123.5</ele>
        <time>2024-02-04T10:55:25Z</time>
      </trkpt>
      <trkpt lat="49.13952" lon="2.0119">
        <ele>123.8</ele>
        <time>2024-02-04T10:55:30Z</time>
      </trkpt>
      <trkpt lat="49.13952" lon="2.012">
        <ele>124.2</ele>
        <time>2024-02-04T10:55:36Z</time>
      </trkpt>
      <trkpt lat="49.1395" lon="2.01211">
        <ele>124.5</ele>
        <time>2024-02-04T10:55:42Z</time>
      </trkpt>
      <trkpt lat="49.13948" lon="2.01218">
        <ele>124.8</ele>
        <time>2024-02-04T10:55:47Z</time>
      </trkpt>
      <trkpt lat="49.13945" lon="2.01229">
        <ele>125</ele>
        <time>2024-02-04T10:55:53Z</time>
      </trkpt>
      <trkpt lat="49.13944" lon="2.01239">
        <ele>125</ele>
        <time>2024-02-04T10:55:59Z</time>
      </trkpt>
      <trkpt lat="49.13947" lon="2.01246">
        <ele>124.9</ele>
        <time>2024-02-04T10:56:05Z</time>
      </trkpt>
      <trkpt lat="49.13947" lon="2.01247">
        <ele>124.9</ele>
        <time>2024-02-04T10:56:10Z</time>
      </trkpt>
      <trkpt lat="49.13947" lon="2.01247">
        <ele>124.9</ele>
        <time>2024-02-04T10:56:16Z</time>
      </trkpt>
      <trkpt lat="49.13947" lon="2.01247">
        <ele>124.9</ele>
        <time>2024-02-04T10:56:22Z</time>
      </trkpt>
      <trkpt lat="49.13948" lon="2.01248">
        <ele>124.9</ele>
        <time>2024-02-04T10:56:28Z</time>
      </trkpt>
      <trkpt lat="49.13948" lon="2.01247">
        <ele>124.9</ele>
        <time>2024-02-04T10:56:34Z</time>
      </trkpt>
      <trkpt lat="49.13946" lon="2.01248">
        <ele>124.9</ele>
        <time>2024-02-04T10:56:40Z</time>
      </trkpt>
      <trkpt lat="49.13942" lon="2.0126">
        <ele>125</ele>
        <time>2024-02-04T10:56:46Z</time>
      </trkpt>
      <trkpt lat="49.13938" lon="2.01272">
        <ele>125</ele>
        <time>2024-02-04T10:56:51Z</time>
      </trkpt>
      <trkpt lat="49.13935" lon="2.01283">
        <ele>125</ele>
        <time>2024-02-04T10:56:56Z</time>
      </trkpt>
      <trkpt lat="49.13934" lon="2.01292">
        <ele>125</ele>
        <time>2024-02-04T10:57:01Z</time>
      </trkpt>
      <trkpt lat="49.13931" lon="2.01304">
        <ele>125</ele>
        <time>2024-02-04T10:57:07Z</time>
      </trkpt>
      <trkpt lat="49.13929" lon="2.01313">
        <ele>125</ele>
        <time>2024-02-04T10:57:12Z</time>
      </trkpt>
      <trkpt lat="49.13926" lon="2.01325">
        <ele>125</ele>
        <time>2024-02-04T10:57:18Z</time>
      </trkpt>
      <trkpt lat="49.13922" lon="2.01337">
        <ele>125</ele>
        <time>2024-02-04T10:57:24Z</time>
      </trkpt>
      <trkpt lat="49.13921" lon="2.01347">
        <ele>125.1</ele>
        <time>2024-02-04T10:57:30Z</time>
      </trkpt>
      <trkpt lat="49.1392" lon="2.01356">
        <ele>125.1</ele>
        <time>2024-02-04T10:57:35Z</time>
      </trkpt>
      <trkpt lat="49.13918" lon="2.0137">
        <ele>125.4</ele>
        <time>2024-02-04T10:57:40Z</time>
      </trkpt>
      <trkpt lat="49.13916" lon="2.01384">
        <ele>125.8</ele>
        <time>2024-02-04T10:57:46Z</time>
      </trkpt>
      <trkpt lat="49.13915" lon="2.01394">
        <ele>125.9</ele>
        <time>2024-02-04T10:57:51Z</time>
      </trkpt>
      <trkpt lat="49.13912" lon="2.01408">
        <ele>125.9</ele>
        <time>2024-02-04T10:57:57Z</time>
      </trkpt>
      <trkpt lat="49.13911" lon="2.0142">
        <ele>126</ele>
        <time>2024-02-04T10:58:03Z</time>
      </trkpt>
      <trkpt lat="49.13911" lon="2.01428">
        <ele>126</ele>
        <time>2024-02-04T10:58:08Z</time>
      </trkpt>
      <trkpt lat="49.13911" lon="2.01438">
        <ele>126</ele>
        <time>2024-02-04T10:58:14Z</time>
      </trkpt>
      <trkpt lat="49.1391" lon="2.01447">
        <ele>126.1</ele>
        <time>2024-02-04T10:58:19Z</time>
      </trkpt>
      <trkpt lat="49.13909" lon="2.01455">
        <ele>126.3</ele>
        <time>2024-02-04T10:58:24Z</time>
      </trkpt>
      <trkpt lat="49.13908" lon="2.01466">
        <ele>126.5</ele>
        <time>2024-02-04T10:58:30Z</time>
      </trkpt>
      <trkpt lat="49.13907" lon="2.01476">
        <ele>126.7</ele>
        <time>2024-02-04T10:58:35Z</time>
      </trkpt>
      <trkpt lat="49.13906" lon="2.01487">
        <ele>126.8</ele>
        <time>2024-02-04T10:58:41Z</time>
      </trkpt>
      <trkpt lat="49.13905" lon="2.01497">
        <ele>126.9</ele>
        <time>2024-02-04T10:58:47Z</time>
      </trkpt>
      <trkpt lat="49.13904" lon="2.01505">
        <ele>127</ele>
        <time>2024-02-04T10:58:52Z</time>
      </trkpt>
      <trkpt lat="49.13904" lon="2.01514">
        <ele>127</ele>
        <time>2024-02-04T10:58:57Z</time>
      </trkpt>
      <trkpt lat="49.13903" lon="2.01524">
        <ele>127</ele>
        <time>2024-02-04T10:59:03Z</time>
      </trkpt>
      <trkpt lat="49.13901" lon="2.01535">
        <ele>127.1</ele>
        <time>2024-02-04T10:59:09Z</time>
      </trkpt>
      <trkpt lat="49.13899" lon="2.01544">
        <ele>127.2</ele>
        <time>2024-02-04T10:59:15Z</time>
      </trkpt>
      <trkpt lat="49.13897" lon="2.01551">
        <ele>127.3</ele>
        <time>2024-02-04T10:59:21Z</time>
      </trkpt>
      <trkpt lat="49.13895" lon="2.0156">
        <ele>127.2</ele>
        <time>2024-02-04T10:59:26Z</time>
      </trkpt>
      <trkpt lat="49.13893" lon="2.01568">
        <ele>127.2</ele>
        <time>2024-02-04T10:59:31Z</time>
      </trkpt>
      <trkpt lat="49.13892" lon="2.01577">
        <ele>127.1</ele>
        <time>2024-02-04T10:59:37Z</time>
      </trkpt>
      <trkpt lat="49.13888" lon="2.01586">
        <ele>127.1</ele>
        <time>2024-02-04T10:59:42Z</time>
      </trkpt>
      <trkpt lat="49.13886" lon="2.01597">
        <ele>127.4</ele>
        <time>2024-02-04T10:59:47Z</time>
      </trkpt>
      <trkpt lat="49.1388" lon="2.0161">
        <ele>127.7</ele>
        <time>2024-02-04T10:59:53Z</time>
      </trkpt>
      <trkpt lat="49.13875" lon="2.0162">
        <ele>127.5</ele>
        <time>2024-02-04T10:59:59Z</time>
      </trkpt>
      <trkpt lat="49.13871" lon="2.01627">
        <ele>127.4</ele>
        <time>2024-02-04T11:00:04Z</time>
      </trkpt>
      <trkpt lat="49.13871" lon="2.01639">
        <ele>127.4</ele>
        <time>2024-02-04T11:00:10Z</time>
      </trkpt>
      <trkpt lat="49.13871" lon="2.01652">
        <ele>127.4</ele>
        <time>2024-02-04T11:00:16Z</time>
      </trkpt>
      <trkpt lat="49.13872" lon="2.01661">
        <ele>127.4</ele>
        <time>2024-02-04T11:00:21Z</time>
      </trkpt>
      <trkpt lat="49.13873" lon="2.01674">
        <ele>127.5</ele>
        <time>2024-02-04T11:00:27Z</time>
      </trkpt>
      <trkpt lat="49.13875" lon="2.01684">
        <ele>127.8</ele>
        <time>2024-02-04T11:00:32Z</time>
      </trkpt>
      <trkpt lat="49.13878" lon="2.01694">
        <ele>128.2</ele>
        <time>2024-02-04T11:00:37Z</time>
      </trkpt>
      <trkpt lat="49.13875" lon="2.01705">
        <ele>128.4</ele>
        <time>2024-02-04T11:00:43Z</time>
      </trkpt>
      <trkpt lat="49.13872" lon="2.01717">
        <ele>128.6</ele>
        <time>2024-02-04T11:00:49Z</time>
      </trkpt>
      <trkpt lat="49.13869" lon="2.01726">
        <ele>128.6</ele>
        <time>2024-02-04T11:00:55Z</time>
      </trkpt>
      <trkpt lat="49.13867" lon="2.01733">
        <ele>128.5</ele>
        <time>2024-02-04T11:01:00Z</time>
      </trkpt>
      <trkpt lat="49.13865" lon="2.01745">
        <ele>128.4</ele>
        <time>2024-02-04T11:01:06Z</time>
      </trkpt>
      <trkpt lat="49.13864" lon="2.01754">
        <ele>128.4</ele>
        <time>2024-02-04T11:01:11Z</time>
      </trkpt>
      <trkpt lat="49.13863" lon="2.01763">
        <ele>128.6</ele>
        <time>2024-02-04T11:01:16Z</time>
      </trkpt>
      <trkpt lat="49.13862" lon="2.01774">
        <ele>128.9</ele>
        <time>2024-02-04T11:01:22Z</time>
      </trkpt>
      <trkpt lat="49.13861" lon="2.01781">
        <ele>129.1</ele>
        <time>2024-02-04T11:01:27Z</time>
      </trkpt>
      <trkpt lat="49.13859" lon="2.01793">
        <ele>129.4</ele>
        <time>2024-02-04T11:01:33Z</time>
      </trkpt>
      <trkpt lat="49.13857" lon="2.01806">
        <ele>129.7</ele>
        <time>2024-02-04T11:01:39Z</time>
      </trkpt>
      <trkpt lat="49.13853" lon="2.01821">
        <ele>129.4</ele>
        <time>2024-02-04T11:01:45Z</time>
      </trkpt>
      <trkpt lat="49.13849" lon="2.01835">
        <ele>129.1</ele>
        <time>2024-02-04T11:01:51Z</time>
      </trkpt>
      <trkpt lat="49.13846" lon="2.01846">
        <ele>128.9</ele>
        <time>2024-02-04T11:01:57Z</time>
      </trkpt>
      <trkpt lat="49.13845" lon="2.01858">
        <ele>128.8</ele>
        <time>2024-02-04T11:02:03Z</time>
      </trkpt>
      <trkpt lat="49.13844" lon="2.01868">
        <ele>128.7</ele>
        <time>2024-02-04T11:02:09Z</time>
      </trkpt>
      <trkpt lat="49.13843" lon="2.01877">
        <ele>128.7</ele>
        <time>2024-02-04T11:02:14Z</time>
      </trkpt>
      <trkpt lat="49.13843" lon="2.01889">
        <ele>128.7</ele>
        <time>2024-02-04T11:02:20Z</time>
      </trkpt>
      <trkpt lat="49.13842" lon="2.01902">
        <ele>128.9</ele>
        <time>2024-02-04T11:02:26Z</time>
      </trkpt>
      <trkpt lat="49.13839" lon="2.01913">
        <ele>129.1</ele>
        <time>2024-02-04T11:02:31Z</time>
      </trkpt>
      <trkpt lat="49.13836" lon="2.01929">
        <ele>129.1</ele>
        <time>2024-02-04T11:02:37Z</time>
      </trkpt>
      <trkpt lat="49.13833" lon="2.01942">
        <ele>129</ele>
        <time>2024-02-04T11:02:42Z</time>
      </trkpt>
      <trkpt lat="49.13832" lon="2.01957">
        <ele>128.9</ele>
        <time>2024-02-04T11:02:48Z</time>
      </trkpt>
      <trkpt lat="49.1383" lon="2.01969">
        <ele>128.8</ele>
        <time>2024-02-04T11:02:54Z</time>
      </trkpt>
      <trkpt lat="49.13829" lon="2.0198">
        <ele>128.9</ele>
        <time>2024-02-04T11:03:00Z</time>
      </trkpt>
      <trkpt lat="49.13827" lon="2.0199">
        <ele>129</ele>
        <time>2024-02-04T11:03:05Z</time>
      </trkpt>
      <trkpt lat="49.13826" lon="2.02002">
        <ele>129.2</ele>
        <time>2024-02-04T11:03:11Z</time>
      </trkpt>
      <trkpt lat="49.13824" lon="2.02012">
        <ele>129.2</ele>
        <time>2024-02-04T11:03:17Z</time>
      </trkpt>
      <trkpt lat="49.13822" lon="2.02021">
        <ele>129.1</ele>
        <time>2024-02-04T11:03:22Z</time>
      </trkpt>
      <trkpt lat="49.1382" lon="2.02032">
        <ele>129.1</ele>
        <time>2024-02-04T11:03:27Z</time>
      </trkpt>
      <trkpt lat="49.13818" lon="2.02044">
        <ele>129.2</ele>
        <time>2024-02-04T11:03:33Z</time>
      </trkpt>
      <trkpt lat="49.13816" lon="2.02053">
        <ele>129.3</ele>
        <time>2024-02-04T11:03:38Z</time>
      </trkpt>
      <trkpt lat="49.13814" lon="2.02064">
        <ele>129.1</ele>
        <time>2024-02-04T11:03:44Z</time>
      </trkpt>
      <trkpt lat="49.13813" lon="2.02073">
        <ele>128.8</ele>
        <time>2024-02-04T11:03:49Z</time>
      </trkpt>
      <trkpt lat="49.13811" lon="2.02086">
        <ele>128.5</ele>
        <time>2024-02-04T11:03:55Z</time>
      </trkpt>
      <trkpt lat="49.13809" lon="2.02096">
        <ele>128.7</ele>
        <time>2024-02-04T11:04:01Z</time>
      </trkpt>
      <trkpt lat="49.13807" lon="2.02106">
        <ele>128.9</ele>
        <time>2024-02-04T11:04:06Z</time>
      </trkpt>
      <trkpt lat="49.13805" lon="2.02118">
        <ele>129</ele>
        <time>2024-02-04T11:04:12Z</time>
      </trkpt>
      <trkpt lat="49.13805" lon="2.02128">
        <ele>129</ele>
        <time>2024-02-04T11:04:17Z</time>
      </trkpt>
      <trkpt lat="49.13804" lon="2.02139">
        <ele>128.9</ele>
        <time>2024-02-04T11:04:22Z</time>
      </trkpt>
      <trkpt lat="49.13803" lon="2.0215">
        <ele>128.8</ele>
        <time>2024-02-04T11:04:27Z</time>
      </trkpt>
      <trkpt lat="49.13801" lon="2.02162">
        <ele>128.7</ele>
        <time>2024-02-04T11:04:33Z</time>
      </trkpt>
      <trkpt lat="49.13801" lon="2.02173">
        <ele>128.7</ele>
        <time>2024-02-04T11:04:38Z</time>
      </trkpt>
      <trkpt lat="49.13799" lon="2.02186">
        <ele>128.5</ele>
        <time>2024-02-04T11:04:44Z</time>
      </trkpt>
      <trkpt lat="49.13797" lon="2.02196">
        <ele>128.4</ele>
        <time>2024-02-04T11:04:49Z</time>
      </trkpt>
      <trkpt lat="49.13796" lon="2.02207">
        <ele>128.3</ele>
        <time>2024-02-04T11:04:55Z</time>
      </trkpt>
      <trkpt lat="49.13795" lon="2.02218">
        <ele>128.3</ele>
        <time>2024-02-04T11:05:00Z</time>
      </trkpt>
      <trkpt lat="49.13795" lon="2.02229">
        <ele>128.4</ele>
        <time>2024-02-04T11:05:06Z</time>
      </trkpt>
      <trkpt lat="49.13795" lon="2.0224">
        <ele>128.5</ele>
        <time>2024-02-04T11:05:11Z</time>
      </trkpt>
      <trkpt lat="49.13796" lon="2.02251">
        <ele>128.7</ele>
        <time>2024-02-04T11:05:16Z</time>
      </trkpt>
      <trkpt lat="49.13796" lon="2.02262">
        <ele>128.9</ele>
        <time>2024-02-04T11:05:22Z</time>
      </trkpt>
      <trkpt lat="49.13795" lon="2.02276">
        <ele>129.2</ele>
        <time>2024-02-04T11:05:28Z</time>
      </trkpt>
      <trkpt lat="49.13794" lon="2.02285">
        <ele>129.2</ele>
        <time>2024-02-04T11:05:33Z</time>
      </trkpt>
      <trkpt lat="49.13793" lon="2.02297">
        <ele>129.1</ele>
        <time>2024-02-04T11:05:39Z</time>
      </trkpt>
      <trkpt lat="49.13794" lon="2.02308">
        <ele>129.1</ele>
        <time>2024-02-04T11:05:44Z</time>
      </trkpt>
      <trkpt lat="49.13795" lon="2.02321">
        <ele>129.3</ele>
        <time>2024-02-04T11:05:50Z</time>
      </trkpt>
      <trkpt lat="49.13796" lon="2.02333">
        <ele>129.3</ele>
        <time>2024-02-04T11:05:56Z</time>
      </trkpt>
      <trkpt lat="49.13798" lon="2.02344">
        <ele>129.6</ele>
        <time>2024-02-04T11:06:02Z</time>
      </trkpt>
      <trkpt lat="49.138" lon="2.02357">
        <ele>129.8</ele>
        <time>2024-02-04T11:06:08Z</time>
      </trkpt>
      <trkpt lat="49.13801" lon="2.02366">
        <ele>129.8</ele>
        <time>2024-02-04T11:06:14Z</time>
      </trkpt>
      <trkpt lat="49.13802" lon="2.02375">
        <ele>129.9</ele>
        <time>2024-02-04T11:06:19Z</time>
      </trkpt>
      <trkpt lat="49.13803" lon="2.02385">
        <ele>129.9</ele>
        <time>2024-02-04T11:06:24Z</time>
      </trkpt>
      <trkpt lat="49.13805" lon="2.02396">
        <ele>130</ele>
        <time>2024-02-04T11:06:29Z</time>
      </trkpt>
      <trkpt lat="49.13806" lon="2.0241">
        <ele>130</ele>
        <time>2024-02-04T11:06:35Z</time>
      </trkpt>
      <trkpt lat="49.13807" lon="2.02422">
        <ele>130</ele>
        <time>2024-02-04T11:06:41Z</time>
      </trkpt>
      <trkpt lat="49.13808" lon="2.02434">
        <ele>130.1</ele>
        <time>2024-02-04T11:06:47Z</time>
      </trkpt>
      <trkpt lat="49.13809" lon="2.02447">
        <ele>130.1</ele>
        <time>2024-02-04T11:06:53Z</time>
      </trkpt>
      <trkpt lat="49.1381" lon="2.02459">
        <ele>130.1</ele>
        <time>2024-02-04T11:06:59Z</time>
      </trkpt>
      <trkpt lat="49.13812" lon="2.02467">
        <ele>130.2</ele>
        <time>2024-02-04T11:07:04Z</time>
      </trkpt>
      <trkpt lat="49.13816" lon="2.02479">
        <ele>130.4</ele>
        <time>2024-02-04T11:07:10Z</time>
      </trkpt>
      <trkpt lat="49.13817" lon="2.02487">
        <ele>130.4</ele>
        <time>2024-02-04T11:07:15Z</time>
      </trkpt>
      <trkpt lat="49.13819" lon="2.02495">
        <ele>130.5</ele>
        <time>2024-02-04T11:07:20Z</time>
      </trkpt>
      <trkpt lat="49.13823" lon="2.02507">
        <ele>130.9</ele>
        <time>2024-02-04T11:07:26Z</time>
      </trkpt>
      <trkpt lat="49.13827" lon="2.02516">
        <ele>131.3</ele>
        <time>2024-02-04T11:07:32Z</time>
      </trkpt>
      <trkpt lat="49.13828" lon="2.02525">
        <ele>131.7</ele>
        <time>2024-02-04T11:07:38Z</time>
      </trkpt>
      <trkpt lat="49.13833" lon="2.02533">
        <ele>132</ele>
        <time>2024-02-04T11:07:44Z</time>
      </trkpt>
      <trkpt lat="49.13835" lon="2.02544">
        <ele>132</ele>
        <time>2024-02-04T11:07:49Z</time>
      </trkpt>
      <trkpt lat="49.13839" lon="2.02555">
        <ele>132</ele>
        <time>2024-02-04T11:07:55Z</time>
      </trkpt>
      <trkpt lat="49.1384" lon="2.02564">
        <ele>131.8</ele>
        <time>2024-02-04T11:08:00Z</time>
      </trkpt>
      <trkpt lat="49.1384" lon="2.02575">
        <ele>131.7</ele>
        <time>2024-02-04T11:08:05Z</time>
      </trkpt>
      <trkpt lat="49.13842" lon="2.02588">
        <ele>131.6</ele>
        <time>2024-02-04T11:08:11Z</time>
      </trkpt>
      <trkpt lat="49.13847" lon="2.02597">
        <ele>132</ele>
        <time>2024-02-04T11:08:16Z</time>
      </trkpt>
      <trkpt lat="49.13853" lon="2.02607">
        <ele>132.4</ele>
        <time>2024-02-04T11:08:22Z</time>
      </trkpt>
      <trkpt lat="49.13856" lon="2.02613">
        <ele>132.6</ele>
        <time>2024-02-04T11:08:27Z</time>
      </trkpt>
      <trkpt lat="49.13859" lon="2.02624">
        <ele>132.9</ele>
        <time>2024-02-04T11:08:33Z</time>
      </trkpt>
      <trkpt lat="49.13862" lon="2.02631">
        <ele>133</ele>
        <time>2024-02-04T11:08:38Z</time>
      </trkpt>
      <trkpt lat="49.13864" lon="2.0264">
        <ele>133.1</ele>
        <time>2024-02-04T11:08:43Z</time>
      </trkpt>
      <trkpt lat="49.13867" lon="2.02649">
        <ele>132.9</ele>
        <time>2024-02-04T11:08:49Z</time>
      </trkpt>
      <trkpt lat="49.13869" lon="2.02659">
        <ele>132.8</ele>
        <time>2024-02-04T11:08:54Z</time>
      </trkpt>
      <trkpt lat="49.13875" lon="2.02671">
        <ele>133.1</ele>
        <time>2024-02-04T11:09:00Z</time>
      </trkpt>
      <trkpt lat="49.13879" lon="2.02678">
        <ele>133.4</ele>
        <time>2024-02-04T11:09:05Z</time>
      </trkpt>
      <trkpt lat="49.13883" lon="2.02685">
        <ele>133.7</ele>
        <time>2024-02-04T11:09:10Z</time>
      </trkpt>
      <trkpt lat="49.13891" lon="2.02696">
        <ele>133.9</ele>
        <time>2024-02-04T11:09:16Z</time>
      </trkpt>
      <trkpt lat="49.13895" lon="2.02705">
        <ele>133.7</ele>
        <time>2024-02-04T11:09:21Z</time>
      </trkpt>
      <trkpt lat="49.13899" lon="2.02714">
        <ele>133.6</ele>
        <time>2024-02-04T11:09:27Z</time>
      </trkpt>
      <trkpt lat="49.13904" lon="2.02723">
        <ele>133.5</ele>
        <time>2024-02-04T11:09:32Z</time>
      </trkpt>
      <trkpt lat="49.13907" lon="2.02734">
        <ele>133.7</ele>
        <time>2024-02-04T11:09:38Z</time>
      </trkpt>
      <trkpt lat="49.13912" lon="2.02744">
        <ele>133.8</ele>
        <time>2024-02-04T11:09:43Z</time>
      </trkpt>
      <trkpt lat="49.13918" lon="2.02756">
        <ele>133.8</ele>
        <time>2024-02-04T11:09:49Z</time>
      </trkpt>
      <trkpt lat="49.13922" lon="2.02762">
        <ele>133.6</ele>
        <time>2024-02-04T11:09:54Z</time>
      </trkpt>
      <trkpt lat="49.13926" lon="2.02773">
        <ele>133.5</ele>
        <time>2024-02-04T11:10:00Z</time>
      </trkpt>
      <trkpt lat="49.1393" lon="2.02778">
        <ele>133.5</ele>
        <time>2024-02-04T11:10:06Z</time>
      </trkpt>
      <trkpt lat="49.13935" lon="2.02787">
        <ele>133.4</ele>
        <time>2024-02-04T11:10:12Z</time>
      </trkpt>
      <trkpt lat="49.13939" lon="2.02794">
        <ele>133.3</ele>
        <time>2024-02-04T11:10:17Z</time>
      </trkpt>
      <trkpt lat="49.13947" lon="2.02803">
        <ele>133.1</ele>
        <time>2024-02-04T11:10:23Z</time>
      </trkpt>
      <trkpt lat="49.13954" lon="2.02811">
        <ele>133</ele>
        <time>2024-02-04T11:10:28Z</time>
      </trkpt>
      <trkpt lat="49.1396" lon="2.02822">
        <ele>133</ele>
        <time>2024-02-04T11:10:34Z</time>
      </trkpt>
      <trkpt lat="49.13961" lon="2.02829">
        <ele>133</ele>
        <time>2024-02-04T11:10:39Z</time>
      </trkpt>
      <trkpt lat="49.13964" lon="2.02836">
        <ele>133</ele>
        <time>2024-02-04T11:10:44Z</time>
      </trkpt>
      <trkpt lat="49.13968" lon="2.02846">
        <ele>132.9</ele>
        <time>2024-02-04T11:10:50Z</time>
      </trkpt>
      <trkpt lat="49.13972" lon="2.02854">
        <ele>133</ele>
        <time>2024-02-04T11:10:55Z</time>
      </trkpt>
      <trkpt lat="49.13976" lon="2.02863">
        <ele>132.9</ele>
        <time>2024-02-04T11:11:00Z</time>
      </trkpt>
      <trkpt lat="49.1398" lon="2.02875">
        <ele>132.6</ele>
        <time>2024-02-04T11:11:06Z</time>
      </trkpt>
      <trkpt lat="49.13984" lon="2.02882">
        <ele>132.6</ele>
        <time>2024-02-04T11:11:11Z</time>
      </trkpt>
      <trkpt lat="49.13987" lon="2.02889">
        <ele>132.5</ele>
        <time>2024-02-04T11:11:16Z</time>
      </trkpt>
      <trkpt lat="49.13991" lon="2.02897">
        <ele>132.4</ele>
        <time>2024-02-04T11:11:22Z</time>
      </trkpt>
      <trkpt lat="49.13995" lon="2.02904">
        <ele>132.3</ele>
        <time>2024-02-04T11:11:28Z</time>
      </trkpt>
      <trkpt lat="49.13999" lon="2.02908">
        <ele>132.3</ele>
        <time>2024-02-04T11:11:34Z</time>
      </trkpt>
      <trkpt lat="49.14003" lon="2.02917">
        <ele>132.1</ele>
        <time>2024-02-04T11:11:40Z</time>
      </trkpt>
      <trkpt lat="49.14006" lon="2.02925">
        <ele>131.9</ele>
        <time>2024-02-04T11:11:46Z</time>
      </trkpt>
      <trkpt lat="49.14011" lon="2.02932">
        <ele>131.8</ele>
        <time>2024-02-04T11:11:52Z</time>
      </trkpt>
      <trkpt lat="49.14014" lon="2.02941">
        <ele>131.6</ele>
        <time>2024-02-04T11:11:58Z</time>
      </trkpt>
      <trkpt lat="49.14018" lon="2.02952">
        <ele>131.6</ele>
        <time>2024-02-04T11:12:04Z</time>
      </trkpt>
      <trkpt lat="49.14022" lon="2.02962">
        <ele>131.8</ele>
        <time>2024-02-04T11:12:10Z</time>
      </trkpt>
      <trkpt lat="49.14026" lon="2.02971">
        <ele>131.9</ele>
        <time>2024-02-04T11:12:15Z</time>
      </trkpt>
      <trkpt lat="49.14029" lon="2.0298">
        <ele>131.7</ele>
        <time>2024-02-04T11:12:20Z</time>
      </trkpt>
      <trkpt lat="49.14035" lon="2.02989">
        <ele>131.7</ele>
        <time>2024-02-04T11:12:26Z</time>
      </trkpt>
      <trkpt lat="49.14043" lon="2.03">
        <ele>132.1</ele>
        <time>2024-02-04T11:12:31Z</time>
      </trkpt>
      <trkpt lat="49.1405" lon="2.03008">
        <ele>132.4</ele>
        <time>2024-02-04T11:12:37Z</time>
      </trkpt>
      <trkpt lat="49.14055" lon="2.03011">
        <ele>132.6</ele>
        <time>2024-02-04T11:12:42Z</time>
      </trkpt>
      <trkpt lat="49.14059" lon="2.03004">
        <ele>132.8</ele>
        <time>2024-02-04T11:12:48Z</time>
      </trkpt>
      <trkpt lat="49.14061" lon="2.02994">
        <ele>132.6</ele>
        <time>2024-02-04T11:12:53Z</time>
      </trkpt>
      <trkpt lat="49.14063" lon="2.02982">
        <ele>132.3</ele>
        <time>2024-02-04T11:12:59Z</time>
      </trkpt>
      <trkpt lat="49.14064" lon="2.02976">
        <ele>132.1</ele>
        <time>2024-02-04T11:13:04Z</time>
      </trkpt>
      <trkpt lat="49.14066" lon="2.02967">
        <ele>132.2</ele>
        <time>2024-02-04T11:13:09Z</time>
      </trkpt>
      <trkpt lat="49.14071" lon="2.02956">
        <ele>132.6</ele>
        <time>2024-02-04T11:13:15Z</time>
      </trkpt>
      <trkpt lat="49.14074" lon="2.02944">
        <ele>133</ele>
        <time>2024-02-04T11:13:21Z</time>
      </trkpt>
      <trkpt lat="49.14077" lon="2.02931">
        <ele>133.4</ele>
        <time>2024-02-04T11:13:27Z</time>
      </trkpt>
      <trkpt lat="49.14079" lon="2.02925">
        <ele>133.6</ele>
        <time>2024-02-04T11:13:32Z</time>
      </trkpt>
      <trkpt lat="49.14078" lon="2.02924">
        <ele>133.6</ele>
        <time>2024-02-04T11:13:37Z</time>
      </trkpt>
      <trkpt lat="49.14077" lon="2.02925">
        <ele>133.6</ele>
        <time>2024-02-04T11:13:42Z</time>
      </trkpt>
      <trkpt lat="49.14077" lon="2.02926">
        <ele>133.5</ele>
        <time>2024-02-04T11:13:48Z</time>
      </trkpt>
      <trkpt lat="49.14077" lon="2.02922">
        <ele>133.6</ele>
        <time>2024-02-04T11:13:54Z</time>
      </trkpt>
      <trkpt lat="49.14082" lon="2.02909">
        <ele>134</ele>
        <time>2024-02-04T11:14:00Z</time>
      </trkpt>
      <trkpt lat="49.14085" lon="2.029">
        <ele>134</ele>
        <time>2024-02-04T11:14:05Z</time>
      </trkpt>
      <trkpt lat="49.14088" lon="2.02888">
        <ele>134</ele>
        <time>2024-02-04T11:14:11Z</time>
      </trkpt>
      <trkpt lat="49.14092" lon="2.0288">
        <ele>134.1</ele>
        <time>2024-02-04T11:14:16Z</time>
      </trkpt>
      <trkpt lat="49.14097" lon="2.02869">
        <ele>134.4</ele>
        <time>2024-02-04T11:14:22Z</time>
      </trkpt>
      <trkpt lat="49.14101" lon="2.02858">
        <ele>134.6</ele>
        <time>2024-02-04T11:14:28Z</time>
      </trkpt>
      <trkpt lat="49.14103" lon="2.0285">
        <ele>134.7</ele>
        <time>2024-02-04T11:14:33Z</time>
      </trkpt>
      <trkpt lat="49.14105" lon="2.02838">
        <ele>134.8</ele>
        <time>2024-02-04T11:14:38Z</time>
      </trkpt>
      <trkpt lat="49.14109" lon="2.02827">
        <ele>135.2</ele>
        <time>2024-02-04T11:14:44Z</time>
      </trkpt>
      <trkpt lat="49.14113" lon="2.02818">
        <ele>135.6</ele>
        <time>2024-02-04T11:14:49Z</time>
      </trkpt>
      <trkpt lat="49.14115" lon="2.02809">
        <ele>136</ele>
        <time>2024-02-04T11:14:54Z</time>
      </trkpt>
      <trkpt lat="49.14118" lon="2.02798">
        <ele>136.3</ele>
        <time>2024-02-04T11:14:59Z</time>
      </trkpt>
      <trkpt lat="49.1412" lon="2.02786">
        <ele>136.5</ele>
        <time>2024-02-04T11:15:05Z</time>
      </trkpt>
      <trkpt lat="49.14122" lon="2.02775">
        <ele>136.9</ele>
        <time>2024-02-04T11:15:11Z</time>
      </trkpt>
      <trkpt lat="49.14124" lon="2.02767">
        <ele>137.3</ele>
        <time>2024-02-04T11:15:17Z</time>
      </trkpt>
      <trkpt lat="49.14128" lon="2.02754">
        <ele>138.1</ele>
        <time>2024-02-04T11:15:23Z</time>
      </trkpt>
      <trkpt lat="49.1413" lon="2.02744">
        <ele>138.3</ele>
        <time>2024-02-04T11:15:29Z</time>
      </trkpt>
      <trkpt lat="49.14134" lon="2.02731">
        <ele>138.2</ele>
        <time>2024-02-04T11:15:35Z</time>
      </trkpt>
      <trkpt lat="49.14137" lon="2.02725">
        <ele>138.1</ele>
        <time>2024-02-04T11:15:40Z</time>
      </trkpt>
      <trkpt lat="49.14142" lon="2.02715">
        <ele>138.8</ele>
        <time>2024-02-04T11:15:46Z</time>
      </trkpt>
      <trkpt lat="49.14145" lon="2.02704">
        <ele>139.8</ele>
        <time>2024-02-04T11:15:52Z</time>
      </trkpt>
      <trkpt lat="49.14146" lon="2.02695">
        <ele>140.5</ele>
        <time>2024-02-04T11:15:57Z</time>
      </trkpt>
      <trkpt lat="49.14149" lon="2.02684">
        <ele>141.4</ele>
        <time>2024-02-04T11:16:03Z</time>
      </trkpt>
      <trkpt lat="49.14151" lon="2.02675">
        <ele>142</ele>
        <time>2024-02-04T11:16:08Z</time>
      </trkpt>
      <trkpt lat="49.14152" lon="2.02665">
        <ele>142.5</ele>
        <time>2024-02-04T11:16:14Z</time>
      </trkpt>
      <trkpt lat="49.14152" lon="2.02655">
        <ele>142.9</ele>
        <time>2024-02-04T11:16:20Z</time>
      </trkpt>
      <trkpt lat="49.14153" lon="2.02647">
        <ele>143.2</ele>
        <time>2024-02-04T11:16:25Z</time>
      </trkpt>
      <trkpt lat="49.14154" lon="2.02637">
        <ele>143.6</ele>
        <time>2024-02-04T11:16:31Z</time>
      </trkpt>
      <trkpt lat="49.14156" lon="2.02627">
        <ele>143.8</ele>
        <time>2024-02-04T11:16:36Z</time>
      </trkpt>
      <trkpt lat="49.14159" lon="2.02615">
        <ele>144</ele>
        <time>2024-02-04T11:16:42Z</time>
      </trkpt>
      <trkpt lat="49.14163" lon="2.02605">
        <ele>144.2</ele>
        <time>2024-02-04T11:16:47Z</time>
      </trkpt>
      <trkpt lat="49.14166" lon="2.02594">
        <ele>144.6</ele>
        <time>2024-02-04T11:16:53Z</time>
      </trkpt>
      <trkpt lat="49.14169" lon="2.02583">
        <ele>145.3</ele>
        <time>2024-02-04T11:16:59Z</time>
      </trkpt>
      <trkpt lat="49.14172" lon="2.02574">
        <ele>146.2</ele>
        <time>2024-02-04T11:17:04Z</time>
      </trkpt>
      <trkpt lat="49.14175" lon="2.02565">
        <ele>147</ele>
        <time>2024-02-04T11:17:09Z</time>
      </trkpt>
      <trkpt lat="49.14178" lon="2.02553">
        <ele>147.9</ele>
        <time>2024-02-04T11:17:15Z</time>
      </trkpt>
      <trkpt lat="49.14181" lon="2.02541">
        <ele>148.3</ele>
        <time>2024-02-04T11:17:21Z</time>
      </trkpt>
      <trkpt lat="49.14184" lon="2.02531">
        <ele>148.6</ele>
        <time>2024-02-04T11:17:26Z</time>
      </trkpt>
      <trkpt lat="49.14188" lon="2.02519">
        <ele>148.8</ele>
        <time>2024-02-04T11:17:32Z</time>
      </trkpt>
      <trkpt lat="49.14191" lon="2.0251">
        <ele>149</ele>
        <time>2024-02-04T11:17:37Z</time>
      </trkpt>
      <trkpt lat="49.14194" lon="2.02501">
        <ele>149</ele>
        <time>2024-02-04T11:17:42Z</time>
      </trkpt>
      <trkpt lat="49.14198" lon="2.02491">
        <ele>149.5</ele>
        <time>2024-02-04T11:17:48Z</time>
      </trkpt>
      <trkpt lat="49.14201" lon="2.02481">
        <ele>150</ele>
        <time>2024-02-04T11:17:54Z</time>
      </trkpt>
      <trkpt lat="49.14204" lon="2.02473">
        <ele>150.3</ele>
        <time>2024-02-04T11:17:59Z</time>
      </trkpt>
      <trkpt lat="49.14206" lon="2.02463">
        <ele>150.6</ele>
        <time>2024-02-04T11:18:05Z</time>
      </trkpt>
      <trkpt lat="49.14208" lon="2.02454">
        <ele>150.8</ele>
        <time>2024-02-04T11:18:10Z</time>
      </trkpt>
      <trkpt lat="49.14209" lon="2.02442">
        <ele>151.1</ele>
        <time>2024-02-04T11:18:16Z</time>
      </trkpt>
      <trkpt lat="49.1421" lon="2.02433">
        <ele>151.2</ele>
        <time>2024-02-04T11:18:21Z</time>
      </trkpt>
      <trkpt lat="49.14212" lon="2.02422">
        <ele>151.3</ele>
        <time>2024-02-04T11:18:27Z</time>
      </trkpt>
      <trkpt lat="49.14213" lon="2.02414">
        <ele>151.4</ele>
        <time>2024-02-04T11:18:32Z</time>
      </trkpt>
      <trkpt lat="49.14213" lon="2.02405">
        <ele>151.6</ele>
        <time>2024-02-04T11:18:37Z</time>
      </trkpt>
      <trkpt lat="49.14213" lon="2.02393">
        <ele>151.9</ele>
        <time>2024-02-04T11:18:43Z</time>
      </trkpt>
      <trkpt lat="49.14213" lon="2.02381">
        <ele>152.2</ele>
        <time>2024-02-04T11:18:49Z</time>
      </trkpt>
      <trkpt lat="49.14213" lon="2.02371">
        <ele>152.4</ele>
        <time>2024-02-04T11:18:54Z</time>
      </trkpt>
      <trkpt lat="49.14215" lon="2.02363">
        <ele>152.7</ele>
        <time>2024-02-04T11:18:59Z</time>
      </trkpt>
      <trkpt lat="49.1422" lon="2.02355">
        <ele>152.9</ele>
        <time>2024-02-04T11:19:05Z</time>
      </trkpt>
      <trkpt lat="49.14225" lon="2.02348">
        <ele>153</ele>
        <time>2024-02-04T11:19:11Z</time>
      </trkpt>
      <trkpt lat="49.14228" lon="2.02343">
        <ele>153</ele>
        <time>2024-02-04T11:19:16Z</time>
      </trkpt>
      <trkpt lat="49.14233" lon="2.02338">
        <ele>153</ele>
        <time>2024-02-04T11:19:21Z</time>
      </trkpt>
      <trkpt lat="49.14237" lon="2.02334">
        <ele>153</ele>
        <time>2024-02-04T11:19:26Z</time>
      </trkpt>
      <trkpt lat="49.14241" lon="2.02329">
        <ele>153.1</ele>
        <time>2024-02-04T11:19:31Z</time>
      </trkpt>
      <trkpt lat="49.14247" lon="2.02322">
        <ele>153.4</ele>
        <time>2024-02-04T11:19:37Z</time>
      </trkpt>
      <trkpt lat="49.14253" lon="2.02312">
        <ele>153.7</ele>
        <time>2024-02-04T11:19:43Z</time>
      </trkpt>
      <trkpt lat="49.14257" lon="2.02304">
        <ele>153.8</ele>
        <time>2024-02-04T11:19:49Z</time>
      </trkpt>
      <trkpt lat="49.14257" lon="2.02298">
        <ele>153.8</ele>
        <time>2024-02-04T11:19:54Z</time>
      </trkpt>
      <trkpt lat="49.14258" lon="2.0229">
        <ele>153.9</ele>
        <time>2024-02-04T11:19:59Z</time>
      </trkpt>
      <trkpt lat="49.14259" lon="2.02277">
        <ele>154</ele>
        <time>2024-02-04T11:20:05Z</time>
      </trkpt>
      <trkpt lat="49.14262" lon="2.02265">
        <ele>154.1</ele>
        <time>2024-02-04T11:20:11Z</time>
      </trkpt>
      <trkpt lat="49.14264" lon="2.02255">
        <ele>154</ele>
        <time>2024-02-04T11:20:16Z</time>
      </trkpt>
      <trkpt lat="49.14265" lon="2.02244">
        <ele>153.9</ele>
        <time>2024-02-04T11:20:21Z</time>
      </trkpt>
      <trkpt lat="49.14264" lon="2.02229">
        <ele>154</ele>
        <time>2024-02-04T11:20:27Z</time>
      </trkpt>
      <trkpt lat="49.14263" lon="2.02215">
        <ele>154.2</ele>
        <time>2024-02-04T11:20:33Z</time>
      </trkpt>
      <trkpt lat="49.14262" lon="2.02204">
        <ele>154.4</ele>
        <time>2024-02-04T11:20:38Z</time>
      </trkpt>
      <trkpt lat="49.14261" lon="2.02192">
        <ele>154.7</ele>
        <time>2024-02-04T11:20:44Z</time>
      </trkpt>
      <trkpt lat="49.14259" lon="2.02183">
        <ele>155</ele>
        <time>2024-02-04T11:20:49Z</time>
      </trkpt>
      <trkpt lat="49.1426" lon="2.02175">
        <ele>155.1</ele>
        <time>2024-02-04T11:20:55Z</time>
      </trkpt>
      <trkpt lat="49.14261" lon="2.02173">
        <ele>155.1</ele>
        <time>2024-02-04T11:21:01Z</time>
      </trkpt>
      <trkpt lat="49.14266" lon="2.02172">
        <ele>154.8</ele>
        <time>2024-02-04T11:21:07Z</time>
      </trkpt>
      <trkpt lat="49.14274" lon="2.02171">
        <ele>154.3</ele>
        <time>2024-02-04T11:21:13Z</time>
      </trkpt>
      <trkpt lat="49.14282" lon="2.02172">
        <ele>153.8</ele>
        <time>2024-02-04T11:21:19Z</time>
      </trkpt>
      <trkpt lat="49.14286" lon="2.02173">
        <ele>153.7</ele>
        <time>2024-02-04T11:21:25Z</time>
      </trkpt>
      <trkpt lat="49.14286" lon="2.02176">
        <ele>153.7</ele>
        <time>2024-02-04T11:21:31Z</time>
      </trkpt>
      <trkpt lat="49.14286" lon="2.02176">
        <ele>153.7</ele>
        <time>2024-02-04T11:21:36Z</time>
      </trkpt>
      <trkpt lat="49.14287" lon="2.02176">
        <ele>153.7</ele>
        <time>2024-02-04T11:21:41Z</time>
      </trkpt>
      <trkpt lat="49.14287" lon="2.02176">
        <ele>153.7</ele>
        <time>2024-02-04T11:21:47Z</time>
      </trkpt>
      <trkpt lat="49.14287" lon="2.02175">
        <ele>153.7</ele>
        <time>2024-02-04T11:21:53Z</time>
      </trkpt>
      <trkpt lat="49.14287" lon="2.02175">
        <ele>153.7</ele>
        <time>2024-02-04T11:21:59Z</time>
      </trkpt>
      <trkpt lat="49.14291" lon="2.02167">
        <ele>153.5</ele>
        <time>2024-02-04T11:53:08Z</time>
      </trkpt>
      <trkpt lat="49.14291" lon="2.02165">
        <ele>153.6</ele>
        <time>2024-02-04T11:53:13Z</time>
      </trkpt>
      <trkpt lat="49.14291" lon="2.02164">
        <ele>153.6</ele>
        <time>2024-02-04T11:53:19Z</time>
      </trkpt>
      <trkpt lat="49.14291" lon="2.02165">
        <ele>153.6</ele>
        <time>2024-02-04T11:53:25Z</time>
      </trkpt>
      <trkpt lat="49.1429" lon="2.02167">
        <ele>153.5</ele>
        <time>2024-02-04T11:53:30Z</time>
      </trkpt>
      <trkpt lat="49.14291" lon="2.0217">
        <ele>153.5</ele>
        <time>2024-02-04T11:53:36Z</time>
      </trkpt>
      <trkpt lat="49.14291" lon="2.02175">
        <ele>153.5</ele>
        <time>2024-02-04T11:53:41Z</time>
      </trkpt>
      <trkpt lat="49.14292" lon="2.02177">
        <ele>153.5</ele>
        <time>2024-02-04T11:53:46Z</time>
      </trkpt>
      <trkpt lat="49.14291" lon="2.02178">
        <ele>153.5</ele>
        <time>2024-02-04T11:53:51Z</time>
      </trkpt>
      <trkpt lat="49.14291" lon="2.02179">
        <ele>153.5</ele>
        <time>2024-02-04T11:53:57Z</time>
      </trkpt>
      <trkpt lat="49.14291" lon="2.02179">
        <ele>153.5</ele>
        <time>2024-02-04T11:54:03Z</time>
      </trkpt>
      <trkpt lat="49.14291" lon="2.02179">
        <ele>153.5</ele>
        <time>2024-02-04T11:54:08Z</time>
      </trkpt>
      <trkpt lat="49.14291" lon="2.02178">
        <ele>153.5</ele>
        <time>2024-02-04T11:54:14Z</time>
      </trkpt>
      <trkpt lat="49.14292" lon="2.02174">
        <ele>153.5</ele>
        <time>2024-02-04T11:54:19Z</time>
      </trkpt>
      <trkpt lat="49.14292" lon="2.02172">
        <ele>153.5</ele>
        <time>2024-02-04T11:54:25Z</time>
      </trkpt>
      <trkpt lat="49.14289" lon="2.02169">
        <ele>153.6</ele>
        <time>2024-02-04T11:54:31Z</time>
      </trkpt>
      <trkpt lat="49.14285" lon="2.02167">
        <ele>153.7</ele>
        <time>2024-02-04T11:54:37Z</time>
      </trkpt>
      <trkpt lat="49.14284" lon="2.02167">
        <ele>153.8</ele>
        <time>2024-02-04T11:54:43Z</time>
      </trkpt>
      <trkpt lat="49.14284" lon="2.02167">
        <ele>153.8</ele>
        <time>2024-02-04T11:54:48Z</time>
      </trkpt>
      <trkpt lat="49.14284" lon="2.02166">
        <ele>153.8</ele>
        <time>2024-02-04T11:54:53Z</time>
      </trkpt>
      <trkpt lat="49.14284" lon="2.02164">
        <ele>153.9</ele>
        <time>2024-02-04T11:54:59Z</time>
      </trkpt>
      <trkpt lat="49.14285" lon="2.02161">
        <ele>153.9</ele>
        <time>2024-02-04T11:55:05Z</time>
      </trkpt>
      <trkpt lat="49.14286" lon="2.02161">
        <ele>153.9</ele>
        <time>2024-02-04T11:55:10Z</time>
      </trkpt>
      <trkpt lat="49.14285" lon="2.02164">
        <ele>153.8</ele>
        <time>2024-02-04T11:55:16Z</time>
      </trkpt>
      <trkpt lat="49.14284" lon="2.02161">
        <ele>154</ele>
        <time>2024-02-04T11:55:21Z</time>
      </trkpt>
      <trkpt lat="49.14287" lon="2.02156">
        <ele>154</ele>
        <time>2024-02-04T11:55:27Z</time>
      </trkpt>
      <trkpt lat="49.1429" lon="2.02152">
        <ele>154.1</ele>
        <time>2024-02-04T11:55:33Z</time>
      </trkpt>
      <trkpt lat="49.14292" lon="2.02148">
        <ele>154.2</ele>
        <time>2024-02-04T11:55:39Z</time>
      </trkpt>
      <trkpt lat="49.14296" lon="2.02143">
        <ele>154.2</ele>
        <time>2024-02-04T11:55:45Z</time>
      </trkpt>
      <trkpt lat="49.143" lon="2.02137">
        <ele>154.2</ele>
        <time>2024-02-04T11:55:51Z</time>
      </trkpt>
      <trkpt lat="49.14304" lon="2.02128">
        <ele>154</ele>
        <time>2024-02-04T11:55:57Z</time>
      </trkpt>
      <trkpt lat="49.14307" lon="2.02122">
        <ele>153.7</ele>
        <time>2024-02-04T11:56:02Z</time>
      </trkpt>
      <trkpt lat="49.14309" lon="2.02118">
        <ele>153.5</ele>
        <time>2024-02-04T11:56:07Z</time>
      </trkpt>
      <trkpt lat="49.14312" lon="2.02113">
        <ele>153.1</ele>
        <time>2024-02-04T11:56:12Z</time>
      </trkpt>
      <trkpt lat="49.14315" lon="2.0211">
        <ele>152.7</ele>
        <time>2024-02-04T11:56:17Z</time>
      </trkpt>
      <trkpt lat="49.14317" lon="2.02105">
        <ele>152.4</ele>
        <time>2024-02-04T11:56:23Z</time>
      </trkpt>
      <trkpt lat="49.14319" lon="2.02101">
        <ele>152.2</ele>
        <time>2024-02-04T11:56:29Z</time>
      </trkpt>
      <trkpt lat="49.14323" lon="2.02097">
        <ele>151.8</ele>
        <time>2024-02-04T11:56:35Z</time>
      </trkpt>
      <trkpt lat="49.14327" lon="2.02093">
        <ele>151.4</ele>
        <time>2024-02-04T11:56:40Z</time>
      </trkpt>
      <trkpt lat="49.14332" lon="2.0209">
        <ele>150.9</ele>
        <time>2024-02-04T11:56:46Z</time>
      </trkpt>
      <trkpt lat="49.14334" lon="2.02087">
        <ele>150.7</ele>
        <time>2024-02-04T11:56:52Z</time>
      </trkpt>
      <trkpt lat="49.1434" lon="2.02083">
        <ele>150.1</ele>
        <time>2024-02-04T11:56:58Z</time>
      </trkpt>
      <trkpt lat="49.14339" lon="2.02082">
        <ele>150.2</ele>
        <time>2024-02-04T11:57:04Z</time>
      </trkpt>
      <trkpt lat="49.14338" lon="2.0208">
        <ele>150.3</ele>
        <time>2024-02-04T11:57:09Z</time>
      </trkpt>
      <trkpt lat="49.14341" lon="2.0208">
        <ele>149.9</ele>
        <time>2024-02-04T11:57:15Z</time>
      </trkpt>
      <trkpt lat="49.14346" lon="2.02076">
        <ele>149.2</ele>
        <time>2024-02-04T11:57:21Z</time>
      </trkpt>
      <trkpt lat="49.14351" lon="2.02073">
        <ele>148.4</ele>
        <time>2024-02-04T11:57:26Z</time>
      </trkpt>
      <trkpt lat="49.1436" lon="2.02067">
        <ele>147.1</ele>
        <time>2024-02-04T11:57:32Z</time>
      </trkpt>
      <trkpt lat="49.14368" lon="2.02058">
        <ele>146.2</ele>
        <time>2024-02-04T11:57:38Z</time>
      </trkpt>
      <trkpt lat="49.14371" lon="2.0205">
        <ele>146.1</ele>
        <time>2024-02-04T11:57:43Z</time>
      </trkpt>
      <trkpt lat="49.14372" lon="2.02041">
        <ele>146.4</ele>
        <time>2024-02-04T11:57:49Z</time>
      </trkpt>
      <trkpt lat="49.14373" lon="2.02035">
        <ele>146.5</ele>
        <time>2024-02-04T11:57:54Z</time>
      </trkpt>
      <trkpt lat="49.14372" lon="2.02028">
        <ele>146.9</ele>
        <time>2024-02-04T11:58:00Z</time>
      </trkpt>
      <trkpt lat="49.14369" lon="2.02025">
        <ele>147.4</ele>
        <time>2024-02-04T11:58:06Z</time>
      </trkpt>
      <trkpt lat="49.14365" lon="2.02022">
        <ele>148</ele>
        <time>2024-02-04T11:58:11Z</time>
      </trkpt>
      <trkpt lat="49.1436" lon="2.02018">
        <ele>148.9</ele>
        <time>2024-02-04T11:58:17Z</time>
      </trkpt>
      <trkpt lat="49.14353" lon="2.02015">
        <ele>149.8</ele>
        <time>2024-02-04T11:58:22Z</time>
      </trkpt>
      <trkpt lat="49.14346" lon="2.02011">
        <ele>150.7</ele>
        <time>2024-02-04T11:58:27Z</time>
      </trkpt>
      <trkpt lat="49.1434" lon="2.02007">
        <ele>151.4</ele>
        <time>2024-02-04T11:58:32Z</time>
      </trkpt>
      <trkpt lat="49.14337" lon="2.02002">
        <ele>151.7</ele>
        <time>2024-02-04T11:58:38Z</time>
      </trkpt>
      <trkpt lat="49.14336" lon="2.01997">
        <ele>151.9</ele>
        <time>2024-02-04T11:58:43Z</time>
      </trkpt>
      <trkpt lat="49.14335" lon="2.01994">
        <ele>152.1</ele>
        <time>2024-02-04T11:58:48Z</time>
      </trkpt>
      <trkpt lat="49.14333" lon="2.01989">
        <ele>152.4</ele>
        <time>2024-02-04T11:58:54Z</time>
      </trkpt>
      <trkpt lat="49.1433" lon="2.01988">
        <ele>152.6</ele>
        <time>2024-02-04T11:58:59Z</time>
      </trkpt>
      <trkpt lat="49.14325" lon="2.01983">
        <ele>153</ele>
        <time>2024-02-04T11:59:05Z</time>
      </trkpt>
      <trkpt lat="49.1432" lon="2.01979">
        <ele>153.4</ele>
        <time>2024-02-04T11:59:10Z</time>
      </trkpt>
      <trkpt lat="49.14314" lon="2.01973">
        <ele>153.7</ele>
        <time>2024-02-04T11:59:15Z</time>
      </trkpt>
      <trkpt lat="49.14308" lon="2.01964">
        <ele>153.9</ele>
        <time>2024-02-04T11:59:21Z</time>
      </trkpt>
      <trkpt lat="49.14309" lon="2.01954">
        <ele>153.9</ele>
        <time>2024-02-04T11:59:26Z</time>
      </trkpt>
      <trkpt lat="49.14309" lon="2.01948">
        <ele>153.9</ele>
        <time>2024-02-04T11:59:31Z</time>
      </trkpt>
      <trkpt lat="49.14313" lon="2.01939">
        <ele>153.7</ele>
        <time>2024-02-04T11:59:37Z</time>
      </trkpt>
      <trkpt lat="49.14315" lon="2.01932">
        <ele>153.7</ele>
        <time>2024-02-04T11:59:42Z</time>
      </trkpt>
      <trkpt lat="49.1432" lon="2.01918">
        <ele>153.5</ele>
        <time>2024-02-04T11:59:48Z</time>
      </trkpt>
      <trkpt lat="49.14321" lon="2.01907">
        <ele>153.5</ele>
        <time>2024-02-04T11:59:54Z</time>
      </trkpt>
      <trkpt lat="49.14321" lon="2.01896">
        <ele>153.4</ele>
        <time>2024-02-04T11:59:59Z</time>
      </trkpt>
      <trkpt lat="49.14321" lon="2.01884">
        <ele>153.4</ele>
        <time>2024-02-04T12:00:04Z</time>
      </trkpt>
      <trkpt lat="49.14318" lon="2.01872">
        <ele>153.6</ele>
        <time>2024-02-04T12:00:10Z</time>
      </trkpt>
      <trkpt lat="49.14314" lon="2.01859">
        <ele>153.6</ele>
        <time>2024-02-04T12:00:16Z</time>
      </trkpt>
      <trkpt lat="49.14312" lon="2.0185">
        <ele>153.5</ele>
        <time>2024-02-04T12:00:21Z</time>
      </trkpt>
      <trkpt lat="49.1431" lon="2.01839">
        <ele>153.2</ele>
        <time>2024-02-04T12:00:27Z</time>
      </trkpt>
      <trkpt lat="49.14309" lon="2.0183">
        <ele>153</ele>
        <time>2024-02-04T12:00:32Z</time>
      </trkpt>
      <trkpt lat="49.14308" lon="2.01818">
        <ele>153</ele>
        <time>2024-02-04T12:00:38Z</time>
      </trkpt>
      <trkpt lat="49.1431" lon="2.01806">
        <ele>153</ele>
        <time>2024-02-04T12:00:44Z</time>
      </trkpt>
      <trkpt lat="49.1431" lon="2.01798">
        <ele>152.8</ele>
        <time>2024-02-04T12:00:49Z</time>
      </trkpt>
      <trkpt lat="49.14309" lon="2.01789">
        <ele>152.5</ele>
        <time>2024-02-04T12:00:55Z</time>
      </trkpt>
      <trkpt lat="49.14311" lon="2.01779">
        <ele>152.2</ele>
        <time>2024-02-04T12:01:01Z</time>
      </trkpt>
      <trkpt lat="49.14313" lon="2.01771">
        <ele>152.2</ele>
        <time>2024-02-04T12:01:07Z</time>
      </trkpt>
      <trkpt lat="49.14315" lon="2.01759">
        <ele>152.1</ele>
        <time>2024-02-04T12:01:12Z</time>
      </trkpt>
      <trkpt lat="49.14318" lon="2.01746">
        <ele>151.9</ele>
        <time>2024-02-04T12:01:18Z</time>
      </trkpt>
      <trkpt lat="49.14321" lon="2.01739">
        <ele>151.6</ele>
        <time>2024-02-04T12:01:23Z</time>
      </trkpt>
      <trkpt lat="49.14325" lon="2.01729">
        <ele>151.2</ele>
        <time>2024-02-04T12:01:29Z</time>
      </trkpt>
      <trkpt lat="49.14331" lon="2.01719">
        <ele>150.9</ele>
        <time>2024-02-04T12:01:35Z</time>
      </trkpt>
      <trkpt lat="49.14334" lon="2.01709">
        <ele>150.6</ele>
        <time>2024-02-04T12:01:41Z</time>
      </trkpt>
      <trkpt lat="49.14338" lon="2.01701">
        <ele>150.4</ele>
        <time>2024-02-04T12:01:47Z</time>
      </trkpt>
      <trkpt lat="49.14343" lon="2.01695">
        <ele>150.3</ele>
        <time>2024-02-04T12:01:52Z</time>
      </trkpt>
      <trkpt lat="49.14347" lon="2.01686">
        <ele>150</ele>
        <time>2024-02-04T12:01:58Z</time>
      </trkpt>
      <trkpt lat="49.1435" lon="2.01676">
        <ele>149.7</ele>
        <time>2024-02-04T12:02:04Z</time>
      </trkpt>
      <trkpt lat="49.14354" lon="2.01668">
        <ele>149.6</ele>
        <time>2024-02-04T12:02:09Z</time>
      </trkpt>
      <trkpt lat="49.14359" lon="2.01657">
        <ele>149.5</ele>
        <time>2024-02-04T12:02:15Z</time>
      </trkpt>
      <trkpt lat="49.14363" lon="2.01652">
        <ele>149.6</ele>
        <time>2024-02-04T12:02:20Z</time>
      </trkpt>
      <trkpt lat="49.14366" lon="2.01643">
        <ele>149.7</ele>
        <time>2024-02-04T12:02:25Z</time>
      </trkpt>
      <trkpt lat="49.1437" lon="2.01638">
        <ele>149.9</ele>
        <time>2024-02-04T12:02:30Z</time>
      </trkpt>
      <trkpt lat="49.14374" lon="2.01631">
        <ele>149.9</ele>
        <time>2024-02-04T12:02:36Z</time>
      </trkpt>
      <trkpt lat="49.1438" lon="2.01624">
        <ele>150.3</ele>
        <time>2024-02-04T12:02:42Z</time>
      </trkpt>
      <trkpt lat="49.14385" lon="2.01617">
        <ele>150.6</ele>
        <time>2024-02-04T12:02:48Z</time>
      </trkpt>
      <trkpt lat="49.14389" lon="2.0161">
        <ele>150.9</ele>
        <time>2024-02-04T12:02:54Z</time>
      </trkpt>
      <trkpt lat="49.14394" lon="2.01601">
        <ele>150.5</ele>
        <time>2024-02-04T12:03:00Z</time>
      </trkpt>
      <trkpt lat="49.144" lon="2.01596">
        <ele>150.5</ele>
        <time>2024-02-04T12:03:05Z</time>
      </trkpt>
      <trkpt lat="49.14406" lon="2.01588">
        <ele>150.5</ele>
        <time>2024-02-04T12:03:10Z</time>
      </trkpt>
      <trkpt lat="49.14411" lon="2.01578">
        <ele>150.4</ele>
        <time>2024-02-04T12:03:16Z</time>
      </trkpt>
      <trkpt lat="49.14418" lon="2.01569">
        <ele>150.6</ele>
        <time>2024-02-04T12:03:22Z</time>
      </trkpt>
      <trkpt lat="49.14422" lon="2.01561">
        <ele>150.6</ele>
        <time>2024-02-04T12:03:28Z</time>
      </trkpt>
      <trkpt lat="49.14427" lon="2.01554">
        <ele>150.7</ele>
        <time>2024-02-04T12:03:34Z</time>
      </trkpt>
      <trkpt lat="49.14432" lon="2.01546">
        <ele>150.7</ele>
        <time>2024-02-04T12:03:40Z</time>
      </trkpt>
      <trkpt lat="49.14439" lon="2.01541">
        <ele>151.1</ele>
        <time>2024-02-04T12:03:46Z</time>
      </trkpt>
      <trkpt lat="49.14445" lon="2.01533">
        <ele>151.2</ele>
        <time>2024-02-04T12:03:52Z</time>
      </trkpt>
      <trkpt lat="49.1445" lon="2.01526">
        <ele>151.5</ele>
        <time>2024-02-04T12:03:57Z</time>
      </trkpt>
      <trkpt lat="49.14456" lon="2.01517">
        <ele>151.9</ele>
        <time>2024-02-04T12:04:03Z</time>
      </trkpt>
      <trkpt lat="49.14459" lon="2.01508">
        <ele>151.9</ele>
        <time>2024-02-04T12:04:09Z</time>
      </trkpt>
      <trkpt lat="49.14462" lon="2.01502">
        <ele>152</ele>
        <time>2024-02-04T12:04:15Z</time>
      </trkpt>
      <trkpt lat="49.14466" lon="2.01493">
        <ele>152.1</ele>
        <time>2024-02-04T12:04:21Z</time>
      </trkpt>
      <trkpt lat="49.1447" lon="2.01482">
        <ele>152.2</ele>
        <time>2024-02-04T12:04:27Z</time>
      </trkpt>
      <trkpt lat="49.14474" lon="2.01474">
        <ele>152.3</ele>
        <time>2024-02-04T12:04:32Z</time>
      </trkpt>
      <trkpt lat="49.14481" lon="2.01466">
        <ele>152.8</ele>
        <time>2024-02-04T12:04:37Z</time>
      </trkpt>
      <trkpt lat="49.14485" lon="2.01463">
        <ele>153.2</ele>
        <time>2024-02-04T12:04:42Z</time>
      </trkpt>
      <trkpt lat="49.1449" lon="2.01459">
        <ele>153.6</ele>
        <time>2024-02-04T12:04:47Z</time>
      </trkpt>
      <trkpt lat="49.145" lon="2.01456">
        <ele>154.4</ele>
        <time>2024-02-04T12:04:53Z</time>
      </trkpt>
      <trkpt lat="49.14505" lon="2.01449">
        <ele>154.5</ele>
        <time>2024-02-04T12:04:58Z</time>
      </trkpt>
      <trkpt lat="49.1451" lon="2.01438">
        <ele>154.7</ele>
        <time>2024-02-04T12:05:04Z</time>
      </trkpt>
      <trkpt lat="49.14516" lon="2.01427">
        <ele>155.1</ele>
        <time>2024-02-04T12:05:10Z</time>
      </trkpt>
      <trkpt lat="49.14519" lon="2.01418">
        <ele>155.4</ele>
        <time>2024-02-04T12:05:15Z</time>
      </trkpt>
      <trkpt lat="49.14523" lon="2.01411">
        <ele>155.7</ele>
        <time>2024-02-04T12:05:21Z</time>
      </trkpt>
      <trkpt lat="49.14528" lon="2.01402">
        <ele>156</ele>
        <time>2024-02-04T12:05:27Z</time>
      </trkpt>
      <trkpt lat="49.14531" lon="2.0139">
        <ele>156.1</ele>
        <time>2024-02-04T12:05:33Z</time>
      </trkpt>
      <trkpt lat="49.14532" lon="2.01383">
        <ele>156.3</ele>
        <time>2024-02-04T12:05:38Z</time>
      </trkpt>
      <trkpt lat="49.14534" lon="2.01373">
        <ele>156.8</ele>
        <time>2024-02-04T12:05:44Z</time>
      </trkpt>
      <trkpt lat="49.14537" lon="2.01362">
        <ele>157.3</ele>
        <time>2024-02-04T12:05:49Z</time>
      </trkpt>
      <trkpt lat="49.1454" lon="2.01353">
        <ele>157.4</ele>
        <time>2024-02-04T12:05:54Z</time>
      </trkpt>
      <trkpt lat="49.14544" lon="2.01343">
        <ele>157.6</ele>
        <time>2024-02-04T12:06:00Z</time>
      </trkpt>
      <trkpt lat="49.14547" lon="2.01337">
        <ele>157.7</ele>
        <time>2024-02-04T12:06:05Z</time>
      </trkpt>
      <trkpt lat="49.14552" lon="2.01326">
        <ele>158.1</ele>
        <time>2024-02-04T12:06:11Z</time>
      </trkpt>
      <trkpt lat="49.14556" lon="2.01315">
        <ele>158.6</ele>
        <time>2024-02-04T12:06:17Z</time>
      </trkpt>
      <trkpt lat="49.14558" lon="2.01309">
        <ele>158.8</ele>
        <time>2024-02-04T12:06:22Z</time>
      </trkpt>
      <trkpt lat="49.14562" lon="2.01296">
        <ele>159.1</ele>
        <time>2024-02-04T12:06:28Z</time>
      </trkpt>
      <trkpt lat="49.14565" lon="2.0129">
        <ele>159.2</ele>
        <time>2024-02-04T12:06:33Z</time>
      </trkpt>
      <trkpt lat="49.14568" lon="2.01279">
        <ele>159.5</ele>
        <time>2024-02-04T12:06:39Z</time>
      </trkpt>
      <trkpt lat="49.14574" lon="2.01272">
        <ele>159.5</ele>
        <time>2024-02-04T12:06:44Z</time>
      </trkpt>
      <trkpt lat="49.1458" lon="2.01262">
        <ele>159.6</ele>
        <time>2024-02-04T12:06:50Z</time>
      </trkpt>
      <trkpt lat="49.14583" lon="2.01256">
        <ele>159.8</ele>
        <time>2024-02-04T12:06:55Z</time>
      </trkpt>
      <trkpt lat="49.14586" lon="2.01247">
        <ele>160</ele>
        <time>2024-02-04T12:07:01Z</time>
      </trkpt>
      <trkpt lat="49.14589" lon="2.0124">
        <ele>160.2</ele>
        <time>2024-02-04T12:07:06Z</time>
      </trkpt>
      <trkpt lat="49.14591" lon="2.01228">
        <ele>160.7</ele>
        <time>2024-02-04T12:07:12Z</time>
      </trkpt>
      <trkpt lat="49.14588" lon="2.01221">
        <ele>161.1</ele>
        <time>2024-02-04T12:07:17Z</time>
      </trkpt>
      <trkpt lat="49.14591" lon="2.01216">
        <ele>161.2</ele>
        <time>2024-02-04T12:07:23Z</time>
      </trkpt>
      <trkpt lat="49.14594" lon="2.01209">
        <ele>161.5</ele>
        <time>2024-02-04T12:07:28Z</time>
      </trkpt>
      <trkpt lat="49.14598" lon="2.01199">
        <ele>161.8</ele>
        <time>2024-02-04T12:07:34Z</time>
      </trkpt>
      <trkpt lat="49.146" lon="2.0119">
        <ele>162.2</ele>
        <time>2024-02-04T12:07:40Z</time>
      </trkpt>
      <trkpt lat="49.146" lon="2.01183">
        <ele>162.4</ele>
        <time>2024-02-04T12:07:45Z</time>
      </trkpt>
      <trkpt lat="49.14603" lon="2.01176">
        <ele>162.7</ele>
        <time>2024-02-04T12:07:50Z</time>
      </trkpt>
      <trkpt lat="49.14606" lon="2.01164">
        <ele>163.2</ele>
        <time>2024-02-04T12:07:56Z</time>
      </trkpt>
      <trkpt lat="49.1461" lon="2.01155">
        <ele>163.8</ele>
        <time>2024-02-04T12:08:01Z</time>
      </trkpt>
      <trkpt lat="49.14611" lon="2.01144">
        <ele>164.6</ele>
        <time>2024-02-04T12:08:07Z</time>
      </trkpt>
      <trkpt lat="49.14611" lon="2.01136">
        <ele>165.1</ele>
        <time>2024-02-04T12:08:12Z</time>
      </trkpt>
      <trkpt lat="49.14615" lon="2.01126">
        <ele>165.5</ele>
        <time>2024-02-04T12:08:18Z</time>
      </trkpt>
      <trkpt lat="49.14616" lon="2.01118">
        <ele>165.8</ele>
        <time>2024-02-04T12:08:23Z</time>
      </trkpt>
      <trkpt lat="49.14621" lon="2.01105">
        <ele>166.2</ele>
        <time>2024-02-04T12:08:29Z</time>
      </trkpt>
      <trkpt lat="49.14622" lon="2.01093">
        <ele>166.6</ele>
        <time>2024-02-04T12:08:34Z</time>
      </trkpt>
      <trkpt lat="49.14622" lon="2.01079">
        <ele>167.1</ele>
        <time>2024-02-04T12:08:40Z</time>
      </trkpt>
      <trkpt lat="49.14625" lon="2.0107">
        <ele>167.2</ele>
        <time>2024-02-04T12:08:46Z</time>
      </trkpt>
      <trkpt lat="49.14628" lon="2.0106">
        <ele>167.5</ele>
        <time>2024-02-04T12:08:52Z</time>
      </trkpt>
      <trkpt lat="49.1463" lon="2.01049">
        <ele>167.7</ele>
        <time>2024-02-04T12:08:58Z</time>
      </trkpt>
      <trkpt lat="49.14631" lon="2.01038">
        <ele>167.7</ele>
        <time>2024-02-04T12:09:04Z</time>
      </trkpt>
      <trkpt lat="49.14631" lon="2.01026">
        <ele>167.7</ele>
        <time>2024-02-04T12:09:10Z</time>
      </trkpt>
      <trkpt lat="49.14633" lon="2.01019">
        <ele>167.8</ele>
        <time>2024-02-04T12:09:15Z</time>
      </trkpt>
      <trkpt lat="49.14637" lon="2.0101">
        <ele>167.9</ele>
        <time>2024-02-04T12:09:21Z</time>
      </trkpt>
      <trkpt lat="49.14641" lon="2.00998">
        <ele>168.1</ele>
        <time>2024-02-04T12:09:26Z</time>
      </trkpt>
      <trkpt lat="49.14647" lon="2.00988">
        <ele>168.3</ele>
        <time>2024-02-04T12:09:32Z</time>
      </trkpt>
      <trkpt lat="49.14656" lon="2.00981">
        <ele>168.6</ele>
        <time>2024-02-04T12:09:38Z</time>
      </trkpt>
      <trkpt lat="49.14659" lon="2.0097">
        <ele>168.7</ele>
        <time>2024-02-04T12:09:44Z</time>
      </trkpt>
      <trkpt lat="49.14664" lon="2.0096">
        <ele>168.5</ele>
        <time>2024-02-04T12:09:50Z</time>
      </trkpt>
      <trkpt lat="49.14669" lon="2.00952">
        <ele>168.4</ele>
        <time>2024-02-04T12:09:55Z</time>
      </trkpt>
      <trkpt lat="49.14673" lon="2.00942">
        <ele>168.4</ele>
        <time>2024-02-04T12:10:00Z</time>
      </trkpt>
      <trkpt lat="49.14676" lon="2.00937">
        <ele>168.5</ele>
        <time>2024-02-04T12:10:06Z</time>
      </trkpt>
      <trkpt lat="49.1468" lon="2.00933">
        <ele>168.8</ele>
        <time>2024-02-04T12:10:12Z</time>
      </trkpt>
      <trkpt lat="49.14686" lon="2.00924">
        <ele>169.1</ele>
        <time>2024-02-04T12:10:17Z</time>
      </trkpt>
      <trkpt lat="49.1469" lon="2.00915">
        <ele>169.5</ele>
        <time>2024-02-04T12:10:22Z</time>
      </trkpt>
      <trkpt lat="49.14693" lon="2.00906">
        <ele>169.5</ele>
        <time>2024-02-04T12:10:28Z</time>
      </trkpt>
      <trkpt lat="49.14698" lon="2.00895">
        <ele>169.6</ele>
        <time>2024-02-04T12:10:34Z</time>
      </trkpt>
      <trkpt lat="49.14701" lon="2.00885">
        <ele>169.4</ele>
        <time>2024-02-04T12:10:39Z</time>
      </trkpt>
      <trkpt lat="49.14703" lon="2.00873">
        <ele>168.7</ele>
        <time>2024-02-04T12:10:45Z</time>
      </trkpt>
      <trkpt lat="49.14704" lon="2.00863">
        <ele>168.2</ele>
        <time>2024-02-04T12:10:51Z</time>
      </trkpt>
      <trkpt lat="49.14708" lon="2.00854">
        <ele>168</ele>
        <time>2024-02-04T12:10:56Z</time>
      </trkpt>
      <trkpt lat="49.14712" lon="2.00842">
        <ele>167.8</ele>
        <time>2024-02-04T12:11:02Z</time>
      </trkpt>
      <trkpt lat="49.14714" lon="2.00836">
        <ele>167.6</ele>
        <time>2024-02-04T12:11:07Z</time>
      </trkpt>
      <trkpt lat="49.14715" lon="2.00828">
        <ele>167.1</ele>
        <time>2024-02-04T12:11:13Z</time>
      </trkpt>
      <trkpt lat="49.14715" lon="2.00824">
        <ele>166.8</ele>
        <time>2024-02-04T12:11:19Z</time>
      </trkpt>
      <trkpt lat="49.14715" lon="2.00819">
        <ele>166.4</ele>
        <time>2024-02-04T12:11:25Z</time>
      </trkpt>
      <trkpt lat="49.14718" lon="2.00818">
        <ele>166.6</ele>
        <time>2024-02-04T12:11:30Z</time>
      </trkpt>
      <trkpt lat="49.14723" lon="2.00813">
        <ele>166.6</ele>
        <time>2024-02-04T12:11:35Z</time>
      </trkpt>
      <trkpt lat="49.14728" lon="2.00808">
        <ele>166.8</ele>
        <time>2024-02-04T12:11:41Z</time>
      </trkpt>
      <trkpt lat="49.14731" lon="2.008">
        <ele>166.8</ele>
        <time>2024-02-04T12:11:46Z</time>
      </trkpt>
      <trkpt lat="49.14736" lon="2.00787">
        <ele>166.8</ele>
        <time>2024-02-04T12:11:52Z</time>
      </trkpt>
      <trkpt lat="49.14742" lon="2.00777">
        <ele>167.1</ele>
        <time>2024-02-04T12:11:58Z</time>
      </trkpt>
      <trkpt lat="49.14746" lon="2.00769">
        <ele>167.2</ele>
        <time>2024-02-04T12:12:04Z</time>
      </trkpt>
      <trkpt lat="49.14749" lon="2.00762">
        <ele>167.3</ele>
        <time>2024-02-04T12:12:10Z</time>
      </trkpt>
      <trkpt lat="49.1475" lon="2.00753">
        <ele>167.1</ele>
        <time>2024-02-04T12:12:16Z</time>
      </trkpt>
      <trkpt lat="49.14758" lon="2.00744">
        <ele>167.8</ele>
        <time>2024-02-04T12:12:21Z</time>
      </trkpt>
      <trkpt lat="49.14762" lon="2.00737">
        <ele>168</ele>
        <time>2024-02-04T12:12:26Z</time>
      </trkpt>
      <trkpt lat="49.14766" lon="2.00729">
        <ele>168.1</ele>
        <time>2024-02-04T12:12:32Z</time>
      </trkpt>
      <trkpt lat="49.1477" lon="2.00718">
        <ele>167.9</ele>
        <time>2024-02-04T12:12:38Z</time>
      </trkpt>
      <trkpt lat="49.14772" lon="2.00708">
        <ele>167.4</ele>
        <time>2024-02-04T12:12:44Z</time>
      </trkpt>
      <trkpt lat="49.14772" lon="2.00701">
        <ele>167.1</ele>
        <time>2024-02-04T12:12:49Z</time>
      </trkpt>
      <trkpt lat="49.14774" lon="2.00691">
        <ele>166.5</ele>
        <time>2024-02-04T12:12:55Z</time>
      </trkpt>
      <trkpt lat="49.14777" lon="2.00681">
        <ele>166</ele>
        <time>2024-02-04T12:13:01Z</time>
      </trkpt>
      <trkpt lat="49.14781" lon="2.00672">
        <ele>165.6</ele>
        <time>2024-02-04T12:13:06Z</time>
      </trkpt>
      <trkpt lat="49.14785" lon="2.00661">
        <ele>165.3</ele>
        <time>2024-02-04T12:13:12Z</time>
      </trkpt>
      <trkpt lat="49.14787" lon="2.00654">
        <ele>165.2</ele>
        <time>2024-02-04T12:13:17Z</time>
      </trkpt>
      <trkpt lat="49.1479" lon="2.00644">
        <ele>165.1</ele>
        <time>2024-02-04T12:13:23Z</time>
      </trkpt>
      <trkpt lat="49.14794" lon="2.00631">
        <ele>164.5</ele>
        <time>2024-02-04T12:13:29Z</time>
      </trkpt>
      <trkpt lat="49.14796" lon="2.00624">
        <ele>164.3</ele>
        <time>2024-02-04T12:13:34Z</time>
      </trkpt>
      <trkpt lat="49.14798" lon="2.00616">
        <ele>163.8</ele>
        <time>2024-02-04T12:13:39Z</time>
      </trkpt>
      <trkpt lat="49.14802" lon="2.00605">
        <ele>163.5</ele>
        <time>2024-02-04T12:13:45Z</time>
      </trkpt>
      <trkpt lat="49.14806" lon="2.006">
        <ele>163.6</ele>
        <time>2024-02-04T12:13:50Z</time>
      </trkpt>
      <trkpt lat="49.14809" lon="2.00589">
        <ele>163.5</ele>
        <time>2024-02-04T12:13:56Z</time>
      </trkpt>
      <trkpt lat="49.1481" lon="2.0058">
        <ele>163</ele>
        <time>2024-02-04T12:14:01Z</time>
      </trkpt>
      <trkpt lat="49.14811" lon="2.00571">
        <ele>162.6</ele>
        <time>2024-02-04T12:14:07Z</time>
      </trkpt>
      <trkpt lat="49.14813" lon="2.00561">
        <ele>162.1</ele>
        <time>2024-02-04T12:14:12Z</time>
      </trkpt>
      <trkpt lat="49.14814" lon="2.00551">
        <ele>161.8</ele>
        <time>2024-02-04T12:14:18Z</time>
      </trkpt>
      <trkpt lat="49.14812" lon="2.00534">
        <ele>160.9</ele>
        <time>2024-02-04T12:14:24Z</time>
      </trkpt>
      <trkpt lat="49.14815" lon="2.00524">
        <ele>160.8</ele>
        <time>2024-02-04T12:14:30Z</time>
      </trkpt>
      <trkpt lat="49.14814" lon="2.00516">
        <ele>160.5</ele>
        <time>2024-02-04T12:14:37Z</time>
      </trkpt>
      <trkpt lat="49.14815" lon="2.0051">
        <ele>160.4</ele>
        <time>2024-02-04T12:14:42Z</time>
      </trkpt>
      <trkpt lat="49.14816" lon="2.00499">
        <ele>160.1</ele>
        <time>2024-02-04T12:14:48Z</time>
      </trkpt>
      <trkpt lat="49.14817" lon="2.00486">
        <ele>159.6</ele>
        <time>2024-02-04T12:14:54Z</time>
      </trkpt>
      <trkpt lat="49.14817" lon="2.0048">
        <ele>159.2</ele>
        <time>2024-02-04T12:15:00Z</time>
      </trkpt>
      <trkpt lat="49.14817" lon="2.00473">
        <ele>158.9</ele>
        <time>2024-02-04T12:15:05Z</time>
      </trkpt>
      <trkpt lat="49.14818" lon="2.00464">
        <ele>158.3</ele>
        <time>2024-02-04T12:15:11Z</time>
      </trkpt>
      <trkpt lat="49.14818" lon="2.00455">
        <ele>157.6</ele>
        <time>2024-02-04T12:15:16Z</time>
      </trkpt>
      <trkpt lat="49.14819" lon="2.00443">
        <ele>156.9</ele>
        <time>2024-02-04T12:15:22Z</time>
      </trkpt>
      <trkpt lat="49.1482" lon="2.00433">
        <ele>156.6</ele>
        <time>2024-02-04T12:15:27Z</time>
      </trkpt>
      <trkpt lat="49.14822" lon="2.00423">
        <ele>156.4</ele>
        <time>2024-02-04T12:15:32Z</time>
      </trkpt>
      <trkpt lat="49.14825" lon="2.00411">
        <ele>156.2</ele>
        <time>2024-02-04T12:15:38Z</time>
      </trkpt>
      <trkpt lat="49.14827" lon="2.00402">
        <ele>156.1</ele>
        <time>2024-02-04T12:15:43Z</time>
      </trkpt>
      <trkpt lat="49.14828" lon="2.00391">
        <ele>155.9</ele>
        <time>2024-02-04T12:15:49Z</time>
      </trkpt>
      <trkpt lat="49.14829" lon="2.0038">
        <ele>156.1</ele>
        <time>2024-02-04T12:15:54Z</time>
      </trkpt>
      <trkpt lat="49.14829" lon="2.0037">
        <ele>156.4</ele>
        <time>2024-02-04T12:15:59Z</time>
      </trkpt>
      <trkpt lat="49.14831" lon="2.00356">
        <ele>157</ele>
        <time>2024-02-04T12:16:05Z</time>
      </trkpt>
      <trkpt lat="49.14832" lon="2.00344">
        <ele>157.5</ele>
        <time>2024-02-04T12:16:11Z</time>
      </trkpt>
      <trkpt lat="49.14833" lon="2.00336">
        <ele>157.9</ele>
        <time>2024-02-04T12:16:16Z</time>
      </trkpt>
      <trkpt lat="49.14833" lon="2.00326">
        <ele>158.2</ele>
        <time>2024-02-04T12:16:21Z</time>
      </trkpt>
      <trkpt lat="49.14833" lon="2.00315">
        <ele>158.6</ele>
        <time>2024-02-04T12:16:27Z</time>
      </trkpt>
      <trkpt lat="49.14832" lon="2.00306">
        <ele>158.8</ele>
        <time>2024-02-04T12:16:32Z</time>
      </trkpt>
      <trkpt lat="49.14832" lon="2.00297">
        <ele>158.9</ele>
        <time>2024-02-04T12:16:38Z</time>
      </trkpt>
      <trkpt lat="49.14833" lon="2.00286">
        <ele>159</ele>
        <time>2024-02-04T12:16:44Z</time>
      </trkpt>
      <trkpt lat="49.14833" lon="2.00276">
        <ele>158.9</ele>
        <time>2024-02-04T12:16:49Z</time>
      </trkpt>
      <trkpt lat="49.14832" lon="2.00266">
        <ele>158.9</ele>
        <time>2024-02-04T12:16:54Z</time>
      </trkpt>
      <trkpt lat="49.1483" lon="2.00256">
        <ele>158.8</ele>
        <time>2024-02-04T12:17:00Z</time>
      </trkpt>
      <trkpt lat="49.14828" lon="2.00246">
        <ele>158.8</ele>
        <time>2024-02-04T12:17:06Z</time>
      </trkpt>
      <trkpt lat="49.14827" lon="2.00237">
        <ele>159</ele>
        <time>2024-02-04T12:17:11Z</time>
      </trkpt>
      <trkpt lat="49.14825" lon="2.00226">
        <ele>159.3</ele>
        <time>2024-02-04T12:17:17Z</time>
      </trkpt>
      <trkpt lat="49.14825" lon="2.00214">
        <ele>159.5</ele>
        <time>2024-02-04T12:17:23Z</time>
      </trkpt>
      <trkpt lat="49.14823" lon="2.00205">
        <ele>159.5</ele>
        <time>2024-02-04T12:17:28Z</time>
      </trkpt>
      <trkpt lat="49.14823" lon="2.00197">
        <ele>159.6</ele>
        <time>2024-02-04T12:17:34Z</time>
      </trkpt>
      <trkpt lat="49.14822" lon="2.00189">
        <ele>159.7</ele>
        <time>2024-02-04T12:17:39Z</time>
      </trkpt>
      <trkpt lat="49.14822" lon="2.00179">
        <ele>159.9</ele>
        <time>2024-02-04T12:17:45Z</time>
      </trkpt>
      <trkpt lat="49.14822" lon="2.00171">
        <ele>160.1</ele>
        <time>2024-02-04T12:17:50Z</time>
      </trkpt>
      <trkpt lat="49.14822" lon="2.00162">
        <ele>160.3</ele>
        <time>2024-02-04T12:17:56Z</time>
      </trkpt>
      <trkpt lat="49.14821" lon="2.00153">
        <ele>160.6</ele>
        <time>2024-02-04T12:18:02Z</time>
      </trkpt>
      <trkpt lat="49.14821" lon="2.00145">
        <ele>160.9</ele>
        <time>2024-02-04T12:18:07Z</time>
      </trkpt>
      <trkpt lat="49.1482" lon="2.00134">
        <ele>161</ele>
        <time>2024-02-04T12:18:13Z</time>
      </trkpt>
      <trkpt lat="49.14818" lon="2.00123">
        <ele>160.9</ele>
        <time>2024-02-04T12:18:19Z</time>
      </trkpt>
      <trkpt lat="49.14817" lon="2.00113">
        <ele>160.8</ele>
        <time>2024-02-04T12:18:25Z</time>
      </trkpt>
      <trkpt lat="49.14817" lon="2.00104">
        <ele>160.8</ele>
        <time>2024-02-04T12:18:30Z</time>
      </trkpt>
      <trkpt lat="49.14817" lon="2.00097">
        <ele>160.8</ele>
        <time>2024-02-04T12:18:36Z</time>
      </trkpt>
      <trkpt lat="49.14818" lon="2.00089">
        <ele>160.9</ele>
        <time>2024-02-04T12:18:41Z</time>
      </trkpt>
      <trkpt lat="49.14819" lon="2.00082">
        <ele>161</ele>
        <time>2024-02-04T12:18:46Z</time>
      </trkpt>
      <trkpt lat="49.14822" lon="2.00074">
        <ele>161.2</ele>
        <time>2024-02-04T12:18:52Z</time>
      </trkpt>
      <trkpt lat="49.14825" lon="2.00067">
        <ele>161.4</ele>
        <time>2024-02-04T12:18:57Z</time>
      </trkpt>
      <trkpt lat="49.14829" lon="2.00056">
        <ele>161.7</ele>
        <time>2024-02-04T12:19:03Z</time>
      </trkpt>
      <trkpt lat="49.14831" lon="2.00047">
        <ele>161.8</ele>
        <time>2024-02-04T12:19:08Z</time>
      </trkpt>
      <trkpt lat="49.14834" lon="2.00038">
        <ele>162.1</ele>
        <time>2024-02-04T12:19:13Z</time>
      </trkpt>
      <trkpt lat="49.14838" lon="2.00028">
        <ele>162.5</ele>
        <time>2024-02-04T12:19:18Z</time>
      </trkpt>
      <trkpt lat="49.14842" lon="2.00016">
        <ele>162.6</ele>
        <time>2024-02-04T12:19:24Z</time>
      </trkpt>
      <trkpt lat="49.14844" lon="2.00008">
        <ele>162.7</ele>
        <time>2024-02-04T12:19:30Z</time>
      </trkpt>
      <trkpt lat="49.14847" lon="1.99999">
        <ele>162.9</ele>
        <time>2024-02-04T12:19:36Z</time>
      </trkpt>
      <trkpt lat="49.14851" lon="1.99989">
        <ele>163.1</ele>
        <time>2024-02-04T12:19:42Z</time>
      </trkpt>
      <trkpt lat="49.14854" lon="1.99982">
        <ele>163.3</ele>
        <time>2024-02-04T12:19:47Z</time>
      </trkpt>
      <trkpt lat="49.14859" lon="1.99971">
        <ele>163.7</ele>
        <time>2024-02-04T12:19:53Z</time>
      </trkpt>
      <trkpt lat="49.14864" lon="1.9996">
        <ele>164</ele>
        <time>2024-02-04T12:19:59Z</time>
      </trkpt>
      <trkpt lat="49.14869" lon="1.99952">
        <ele>164.3</ele>
        <time>2024-02-04T12:20:04Z</time>
      </trkpt>
      <trkpt lat="49.14875" lon="1.99938">
        <ele>164.7</ele>
        <time>2024-02-04T12:20:10Z</time>
      </trkpt>
      <trkpt lat="49.14877" lon="1.99928">
        <ele>164.7</ele>
        <time>2024-02-04T12:20:15Z</time>
      </trkpt>
      <trkpt lat="49.1488" lon="1.99918">
        <ele>164.8</ele>
        <time>2024-02-04T12:20:20Z</time>
      </trkpt>
      <trkpt lat="49.14882" lon="1.99908">
        <ele>164.5</ele>
        <time>2024-02-04T12:20:26Z</time>
      </trkpt>
      <trkpt lat="49.14882" lon="1.99898">
        <ele>163.8</ele>
        <time>2024-02-04T12:20:32Z</time>
      </trkpt>
      <trkpt lat="49.14882" lon="1.99891">
        <ele>163.4</ele>
        <time>2024-02-04T12:20:38Z</time>
      </trkpt>
      <trkpt lat="49.14882" lon="1.99886">
        <ele>163.1</ele>
        <time>2024-02-04T12:20:44Z</time>
      </trkpt>
      <trkpt lat="49.14883" lon="1.99881">
        <ele>162.7</ele>
        <time>2024-02-04T12:20:50Z</time>
      </trkpt>
      <trkpt lat="49.14884" lon="1.99877">
        <ele>162.6</ele>
        <time>2024-02-04T12:20:55Z</time>
      </trkpt>
      <trkpt lat="49.14886" lon="1.99871">
        <ele>162.4</ele>
        <time>2024-02-04T12:21:00Z</time>
      </trkpt>
      <trkpt lat="49.14888" lon="1.99862">
        <ele>161.9</ele>
        <time>2024-02-04T12:21:06Z</time>
      </trkpt>
      <trkpt lat="49.1489" lon="1.99853">
        <ele>161.5</ele>
        <time>2024-02-04T12:21:11Z</time>
      </trkpt>
      <trkpt lat="49.14894" lon="1.9984">
        <ele>161</ele>
        <time>2024-02-04T12:21:17Z</time>
      </trkpt>
      <trkpt lat="49.14896" lon="1.99826">
        <ele>160.2</ele>
        <time>2024-02-04T12:21:23Z</time>
      </trkpt>
      <trkpt lat="49.14897" lon="1.99811">
        <ele>159.3</ele>
        <time>2024-02-04T12:21:29Z</time>
      </trkpt>
      <trkpt lat="49.14898" lon="1.99802">
        <ele>158.7</ele>
        <time>2024-02-04T12:21:35Z</time>
      </trkpt>
      <trkpt lat="49.14897" lon="1.99797">
        <ele>158.2</ele>
        <time>2024-02-04T12:21:40Z</time>
      </trkpt>
      <trkpt lat="49.14897" lon="1.99792">
        <ele>157.9</ele>
        <time>2024-02-04T12:21:45Z</time>
      </trkpt>
      <trkpt lat="49.14898" lon="1.99784">
        <ele>157.4</ele>
        <time>2024-02-04T12:21:50Z</time>
      </trkpt>
      <trkpt lat="49.14898" lon="1.99774">
        <ele>157</ele>
        <time>2024-02-04T12:21:56Z</time>
      </trkpt>
      <trkpt lat="49.14897" lon="1.99765">
        <ele>156.9</ele>
        <time>2024-02-04T12:22:02Z</time>
      </trkpt>
      <trkpt lat="49.14897" lon="1.99758">
        <ele>156.8</ele>
        <time>2024-02-04T12:22:08Z</time>
      </trkpt>
      <trkpt lat="49.14894" lon="1.99752">
        <ele>156.6</ele>
        <time>2024-02-04T12:22:14Z</time>
      </trkpt>
      <trkpt lat="49.14893" lon="1.99749">
        <ele>156.5</ele>
        <time>2024-02-04T12:22:20Z</time>
      </trkpt>
      <trkpt lat="49.14894" lon="1.99745">
        <ele>156.5</ele>
        <time>2024-02-04T12:22:26Z</time>
      </trkpt>
      <trkpt lat="49.14891" lon="1.99741">
        <ele>156.2</ele>
        <time>2024-02-04T12:22:32Z</time>
      </trkpt>
      <trkpt lat="49.14889" lon="1.99734">
        <ele>156</ele>
        <time>2024-02-04T12:22:38Z</time>
      </trkpt>
      <trkpt lat="49.14889" lon="1.99726">
        <ele>156.1</ele>
        <time>2024-02-04T12:22:44Z</time>
      </trkpt>
      <trkpt lat="49.14887" lon="1.99718">
        <ele>155.9</ele>
        <time>2024-02-04T12:22:50Z</time>
      </trkpt>
      <trkpt lat="49.14884" lon="1.99707">
        <ele>155.6</ele>
        <time>2024-02-04T12:22:55Z</time>
      </trkpt>
      <trkpt lat="49.1488" lon="1.99697">
        <ele>155.3</ele>
        <time>2024-02-04T12:23:00Z</time>
      </trkpt>
      <trkpt lat="49.14873" lon="1.99686">
        <ele>155.1</ele>
        <time>2024-02-04T12:23:06Z</time>
      </trkpt>
      <trkpt lat="49.14867" lon="1.99675">
        <ele>155.1</ele>
        <time>2024-02-04T12:23:12Z</time>
      </trkpt>
      <trkpt lat="49.14861" lon="1.9966">
        <ele>155.3</ele>
        <time>2024-02-04T12:23:18Z</time>
      </trkpt>
      <trkpt lat="49.14859" lon="1.99646">
        <ele>155.6</ele>
        <time>2024-02-04T12:23:24Z</time>
      </trkpt>
      <trkpt lat="49.14855" lon="1.99633">
        <ele>156</ele>
        <time>2024-02-04T12:23:30Z</time>
      </trkpt>
      <trkpt lat="49.14852" lon="1.99623">
        <ele>156.5</ele>
        <time>2024-02-04T12:23:35Z</time>
      </trkpt>
      <trkpt lat="49.14847" lon="1.99615">
        <ele>156.7</ele>
        <time>2024-02-04T12:23:41Z</time>
      </trkpt>
      <trkpt lat="49.1484" lon="1.99607">
        <ele>156.7</ele>
        <time>2024-02-04T12:23:46Z</time>
      </trkpt>
      <trkpt lat="49.14833" lon="1.99596">
        <ele>157</ele>
        <time>2024-02-04T12:23:52Z</time>
      </trkpt>
      <trkpt lat="49.1483" lon="1.99588">
        <ele>157.4</ele>
        <time>2024-02-04T12:23:57Z</time>
      </trkpt>
      <trkpt lat="49.14827" lon="1.99576">
        <ele>157.6</ele>
        <time>2024-02-04T12:24:03Z</time>
      </trkpt>
      <trkpt lat="49.14824" lon="1.99564">
        <ele>157.7</ele>
        <time>2024-02-04T12:24:09Z</time>
      </trkpt>
      <trkpt lat="49.14822" lon="1.99554">
        <ele>157.8</ele>
        <time>2024-02-04T12:24:14Z</time>
      </trkpt>
      <trkpt lat="49.14819" lon="1.99542">
        <ele>158</ele>
        <time>2024-02-04T12:24:20Z</time>
      </trkpt>
      <trkpt lat="49.14817" lon="1.99533">
        <ele>158</ele>
        <time>2024-02-04T12:24:25Z</time>
      </trkpt>
      <trkpt lat="49.14815" lon="1.99523">
        <ele>158.2</ele>
        <time>2024-02-04T12:24:31Z</time>
      </trkpt>
      <trkpt lat="49.14812" lon="1.9951">
        <ele>158.3</ele>
        <time>2024-02-04T12:24:37Z</time>
      </trkpt>
      <trkpt lat="49.14807" lon="1.99498">
        <ele>158.3</ele>
        <time>2024-02-04T12:24:43Z</time>
      </trkpt>
      <trkpt lat="49.14804" lon="1.9949">
        <ele>158.3</ele>
        <time>2024-02-04T12:24:48Z</time>
      </trkpt>
      <trkpt lat="49.14799" lon="1.99479">
        <ele>158.3</ele>
        <time>2024-02-04T12:24:54Z</time>
      </trkpt>
      <trkpt lat="49.14795" lon="1.99469">
        <ele>158.4</ele>
        <time>2024-02-04T12:25:00Z</time>
      </trkpt>
      <trkpt lat="49.14793" lon="1.9946">
        <ele>158.5</ele>
        <time>2024-02-04T12:25:05Z</time>
      </trkpt>
      <trkpt lat="49.1479" lon="1.99451">
        <ele>158.7</ele>
        <time>2024-02-04T12:25:11Z</time>
      </trkpt>
      <trkpt lat="49.14788" lon="1.99446">
        <ele>158.7</ele>
        <time>2024-02-04T12:25:16Z</time>
      </trkpt>
      <trkpt lat="49.14786" lon="1.99441">
        <ele>158.7</ele>
        <time>2024-02-04T12:25:21Z</time>
      </trkpt>
      <trkpt lat="49.14783" lon="1.99434">
        <ele>158.7</ele>
        <time>2024-02-04T12:25:27Z</time>
      </trkpt>
      <trkpt lat="49.1478" lon="1.9942">
        <ele>159</ele>
        <time>2024-02-04T12:25:33Z</time>
      </trkpt>
      <trkpt lat="49.14777" lon="1.99403">
        <ele>158.9</ele>
        <time>2024-02-04T12:25:39Z</time>
      </trkpt>
      <trkpt lat="49.14775" lon="1.99389">
        <ele>158.7</ele>
        <time>2024-02-04T12:25:44Z</time>
      </trkpt>
      <trkpt lat="49.14773" lon="1.9937">
        <ele>158.5</ele>
        <time>2024-02-04T12:25:50Z</time>
      </trkpt>
      <trkpt lat="49.14772" lon="1.99356">
        <ele>158.4</ele>
        <time>2024-02-04T12:25:55Z</time>
      </trkpt>
      <trkpt lat="49.14772" lon="1.9934">
        <ele>158.4</ele>
        <time>2024-02-04T12:26:01Z</time>
      </trkpt>
      <trkpt lat="49.14773" lon="1.99326">
        <ele>158.3</ele>
        <time>2024-02-04T12:26:07Z</time>
      </trkpt>
      <trkpt lat="49.14775" lon="1.99315">
        <ele>158</ele>
        <time>2024-02-04T12:26:12Z</time>
      </trkpt>
      <trkpt lat="49.14778" lon="1.99303">
        <ele>158</ele>
        <time>2024-02-04T12:26:18Z</time>
      </trkpt>
      <trkpt lat="49.14781" lon="1.99292">
        <ele>158.4</ele>
        <time>2024-02-04T12:26:24Z</time>
      </trkpt>
      <trkpt lat="49.14786" lon="1.99282">
        <ele>158.8</ele>
        <time>2024-02-04T12:26:30Z</time>
      </trkpt>
      <trkpt lat="49.1479" lon="1.99272">
        <ele>159.1</ele>
        <time>2024-02-04T12:26:36Z</time>
      </trkpt>
      <trkpt lat="49.14795" lon="1.99262">
        <ele>159.3</ele>
        <time>2024-02-04T12:26:42Z</time>
      </trkpt>
      <trkpt lat="49.14799" lon="1.99253">
        <ele>159.4</ele>
        <time>2024-02-04T12:26:48Z</time>
      </trkpt>
      <trkpt lat="49.14801" lon="1.99245">
        <ele>159.2</ele>
        <time>2024-02-04T12:26:53Z</time>
      </trkpt>
      <trkpt lat="49.14802" lon="1.99236">
        <ele>158.7</ele>
        <time>2024-02-04T12:26:59Z</time>
      </trkpt>
      <trkpt lat="49.14802" lon="1.99231">
        <ele>158.4</ele>
        <time>2024-02-04T12:27:04Z</time>
      </trkpt>
      <trkpt lat="49.14802" lon="1.99225">
        <ele>158</ele>
        <time>2024-02-04T12:27:09Z</time>
      </trkpt>
      <trkpt lat="49.14803" lon="1.99216">
        <ele>157.6</ele>
        <time>2024-02-04T12:27:15Z</time>
      </trkpt>
      <trkpt lat="49.14804" lon="1.99205">
        <ele>157.3</ele>
        <time>2024-02-04T12:27:21Z</time>
      </trkpt>
      <trkpt lat="49.14806" lon="1.99197">
        <ele>157.1</ele>
        <time>2024-02-04T12:27:26Z</time>
      </trkpt>
      <trkpt lat="49.14807" lon="1.99188">
        <ele>156.7</ele>
        <time>2024-02-04T12:27:32Z</time>
      </trkpt>
      <trkpt lat="49.14808" lon="1.9918">
        <ele>156.2</ele>
        <time>2024-02-04T12:27:37Z</time>
      </trkpt>
      <trkpt lat="49.14809" lon="1.99172">
        <ele>155.7</ele>
        <time>2024-02-04T12:27:43Z</time>
      </trkpt>
      <trkpt lat="49.14808" lon="1.99167">
        <ele>155.3</ele>
        <time>2024-02-04T12:27:49Z</time>
      </trkpt>
      <trkpt lat="49.14807" lon="1.99165">
        <ele>155.1</ele>
        <time>2024-02-04T12:27:55Z</time>
      </trkpt>
      <trkpt lat="49.14804" lon="1.9916">
        <ele>154.7</ele>
        <time>2024-02-04T12:28:01Z</time>
      </trkpt>
      <trkpt lat="49.14798" lon="1.99155">
        <ele>154.2</ele>
        <time>2024-02-04T12:28:06Z</time>
      </trkpt>
      <trkpt lat="49.14792" lon="1.99145">
        <ele>153.4</ele>
        <time>2024-02-04T12:28:12Z</time>
      </trkpt>
      <trkpt lat="49.14786" lon="1.99139">
        <ele>152.6</ele>
        <time>2024-02-04T12:28:18Z</time>
      </trkpt>
      <trkpt lat="49.14781" lon="1.99136">
        <ele>152.2</ele>
        <time>2024-02-04T12:28:23Z</time>
      </trkpt>
      <trkpt lat="49.14775" lon="1.99134">
        <ele>151.7</ele>
        <time>2024-02-04T12:28:29Z</time>
      </trkpt>
      <trkpt lat="49.14768" lon="1.99128">
        <ele>151.2</ele>
        <time>2024-02-04T12:28:35Z</time>
      </trkpt>
      <trkpt lat="49.14763" lon="1.99121">
        <ele>150.6</ele>
        <time>2024-02-04T12:28:41Z</time>
      </trkpt>
      <trkpt lat="49.14759" lon="1.99115">
        <ele>150.1</ele>
        <time>2024-02-04T12:28:46Z</time>
      </trkpt>
      <trkpt lat="49.14757" lon="1.99109">
        <ele>149.7</ele>
        <time>2024-02-04T12:28:52Z</time>
      </trkpt>
      <trkpt lat="49.14755" lon="1.99105">
        <ele>149.4</ele>
        <time>2024-02-04T12:28:58Z</time>
      </trkpt>
      <trkpt lat="49.14753" lon="1.99098">
        <ele>149</ele>
        <time>2024-02-04T12:29:04Z</time>
      </trkpt>
      <trkpt lat="49.14752" lon="1.99094">
        <ele>148.6</ele>
        <time>2024-02-04T12:29:10Z</time>
      </trkpt>
      <trkpt lat="49.1475" lon="1.99088">
        <ele>148.2</ele>
        <time>2024-02-04T12:29:15Z</time>
      </trkpt>
      <trkpt lat="49.1475" lon="1.99082">
        <ele>148</ele>
        <time>2024-02-04T12:29:21Z</time>
      </trkpt>
      <trkpt lat="49.14749" lon="1.99077">
        <ele>147.9</ele>
        <time>2024-02-04T12:29:27Z</time>
      </trkpt>
      <trkpt lat="49.14748" lon="1.99075">
        <ele>147.7</ele>
        <time>2024-02-04T12:29:33Z</time>
      </trkpt>
      <trkpt lat="49.14746" lon="1.99075">
        <ele>147.6</ele>
        <time>2024-02-04T12:29:38Z</time>
      </trkpt>
      <trkpt lat="49.14742" lon="1.99073">
        <ele>147.1</ele>
        <time>2024-02-04T12:29:44Z</time>
      </trkpt>
      <trkpt lat="49.14736" lon="1.99071">
        <ele>146.5</ele>
        <time>2024-02-04T12:29:50Z</time>
      </trkpt>
      <trkpt lat="49.14729" lon="1.99066">
        <ele>145.8</ele>
        <time>2024-02-04T12:29:56Z</time>
      </trkpt>
      <trkpt lat="49.14725" lon="1.99064">
        <ele>145.3</ele>
        <time>2024-02-04T12:30:01Z</time>
      </trkpt>
      <trkpt lat="49.14722" lon="1.99056">
        <ele>145</ele>
        <time>2024-02-04T12:30:07Z</time>
      </trkpt>
      <trkpt lat="49.14717" lon="1.99045">
        <ele>144.1</ele>
        <time>2024-02-04T12:30:13Z</time>
      </trkpt>
      <trkpt lat="49.14712" lon="1.99035">
        <ele>143.5</ele>
        <time>2024-02-04T12:30:19Z</time>
      </trkpt>
      <trkpt lat="49.14707" lon="1.99029">
        <ele>142.9</ele>
        <time>2024-02-04T12:30:25Z</time>
      </trkpt>
      <trkpt lat="49.14703" lon="1.99025">
        <ele>142.6</ele>
        <time>2024-02-04T12:30:30Z</time>
      </trkpt>
      <trkpt lat="49.147" lon="1.9902">
        <ele>142.2</ele>
        <time>2024-02-04T12:30:35Z</time>
      </trkpt>
      <trkpt lat="49.14695" lon="1.99016">
        <ele>141.6</ele>
        <time>2024-02-04T12:30:41Z</time>
      </trkpt>
      <trkpt lat="49.14691" lon="1.99008">
        <ele>140.9</ele>
        <time>2024-02-04T12:30:47Z</time>
      </trkpt>
      <trkpt lat="49.14686" lon="1.98995">
        <ele>139.9</ele>
        <time>2024-02-04T12:30:53Z</time>
      </trkpt>
      <trkpt lat="49.14681" lon="1.98985">
        <ele>139.2</ele>
        <time>2024-02-04T12:30:59Z</time>
      </trkpt>
      <trkpt lat="49.14677" lon="1.98975">
        <ele>138.8</ele>
        <time>2024-02-04T12:31:05Z</time>
      </trkpt>
      <trkpt lat="49.14673" lon="1.98966">
        <ele>138.2</ele>
        <time>2024-02-04T12:31:11Z</time>
      </trkpt>
      <trkpt lat="49.14669" lon="1.9896">
        <ele>137.7</ele>
        <time>2024-02-04T12:31:16Z</time>
      </trkpt>
      <trkpt lat="49.14666" lon="1.98955">
        <ele>137.3</ele>
        <time>2024-02-04T12:31:21Z</time>
      </trkpt>
      <trkpt lat="49.14662" lon="1.98948">
        <ele>136.8</ele>
        <time>2024-02-04T12:31:27Z</time>
      </trkpt>
      <trkpt lat="49.14657" lon="1.98941">
        <ele>136.3</ele>
        <time>2024-02-04T12:31:33Z</time>
      </trkpt>
      <trkpt lat="49.14651" lon="1.98933">
        <ele>135.7</ele>
        <time>2024-02-04T12:31:39Z</time>
      </trkpt>
      <trkpt lat="49.14647" lon="1.98925">
        <ele>135.1</ele>
        <time>2024-02-04T12:31:44Z</time>
      </trkpt>
      <trkpt lat="49.14641" lon="1.9892">
        <ele>134.3</ele>
        <time>2024-02-04T12:31:50Z</time>
      </trkpt>
      <trkpt lat="49.14635" lon="1.98916">
        <ele>133.7</ele>
        <time>2024-02-04T12:31:56Z</time>
      </trkpt>
      <trkpt lat="49.14631" lon="1.98913">
        <ele>133.3</ele>
        <time>2024-02-04T12:32:01Z</time>
      </trkpt>
      <trkpt lat="49.14628" lon="1.98905">
        <ele>132.8</ele>
        <time>2024-02-04T12:32:07Z</time>
      </trkpt>
      <trkpt lat="49.14626" lon="1.98896">
        <ele>132.3</ele>
        <time>2024-02-04T12:32:13Z</time>
      </trkpt>
      <trkpt lat="49.14624" lon="1.9889">
        <ele>132</ele>
        <time>2024-02-04T12:32:19Z</time>
      </trkpt>
      <trkpt lat="49.14624" lon="1.98886">
        <ele>131.8</ele>
        <time>2024-02-04T12:32:25Z</time>
      </trkpt>
      <trkpt lat="49.14622" lon="1.98871">
        <ele>131.1</ele>
        <time>2024-02-04T12:32:31Z</time>
      </trkpt>
      <trkpt lat="49.14621" lon="1.98861">
        <ele>130.7</ele>
        <time>2024-02-04T12:32:36Z</time>
      </trkpt>
      <trkpt lat="49.14619" lon="1.98853">
        <ele>130.3</ele>
        <time>2024-02-04T12:32:41Z</time>
      </trkpt>
      <trkpt lat="49.14614" lon="1.98845">
        <ele>129.6</ele>
        <time>2024-02-04T12:32:47Z</time>
      </trkpt>
      <trkpt lat="49.14609" lon="1.98836">
        <ele>129</ele>
        <time>2024-02-04T12:32:53Z</time>
      </trkpt>
      <trkpt lat="49.14604" lon="1.98828">
        <ele>128.7</ele>
        <time>2024-02-04T12:32:59Z</time>
      </trkpt>
      <trkpt lat="49.14599" lon="1.9882">
        <ele>128.6</ele>
        <time>2024-02-04T12:33:05Z</time>
      </trkpt>
      <trkpt lat="49.14595" lon="1.98813">
        <ele>128.4</ele>
        <time>2024-02-04T12:33:10Z</time>
      </trkpt>
      <trkpt lat="49.14591" lon="1.98808">
        <ele>128.3</ele>
        <time>2024-02-04T12:33:15Z</time>
      </trkpt>
      <trkpt lat="49.14587" lon="1.98802">
        <ele>128</ele>
        <time>2024-02-04T12:33:21Z</time>
      </trkpt>
      <trkpt lat="49.1458" lon="1.98791">
        <ele>127.3</ele>
        <time>2024-02-04T12:33:26Z</time>
      </trkpt>
      <trkpt lat="49.14573" lon="1.98777">
        <ele>126.6</ele>
        <time>2024-02-04T12:33:32Z</time>
      </trkpt>
      <trkpt lat="49.14569" lon="1.98768">
        <ele>126.5</ele>
        <time>2024-02-04T12:33:37Z</time>
      </trkpt>
      <trkpt lat="49.14565" lon="1.98758">
        <ele>126.3</ele>
        <time>2024-02-04T12:33:43Z</time>
      </trkpt>
      <trkpt lat="49.14561" lon="1.9875">
        <ele>126.2</ele>
        <time>2024-02-04T12:33:48Z</time>
      </trkpt>
      <trkpt lat="49.14558" lon="1.98743">
        <ele>126.1</ele>
        <time>2024-02-04T12:33:53Z</time>
      </trkpt>
      <trkpt lat="49.14553" lon="1.98735">
        <ele>125.9</ele>
        <time>2024-02-04T12:33:59Z</time>
      </trkpt>
      <trkpt lat="49.1455" lon="1.98727">
        <ele>125.6</ele>
        <time>2024-02-04T12:34:04Z</time>
      </trkpt>
      <trkpt lat="49.14546" lon="1.98718">
        <ele>125.2</ele>
        <time>2024-02-04T12:34:09Z</time>
      </trkpt>
      <trkpt lat="49.14542" lon="1.98713">
        <ele>124.9</ele>
        <time>2024-02-04T12:34:15Z</time>
      </trkpt>
      <trkpt lat="49.14537" lon="1.98705">
        <ele>124.5</ele>
        <time>2024-02-04T12:34:21Z</time>
      </trkpt>
      <trkpt lat="49.14532" lon="1.98695">
        <ele>124.2</ele>
        <time>2024-02-04T12:34:26Z</time>
      </trkpt>
      <trkpt lat="49.14526" lon="1.98685">
        <ele>124</ele>
        <time>2024-02-04T12:34:32Z</time>
      </trkpt>
      <trkpt lat="49.14523" lon="1.98675">
        <ele>124</ele>
        <time>2024-02-04T12:34:37Z</time>
      </trkpt>
      <trkpt lat="49.1452" lon="1.98664">
        <ele>124</ele>
        <time>2024-02-04T12:34:43Z</time>
      </trkpt>
      <trkpt lat="49.14516" lon="1.98653">
        <ele>123.8</ele>
        <time>2024-02-04T12:34:49Z</time>
      </trkpt>
      <trkpt lat="49.14514" lon="1.98642">
        <ele>123.6</ele>
        <time>2024-02-04T12:34:55Z</time>
      </trkpt>
      <trkpt lat="49.14511" lon="1.98633">
        <ele>123.3</ele>
        <time>2024-02-04T12:35:00Z</time>
      </trkpt>
      <trkpt lat="49.1451" lon="1.9862">
        <ele>123.1</ele>
        <time>2024-02-04T12:35:06Z</time>
      </trkpt>
      <trkpt lat="49.14508" lon="1.98613">
        <ele>123</ele>
        <time>2024-02-04T12:35:11Z</time>
      </trkpt>
      <trkpt lat="49.14501" lon="1.98602">
        <ele>123</ele>
        <time>2024-02-04T12:35:17Z</time>
      </trkpt>
      <trkpt lat="49.14498" lon="1.98594">
        <ele>122.9</ele>
        <time>2024-02-04T12:35:22Z</time>
      </trkpt>
      <trkpt lat="49.14496" lon="1.98584">
        <ele>122.9</ele>
        <time>2024-02-04T12:35:28Z</time>
      </trkpt>
      <trkpt lat="49.14494" lon="1.98574">
        <ele>122.5</ele>
        <time>2024-02-04T12:35:33Z</time>
      </trkpt>
      <trkpt lat="49.14493" lon="1.98563">
        <ele>122.2</ele>
        <time>2024-02-04T12:35:39Z</time>
      </trkpt>
      <trkpt lat="49.14494" lon="1.98553">
        <ele>122</ele>
        <time>2024-02-04T12:35:44Z</time>
      </trkpt>
      <trkpt lat="49.14491" lon="1.98539">
        <ele>122</ele>
        <time>2024-02-04T12:35:50Z</time>
      </trkpt>
      <trkpt lat="49.14489" lon="1.98526">
        <ele>122</ele>
        <time>2024-02-04T12:35:56Z</time>
      </trkpt>
      <trkpt lat="49.14489" lon="1.9852">
        <ele>121.7</ele>
        <time>2024-02-04T12:36:01Z</time>
      </trkpt>
      <trkpt lat="49.14488" lon="1.98519">
        <ele>121.7</ele>
        <time>2024-02-04T12:36:06Z</time>
      </trkpt>
      <trkpt lat="49.14492" lon="1.98519">
        <ele>121.7</ele>
        <time>2024-02-04T12:36:11Z</time>
      </trkpt>
      <trkpt lat="49.14499" lon="1.98513">
        <ele>121.5</ele>
        <time>2024-02-04T12:36:16Z</time>
      </trkpt>
      <trkpt lat="49.14507" lon="1.98508">
        <ele>121.3</ele>
        <time>2024-02-04T12:36:22Z</time>
      </trkpt>
      <trkpt lat="49.14515" lon="1.98504">
        <ele>121.1</ele>
        <time>2024-02-04T12:36:28Z</time>
      </trkpt>
      <trkpt lat="49.1452" lon="1.98499">
        <ele>121</ele>
        <time>2024-02-04T12:36:34Z</time>
      </trkpt>
      <trkpt lat="49.14526" lon="1.98495">
        <ele>121</ele>
        <time>2024-02-04T12:36:39Z</time>
      </trkpt>
      <trkpt lat="49.1453" lon="1.98491">
        <ele>121</ele>
        <time>2024-02-04T12:36:44Z</time>
      </trkpt>
      <trkpt lat="49.14536" lon="1.98487">
        <ele>121</ele>
        <time>2024-02-04T12:36:49Z</time>
      </trkpt>
      <trkpt lat="49.14543" lon="1.98481">
        <ele>121</ele>
        <time>2024-02-04T12:36:54Z</time>
      </trkpt>
      <trkpt lat="49.1455" lon="1.98476">
        <ele>121</ele>
        <time>2024-02-04T12:37:00Z</time>
      </trkpt>
      <trkpt lat="49.14557" lon="1.98475">
        <ele>121</ele>
        <time>2024-02-04T12:37:06Z</time>
      </trkpt>
      <trkpt lat="49.14561" lon="1.98474">
        <ele>120.8</ele>
        <time>2024-02-04T12:37:11Z</time>
      </trkpt>
      <trkpt lat="49.14569" lon="1.98475">
        <ele>120.6</ele>
        <time>2024-02-04T12:37:17Z</time>
      </trkpt>
      <trkpt lat="49.14575" lon="1.9847">
        <ele>120.3</ele>
        <time>2024-02-04T12:37:23Z</time>
      </trkpt>
      <trkpt lat="49.14582" lon="1.9846">
        <ele>120</ele>
        <time>2024-02-04T12:37:29Z</time>
      </trkpt>
      <trkpt lat="49.14588" lon="1.98454">
        <ele>119.9</ele>
        <time>2024-02-04T12:37:34Z</time>
      </trkpt>
      <trkpt lat="49.14593" lon="1.98445">
        <ele>119.7</ele>
        <time>2024-02-04T12:37:40Z</time>
      </trkpt>
      <trkpt lat="49.14596" lon="1.98438">
        <ele>119.5</ele>
        <time>2024-02-04T12:37:45Z</time>
      </trkpt>
      <trkpt lat="49.146" lon="1.98428">
        <ele>119.4</ele>
        <time>2024-02-04T12:37:51Z</time>
      </trkpt>
      <trkpt lat="49.14603" lon="1.98422">
        <ele>119.3</ele>
        <time>2024-02-04T12:37:56Z</time>
      </trkpt>
      <trkpt lat="49.14608" lon="1.98412">
        <ele>119</ele>
        <time>2024-02-04T12:38:02Z</time>
      </trkpt>
      <trkpt lat="49.14613" lon="1.98404">
        <ele>118.5</ele>
        <time>2024-02-04T12:38:07Z</time>
      </trkpt>
      <trkpt lat="49.14616" lon="1.98396">
        <ele>118.2</ele>
        <time>2024-02-04T12:38:12Z</time>
      </trkpt>
      <trkpt lat="49.1462" lon="1.98388">
        <ele>118</ele>
        <time>2024-02-04T12:38:18Z</time>
      </trkpt>
      <trkpt lat="49.14625" lon="1.98378">
        <ele>118</ele>
        <time>2024-02-04T12:38:23Z</time>
      </trkpt>
      <trkpt lat="49.14629" lon="1.98367">
        <ele>118</ele>
        <time>2024-02-04T12:38:29Z</time>
      </trkpt>
      <trkpt lat="49.14634" lon="1.98358">
        <ele>118</ele>
        <time>2024-02-04T12:38:35Z</time>
      </trkpt>
      <trkpt lat="49.14636" lon="1.98349">
        <ele>118</ele>
        <time>2024-02-04T12:38:41Z</time>
      </trkpt>
      <trkpt lat="49.14639" lon="1.98341">
        <ele>118</ele>
        <time>2024-02-04T12:38:46Z</time>
      </trkpt>
      <trkpt lat="49.14642" lon="1.98337">
        <ele>118</ele>
        <time>2024-02-04T12:38:51Z</time>
      </trkpt>
      <trkpt lat="49.14646" lon="1.98331">
        <ele>118</ele>
        <time>2024-02-04T12:38:56Z</time>
      </trkpt>
      <trkpt lat="49.14651" lon="1.98323">
        <ele>118</ele>
        <time>2024-02-04T12:39:01Z</time>
      </trkpt>
      <trkpt lat="49.14657" lon="1.98309">
        <ele>118</ele>
        <time>2024-02-04T12:39:07Z</time>
      </trkpt>
      <trkpt lat="49.1466" lon="1.98302">
        <ele>118</ele>
        <time>2024-02-04T12:39:12Z</time>
      </trkpt>
      <trkpt lat="49.14662" lon="1.98293">
        <ele>117.9</ele>
        <time>2024-02-04T12:39:18Z</time>
      </trkpt>
      <trkpt lat="49.14665" lon="1.98283">
        <ele>118</ele>
        <time>2024-02-04T12:39:24Z</time>
      </trkpt>
      <trkpt lat="49.14668" lon="1.98275">
        <ele>118</ele>
        <time>2024-02-04T12:39:30Z</time>
      </trkpt>
      <trkpt lat="49.14672" lon="1.98267">
        <ele>118</ele>
        <time>2024-02-04T12:39:36Z</time>
      </trkpt>
      <trkpt lat="49.14677" lon="1.98256">
        <ele>118</ele>
        <time>2024-02-04T12:39:42Z</time>
      </trkpt>
      <trkpt lat="49.14684" lon="1.98244">
        <ele>118</ele>
        <time>2024-02-04T12:39:48Z</time>
      </trkpt>
      <trkpt lat="49.14686" lon="1.98236">
        <ele>118</ele>
        <time>2024-02-04T12:39:53Z</time>
      </trkpt>
      <trkpt lat="49.14689" lon="1.98228">
        <ele>118</ele>
        <time>2024-02-04T12:39:58Z</time>
      </trkpt>
      <trkpt lat="49.14692" lon="1.98219">
        <ele>118</ele>
        <time>2024-02-04T12:40:03Z</time>
      </trkpt>
      <trkpt lat="49.14695" lon="1.98211">
        <ele>118</ele>
        <time>2024-02-04T12:40:09Z</time>
      </trkpt>
      <trkpt lat="49.14698" lon="1.98202">
        <ele>118.2</ele>
        <time>2024-02-04T12:40:14Z</time>
      </trkpt>
      <trkpt lat="49.14702" lon="1.98197">
        <ele>118.6</ele>
        <time>2024-02-04T12:40:19Z</time>
      </trkpt>
      <trkpt lat="49.14707" lon="1.9819">
        <ele>119</ele>
        <time>2024-02-04T12:40:24Z</time>
      </trkpt>
      <trkpt lat="49.1471" lon="1.98177">
        <ele>119.4</ele>
        <time>2024-02-04T12:40:30Z</time>
      </trkpt>
      <trkpt lat="49.14712" lon="1.98171">
        <ele>119.6</ele>
        <time>2024-02-04T12:40:35Z</time>
      </trkpt>
      <trkpt lat="49.14715" lon="1.98164">
        <ele>119.6</ele>
        <time>2024-02-04T12:40:40Z</time>
      </trkpt>
      <trkpt lat="49.1472" lon="1.98153">
        <ele>119.4</ele>
        <time>2024-02-04T12:40:46Z</time>
      </trkpt>
      <trkpt lat="49.14721" lon="1.9815">
        <ele>119.3</ele>
        <time>2024-02-04T12:40:51Z</time>
      </trkpt>
      <trkpt lat="49.14719" lon="1.98144">
        <ele>119.1</ele>
        <time>2024-02-04T12:40:57Z</time>
      </trkpt>
      <trkpt lat="49.14716" lon="1.9813">
        <ele>118.1</ele>
        <time>2024-02-04T12:41:03Z</time>
      </trkpt>
      <trkpt lat="49.14715" lon="1.98124">
        <ele>117.5</ele>
        <time>2024-02-04T12:41:09Z</time>
      </trkpt>
      <trkpt lat="49.14716" lon="1.98119">
        <ele>117.1</ele>
        <time>2024-02-04T12:41:14Z</time>
      </trkpt>
      <trkpt lat="49.1472" lon="1.98115">
        <ele>116.5</ele>
        <time>2024-02-04T12:41:19Z</time>
      </trkpt>
      <trkpt lat="49.14722" lon="1.9811">
        <ele>116.1</ele>
        <time>2024-02-04T12:41:25Z</time>
      </trkpt>
      <trkpt lat="49.14719" lon="1.98099">
        <ele>116.5</ele>
        <time>2024-02-04T12:41:30Z</time>
      </trkpt>
      <trkpt lat="49.14718" lon="1.9809">
        <ele>116.8</ele>
        <time>2024-02-04T12:41:36Z</time>
      </trkpt>
      <trkpt lat="49.14717" lon="1.98076">
        <ele>117</ele>
        <time>2024-02-04T12:41:42Z</time>
      </trkpt>
      <trkpt lat="49.14716" lon="1.98067">
        <ele>116.9</ele>
        <time>2024-02-04T12:41:48Z</time>
      </trkpt>
      <trkpt lat="49.14711" lon="1.98056">
        <ele>116.6</ele>
        <time>2024-02-04T12:41:53Z</time>
      </trkpt>
      <trkpt lat="49.14707" lon="1.98048">
        <ele>116.6</ele>
        <time>2024-02-04T12:41:59Z</time>
      </trkpt>
      <trkpt lat="49.14705" lon="1.98039">
        <ele>116.6</ele>
        <time>2024-02-04T12:42:04Z</time>
      </trkpt>
      <trkpt lat="49.14701" lon="1.98031">
        <ele>116.5</ele>
        <time>2024-02-04T12:42:09Z</time>
      </trkpt>
      <trkpt lat="49.14695" lon="1.98018">
        <ele>116</ele>
        <time>2024-02-04T12:42:15Z</time>
      </trkpt>
      <trkpt lat="49.14692" lon="1.98009">
        <ele>115.9</ele>
        <time>2024-02-04T12:42:20Z</time>
      </trkpt>
      <trkpt lat="49.14689" lon="1.97999">
        <ele>115.8</ele>
        <time>2024-02-04T12:42:26Z</time>
      </trkpt>
      <trkpt lat="49.14685" lon="1.97991">
        <ele>115.9</ele>
        <time>2024-02-04T12:42:32Z</time>
      </trkpt>
      <trkpt lat="49.14682" lon="1.97982">
        <ele>115.9</ele>
        <time>2024-02-04T12:42:37Z</time>
      </trkpt>
      <trkpt lat="49.1468" lon="1.97972">
        <ele>116</ele>
        <time>2024-02-04T12:42:43Z</time>
      </trkpt>
      <trkpt lat="49.14676" lon="1.97959">
        <ele>115.2</ele>
        <time>2024-02-04T12:42:49Z</time>
      </trkpt>
      <trkpt lat="49.14672" lon="1.97949">
        <ele>114.5</ele>
        <time>2024-02-04T12:42:54Z</time>
      </trkpt>
      <trkpt lat="49.1467" lon="1.97942">
        <ele>114.2</ele>
        <time>2024-02-04T12:42:59Z</time>
      </trkpt>
      <trkpt lat="49.14666" lon="1.97934">
        <ele>114</ele>
        <time>2024-02-04T12:43:05Z</time>
      </trkpt>
      <trkpt lat="49.14663" lon="1.97922">
        <ele>113.9</ele>
        <time>2024-02-04T12:43:11Z</time>
      </trkpt>
      <trkpt lat="49.1466" lon="1.97911">
        <ele>113.7</ele>
        <time>2024-02-04T12:43:16Z</time>
      </trkpt>
      <trkpt lat="49.14657" lon="1.97898">
        <ele>113.7</ele>
        <time>2024-02-04T12:43:22Z</time>
      </trkpt>
      <trkpt lat="49.14655" lon="1.97891">
        <ele>113.6</ele>
        <time>2024-02-04T12:43:27Z</time>
      </trkpt>
      <trkpt lat="49.1465" lon="1.9788">
        <ele>113.4</ele>
        <time>2024-02-04T12:43:33Z</time>
      </trkpt>
      <trkpt lat="49.14647" lon="1.97869">
        <ele>113.3</ele>
        <time>2024-02-04T12:43:38Z</time>
      </trkpt>
      <trkpt lat="49.14643" lon="1.97859">
        <ele>113.1</ele>
        <time>2024-02-04T12:43:44Z</time>
      </trkpt>
      <trkpt lat="49.1464" lon="1.97851">
        <ele>112.7</ele>
        <time>2024-02-04T12:43:49Z</time>
      </trkpt>
      <trkpt lat="49.14639" lon="1.97841">
        <ele>112.3</ele>
        <time>2024-02-04T12:43:54Z</time>
      </trkpt>
      <trkpt lat="49.14637" lon="1.97829">
        <ele>111.9</ele>
        <time>2024-02-04T12:44:00Z</time>
      </trkpt>
      <trkpt lat="49.14636" lon="1.97821">
        <ele>111.9</ele>
        <time>2024-02-04T12:44:05Z</time>
      </trkpt>
      <trkpt lat="49.14633" lon="1.9781">
        <ele>111.8</ele>
        <time>2024-02-04T12:44:10Z</time>
      </trkpt>
      <trkpt lat="49.14632" lon="1.97796">
        <ele>111.4</ele>
        <time>2024-02-04T12:44:16Z</time>
      </trkpt>
      <trkpt lat="49.14631" lon="1.97784">
        <ele>110.9</ele>
        <time>2024-02-04T12:44:22Z</time>
      </trkpt>
      <trkpt lat="49.14629" lon="1.97774">
        <ele>110.6</ele>
        <time>2024-02-04T12:44:28Z</time>
      </trkpt>
      <trkpt lat="49.14626" lon="1.97762">
        <ele>110.5</ele>
        <time>2024-02-04T12:44:34Z</time>
      </trkpt>
      <trkpt lat="49.14621" lon="1.9775">
        <ele>110.4</ele>
        <time>2024-02-04T12:44:40Z</time>
      </trkpt>
      <trkpt lat="49.14619" lon="1.97738">
        <ele>110.3</ele>
        <time>2024-02-04T12:44:46Z</time>
      </trkpt>
      <trkpt lat="49.14617" lon="1.97728">
        <ele>110.2</ele>
        <time>2024-02-04T12:44:51Z</time>
      </trkpt>
      <trkpt lat="49.14616" lon="1.97717">
        <ele>110</ele>
        <time>2024-02-04T12:44:57Z</time>
      </trkpt>
      <trkpt lat="49.14616" lon="1.97707">
        <ele>109.6</ele>
        <time>2024-02-04T12:45:02Z</time>
      </trkpt>
      <trkpt lat="49.14615" lon="1.97697">
        <ele>109.2</ele>
        <time>2024-02-04T12:45:08Z</time>
      </trkpt>
      <trkpt lat="49.14607" lon="1.97692">
        <ele>109</ele>
        <time>2024-02-04T12:45:14Z</time>
      </trkpt>
      <trkpt lat="49.14606" lon="1.97691">
        <ele>109</ele>
        <time>2024-02-04T12:45:20Z</time>
      </trkpt>
      <trkpt lat="49.14604" lon="1.97691">
        <ele>109</ele>
        <time>2024-02-04T12:45:26Z</time>
      </trkpt>
      <trkpt lat="49.14602" lon="1.97697">
        <ele>109.1</ele>
        <time>2024-02-04T12:45:31Z</time>
      </trkpt>
      <trkpt lat="49.146" lon="1.97707">
        <ele>109.3</ele>
        <time>2024-02-04T12:45:37Z</time>
      </trkpt>
      <trkpt lat="49.14595" lon="1.97715">
        <ele>109.3</ele>
        <time>2024-02-04T12:45:43Z</time>
      </trkpt>
      <trkpt lat="49.14592" lon="1.97723">
        <ele>109.3</ele>
        <time>2024-02-04T12:45:48Z</time>
      </trkpt>
      <trkpt lat="49.14589" lon="1.97732">
        <ele>109.5</ele>
        <time>2024-02-04T12:45:54Z</time>
      </trkpt>
      <trkpt lat="49.14585" lon="1.97743">
        <ele>109.8</ele>
        <time>2024-02-04T12:45:59Z</time>
      </trkpt>
      <trkpt lat="49.14579" lon="1.97753">
        <ele>109.8</ele>
        <time>2024-02-04T12:46:05Z</time>
      </trkpt>
      <trkpt lat="49.14572" lon="1.9776">
        <ele>109.6</ele>
        <time>2024-02-04T12:46:11Z</time>
      </trkpt>
      <trkpt lat="49.14568" lon="1.97766">
        <ele>109.5</ele>
        <time>2024-02-04T12:46:16Z</time>
      </trkpt>
      <trkpt lat="49.14565" lon="1.97774">
        <ele>109.4</ele>
        <time>2024-02-04T12:46:21Z</time>
      </trkpt>
      <trkpt lat="49.14561" lon="1.97783">
        <ele>109.1</ele>
        <time>2024-02-04T12:46:27Z</time>
      </trkpt>
      <trkpt lat="49.14555" lon="1.97787">
        <ele>108.7</ele>
        <time>2024-02-04T12:46:33Z</time>
      </trkpt>
      <trkpt lat="49.14554" lon="1.97786">
        <ele>108.7</ele>
        <time>2024-02-04T12:46:39Z</time>
      </trkpt>
      <trkpt lat="49.14554" lon="1.97776">
        <ele>108.9</ele>
        <time>2024-02-04T12:46:45Z</time>
      </trkpt>
      <trkpt lat="49.14554" lon="1.97763">
        <ele>108.9</ele>
        <time>2024-02-04T12:46:50Z</time>
      </trkpt>
      <trkpt lat="49.14551" lon="1.9775">
        <ele>108.8</ele>
        <time>2024-02-04T12:46:56Z</time>
      </trkpt>
      <trkpt lat="49.14551" lon="1.97739">
        <ele>108.8</ele>
        <time>2024-02-04T12:47:02Z</time>
      </trkpt>
      <trkpt lat="49.14552" lon="1.97727">
        <ele>108.9</ele>
        <time>2024-02-04T12:47:08Z</time>
      </trkpt>
      <trkpt lat="49.14555" lon="1.97715">
        <ele>108.7</ele>
        <time>2024-02-04T12:47:13Z</time>
      </trkpt>
      <trkpt lat="49.14555" lon="1.977">
        <ele>108.2</ele>
        <time>2024-02-04T12:47:19Z</time>
      </trkpt>
      <trkpt lat="49.14553" lon="1.97686">
        <ele>107.9</ele>
        <time>2024-02-04T12:47:25Z</time>
      </trkpt>
      <trkpt lat="49.14552" lon="1.97674">
        <ele>107.9</ele>
        <time>2024-02-04T12:47:30Z</time>
      </trkpt>
      <trkpt lat="49.1455" lon="1.97662">
        <ele>107.8</ele>
        <time>2024-02-04T12:47:36Z</time>
      </trkpt>
      <trkpt lat="49.14548" lon="1.97653">
        <ele>107.7</ele>
        <time>2024-02-04T12:47:41Z</time>
      </trkpt>
      <trkpt lat="49.14546" lon="1.97643">
        <ele>107.7</ele>
        <time>2024-02-04T12:47:47Z</time>
      </trkpt>
      <trkpt lat="49.14545" lon="1.97632">
        <ele>107.5</ele>
        <time>2024-02-04T12:47:53Z</time>
      </trkpt>
      <trkpt lat="49.14543" lon="1.97623">
        <ele>107.2</ele>
        <time>2024-02-04T12:47:58Z</time>
      </trkpt>
      <trkpt lat="49.14542" lon="1.97613">
        <ele>107</ele>
        <time>2024-02-04T12:48:03Z</time>
      </trkpt>
      <trkpt lat="49.14543" lon="1.97602">
        <ele>107</ele>
        <time>2024-02-04T12:48:08Z</time>
      </trkpt>
      <trkpt lat="49.14543" lon="1.97591">
        <ele>107</ele>
        <time>2024-02-04T12:48:13Z</time>
      </trkpt>
      <trkpt lat="49.14543" lon="1.9758">
        <ele>106.9</ele>
        <time>2024-02-04T12:48:19Z</time>
      </trkpt>
      <trkpt lat="49.14542" lon="1.97571">
        <ele>106.6</ele>
        <time>2024-02-04T12:48:25Z</time>
      </trkpt>
      <trkpt lat="49.14544" lon="1.9756">
        <ele>106.2</ele>
        <time>2024-02-04T12:48:30Z</time>
      </trkpt>
      <trkpt lat="49.14545" lon="1.97545">
        <ele>105.8</ele>
        <time>2024-02-04T12:48:36Z</time>
      </trkpt>
      <trkpt lat="49.14544" lon="1.97531">
        <ele>105.5</ele>
        <time>2024-02-04T12:48:42Z</time>
      </trkpt>
      <trkpt lat="49.14544" lon="1.97522">
        <ele>105.3</ele>
        <time>2024-02-04T12:48:47Z</time>
      </trkpt>
      <trkpt lat="49.14545" lon="1.9751">
        <ele>105.1</ele>
        <time>2024-02-04T12:48:53Z</time>
      </trkpt>
      <trkpt lat="49.14546" lon="1.97497">
        <ele>104.9</ele>
        <time>2024-02-04T12:49:00Z</time>
      </trkpt>
      <trkpt lat="49.14547" lon="1.97487">
        <ele>104.5</ele>
        <time>2024-02-04T12:49:05Z</time>
      </trkpt>
      <trkpt lat="49.14547" lon="1.97476">
        <ele>104.1</ele>
        <time>2024-02-04T12:49:11Z</time>
      </trkpt>
      <trkpt lat="49.14549" lon="1.97464">
        <ele>104</ele>
        <time>2024-02-04T12:49:17Z</time>
      </trkpt>
      <trkpt lat="49.1455" lon="1.97454">
        <ele>104</ele>
        <time>2024-02-04T12:49:22Z</time>
      </trkpt>
      <trkpt lat="49.14552" lon="1.97442">
        <ele>104</ele>
        <time>2024-02-04T12:49:28Z</time>
      </trkpt>
      <trkpt lat="49.14553" lon="1.97432">
        <ele>104</ele>
        <time>2024-02-04T12:49:33Z</time>
      </trkpt>
      <trkpt lat="49.14557" lon="1.9742">
        <ele>104</ele>
        <time>2024-02-04T12:49:39Z</time>
      </trkpt>
      <trkpt lat="49.14559" lon="1.97408">
        <ele>103.7</ele>
        <time>2024-02-04T12:49:45Z</time>
      </trkpt>
      <trkpt lat="49.1456" lon="1.97399">
        <ele>103.5</ele>
        <time>2024-02-04T12:49:50Z</time>
      </trkpt>
      <trkpt lat="49.14562" lon="1.97392">
        <ele>103.3</ele>
        <time>2024-02-04T12:49:55Z</time>
      </trkpt>
      <trkpt lat="49.14563" lon="1.97384">
        <ele>103.2</ele>
        <time>2024-02-04T12:50:00Z</time>
      </trkpt>
      <trkpt lat="49.14566" lon="1.9737">
        <ele>103.1</ele>
        <time>2024-02-04T12:50:06Z</time>
      </trkpt>
      <trkpt lat="49.14569" lon="1.97358">
        <ele>102.9</ele>
        <time>2024-02-04T12:50:11Z</time>
      </trkpt>
      <trkpt lat="49.14571" lon="1.97343">
        <ele>102.6</ele>
        <time>2024-02-04T12:50:17Z</time>
      </trkpt>
      <trkpt lat="49.14575" lon="1.97327">
        <ele>102.1</ele>
        <time>2024-02-04T12:50:23Z</time>
      </trkpt>
      <trkpt lat="49.14577" lon="1.97313">
        <ele>101.5</ele>
        <time>2024-02-04T12:50:29Z</time>
      </trkpt>
      <trkpt lat="49.1458" lon="1.97302">
        <ele>101</ele>
        <time>2024-02-04T12:50:35Z</time>
      </trkpt>
      <trkpt lat="49.14582" lon="1.97292">
        <ele>100.6</ele>
        <time>2024-02-04T12:50:41Z</time>
      </trkpt>
      <trkpt lat="49.14584" lon="1.97283">
        <ele>100.2</ele>
        <time>2024-02-04T12:50:46Z</time>
      </trkpt>
      <trkpt lat="49.14585" lon="1.97273">
        <ele>100</ele>
        <time>2024-02-04T12:50:51Z</time>
      </trkpt>
      <trkpt lat="49.14587" lon="1.97261">
        <ele>99.9</ele>
        <time>2024-02-04T12:50:57Z</time>
      </trkpt>
      <trkpt lat="49.14588" lon="1.97249">
        <ele>99.8</ele>
        <time>2024-02-04T12:51:03Z</time>
      </trkpt>
      <trkpt lat="49.1459" lon="1.9724">
        <ele>99.5</ele>
        <time>2024-02-04T12:51:08Z</time>
      </trkpt>
      <trkpt lat="49.14591" lon="1.97229">
        <ele>99.2</ele>
        <time>2024-02-04T12:51:13Z</time>
      </trkpt>
      <trkpt lat="49.14592" lon="1.97215">
        <ele>98.9</ele>
        <time>2024-02-04T12:51:19Z</time>
      </trkpt>
      <trkpt lat="49.14592" lon="1.97203">
        <ele>98.8</ele>
        <time>2024-02-04T12:51:24Z</time>
      </trkpt>
      <trkpt lat="49.14592" lon="1.9719">
        <ele>98.7</ele>
        <time>2024-02-04T12:51:30Z</time>
      </trkpt>
      <trkpt lat="49.14591" lon="1.97181">
        <ele>98.7</ele>
        <time>2024-02-04T12:51:35Z</time>
      </trkpt>
      <trkpt lat="49.1459" lon="1.97169">
        <ele>98.8</ele>
        <time>2024-02-04T12:51:41Z</time>
      </trkpt>
      <trkpt lat="49.1459" lon="1.97158">
        <ele>98.5</ele>
        <time>2024-02-04T12:51:46Z</time>
      </trkpt>
      <trkpt lat="49.1459" lon="1.97144">
        <ele>98.1</ele>
        <time>2024-02-04T12:51:52Z</time>
      </trkpt>
      <trkpt lat="49.1459" lon="1.97131">
        <ele>98</ele>
        <time>2024-02-04T12:51:58Z</time>
      </trkpt>
      <trkpt lat="49.1459" lon="1.97119">
        <ele>98</ele>
        <time>2024-02-04T12:52:04Z</time>
      </trkpt>
      <trkpt lat="49.1459" lon="1.97109">
        <ele>98</ele>
        <time>2024-02-04T12:52:10Z</time>
      </trkpt>
      <trkpt lat="49.14591" lon="1.97099">
        <ele>98</ele>
        <time>2024-02-04T12:52:15Z</time>
      </trkpt>
      <trkpt lat="49.14589" lon="1.97087">
        <ele>98</ele>
        <time>2024-02-04T12:52:21Z</time>
      </trkpt>
      <trkpt lat="49.1459" lon="1.97076">
        <ele>98</ele>
        <time>2024-02-04T12:52:27Z</time>
      </trkpt>
      <trkpt lat="49.14589" lon="1.97065">
        <ele>98</ele>
        <time>2024-02-04T12:52:32Z</time>
      </trkpt>
      <trkpt lat="49.14586" lon="1.97051">
        <ele>98</ele>
        <time>2024-02-04T12:52:38Z</time>
      </trkpt>
      <trkpt lat="49.14585" lon="1.97038">
        <ele>98</ele>
        <time>2024-02-04T12:52:44Z</time>
      </trkpt>
      <trkpt lat="49.14584" lon="1.97028">
        <ele>98</ele>
        <time>2024-02-04T12:52:49Z</time>
      </trkpt>
      <trkpt lat="49.14582" lon="1.97019">
        <ele>98</ele>
        <time>2024-02-04T12:52:55Z</time>
      </trkpt>
      <trkpt lat="49.14583" lon="1.97005">
        <ele>98</ele>
        <time>2024-02-04T12:53:01Z</time>
      </trkpt>
      <trkpt lat="49.14582" lon="1.96991">
        <ele>98</ele>
        <time>2024-02-04T12:53:07Z</time>
      </trkpt>
      <trkpt lat="49.14581" lon="1.9698">
        <ele>98</ele>
        <time>2024-02-04T12:53:13Z</time>
      </trkpt>
      <trkpt lat="49.14581" lon="1.96969">
        <ele>98</ele>
        <time>2024-02-04T12:53:19Z</time>
      </trkpt>
      <trkpt lat="49.14579" lon="1.9696">
        <ele>98</ele>
        <time>2024-02-04T12:53:24Z</time>
      </trkpt>
      <trkpt lat="49.14577" lon="1.9695">
        <ele>98</ele>
        <time>2024-02-04T12:53:29Z</time>
      </trkpt>
      <trkpt lat="49.14577" lon="1.96937">
        <ele>98</ele>
        <time>2024-02-04T12:53:35Z</time>
      </trkpt>
      <trkpt lat="49.14578" lon="1.96926">
        <ele>98</ele>
        <time>2024-02-04T12:53:41Z</time>
      </trkpt>
      <trkpt lat="49.14577" lon="1.96914">
        <ele>98</ele>
        <time>2024-02-04T12:53:46Z</time>
      </trkpt>
      <trkpt lat="49.14574" lon="1.96899">
        <ele>98</ele>
        <time>2024-02-04T12:53:52Z</time>
      </trkpt>
      <trkpt lat="49.14575" lon="1.96896">
        <ele>98</ele>
        <time>2024-02-04T12:53:57Z</time>
      </trkpt>
      <trkpt lat="49.1458" lon="1.96892">
        <ele>98</ele>
        <time>2024-02-04T12:54:03Z</time>
      </trkpt>
      <trkpt lat="49.14585" lon="1.96888">
        <ele>98</ele>
        <time>2024-02-04T12:54:08Z</time>
      </trkpt>
      <trkpt lat="49.14582" lon="1.9688">
        <ele>97.7</ele>
        <time>2024-02-04T12:54:14Z</time>
      </trkpt>
      <trkpt lat="49.14581" lon="1.96865">
        <ele>97.2</ele>
        <time>2024-02-04T12:54:20Z</time>
      </trkpt>
      <trkpt lat="49.1458" lon="1.96852">
        <ele>97.1</ele>
        <time>2024-02-04T12:54:26Z</time>
      </trkpt>
      <trkpt lat="49.1458" lon="1.96846">
        <ele>97.1</ele>
        <time>2024-02-04T12:54:31Z</time>
      </trkpt>
      <trkpt lat="49.14582" lon="1.96834">
        <ele>97.1</ele>
        <time>2024-02-04T12:54:37Z</time>
      </trkpt>
      <trkpt lat="49.14582" lon="1.9682">
        <ele>97</ele>
        <time>2024-02-04T12:54:42Z</time>
      </trkpt>
      <trkpt lat="49.14582" lon="1.96806">
        <ele>97</ele>
        <time>2024-02-04T12:54:48Z</time>
      </trkpt>
      <trkpt lat="49.14584" lon="1.96798">
        <ele>97</ele>
        <time>2024-02-04T12:54:53Z</time>
      </trkpt>
      <trkpt lat="49.14589" lon="1.96785">
        <ele>97</ele>
        <time>2024-02-04T12:54:59Z</time>
      </trkpt>
      <trkpt lat="49.14592" lon="1.96776">
        <ele>97.1</ele>
        <time>2024-02-04T12:55:04Z</time>
      </trkpt>
      <trkpt lat="49.14592" lon="1.96772">
        <ele>97.1</ele>
        <time>2024-02-04T12:55:11Z</time>
      </trkpt>
      <trkpt lat="49.14592" lon="1.96772">
        <ele>97.2</ele>
        <time>2024-02-04T12:55:17Z</time>
      </trkpt>
      <trkpt lat="49.14595" lon="1.96765">
        <ele>97.3</ele>
        <time>2024-02-04T12:55:23Z</time>
      </trkpt>
      <trkpt lat="49.14599" lon="1.96755">
        <ele>97.4</ele>
        <time>2024-02-04T12:55:29Z</time>
      </trkpt>
      <trkpt lat="49.14602" lon="1.96743">
        <ele>97.3</ele>
        <time>2024-02-04T12:55:35Z</time>
      </trkpt>
      <trkpt lat="49.14607" lon="1.96733">
        <ele>97.2</ele>
        <time>2024-02-04T12:55:40Z</time>
      </trkpt>
      <trkpt lat="49.14613" lon="1.96722">
        <ele>97</ele>
        <time>2024-02-04T12:55:46Z</time>
      </trkpt>
      <trkpt lat="49.14614" lon="1.96713">
        <ele>97</ele>
        <time>2024-02-04T12:55:51Z</time>
      </trkpt>
      <trkpt lat="49.1462" lon="1.96704">
        <ele>97</ele>
        <time>2024-02-04T12:55:57Z</time>
      </trkpt>
      <trkpt lat="49.14624" lon="1.96694">
        <ele>97</ele>
        <time>2024-02-04T12:56:02Z</time>
      </trkpt>
      <trkpt lat="49.14626" lon="1.96686">
        <ele>97</ele>
        <time>2024-02-04T12:56:07Z</time>
      </trkpt>
      <trkpt lat="49.14623" lon="1.96675">
        <ele>97</ele>
        <time>2024-02-04T12:56:13Z</time>
      </trkpt>
      <trkpt lat="49.14618" lon="1.96667">
        <ele>97</ele>
        <time>2024-02-04T12:56:19Z</time>
      </trkpt>
      <trkpt lat="49.14614" lon="1.96656">
        <ele>96.6</ele>
        <time>2024-02-04T12:56:25Z</time>
      </trkpt>
      <trkpt lat="49.14618" lon="1.96645">
        <ele>96.2</ele>
        <time>2024-02-04T12:56:31Z</time>
      </trkpt>
      <trkpt lat="49.14616" lon="1.96634">
        <ele>96</ele>
        <time>2024-02-04T12:56:37Z</time>
      </trkpt>
      <trkpt lat="49.14613" lon="1.96623">
        <ele>96</ele>
        <time>2024-02-04T12:56:43Z</time>
      </trkpt>
      <trkpt lat="49.14613" lon="1.96613">
        <ele>96</ele>
        <time>2024-02-04T12:56:48Z</time>
      </trkpt>
      <trkpt lat="49.14615" lon="1.96601">
        <ele>96</ele>
        <time>2024-02-04T12:56:54Z</time>
      </trkpt>
      <trkpt lat="49.14614" lon="1.96591">
        <ele>96</ele>
        <time>2024-02-04T12:57:00Z</time>
      </trkpt>
      <trkpt lat="49.14615" lon="1.96581">
        <ele>96</ele>
        <time>2024-02-04T12:57:05Z</time>
      </trkpt>
      <trkpt lat="49.14615" lon="1.96567">
        <ele>95.9</ele>
        <time>2024-02-04T12:57:11Z</time>
      </trkpt>
      <trkpt lat="49.14617" lon="1.96553">
        <ele>95.8</ele>
        <time>2024-02-04T12:57:17Z</time>
      </trkpt>
      <trkpt lat="49.14618" lon="1.96544">
        <ele>95.7</ele>
        <time>2024-02-04T12:57:22Z</time>
      </trkpt>
      <trkpt lat="49.1462" lon="1.96531">
        <ele>95.7</ele>
        <time>2024-02-04T12:57:28Z</time>
      </trkpt>
      <trkpt lat="49.14619" lon="1.96521">
        <ele>95.7</ele>
        <time>2024-02-04T12:57:33Z</time>
      </trkpt>
      <trkpt lat="49.14619" lon="1.96509">
        <ele>95.7</ele>
        <time>2024-02-04T12:57:39Z</time>
      </trkpt>
      <trkpt lat="49.1462" lon="1.965">
        <ele>95.7</ele>
        <time>2024-02-04T12:57:44Z</time>
      </trkpt>
      <trkpt lat="49.1462" lon="1.96491">
        <ele>95.7</ele>
        <time>2024-02-04T12:57:49Z</time>
      </trkpt>
      <trkpt lat="49.1462" lon="1.9648">
        <ele>95.7</ele>
        <time>2024-02-04T12:57:55Z</time>
      </trkpt>
      <trkpt lat="49.14622" lon="1.96462">
        <ele>96.4</ele>
        <time>2024-02-04T12:58:01Z</time>
      </trkpt>
      <trkpt lat="49.14624" lon="1.96454">
        <ele>96.9</ele>
        <time>2024-02-04T12:58:06Z</time>
      </trkpt>
      <trkpt lat="49.1463" lon="1.96444">
        <ele>97.3</ele>
        <time>2024-02-04T12:58:12Z</time>
      </trkpt>
      <trkpt lat="49.14633" lon="1.96433">
        <ele>97.1</ele>
        <time>2024-02-04T12:58:18Z</time>
      </trkpt>
      <trkpt lat="49.14633" lon="1.96423">
        <ele>97</ele>
        <time>2024-02-04T12:58:24Z</time>
      </trkpt>
      <trkpt lat="49.1463" lon="1.96407">
        <ele>96.2</ele>
        <time>2024-02-04T12:58:29Z</time>
      </trkpt>
      <trkpt lat="49.14622" lon="1.96395">
        <ele>95.6</ele>
        <time>2024-02-04T12:58:35Z</time>
      </trkpt>
      <trkpt lat="49.14615" lon="1.96395">
        <ele>96</ele>
        <time>2024-02-04T12:58:40Z</time>
      </trkpt>
      <trkpt lat="49.14607" lon="1.96398">
        <ele>96.6</ele>
        <time>2024-02-04T12:58:46Z</time>
      </trkpt>
      <trkpt lat="49.146" lon="1.96406">
        <ele>97.3</ele>
        <time>2024-02-04T12:58:52Z</time>
      </trkpt>
      <trkpt lat="49.14593" lon="1.96409">
        <ele>97.7</ele>
        <time>2024-02-04T12:58:58Z</time>
      </trkpt>
      <trkpt lat="49.14588" lon="1.96412">
        <ele>98</ele>
        <time>2024-02-04T12:59:03Z</time>
      </trkpt>
      <trkpt lat="49.1458" lon="1.96417">
        <ele>98.3</ele>
        <time>2024-02-04T12:59:09Z</time>
      </trkpt>
      <trkpt lat="49.14574" lon="1.96417">
        <ele>99</ele>
        <time>2024-02-04T12:59:14Z</time>
      </trkpt>
      <trkpt lat="49.14566" lon="1.9642">
        <ele>99.8</ele>
        <time>2024-02-04T12:59:20Z</time>
      </trkpt>
      <trkpt lat="49.14558" lon="1.96422">
        <ele>100.4</ele>
        <time>2024-02-04T12:59:26Z</time>
      </trkpt>
      <trkpt lat="49.14552" lon="1.96423">
        <ele>100.6</ele>
        <time>2024-02-04T12:59:31Z</time>
      </trkpt>
      <trkpt lat="49.14543" lon="1.96426">
        <ele>100.8</ele>
        <time>2024-02-04T12:59:37Z</time>
      </trkpt>
      <trkpt lat="49.14535" lon="1.96427">
        <ele>101</ele>
        <time>2024-02-04T12:59:43Z</time>
      </trkpt>
      <trkpt lat="49.14528" lon="1.96424">
        <ele>101.5</ele>
        <time>2024-02-04T12:59:49Z</time>
      </trkpt>
      <trkpt lat="49.14524" lon="1.96415">
        <ele>102</ele>
        <time>2024-02-04T12:59:54Z</time>
      </trkpt>
      <trkpt lat="49.14525" lon="1.96405">
        <ele>102</ele>
        <time>2024-02-04T12:59:59Z</time>
      </trkpt>
      <trkpt lat="49.14525" lon="1.96393">
        <ele>102.1</ele>
        <time>2024-02-04T13:00:05Z</time>
      </trkpt>
      <trkpt lat="49.14523" lon="1.96382">
        <ele>102.2</ele>
        <time>2024-02-04T13:00:10Z</time>
      </trkpt>
      <trkpt lat="49.14522" lon="1.96371">
        <ele>102.2</ele>
        <time>2024-02-04T13:00:16Z</time>
      </trkpt>
      <trkpt lat="49.14522" lon="1.96359">
        <ele>102.2</ele>
        <time>2024-02-04T13:00:21Z</time>
      </trkpt>
      <trkpt lat="49.14523" lon="1.96349">
        <ele>102.2</ele>
        <time>2024-02-04T13:00:26Z</time>
      </trkpt>
      <trkpt lat="49.14522" lon="1.96339">
        <ele>102.2</ele>
        <time>2024-02-04T13:00:32Z</time>
      </trkpt>
      <trkpt lat="49.1452" lon="1.96327">
        <ele>102.4</ele>
        <time>2024-02-04T13:00:37Z</time>
      </trkpt>
      <trkpt lat="49.1452" lon="1.96319">
        <ele>102.7</ele>
        <time>2024-02-04T13:00:42Z</time>
      </trkpt>
      <trkpt lat="49.14518" lon="1.96307">
        <ele>103</ele>
        <time>2024-02-04T13:00:48Z</time>
      </trkpt>
      <trkpt lat="49.14515" lon="1.96294">
        <ele>103</ele>
        <time>2024-02-04T13:00:54Z</time>
      </trkpt>
      <trkpt lat="49.14515" lon="1.96282">
        <ele>103</ele>
        <time>2024-02-04T13:01:00Z</time>
      </trkpt>
      <trkpt lat="49.14514" lon="1.9627">
        <ele>102.9</ele>
        <time>2024-02-04T13:01:06Z</time>
      </trkpt>
      <trkpt lat="49.14514" lon="1.96257">
        <ele>102.6</ele>
        <time>2024-02-04T13:01:12Z</time>
      </trkpt>
      <trkpt lat="49.14514" lon="1.96245">
        <ele>102.5</ele>
        <time>2024-02-04T13:01:18Z</time>
      </trkpt>
      <trkpt lat="49.14512" lon="1.96234">
        <ele>102.6</ele>
        <time>2024-02-04T13:01:24Z</time>
      </trkpt>
      <trkpt lat="49.14511" lon="1.96219">
        <ele>102.6</ele>
        <time>2024-02-04T13:01:30Z</time>
      </trkpt>
      <trkpt lat="49.1451" lon="1.96211">
        <ele>102.7</ele>
        <time>2024-02-04T13:01:35Z</time>
      </trkpt>
      <trkpt lat="49.14506" lon="1.96199">
        <ele>102.8</ele>
        <time>2024-02-04T13:01:41Z</time>
      </trkpt>
      <trkpt lat="49.14504" lon="1.96187">
        <ele>102.8</ele>
        <time>2024-02-04T13:01:47Z</time>
      </trkpt>
      <trkpt lat="49.14503" lon="1.96175">
        <ele>102.9</ele>
        <time>2024-02-04T13:01:53Z</time>
      </trkpt>
      <trkpt lat="49.145" lon="1.96162">
        <ele>102.8</ele>
        <time>2024-02-04T13:01:59Z</time>
      </trkpt>
      <trkpt lat="49.14499" lon="1.96152">
        <ele>102.4</ele>
        <time>2024-02-04T13:02:04Z</time>
      </trkpt>
      <trkpt lat="49.14499" lon="1.9614">
        <ele>102</ele>
        <time>2024-02-04T13:02:10Z</time>
      </trkpt>
      <trkpt lat="49.14495" lon="1.96132">
        <ele>102</ele>
        <time>2024-02-04T13:02:16Z</time>
      </trkpt>
      <trkpt lat="49.14491" lon="1.9612">
        <ele>102</ele>
        <time>2024-02-04T13:02:22Z</time>
      </trkpt>
      <trkpt lat="49.14487" lon="1.9611">
        <ele>102</ele>
        <time>2024-02-04T13:02:27Z</time>
      </trkpt>
      <trkpt lat="49.14482" lon="1.96102">
        <ele>101.9</ele>
        <time>2024-02-04T13:02:32Z</time>
      </trkpt>
      <trkpt lat="49.14477" lon="1.96094">
        <ele>101.9</ele>
        <time>2024-02-04T13:02:38Z</time>
      </trkpt>
      <trkpt lat="49.14472" lon="1.96087">
        <ele>102</ele>
        <time>2024-02-04T13:02:43Z</time>
      </trkpt>
      <trkpt lat="49.14464" lon="1.9608">
        <ele>101.9</ele>
        <time>2024-02-04T13:02:49Z</time>
      </trkpt>
      <trkpt lat="49.14457" lon="1.96074">
        <ele>101.7</ele>
        <time>2024-02-04T13:02:55Z</time>
      </trkpt>
      <trkpt lat="49.1445" lon="1.96068">
        <ele>101.5</ele>
        <time>2024-02-04T13:03:01Z</time>
      </trkpt>
      <trkpt lat="49.14443" lon="1.96062">
        <ele>101.3</ele>
        <time>2024-02-04T13:03:06Z</time>
      </trkpt>
      <trkpt lat="49.14436" lon="1.96057">
        <ele>101.3</ele>
        <time>2024-02-04T13:03:12Z</time>
      </trkpt>
      <trkpt lat="49.14432" lon="1.96053">
        <ele>101.4</ele>
        <time>2024-02-04T13:03:17Z</time>
      </trkpt>
      <trkpt lat="49.14426" lon="1.96047">
        <ele>101.5</ele>
        <time>2024-02-04T13:03:22Z</time>
      </trkpt>
      <trkpt lat="49.14417" lon="1.96041">
        <ele>101.5</ele>
        <time>2024-02-04T13:03:28Z</time>
      </trkpt>
      <trkpt lat="49.14411" lon="1.96038">
        <ele>101.4</ele>
        <time>2024-02-04T13:03:33Z</time>
      </trkpt>
      <trkpt lat="49.14405" lon="1.96031">
        <ele>101.1</ele>
        <time>2024-02-04T13:03:38Z</time>
      </trkpt>
      <trkpt lat="49.144" lon="1.96026">
        <ele>100.9</ele>
        <time>2024-02-04T13:03:44Z</time>
      </trkpt>
      <trkpt lat="49.14395" lon="1.96023">
        <ele>100.8</ele>
        <time>2024-02-04T13:03:49Z</time>
      </trkpt>
      <trkpt lat="49.14387" lon="1.96017">
        <ele>100.6</ele>
        <time>2024-02-04T13:03:55Z</time>
      </trkpt>
      <trkpt lat="49.14379" lon="1.96012">
        <ele>100.6</ele>
        <time>2024-02-04T13:04:00Z</time>
      </trkpt>
      <trkpt lat="49.14372" lon="1.96006">
        <ele>100.7</ele>
        <time>2024-02-04T13:04:06Z</time>
      </trkpt>
      <trkpt lat="49.14367" lon="1.96">
        <ele>100.8</ele>
        <time>2024-02-04T13:04:12Z</time>
      </trkpt>
      <trkpt lat="49.1436" lon="1.95995">
        <ele>100.8</ele>
        <time>2024-02-04T13:04:17Z</time>
      </trkpt>
      <trkpt lat="49.14354" lon="1.95991">
        <ele>100.8</ele>
        <time>2024-02-04T13:04:22Z</time>
      </trkpt>
      <trkpt lat="49.14349" lon="1.95987">
        <ele>100.7</ele>
        <time>2024-02-04T13:04:27Z</time>
      </trkpt>
      <trkpt lat="49.14342" lon="1.95982">
        <ele>100.8</ele>
        <time>2024-02-04T13:04:33Z</time>
      </trkpt>
      <trkpt lat="49.14333" lon="1.95978">
        <ele>101</ele>
        <time>2024-02-04T13:04:39Z</time>
      </trkpt>
      <trkpt lat="49.14327" lon="1.95973">
        <ele>101.2</ele>
        <time>2024-02-04T13:04:44Z</time>
      </trkpt>
      <trkpt lat="49.1432" lon="1.95968">
        <ele>101.3</ele>
        <time>2024-02-04T13:04:50Z</time>
      </trkpt>
      <trkpt lat="49.14313" lon="1.9596">
        <ele>101.3</ele>
        <time>2024-02-04T13:04:56Z</time>
      </trkpt>
      <trkpt lat="49.14305" lon="1.95954">
        <ele>101.4</ele>
        <time>2024-02-04T13:05:02Z</time>
      </trkpt>
      <trkpt lat="49.14298" lon="1.9595">
        <ele>101.4</ele>
        <time>2024-02-04T13:05:07Z</time>
      </trkpt>
      <trkpt lat="49.14291" lon="1.95944">
        <ele>101.5</ele>
        <time>2024-02-04T13:05:12Z</time>
      </trkpt>
      <trkpt lat="49.14286" lon="1.95938">
        <ele>101.5</ele>
        <time>2024-02-04T13:05:18Z</time>
      </trkpt>
      <trkpt lat="49.14278" lon="1.95933">
        <ele>101.6</ele>
        <time>2024-02-04T13:05:23Z</time>
      </trkpt>
      <trkpt lat="49.14271" lon="1.95929">
        <ele>101.6</ele>
        <time>2024-02-04T13:05:29Z</time>
      </trkpt>
      <trkpt lat="49.14266" lon="1.95925">
        <ele>101.6</ele>
        <time>2024-02-04T13:05:34Z</time>
      </trkpt>
      <trkpt lat="49.1426" lon="1.95919">
        <ele>101.7</ele>
        <time>2024-02-04T13:05:40Z</time>
      </trkpt>
      <trkpt lat="49.14253" lon="1.95912">
        <ele>101.7</ele>
        <time>2024-02-04T13:05:45Z</time>
      </trkpt>
      <trkpt lat="49.14244" lon="1.95906">
        <ele>101.8</ele>
        <time>2024-02-04T13:05:51Z</time>
      </trkpt>
      <trkpt lat="49.14238" lon="1.95901">
        <ele>101.9</ele>
        <time>2024-02-04T13:05:56Z</time>
      </trkpt>
      <trkpt lat="49.14231" lon="1.95897">
        <ele>102</ele>
        <time>2024-02-04T13:06:02Z</time>
      </trkpt>
      <trkpt lat="49.14225" lon="1.95892">
        <ele>102</ele>
        <time>2024-02-04T13:06:08Z</time>
      </trkpt>
      <trkpt lat="49.14216" lon="1.95885">
        <ele>102.1</ele>
        <time>2024-02-04T13:06:14Z</time>
      </trkpt>
      <trkpt lat="49.14209" lon="1.9588">
        <ele>102.1</ele>
        <time>2024-02-04T13:06:20Z</time>
      </trkpt>
      <trkpt lat="49.14202" lon="1.95875">
        <ele>102.2</ele>
        <time>2024-02-04T13:06:26Z</time>
      </trkpt>
      <trkpt lat="49.14194" lon="1.95869">
        <ele>102.3</ele>
        <time>2024-02-04T13:06:32Z</time>
      </trkpt>
      <trkpt lat="49.14186" lon="1.95864">
        <ele>102.4</ele>
        <time>2024-02-04T13:06:38Z</time>
      </trkpt>
      <trkpt lat="49.14181" lon="1.95859">
        <ele>102.5</ele>
        <time>2024-02-04T13:06:43Z</time>
      </trkpt>
      <trkpt lat="49.14175" lon="1.95853">
        <ele>102.7</ele>
        <time>2024-02-04T13:06:48Z</time>
      </trkpt>
      <trkpt lat="49.14168" lon="1.95847">
        <ele>103</ele>
        <time>2024-02-04T13:06:53Z</time>
      </trkpt>
      <trkpt lat="49.14161" lon="1.95842">
        <ele>103.1</ele>
        <time>2024-02-04T13:06:59Z</time>
      </trkpt>
      <trkpt lat="49.14155" lon="1.95838">
        <ele>103.1</ele>
        <time>2024-02-04T13:07:04Z</time>
      </trkpt>
      <trkpt lat="49.14148" lon="1.95832">
        <ele>103</ele>
        <time>2024-02-04T13:07:10Z</time>
      </trkpt>
      <trkpt lat="49.14141" lon="1.95826">
        <ele>103</ele>
        <time>2024-02-04T13:07:15Z</time>
      </trkpt>
      <trkpt lat="49.14134" lon="1.95823">
        <ele>103.1</ele>
        <time>2024-02-04T13:07:21Z</time>
      </trkpt>
      <trkpt lat="49.14125" lon="1.95818">
        <ele>103.2</ele>
        <time>2024-02-04T13:07:27Z</time>
      </trkpt>
      <trkpt lat="49.14117" lon="1.95813">
        <ele>103.2</ele>
        <time>2024-02-04T13:07:33Z</time>
      </trkpt>
      <trkpt lat="49.14112" lon="1.9581">
        <ele>103.2</ele>
        <time>2024-02-04T13:07:38Z</time>
      </trkpt>
      <trkpt lat="49.14107" lon="1.95807">
        <ele>103.2</ele>
        <time>2024-02-04T13:07:43Z</time>
      </trkpt>
      <trkpt lat="49.14098" lon="1.95801">
        <ele>103.5</ele>
        <time>2024-02-04T13:07:49Z</time>
      </trkpt>
      <trkpt lat="49.14093" lon="1.95797">
        <ele>103.7</ele>
        <time>2024-02-04T13:07:54Z</time>
      </trkpt>
      <trkpt lat="49.14086" lon="1.95795">
        <ele>103.9</ele>
        <time>2024-02-04T13:08:00Z</time>
      </trkpt>
      <trkpt lat="49.14078" lon="1.95791">
        <ele>104.1</ele>
        <time>2024-02-04T13:08:06Z</time>
      </trkpt>
      <trkpt lat="49.1407" lon="1.95785">
        <ele>104.1</ele>
        <time>2024-02-04T13:08:12Z</time>
      </trkpt>
      <trkpt lat="49.14061" lon="1.95783">
        <ele>104.1</ele>
        <time>2024-02-04T13:08:18Z</time>
      </trkpt>
      <trkpt lat="49.14056" lon="1.95779">
        <ele>104.1</ele>
        <time>2024-02-04T13:08:24Z</time>
      </trkpt>
      <trkpt lat="49.14048" lon="1.95775">
        <ele>104.4</ele>
        <time>2024-02-04T13:08:30Z</time>
      </trkpt>
      <trkpt lat="49.14039" lon="1.95769">
        <ele>104.7</ele>
        <time>2024-02-04T13:08:36Z</time>
      </trkpt>
      <trkpt lat="49.14034" lon="1.95766">
        <ele>104.9</ele>
        <time>2024-02-04T13:08:41Z</time>
      </trkpt>
      <trkpt lat="49.14028" lon="1.95762">
        <ele>105</ele>
        <time>2024-02-04T13:08:46Z</time>
      </trkpt>
      <trkpt lat="49.14021" lon="1.95759">
        <ele>105.2</ele>
        <time>2024-02-04T13:08:52Z</time>
      </trkpt>
      <trkpt lat="49.14016" lon="1.95755">
        <ele>105.4</ele>
        <time>2024-02-04T13:08:58Z</time>
      </trkpt>
      <trkpt lat="49.14008" lon="1.95751">
        <ele>105.7</ele>
        <time>2024-02-04T13:09:03Z</time>
      </trkpt>
      <trkpt lat="49.14001" lon="1.95751">
        <ele>106</ele>
        <time>2024-02-04T13:09:08Z</time>
      </trkpt>
      <trkpt lat="49.13994" lon="1.9575">
        <ele>106.2</ele>
        <time>2024-02-04T13:09:14Z</time>
      </trkpt>
      <trkpt lat="49.13987" lon="1.95748">
        <ele>106.5</ele>
        <time>2024-02-04T13:09:19Z</time>
      </trkpt>
      <trkpt lat="49.13982" lon="1.95746">
        <ele>106.7</ele>
        <time>2024-02-04T13:09:24Z</time>
      </trkpt>
      <trkpt lat="49.13974" lon="1.95742">
        <ele>106.9</ele>
        <time>2024-02-04T13:09:30Z</time>
      </trkpt>
      <trkpt lat="49.13967" lon="1.95739">
        <ele>107.1</ele>
        <time>2024-02-04T13:09:36Z</time>
      </trkpt>
      <trkpt lat="49.13958" lon="1.95738">
        <ele>107.2</ele>
        <time>2024-02-04T13:09:42Z</time>
      </trkpt>
      <trkpt lat="49.13951" lon="1.95735">
        <ele>107.4</ele>
        <time>2024-02-04T13:09:48Z</time>
      </trkpt>
      <trkpt lat="49.13944" lon="1.95732">
        <ele>107.7</ele>
        <time>2024-02-04T13:09:54Z</time>
      </trkpt>
      <trkpt lat="49.1394" lon="1.9573">
        <ele>107.8</ele>
        <time>2024-02-04T13:09:59Z</time>
      </trkpt>
      <trkpt lat="49.13933" lon="1.95727">
        <ele>107.9</ele>
        <time>2024-02-04T13:10:04Z</time>
      </trkpt>
      <trkpt lat="49.13926" lon="1.95725">
        <ele>108</ele>
        <time>2024-02-04T13:10:10Z</time>
      </trkpt>
      <trkpt lat="49.13918" lon="1.95724">
        <ele>108</ele>
        <time>2024-02-04T13:10:15Z</time>
      </trkpt>
      <trkpt lat="49.13911" lon="1.95723">
        <ele>108.2</ele>
        <time>2024-02-04T13:10:20Z</time>
      </trkpt>
      <trkpt lat="49.13903" lon="1.95717">
        <ele>108.5</ele>
        <time>2024-02-04T13:10:26Z</time>
      </trkpt>
      <trkpt lat="49.13894" lon="1.95712">
        <ele>108.8</ele>
        <time>2024-02-04T13:10:32Z</time>
      </trkpt>
      <trkpt lat="49.13888" lon="1.95708">
        <ele>109</ele>
        <time>2024-02-04T13:10:38Z</time>
      </trkpt>
      <trkpt lat="49.13881" lon="1.95705">
        <ele>109</ele>
        <time>2024-02-04T13:10:44Z</time>
      </trkpt>
      <trkpt lat="49.13876" lon="1.95702">
        <ele>109</ele>
        <time>2024-02-04T13:10:49Z</time>
      </trkpt>
      <trkpt lat="49.13868" lon="1.95698">
        <ele>109</ele>
        <time>2024-02-04T13:10:55Z</time>
      </trkpt>
      <trkpt lat="49.13864" lon="1.95693">
        <ele>109</ele>
        <time>2024-02-04T13:11:01Z</time>
      </trkpt>
      <trkpt lat="49.13858" lon="1.95689">
        <ele>109.1</ele>
        <time>2024-02-04T13:11:06Z</time>
      </trkpt>
      <trkpt lat="49.13852" lon="1.95686">
        <ele>109.3</ele>
        <time>2024-02-04T13:11:11Z</time>
      </trkpt>
      <trkpt lat="49.13845" lon="1.9568">
        <ele>109.6</ele>
        <time>2024-02-04T13:11:17Z</time>
      </trkpt>
      <trkpt lat="49.13836" lon="1.95675">
        <ele>109.9</ele>
        <time>2024-02-04T13:11:23Z</time>
      </trkpt>
      <trkpt lat="49.1383" lon="1.95671">
        <ele>110</ele>
        <time>2024-02-04T13:11:29Z</time>
      </trkpt>
      <trkpt lat="49.13822" lon="1.95666">
        <ele>110</ele>
        <time>2024-02-04T13:11:34Z</time>
      </trkpt>
      <trkpt lat="49.13815" lon="1.95664">
        <ele>110</ele>
        <time>2024-02-04T13:11:40Z</time>
      </trkpt>
      <trkpt lat="49.1381" lon="1.95658">
        <ele>110</ele>
        <time>2024-02-04T13:11:46Z</time>
      </trkpt>
      <trkpt lat="49.13803" lon="1.95654">
        <ele>110</ele>
        <time>2024-02-04T13:11:51Z</time>
      </trkpt>
      <trkpt lat="49.13797" lon="1.95648">
        <ele>110</ele>
        <time>2024-02-04T13:11:56Z</time>
      </trkpt>
      <trkpt lat="49.1379" lon="1.95644">
        <ele>110</ele>
        <time>2024-02-04T13:12:02Z</time>
      </trkpt>
      <trkpt lat="49.13784" lon="1.95639">
        <ele>110</ele>
        <time>2024-02-04T13:12:08Z</time>
      </trkpt>
      <trkpt lat="49.13778" lon="1.95635">
        <ele>110</ele>
        <time>2024-02-04T13:12:14Z</time>
      </trkpt>
      <trkpt lat="49.13768" lon="1.95633">
        <ele>110.3</ele>
        <time>2024-02-04T13:12:20Z</time>
      </trkpt>
      <trkpt lat="49.13762" lon="1.95629">
        <ele>110.4</ele>
        <time>2024-02-04T13:12:25Z</time>
      </trkpt>
      <trkpt lat="49.13757" lon="1.95621">
        <ele>110.3</ele>
        <time>2024-02-04T13:12:31Z</time>
      </trkpt>
      <trkpt lat="49.13751" lon="1.95614">
        <ele>110.1</ele>
        <time>2024-02-04T13:12:36Z</time>
      </trkpt>
      <trkpt lat="49.13742" lon="1.95607">
        <ele>110</ele>
        <time>2024-02-04T13:12:42Z</time>
      </trkpt>
      <trkpt lat="49.13736" lon="1.95603">
        <ele>110</ele>
        <time>2024-02-04T13:12:47Z</time>
      </trkpt>
      <trkpt lat="49.13729" lon="1.95596">
        <ele>110</ele>
        <time>2024-02-04T13:12:53Z</time>
      </trkpt>
      <trkpt lat="49.13723" lon="1.95591">
        <ele>110</ele>
        <time>2024-02-04T13:12:58Z</time>
      </trkpt>
      <trkpt lat="49.13716" lon="1.95587">
        <ele>110</ele>
        <time>2024-02-04T13:13:04Z</time>
      </trkpt>
      <trkpt lat="49.13711" lon="1.95584">
        <ele>110</ele>
        <time>2024-02-04T13:13:09Z</time>
      </trkpt>
      <trkpt lat="49.13703" lon="1.95577">
        <ele>109.8</ele>
        <time>2024-02-04T13:13:15Z</time>
      </trkpt>
      <trkpt lat="49.13695" lon="1.9557">
        <ele>109.5</ele>
        <time>2024-02-04T13:13:21Z</time>
      </trkpt>
      <trkpt lat="49.13689" lon="1.95567">
        <ele>109.4</ele>
        <time>2024-02-04T13:13:27Z</time>
      </trkpt>
      <trkpt lat="49.13682" lon="1.95559">
        <ele>109.1</ele>
        <time>2024-02-04T13:13:33Z</time>
      </trkpt>
      <trkpt lat="49.13675" lon="1.95553">
        <ele>109</ele>
        <time>2024-02-04T13:13:39Z</time>
      </trkpt>
      <trkpt lat="49.13669" lon="1.95548">
        <ele>109</ele>
        <time>2024-02-04T13:13:45Z</time>
      </trkpt>
      <trkpt lat="49.13661" lon="1.95544">
        <ele>109</ele>
        <time>2024-02-04T13:13:51Z</time>
      </trkpt>
      <trkpt lat="49.13652" lon="1.95538">
        <ele>109</ele>
        <time>2024-02-04T13:13:57Z</time>
      </trkpt>
      <trkpt lat="49.13646" lon="1.95533">
        <ele>109</ele>
        <time>2024-02-04T13:14:02Z</time>
      </trkpt>
      <trkpt lat="49.1364" lon="1.95529">
        <ele>109</ele>
        <time>2024-02-04T13:14:07Z</time>
      </trkpt>
      <trkpt lat="49.13632" lon="1.95522">
        <ele>108.8</ele>
        <time>2024-02-04T13:14:13Z</time>
      </trkpt>
      <trkpt lat="49.13625" lon="1.95518">
        <ele>108.6</ele>
        <time>2024-02-04T13:14:18Z</time>
      </trkpt>
      <trkpt lat="49.13617" lon="1.95515">
        <ele>108.5</ele>
        <time>2024-02-04T13:14:24Z</time>
      </trkpt>
      <trkpt lat="49.13611" lon="1.9551">
        <ele>108.4</ele>
        <time>2024-02-04T13:14:30Z</time>
      </trkpt>
      <trkpt lat="49.13604" lon="1.95507">
        <ele>108.3</ele>
        <time>2024-02-04T13:14:36Z</time>
      </trkpt>
      <trkpt lat="49.13596" lon="1.95503">
        <ele>108.1</ele>
        <time>2024-02-04T13:14:41Z</time>
      </trkpt>
      <trkpt lat="49.13589" lon="1.95499">
        <ele>108</ele>
        <time>2024-02-04T13:14:47Z</time>
      </trkpt>
      <trkpt lat="49.13582" lon="1.95496">
        <ele>107.9</ele>
        <time>2024-02-04T13:14:53Z</time>
      </trkpt>
      <trkpt lat="49.13575" lon="1.95492">
        <ele>107.7</ele>
        <time>2024-02-04T13:14:59Z</time>
      </trkpt>
      <trkpt lat="49.13567" lon="1.95488">
        <ele>107.6</ele>
        <time>2024-02-04T13:15:04Z</time>
      </trkpt>
      <trkpt lat="49.13558" lon="1.95484">
        <ele>107.4</ele>
        <time>2024-02-04T13:15:10Z</time>
      </trkpt>
      <trkpt lat="49.13551" lon="1.95481">
        <ele>107.3</ele>
        <time>2024-02-04T13:15:16Z</time>
      </trkpt>
      <trkpt lat="49.13545" lon="1.95478">
        <ele>107.2</ele>
        <time>2024-02-04T13:15:22Z</time>
      </trkpt>
      <trkpt lat="49.13539" lon="1.95472">
        <ele>107</ele>
        <time>2024-02-04T13:15:27Z</time>
      </trkpt>
      <trkpt lat="49.13533" lon="1.95465">
        <ele>106.8</ele>
        <time>2024-02-04T13:15:32Z</time>
      </trkpt>
      <trkpt lat="49.13524" lon="1.95457">
        <ele>106.3</ele>
        <time>2024-02-04T13:15:38Z</time>
      </trkpt>
      <trkpt lat="49.13516" lon="1.95453">
        <ele>105.9</ele>
        <time>2024-02-04T13:15:44Z</time>
      </trkpt>
      <trkpt lat="49.13511" lon="1.95449">
        <ele>105.6</ele>
        <time>2024-02-04T13:15:49Z</time>
      </trkpt>
      <trkpt lat="49.13504" lon="1.95442">
        <ele>105.1</ele>
        <time>2024-02-04T13:15:55Z</time>
      </trkpt>
      <trkpt lat="49.13497" lon="1.95435">
        <ele>105</ele>
        <time>2024-02-04T13:16:01Z</time>
      </trkpt>
      <trkpt lat="49.1349" lon="1.95428">
        <ele>104.8</ele>
        <time>2024-02-04T13:16:07Z</time>
      </trkpt>
      <trkpt lat="49.13483" lon="1.95421">
        <ele>104.5</ele>
        <time>2024-02-04T13:16:13Z</time>
      </trkpt>
      <trkpt lat="49.13477" lon="1.95415">
        <ele>104.1</ele>
        <time>2024-02-04T13:16:18Z</time>
      </trkpt>
      <trkpt lat="49.13469" lon="1.9541">
        <ele>103.7</ele>
        <time>2024-02-04T13:16:24Z</time>
      </trkpt>
      <trkpt lat="49.13464" lon="1.95405">
        <ele>103.5</ele>
        <time>2024-02-04T13:16:29Z</time>
      </trkpt>
      <trkpt lat="49.13458" lon="1.954">
        <ele>103.1</ele>
        <time>2024-02-04T13:16:34Z</time>
      </trkpt>
      <trkpt lat="49.13452" lon="1.95393">
        <ele>102.5</ele>
        <time>2024-02-04T13:16:39Z</time>
      </trkpt>
      <trkpt lat="49.13445" lon="1.95386">
        <ele>101.9</ele>
        <time>2024-02-04T13:16:45Z</time>
      </trkpt>
      <trkpt lat="49.13439" lon="1.95381">
        <ele>101.7</ele>
        <time>2024-02-04T13:16:50Z</time>
      </trkpt>
      <trkpt lat="49.13433" lon="1.95376">
        <ele>101.4</ele>
        <time>2024-02-04T13:16:56Z</time>
      </trkpt>
      <trkpt lat="49.13428" lon="1.95371">
        <ele>101</ele>
        <time>2024-02-04T13:17:01Z</time>
      </trkpt>
      <trkpt lat="49.1342" lon="1.95364">
        <ele>100.3</ele>
        <time>2024-02-04T13:17:07Z</time>
      </trkpt>
      <trkpt lat="49.13413" lon="1.95358">
        <ele>100</ele>
        <time>2024-02-04T13:17:12Z</time>
      </trkpt>
      <trkpt lat="49.13407" lon="1.95352">
        <ele>99.9</ele>
        <time>2024-02-04T13:17:17Z</time>
      </trkpt>
      <trkpt lat="49.13401" lon="1.95346">
        <ele>99.7</ele>
        <time>2024-02-04T13:17:23Z</time>
      </trkpt>
      <trkpt lat="49.13393" lon="1.9534">
        <ele>99.3</ele>
        <time>2024-02-04T13:17:29Z</time>
      </trkpt>
      <trkpt lat="49.13385" lon="1.95332">
        <ele>98.8</ele>
        <time>2024-02-04T13:17:35Z</time>
      </trkpt>
      <trkpt lat="49.1338" lon="1.95327">
        <ele>98.4</ele>
        <time>2024-02-04T13:17:40Z</time>
      </trkpt>
      <trkpt lat="49.13376" lon="1.95321">
        <ele>98.1</ele>
        <time>2024-02-04T13:17:45Z</time>
      </trkpt>
      <trkpt lat="49.13371" lon="1.95315">
        <ele>97.7</ele>
        <time>2024-02-04T13:17:51Z</time>
      </trkpt>
      <trkpt lat="49.13365" lon="1.95308">
        <ele>97.2</ele>
        <time>2024-02-04T13:17:56Z</time>
      </trkpt>
      <trkpt lat="49.13357" lon="1.95302">
        <ele>96.9</ele>
        <time>2024-02-04T13:18:02Z</time>
      </trkpt>
      <trkpt lat="49.13351" lon="1.95298">
        <ele>96.6</ele>
        <time>2024-02-04T13:18:07Z</time>
      </trkpt>
      <trkpt lat="49.13345" lon="1.95294">
        <ele>96.3</ele>
        <time>2024-02-04T13:18:13Z</time>
      </trkpt>
      <trkpt lat="49.13337" lon="1.95289">
        <ele>95.9</ele>
        <time>2024-02-04T13:18:19Z</time>
      </trkpt>
      <trkpt lat="49.13329" lon="1.95288">
        <ele>95.7</ele>
        <time>2024-02-04T13:18:24Z</time>
      </trkpt>
      <trkpt lat="49.13321" lon="1.95291">
        <ele>95.7</ele>
        <time>2024-02-04T13:18:30Z</time>
      </trkpt>
      <trkpt lat="49.13316" lon="1.95299">
        <ele>96.1</ele>
        <time>2024-02-04T13:18:36Z</time>
      </trkpt>
      <trkpt lat="49.13312" lon="1.9531">
        <ele>96.4</ele>
        <time>2024-02-04T13:18:42Z</time>
      </trkpt>
      <trkpt lat="49.13308" lon="1.95321">
        <ele>96.6</ele>
        <time>2024-02-04T13:18:48Z</time>
      </trkpt>
      <trkpt lat="49.13305" lon="1.95331">
        <ele>96.9</ele>
        <time>2024-02-04T13:18:53Z</time>
      </trkpt>
      <trkpt lat="49.13301" lon="1.95342">
        <ele>97.2</ele>
        <time>2024-02-04T13:18:59Z</time>
      </trkpt>
      <trkpt lat="49.13298" lon="1.95354">
        <ele>97.5</ele>
        <time>2024-02-04T13:19:05Z</time>
      </trkpt>
      <trkpt lat="49.13295" lon="1.95367">
        <ele>97.7</ele>
        <time>2024-02-04T13:19:11Z</time>
      </trkpt>
      <trkpt lat="49.13293" lon="1.95378">
        <ele>97.8</ele>
        <time>2024-02-04T13:19:16Z</time>
      </trkpt>
      <trkpt lat="49.13292" lon="1.9539">
        <ele>98</ele>
        <time>2024-02-04T13:19:22Z</time>
      </trkpt>
      <trkpt lat="49.1329" lon="1.95402">
        <ele>98.2</ele>
        <time>2024-02-04T13:19:28Z</time>
      </trkpt>
      <trkpt lat="49.13289" lon="1.95412">
        <ele>98.3</ele>
        <time>2024-02-04T13:19:33Z</time>
      </trkpt>
      <trkpt lat="49.13288" lon="1.95425">
        <ele>98.7</ele>
        <time>2024-02-04T13:19:39Z</time>
      </trkpt>
      <trkpt lat="49.13287" lon="1.95435">
        <ele>99</ele>
        <time>2024-02-04T13:19:44Z</time>
      </trkpt>
      <trkpt lat="49.13285" lon="1.95447">
        <ele>99.3</ele>
        <time>2024-02-04T13:19:49Z</time>
      </trkpt>
      <trkpt lat="49.13283" lon="1.95459">
        <ele>99.2</ele>
        <time>2024-02-04T13:19:55Z</time>
      </trkpt>
      <trkpt lat="49.13281" lon="1.95468">
        <ele>99.1</ele>
        <time>2024-02-04T13:20:00Z</time>
      </trkpt>
      <trkpt lat="49.13279" lon="1.95479">
        <ele>99.3</ele>
        <time>2024-02-04T13:20:06Z</time>
      </trkpt>
      <trkpt lat="49.13278" lon="1.9549">
        <ele>99.6</ele>
        <time>2024-02-04T13:20:12Z</time>
      </trkpt>
      <trkpt lat="49.13276" lon="1.95501">
        <ele>100</ele>
        <time>2024-02-04T13:20:18Z</time>
      </trkpt>
      <trkpt lat="49.13273" lon="1.95514">
        <ele>100</ele>
        <time>2024-02-04T13:20:24Z</time>
      </trkpt>
      <trkpt lat="49.13271" lon="1.95524">
        <ele>100</ele>
        <time>2024-02-04T13:20:29Z</time>
      </trkpt>
      <trkpt lat="49.13269" lon="1.95536">
        <ele>100.2</ele>
        <time>2024-02-04T13:20:35Z</time>
      </trkpt>
      <trkpt lat="49.13267" lon="1.95545">
        <ele>100.4</ele>
        <time>2024-02-04T13:20:40Z</time>
      </trkpt>
      <trkpt lat="49.13265" lon="1.95557">
        <ele>100.6</ele>
        <time>2024-02-04T13:20:46Z</time>
      </trkpt>
      <trkpt lat="49.13262" lon="1.9557">
        <ele>100.7</ele>
        <time>2024-02-04T13:20:52Z</time>
      </trkpt>
      <trkpt lat="49.1326" lon="1.9558">
        <ele>100.9</ele>
        <time>2024-02-04T13:20:58Z</time>
      </trkpt>
      <trkpt lat="49.13258" lon="1.95589">
        <ele>101.1</ele>
        <time>2024-02-04T13:21:03Z</time>
      </trkpt>
      <trkpt lat="49.13255" lon="1.95598">
        <ele>101.1</ele>
        <time>2024-02-04T13:21:08Z</time>
      </trkpt>
      <trkpt lat="49.13252" lon="1.95607">
        <ele>101.1</ele>
        <time>2024-02-04T13:21:13Z</time>
      </trkpt>
      <trkpt lat="49.13248" lon="1.95618">
        <ele>101.2</ele>
        <time>2024-02-04T13:21:19Z</time>
      </trkpt>
      <trkpt lat="49.13244" lon="1.95628">
        <ele>101.6</ele>
        <time>2024-02-04T13:21:25Z</time>
      </trkpt>
      <trkpt lat="49.1324" lon="1.95639">
        <ele>102</ele>
        <time>2024-02-04T13:21:31Z</time>
      </trkpt>
      <trkpt lat="49.13237" lon="1.95648">
        <ele>102.3</ele>
        <time>2024-02-04T13:21:37Z</time>
      </trkpt>
      <trkpt lat="49.13236" lon="1.95656">
        <ele>102.6</ele>
        <time>2024-02-04T13:21:42Z</time>
      </trkpt>
      <trkpt lat="49.13236" lon="1.95665">
        <ele>102.9</ele>
        <time>2024-02-04T13:21:47Z</time>
      </trkpt>
      <trkpt lat="49.13235" lon="1.95678">
        <ele>103</ele>
        <time>2024-02-04T13:21:53Z</time>
      </trkpt>
      <trkpt lat="49.13233" lon="1.95687">
        <ele>103</ele>
        <time>2024-02-04T13:21:58Z</time>
      </trkpt>
      <trkpt lat="49.13232" lon="1.957">
        <ele>103.1</ele>
        <time>2024-02-04T13:22:04Z</time>
      </trkpt>
      <trkpt lat="49.1323" lon="1.95708">
        <ele>103.1</ele>
        <time>2024-02-04T13:22:09Z</time>
      </trkpt>
      <trkpt lat="49.13226" lon="1.95718">
        <ele>103.1</ele>
        <time>2024-02-04T13:22:14Z</time>
      </trkpt>
      <trkpt lat="49.13221" lon="1.95729">
        <ele>103.2</ele>
        <time>2024-02-04T13:22:20Z</time>
      </trkpt>
      <trkpt lat="49.13217" lon="1.95739">
        <ele>103.5</ele>
        <time>2024-02-04T13:22:25Z</time>
      </trkpt>
      <trkpt lat="49.13213" lon="1.9575">
        <ele>103.7</ele>
        <time>2024-02-04T13:22:31Z</time>
      </trkpt>
      <trkpt lat="49.1321" lon="1.95761">
        <ele>103.7</ele>
        <time>2024-02-04T13:22:37Z</time>
      </trkpt>
      <trkpt lat="49.13207" lon="1.9577">
        <ele>103.8</ele>
        <time>2024-02-04T13:22:42Z</time>
      </trkpt>
      <trkpt lat="49.13202" lon="1.95781">
        <ele>104</ele>
        <time>2024-02-04T13:22:48Z</time>
      </trkpt>
      <trkpt lat="49.13199" lon="1.9579">
        <ele>104</ele>
        <time>2024-02-04T13:22:53Z</time>
      </trkpt>
      <trkpt lat="49.13196" lon="1.95798">
        <ele>104</ele>
        <time>2024-02-04T13:22:58Z</time>
      </trkpt>
      <trkpt lat="49.13192" lon="1.95809">
        <ele>103.9</ele>
        <time>2024-02-04T13:23:04Z</time>
      </trkpt>
      <trkpt lat="49.13189" lon="1.95819">
        <ele>103.8</ele>
        <time>2024-02-04T13:23:10Z</time>
      </trkpt>
      <trkpt lat="49.13184" lon="1.95826">
        <ele>103.6</ele>
        <time>2024-02-04T13:23:15Z</time>
      </trkpt>
      <trkpt lat="49.13181" lon="1.95835">
        <ele>103.5</ele>
        <time>2024-02-04T13:23:21Z</time>
      </trkpt>
      <trkpt lat="49.13177" lon="1.95844">
        <ele>103.4</ele>
        <time>2024-02-04T13:23:27Z</time>
      </trkpt>
      <trkpt lat="49.13171" lon="1.95851">
        <ele>103.2</ele>
        <time>2024-02-04T13:23:32Z</time>
      </trkpt>
      <trkpt lat="49.13166" lon="1.9586">
        <ele>103</ele>
        <time>2024-02-04T13:23:38Z</time>
      </trkpt>
      <trkpt lat="49.13161" lon="1.95867">
        <ele>103</ele>
        <time>2024-02-04T13:23:43Z</time>
      </trkpt>
      <trkpt lat="49.13157" lon="1.95874">
        <ele>102.8</ele>
        <time>2024-02-04T13:23:48Z</time>
      </trkpt>
      <trkpt lat="49.13152" lon="1.95881">
        <ele>102.6</ele>
        <time>2024-02-04T13:23:54Z</time>
      </trkpt>
      <trkpt lat="49.13146" lon="1.95889">
        <ele>102.3</ele>
        <time>2024-02-04T13:23:59Z</time>
      </trkpt>
      <trkpt lat="49.13141" lon="1.95896">
        <ele>102.1</ele>
        <time>2024-02-04T13:24:04Z</time>
      </trkpt>
      <trkpt lat="49.13137" lon="1.95903">
        <ele>102</ele>
        <time>2024-02-04T13:24:09Z</time>
      </trkpt>
      <trkpt lat="49.13132" lon="1.9591">
        <ele>102</ele>
        <time>2024-02-04T13:24:15Z</time>
      </trkpt>
      <trkpt lat="49.13126" lon="1.95916">
        <ele>102</ele>
        <time>2024-02-04T13:24:21Z</time>
      </trkpt>
      <trkpt lat="49.13124" lon="1.95922">
        <ele>101.9</ele>
        <time>2024-02-04T13:24:26Z</time>
      </trkpt>
      <trkpt lat="49.1312" lon="1.95931">
        <ele>101.7</ele>
        <time>2024-02-04T13:24:31Z</time>
      </trkpt>
      <trkpt lat="49.13114" lon="1.95939">
        <ele>101.3</ele>
        <time>2024-02-04T13:24:37Z</time>
      </trkpt>
      <trkpt lat="49.13109" lon="1.95946">
        <ele>100.9</ele>
        <time>2024-02-04T13:24:42Z</time>
      </trkpt>
      <trkpt lat="49.13104" lon="1.95952">
        <ele>100.7</ele>
        <time>2024-02-04T13:24:48Z</time>
      </trkpt>
      <trkpt lat="49.131" lon="1.95958">
        <ele>100.6</ele>
        <time>2024-02-04T13:24:54Z</time>
      </trkpt>
      <trkpt lat="49.13094" lon="1.95968">
        <ele>100.4</ele>
        <time>2024-02-04T13:24:59Z</time>
      </trkpt>
      <trkpt lat="49.13088" lon="1.95978">
        <ele>100.2</ele>
        <time>2024-02-04T13:25:05Z</time>
      </trkpt>
      <trkpt lat="49.13082" lon="1.95986">
        <ele>100</ele>
        <time>2024-02-04T13:25:11Z</time>
      </trkpt>
      <trkpt lat="49.13075" lon="1.95995">
        <ele>100</ele>
        <time>2024-02-04T13:25:17Z</time>
      </trkpt>
      <trkpt lat="49.13071" lon="1.96002">
        <ele>100</ele>
        <time>2024-02-04T13:25:22Z</time>
      </trkpt>
      <trkpt lat="49.13065" lon="1.9601">
        <ele>99.7</ele>
        <time>2024-02-04T13:25:28Z</time>
      </trkpt>
      <trkpt lat="49.13058" lon="1.9602">
        <ele>99.4</ele>
        <time>2024-02-04T13:25:34Z</time>
      </trkpt>
      <trkpt lat="49.13053" lon="1.96024">
        <ele>99.1</ele>
        <time>2024-02-04T13:25:39Z</time>
      </trkpt>
      <trkpt lat="49.13048" lon="1.96032">
        <ele>99</ele>
        <time>2024-02-04T13:25:45Z</time>
      </trkpt>
      <trkpt lat="49.13043" lon="1.96041">
        <ele>98.8</ele>
        <time>2024-02-04T13:25:50Z</time>
      </trkpt>
      <trkpt lat="49.13037" lon="1.96047">
        <ele>98.5</ele>
        <time>2024-02-04T13:25:55Z</time>
      </trkpt>
      <trkpt lat="49.13032" lon="1.96051">
        <ele>98.3</ele>
        <time>2024-02-04T13:26:01Z</time>
      </trkpt>
      <trkpt lat="49.13026" lon="1.96052">
        <ele>98.1</ele>
        <time>2024-02-04T13:26:06Z</time>
      </trkpt>
      <trkpt lat="49.13026" lon="1.9606">
        <ele>98</ele>
        <time>2024-02-04T13:26:11Z</time>
      </trkpt>
      <trkpt lat="49.13024" lon="1.96064">
        <ele>98</ele>
        <time>2024-02-04T13:26:17Z</time>
      </trkpt>
      <trkpt lat="49.13021" lon="1.96069">
        <ele>97.9</ele>
        <time>2024-02-04T13:26:22Z</time>
      </trkpt>
      <trkpt lat="49.13014" lon="1.96079">
        <ele>97.6</ele>
        <time>2024-02-04T13:26:28Z</time>
      </trkpt>
      <trkpt lat="49.1301" lon="1.96087">
        <ele>97.3</ele>
        <time>2024-02-04T13:26:33Z</time>
      </trkpt>
      <trkpt lat="49.13004" lon="1.96095">
        <ele>97.1</ele>
        <time>2024-02-04T13:26:39Z</time>
      </trkpt>
      <trkpt lat="49.12999" lon="1.96102">
        <ele>97</ele>
        <time>2024-02-04T13:26:44Z</time>
      </trkpt>
      <trkpt lat="49.12993" lon="1.96111">
        <ele>97</ele>
        <time>2024-02-04T13:26:50Z</time>
      </trkpt>
      <trkpt lat="49.12991" lon="1.96119">
        <ele>96.9</ele>
        <time>2024-02-04T13:26:55Z</time>
      </trkpt>
      <trkpt lat="49.12989" lon="1.96127">
        <ele>96.8</ele>
        <time>2024-02-04T13:27:01Z</time>
      </trkpt>
      <trkpt lat="49.12985" lon="1.96133">
        <ele>96.6</ele>
        <time>2024-02-04T13:27:06Z</time>
      </trkpt>
      <trkpt lat="49.12981" lon="1.96138">
        <ele>96.3</ele>
        <time>2024-02-04T13:27:11Z</time>
      </trkpt>
      <trkpt lat="49.12976" lon="1.96143">
        <ele>96.1</ele>
        <time>2024-02-04T13:27:16Z</time>
      </trkpt>
      <trkpt lat="49.12975" lon="1.96143">
        <ele>96.1</ele>
        <time>2024-02-04T13:27:21Z</time>
      </trkpt>
      <trkpt lat="49.1297" lon="1.9615">
        <ele>96</ele>
        <time>2024-02-04T13:27:27Z</time>
      </trkpt>
      <trkpt lat="49.12964" lon="1.96158">
        <ele>95.8</ele>
        <time>2024-02-04T13:27:33Z</time>
      </trkpt>
      <trkpt lat="49.12959" lon="1.96166">
        <ele>95.5</ele>
        <time>2024-02-04T13:27:39Z</time>
      </trkpt>
      <trkpt lat="49.12957" lon="1.96171">
        <ele>95.4</ele>
        <time>2024-02-04T13:27:44Z</time>
      </trkpt>
      <trkpt lat="49.1295" lon="1.96181">
        <ele>95.2</ele>
        <time>2024-02-04T13:27:50Z</time>
      </trkpt>
      <trkpt lat="49.12946" lon="1.96188">
        <ele>95</ele>
        <time>2024-02-04T13:27:55Z</time>
      </trkpt>
      <trkpt lat="49.12939" lon="1.96195">
        <ele>94.8</ele>
        <time>2024-02-04T13:28:01Z</time>
      </trkpt>
      <trkpt lat="49.12933" lon="1.96203">
        <ele>94.6</ele>
        <time>2024-02-04T13:28:06Z</time>
      </trkpt>
      <trkpt lat="49.12929" lon="1.9621">
        <ele>94.4</ele>
        <time>2024-02-04T13:28:11Z</time>
      </trkpt>
      <trkpt lat="49.12925" lon="1.96218">
        <ele>94.3</ele>
        <time>2024-02-04T13:28:16Z</time>
      </trkpt>
      <trkpt lat="49.12918" lon="1.96227">
        <ele>94</ele>
        <time>2024-02-04T13:28:22Z</time>
      </trkpt>
      <trkpt lat="49.12913" lon="1.96233">
        <ele>93.9</ele>
        <time>2024-02-04T13:28:28Z</time>
      </trkpt>
      <trkpt lat="49.1291" lon="1.9624">
        <ele>93.8</ele>
        <time>2024-02-04T13:28:33Z</time>
      </trkpt>
      <trkpt lat="49.12906" lon="1.96248">
        <ele>93.7</ele>
        <time>2024-02-04T13:28:39Z</time>
      </trkpt>
      <trkpt lat="49.12902" lon="1.96258">
        <ele>93.3</ele>
        <time>2024-02-04T13:28:45Z</time>
      </trkpt>
      <trkpt lat="49.12899" lon="1.96262">
        <ele>93.2</ele>
        <time>2024-02-04T13:28:50Z</time>
      </trkpt>
      <trkpt lat="49.12896" lon="1.96267">
        <ele>93.1</ele>
        <time>2024-02-04T13:28:56Z</time>
      </trkpt>
      <trkpt lat="49.12892" lon="1.96274">
        <ele>93</ele>
        <time>2024-02-04T13:29:02Z</time>
      </trkpt>
      <trkpt lat="49.12887" lon="1.96282">
        <ele>92.8</ele>
        <time>2024-02-04T13:29:07Z</time>
      </trkpt>
      <trkpt lat="49.12881" lon="1.9629">
        <ele>92.6</ele>
        <time>2024-02-04T13:29:13Z</time>
      </trkpt>
      <trkpt lat="49.12874" lon="1.96303">
        <ele>92.1</ele>
        <time>2024-02-04T13:29:21Z</time>
      </trkpt>
      <trkpt lat="49.12872" lon="1.96312">
        <ele>92</ele>
        <time>2024-02-04T13:29:26Z</time>
      </trkpt>
      <trkpt lat="49.1287" lon="1.96322">
        <ele>92</ele>
        <time>2024-02-04T13:29:31Z</time>
      </trkpt>
      <trkpt lat="49.12868" lon="1.96333">
        <ele>92</ele>
        <time>2024-02-04T13:29:37Z</time>
      </trkpt>
      <trkpt lat="49.12866" lon="1.96343">
        <ele>92</ele>
        <time>2024-02-04T13:29:42Z</time>
      </trkpt>
      <trkpt lat="49.12866" lon="1.96349">
        <ele>92</ele>
        <time>2024-02-04T13:29:48Z</time>
      </trkpt>
      <trkpt lat="49.12864" lon="1.96362">
        <ele>92</ele>
        <time>2024-02-04T13:29:54Z</time>
      </trkpt>
      <trkpt lat="49.12864" lon="1.96372">
        <ele>92</ele>
        <time>2024-02-04T13:29:59Z</time>
      </trkpt>
      <trkpt lat="49.12862" lon="1.96383">
        <ele>92</ele>
        <time>2024-02-04T13:30:05Z</time>
      </trkpt>
      <trkpt lat="49.1286" lon="1.96393">
        <ele>92</ele>
        <time>2024-02-04T13:30:10Z</time>
      </trkpt>
      <trkpt lat="49.1286" lon="1.96406">
        <ele>92</ele>
        <time>2024-02-04T13:30:16Z</time>
      </trkpt>
      <trkpt lat="49.12858" lon="1.96416">
        <ele>92</ele>
        <time>2024-02-04T13:30:22Z</time>
      </trkpt>
      <trkpt lat="49.12857" lon="1.96427">
        <ele>92.3</ele>
        <time>2024-02-04T13:30:27Z</time>
      </trkpt>
      <trkpt lat="49.12855" lon="1.96437">
        <ele>92.6</ele>
        <time>2024-02-04T13:30:32Z</time>
      </trkpt>
      <trkpt lat="49.12856" lon="1.96448">
        <ele>92.8</ele>
        <time>2024-02-04T13:30:38Z</time>
      </trkpt>
      <trkpt lat="49.12856" lon="1.9646">
        <ele>92.9</ele>
        <time>2024-02-04T13:30:44Z</time>
      </trkpt>
      <trkpt lat="49.12855" lon="1.96471">
        <ele>93</ele>
        <time>2024-02-04T13:30:50Z</time>
      </trkpt>
      <trkpt lat="49.12856" lon="1.96482">
        <ele>93</ele>
        <time>2024-02-04T13:30:55Z</time>
      </trkpt>
      <trkpt lat="49.12856" lon="1.96496">
        <ele>93</ele>
        <time>2024-02-04T13:31:01Z</time>
      </trkpt>
      <trkpt lat="49.12856" lon="1.96503">
        <ele>93.1</ele>
        <time>2024-02-04T13:31:06Z</time>
      </trkpt>
      <trkpt lat="49.12854" lon="1.96517">
        <ele>93.6</ele>
        <time>2024-02-04T13:31:12Z</time>
      </trkpt>
      <trkpt lat="49.12854" lon="1.96526">
        <ele>93.9</ele>
        <time>2024-02-04T13:31:17Z</time>
      </trkpt>
      <trkpt lat="49.12853" lon="1.96537">
        <ele>94.3</ele>
        <time>2024-02-04T13:31:23Z</time>
      </trkpt>
      <trkpt lat="49.12853" lon="1.96548">
        <ele>94.7</ele>
        <time>2024-02-04T13:31:29Z</time>
      </trkpt>
      <trkpt lat="49.12853" lon="1.96561">
        <ele>95.1</ele>
        <time>2024-02-04T13:31:35Z</time>
      </trkpt>
      <trkpt lat="49.12853" lon="1.9657">
        <ele>95.2</ele>
        <time>2024-02-04T13:31:40Z</time>
      </trkpt>
      <trkpt lat="49.12852" lon="1.96582">
        <ele>95.3</ele>
        <time>2024-02-04T13:31:46Z</time>
      </trkpt>
      <trkpt lat="49.12851" lon="1.9659">
        <ele>95.6</ele>
        <time>2024-02-04T13:31:51Z</time>
      </trkpt>
      <trkpt lat="49.1285" lon="1.96602">
        <ele>96.1</ele>
        <time>2024-02-04T13:31:57Z</time>
      </trkpt>
      <trkpt lat="49.12847" lon="1.96613">
        <ele>96.5</ele>
        <time>2024-02-04T13:32:03Z</time>
      </trkpt>
      <trkpt lat="49.12843" lon="1.96625">
        <ele>96.8</ele>
        <time>2024-02-04T13:32:09Z</time>
      </trkpt>
      <trkpt lat="49.1284" lon="1.96635">
        <ele>97</ele>
        <time>2024-02-04T13:32:15Z</time>
      </trkpt>
      <trkpt lat="49.12838" lon="1.96645">
        <ele>97.2</ele>
        <time>2024-02-04T13:32:20Z</time>
      </trkpt>
      <trkpt lat="49.12835" lon="1.96654">
        <ele>97.5</ele>
        <time>2024-02-04T13:32:25Z</time>
      </trkpt>
      <trkpt lat="49.12834" lon="1.96663">
        <ele>97.8</ele>
        <time>2024-02-04T13:32:30Z</time>
      </trkpt>
      <trkpt lat="49.1283" lon="1.96675">
        <ele>98.4</ele>
        <time>2024-02-04T13:32:36Z</time>
      </trkpt>
      <trkpt lat="49.12827" lon="1.96683">
        <ele>98.7</ele>
        <time>2024-02-04T13:32:42Z</time>
      </trkpt>
      <trkpt lat="49.12825" lon="1.96692">
        <ele>98.9</ele>
        <time>2024-02-04T13:32:47Z</time>
      </trkpt>
      <trkpt lat="49.12821" lon="1.96705">
        <ele>99.4</ele>
        <time>2024-02-04T13:32:53Z</time>
      </trkpt>
      <trkpt lat="49.12819" lon="1.96712">
        <ele>99.6</ele>
        <time>2024-02-04T13:32:58Z</time>
      </trkpt>
      <trkpt lat="49.12817" lon="1.96721">
        <ele>99.9</ele>
        <time>2024-02-04T13:33:03Z</time>
      </trkpt>
      <trkpt lat="49.12814" lon="1.96733">
        <ele>100.4</ele>
        <time>2024-02-04T13:33:09Z</time>
      </trkpt>
      <trkpt lat="49.12812" lon="1.96744">
        <ele>100.8</ele>
        <time>2024-02-04T13:33:15Z</time>
      </trkpt>
      <trkpt lat="49.12809" lon="1.96752">
        <ele>101.1</ele>
        <time>2024-02-04T13:33:20Z</time>
      </trkpt>
      <trkpt lat="49.12807" lon="1.96763">
        <ele>101.4</ele>
        <time>2024-02-04T13:33:26Z</time>
      </trkpt>
      <trkpt lat="49.12806" lon="1.96773">
        <ele>101.8</ele>
        <time>2024-02-04T13:33:32Z</time>
      </trkpt>
      <trkpt lat="49.12803" lon="1.96783">
        <ele>102.3</ele>
        <time>2024-02-04T13:33:37Z</time>
      </trkpt>
      <trkpt lat="49.128" lon="1.96791">
        <ele>102.6</ele>
        <time>2024-02-04T13:33:42Z</time>
      </trkpt>
      <trkpt lat="49.12796" lon="1.96801">
        <ele>102.9</ele>
        <time>2024-02-04T13:33:48Z</time>
      </trkpt>
      <trkpt lat="49.12793" lon="1.9681">
        <ele>103.2</ele>
        <time>2024-02-04T13:33:53Z</time>
      </trkpt>
      <trkpt lat="49.1279" lon="1.9682">
        <ele>103.5</ele>
        <time>2024-02-04T13:33:59Z</time>
      </trkpt>
      <trkpt lat="49.12788" lon="1.96829">
        <ele>103.8</ele>
        <time>2024-02-04T13:34:04Z</time>
      </trkpt>
      <trkpt lat="49.12786" lon="1.96838">
        <ele>104.3</ele>
        <time>2024-02-04T13:34:10Z</time>
      </trkpt>
      <trkpt lat="49.12784" lon="1.96848">
        <ele>104.9</ele>
        <time>2024-02-04T13:34:16Z</time>
      </trkpt>
      <trkpt lat="49.12778" lon="1.96856">
        <ele>105.6</ele>
        <time>2024-02-04T13:34:22Z</time>
      </trkpt>
      <trkpt lat="49.12775" lon="1.96862">
        <ele>106.1</ele>
        <time>2024-02-04T13:34:27Z</time>
      </trkpt>
      <trkpt lat="49.12771" lon="1.96871">
        <ele>106.6</ele>
        <time>2024-02-04T13:34:33Z</time>
      </trkpt>
      <trkpt lat="49.12765" lon="1.9688">
        <ele>107.1</ele>
        <time>2024-02-04T13:34:39Z</time>
      </trkpt>
      <trkpt lat="49.12761" lon="1.96888">
        <ele>107.6</ele>
        <time>2024-02-04T13:34:45Z</time>
      </trkpt>
      <trkpt lat="49.12759" lon="1.96896">
        <ele>107.9</ele>
        <time>2024-02-04T13:34:51Z</time>
      </trkpt>
      <trkpt lat="49.12757" lon="1.96904">
        <ele>108.3</ele>
        <time>2024-02-04T13:34:57Z</time>
      </trkpt>
      <trkpt lat="49.12756" lon="1.96912">
        <ele>108.6</ele>
        <time>2024-02-04T13:35:03Z</time>
      </trkpt>
      <trkpt lat="49.12756" lon="1.96919">
        <ele>108.9</ele>
        <time>2024-02-04T13:35:09Z</time>
      </trkpt>
      <trkpt lat="49.12754" lon="1.96928">
        <ele>109.7</ele>
        <time>2024-02-04T13:35:15Z</time>
      </trkpt>
      <trkpt lat="49.12752" lon="1.96933">
        <ele>110.1</ele>
        <time>2024-02-04T13:35:20Z</time>
      </trkpt>
      <trkpt lat="49.12748" lon="1.96939">
        <ele>110.7</ele>
        <time>2024-02-04T13:35:25Z</time>
      </trkpt>
      <trkpt lat="49.12747" lon="1.96945">
        <ele>111.1</ele>
        <time>2024-02-04T13:35:30Z</time>
      </trkpt>
      <trkpt lat="49.12745" lon="1.96953">
        <ele>111.5</ele>
        <time>2024-02-04T13:35:36Z</time>
      </trkpt>
      <trkpt lat="49.12743" lon="1.96962">
        <ele>112.1</ele>
        <time>2024-02-04T13:35:42Z</time>
      </trkpt>
      <trkpt lat="49.1274" lon="1.96968">
        <ele>112.5</ele>
        <time>2024-02-04T13:35:47Z</time>
      </trkpt>
      <trkpt lat="49.12737" lon="1.96974">
        <ele>113.1</ele>
        <time>2024-02-04T13:35:53Z</time>
      </trkpt>
      <trkpt lat="49.12733" lon="1.96981">
        <ele>113.9</ele>
        <time>2024-02-04T13:35:59Z</time>
      </trkpt>
      <trkpt lat="49.12729" lon="1.96988">
        <ele>114.6</ele>
        <time>2024-02-04T13:36:05Z</time>
      </trkpt>
      <trkpt lat="49.12725" lon="1.96993">
        <ele>115.3</ele>
        <time>2024-02-04T13:36:10Z</time>
      </trkpt>
      <trkpt lat="49.1272" lon="1.96999">
        <ele>116</ele>
        <time>2024-02-04T13:36:16Z</time>
      </trkpt>
      <trkpt lat="49.12717" lon="1.97004">
        <ele>116.3</ele>
        <time>2024-02-04T13:36:21Z</time>
      </trkpt>
      <trkpt lat="49.12715" lon="1.9701">
        <ele>116.6</ele>
        <time>2024-02-04T13:36:27Z</time>
      </trkpt>
      <trkpt lat="49.1271" lon="1.97018">
        <ele>117.1</ele>
        <time>2024-02-04T13:36:33Z</time>
      </trkpt>
      <trkpt lat="49.12705" lon="1.97023">
        <ele>117.5</ele>
        <time>2024-02-04T13:36:39Z</time>
      </trkpt>
      <trkpt lat="49.12699" lon="1.97028">
        <ele>117.8</ele>
        <time>2024-02-04T13:36:45Z</time>
      </trkpt>
      <trkpt lat="49.12695" lon="1.97029">
        <ele>117.9</ele>
        <time>2024-02-04T13:36:50Z</time>
      </trkpt>
      <trkpt lat="49.12694" lon="1.97028">
        <ele>118</ele>
        <time>2024-02-04T13:36:55Z</time>
      </trkpt>
      <trkpt lat="49.12695" lon="1.97029">
        <ele>118</ele>
        <time>2024-02-04T13:37:01Z</time>
      </trkpt>
      <trkpt lat="49.12695" lon="1.97029">
        <ele>117.9</ele>
        <time>2024-02-04T13:37:06Z</time>
      </trkpt>
      <trkpt lat="49.12695" lon="1.9703">
        <ele>117.9</ele>
        <time>2024-02-04T13:37:11Z</time>
      </trkpt>
      <trkpt lat="49.12696" lon="1.9703">
        <ele>117.9</ele>
        <time>2024-02-04T13:37:17Z</time>
      </trkpt>
      <trkpt lat="49.12696" lon="1.97029">
        <ele>117.9</ele>
        <time>2024-02-04T13:37:23Z</time>
      </trkpt>
      <trkpt lat="49.12696" lon="1.97029">
        <ele>117.9</ele>
        <time>2024-02-04T13:37:28Z</time>
      </trkpt>
      <trkpt lat="49.12696" lon="1.97029">
        <ele>117.9</ele>
        <time>2024-02-04T13:37:33Z</time>
      </trkpt>
      <trkpt lat="49.12695" lon="1.97028">
        <ele>118</ele>
        <time>2024-02-04T13:37:39Z</time>
      </trkpt>
      <trkpt lat="49.12695" lon="1.97028">
        <ele>118</ele>
        <time>2024-02-04T13:37:45Z</time>
      </trkpt>
      <trkpt lat="49.12695" lon="1.97028">
        <ele>118</ele>
        <time>2024-02-04T13:37:50Z</time>
      </trkpt>
      <trkpt lat="49.12695" lon="1.97027">
        <ele>118</ele>
        <time>2024-02-04T13:37:55Z</time>
      </trkpt>
      <trkpt lat="49.12694" lon="1.97027">
        <ele>118</ele>
        <time>2024-02-04T13:38:01Z</time>
      </trkpt>
      <trkpt lat="49.12694" lon="1.97027">
        <ele>118</ele>
        <time>2024-02-04T13:38:06Z</time>
      </trkpt>
      <trkpt lat="49.12694" lon="1.97024">
        <ele>117.9</ele>
        <time>2024-02-04T13:38:12Z</time>
      </trkpt>
      <trkpt lat="49.12695" lon="1.97013">
        <ele>117.4</ele>
        <time>2024-02-04T13:38:17Z</time>
      </trkpt>
      <trkpt lat="49.12694" lon="1.97002">
        <ele>117.1</ele>
        <time>2024-02-04T13:38:22Z</time>
      </trkpt>
      <trkpt lat="49.12695" lon="1.9699">
        <ele>116.6</ele>
        <time>2024-02-04T13:38:28Z</time>
      </trkpt>
      <trkpt lat="49.12694" lon="1.96979">
        <ele>116.2</ele>
        <time>2024-02-04T13:38:33Z</time>
      </trkpt>
      <trkpt lat="49.12694" lon="1.96967">
        <ele>115.6</ele>
        <time>2024-02-04T13:38:39Z</time>
      </trkpt>
      <trkpt lat="49.12693" lon="1.96957">
        <ele>115</ele>
        <time>2024-02-04T13:38:44Z</time>
      </trkpt>
      <trkpt lat="49.12692" lon="1.96949">
        <ele>114.4</ele>
        <time>2024-02-04T13:38:50Z</time>
      </trkpt>
      <trkpt lat="49.12691" lon="1.96936">
        <ele>113.6</ele>
        <time>2024-02-04T13:38:55Z</time>
      </trkpt>
      <trkpt lat="49.12689" lon="1.96923">
        <ele>112.8</ele>
        <time>2024-02-04T13:39:01Z</time>
      </trkpt>
      <trkpt lat="49.12688" lon="1.96913">
        <ele>112.3</ele>
        <time>2024-02-04T13:39:06Z</time>
      </trkpt>
      <trkpt lat="49.12686" lon="1.96905">
        <ele>112.2</ele>
        <time>2024-02-04T13:39:11Z</time>
      </trkpt>
      <trkpt lat="49.12684" lon="1.96894">
        <ele>111.9</ele>
        <time>2024-02-04T13:39:17Z</time>
      </trkpt>
      <trkpt lat="49.12682" lon="1.96881">
        <ele>111.5</ele>
        <time>2024-02-04T13:39:23Z</time>
      </trkpt>
      <trkpt lat="49.12681" lon="1.9687">
        <ele>111</ele>
        <time>2024-02-04T13:39:29Z</time>
      </trkpt>
      <trkpt lat="49.1268" lon="1.96858">
        <ele>110.4</ele>
        <time>2024-02-04T13:39:34Z</time>
      </trkpt>
      <trkpt lat="49.1268" lon="1.96849">
        <ele>110.1</ele>
        <time>2024-02-04T13:39:39Z</time>
      </trkpt>
      <trkpt lat="49.12678" lon="1.96838">
        <ele>109.8</ele>
        <time>2024-02-04T13:39:45Z</time>
      </trkpt>
      <trkpt lat="49.12676" lon="1.96826">
        <ele>109.3</ele>
        <time>2024-02-04T13:39:51Z</time>
      </trkpt>
      <trkpt lat="49.12675" lon="1.96818">
        <ele>109</ele>
        <time>2024-02-04T13:39:56Z</time>
      </trkpt>
      <trkpt lat="49.12672" lon="1.96808">
        <ele>108.7</ele>
        <time>2024-02-04T13:40:02Z</time>
      </trkpt>
      <trkpt lat="49.12671" lon="1.968">
        <ele>108.5</ele>
        <time>2024-02-04T13:40:07Z</time>
      </trkpt>
      <trkpt lat="49.12668" lon="1.96788">
        <ele>108.3</ele>
        <time>2024-02-04T13:40:13Z</time>
      </trkpt>
      <trkpt lat="49.12665" lon="1.9678">
        <ele>108.1</ele>
        <time>2024-02-04T13:40:18Z</time>
      </trkpt>
      <trkpt lat="49.12661" lon="1.96768">
        <ele>107.9</ele>
        <time>2024-02-04T13:40:24Z</time>
      </trkpt>
      <trkpt lat="49.12658" lon="1.96757">
        <ele>107.6</ele>
        <time>2024-02-04T13:40:29Z</time>
      </trkpt>
      <trkpt lat="49.12653" lon="1.96744">
        <ele>107.3</ele>
        <time>2024-02-04T13:40:35Z</time>
      </trkpt>
      <trkpt lat="49.12652" lon="1.96734">
        <ele>106.9</ele>
        <time>2024-02-04T13:40:41Z</time>
      </trkpt>
      <trkpt lat="49.1265" lon="1.96723">
        <ele>106.6</ele>
        <time>2024-02-04T13:40:47Z</time>
      </trkpt>
      <trkpt lat="49.12648" lon="1.96712">
        <ele>106.3</ele>
        <time>2024-02-04T13:40:52Z</time>
      </trkpt>
      <trkpt lat="49.12647" lon="1.96702">
        <ele>106</ele>
        <time>2024-02-04T13:40:57Z</time>
      </trkpt>
      <trkpt lat="49.12647" lon="1.96691">
        <ele>105.6</ele>
        <time>2024-02-04T13:41:03Z</time>
      </trkpt>
      <trkpt lat="49.12645" lon="1.96681">
        <ele>105.4</ele>
        <time>2024-02-04T13:41:09Z</time>
      </trkpt>
      <trkpt lat="49.12646" lon="1.96669">
        <ele>105.1</ele>
        <time>2024-02-04T13:41:15Z</time>
      </trkpt>
      <trkpt lat="49.12646" lon="1.96657">
        <ele>104.9</ele>
        <time>2024-02-04T13:41:21Z</time>
      </trkpt>
      <trkpt lat="49.12646" lon="1.96648">
        <ele>104.8</ele>
        <time>2024-02-04T13:41:26Z</time>
      </trkpt>
      <trkpt lat="49.12645" lon="1.96636">
        <ele>104.7</ele>
        <time>2024-02-04T13:41:32Z</time>
      </trkpt>
      <trkpt lat="49.12645" lon="1.96622">
        <ele>104.2</ele>
        <time>2024-02-04T13:41:38Z</time>
      </trkpt>
      <trkpt lat="49.12644" lon="1.96612">
        <ele>103.8</ele>
        <time>2024-02-04T13:41:44Z</time>
      </trkpt>
      <trkpt lat="49.12643" lon="1.96605">
        <ele>103.8</ele>
        <time>2024-02-04T13:41:49Z</time>
      </trkpt>
      <trkpt lat="49.12643" lon="1.9659">
        <ele>103.8</ele>
        <time>2024-02-04T13:41:55Z</time>
      </trkpt>
      <trkpt lat="49.12643" lon="1.9658">
        <ele>103.6</ele>
        <time>2024-02-04T13:42:01Z</time>
      </trkpt>
      <trkpt lat="49.12643" lon="1.96571">
        <ele>103.3</ele>
        <time>2024-02-04T13:42:06Z</time>
      </trkpt>
      <trkpt lat="49.12641" lon="1.96556">
        <ele>102.9</ele>
        <time>2024-02-04T13:42:12Z</time>
      </trkpt>
      <trkpt lat="49.1264" lon="1.96547">
        <ele>102.9</ele>
        <time>2024-02-04T13:42:17Z</time>
      </trkpt>
      <trkpt lat="49.12638" lon="1.96539">
        <ele>103</ele>
        <time>2024-02-04T13:42:23Z</time>
      </trkpt>
      <trkpt lat="49.12639" lon="1.96528">
        <ele>103</ele>
        <time>2024-02-04T13:42:28Z</time>
      </trkpt>
      <trkpt lat="49.12639" lon="1.96518">
        <ele>102.6</ele>
        <time>2024-02-04T13:42:34Z</time>
      </trkpt>
      <trkpt lat="49.12638" lon="1.9651">
        <ele>102.4</ele>
        <time>2024-02-04T13:42:39Z</time>
      </trkpt>
      <trkpt lat="49.12637" lon="1.96499">
        <ele>102.2</ele>
        <time>2024-02-04T13:42:45Z</time>
      </trkpt>
      <trkpt lat="49.12635" lon="1.96487">
        <ele>102</ele>
        <time>2024-02-04T13:42:50Z</time>
      </trkpt>
      <trkpt lat="49.12632" lon="1.96476">
        <ele>101.9</ele>
        <time>2024-02-04T13:42:56Z</time>
      </trkpt>
      <trkpt lat="49.12632" lon="1.96462">
        <ele>101.8</ele>
        <time>2024-02-04T13:43:02Z</time>
      </trkpt>
      <trkpt lat="49.12633" lon="1.96453">
        <ele>101.7</ele>
        <time>2024-02-04T13:43:07Z</time>
      </trkpt>
      <trkpt lat="49.12635" lon="1.96443">
        <ele>101.4</ele>
        <time>2024-02-04T13:43:13Z</time>
      </trkpt>
      <trkpt lat="49.12636" lon="1.96429">
        <ele>100.8</ele>
        <time>2024-02-04T13:43:19Z</time>
      </trkpt>
      <trkpt lat="49.12635" lon="1.96419">
        <ele>100.6</ele>
        <time>2024-02-04T13:43:25Z</time>
      </trkpt>
      <trkpt lat="49.12634" lon="1.96407">
        <ele>100.2</ele>
        <time>2024-02-04T13:43:31Z</time>
      </trkpt>
      <trkpt lat="49.12633" lon="1.96398">
        <ele>100.1</ele>
        <time>2024-02-04T13:43:36Z</time>
      </trkpt>
      <trkpt lat="49.12632" lon="1.9639">
        <ele>100.1</ele>
        <time>2024-02-04T13:43:42Z</time>
      </trkpt>
      <trkpt lat="49.12629" lon="1.96377">
        <ele>99.9</ele>
        <time>2024-02-04T13:43:48Z</time>
      </trkpt>
      <trkpt lat="49.12627" lon="1.96366">
        <ele>99.9</ele>
        <time>2024-02-04T13:43:53Z</time>
      </trkpt>
      <trkpt lat="49.12626" lon="1.96359">
        <ele>99.8</ele>
        <time>2024-02-04T13:43:59Z</time>
      </trkpt>
      <trkpt lat="49.12626" lon="1.96349">
        <ele>99.1</ele>
        <time>2024-02-04T13:44:04Z</time>
      </trkpt>
      <trkpt lat="49.12627" lon="1.96338">
        <ele>98.4</ele>
        <time>2024-02-04T13:44:09Z</time>
      </trkpt>
      <trkpt lat="49.12627" lon="1.96328">
        <ele>97.8</ele>
        <time>2024-02-04T13:44:14Z</time>
      </trkpt>
      <trkpt lat="49.12627" lon="1.96317">
        <ele>97.2</ele>
        <time>2024-02-04T13:44:20Z</time>
      </trkpt>
      <trkpt lat="49.12629" lon="1.96309">
        <ele>96.3</ele>
        <time>2024-02-04T13:44:25Z</time>
      </trkpt>
      <trkpt lat="49.12629" lon="1.963">
        <ele>95.7</ele>
        <time>2024-02-04T13:44:31Z</time>
      </trkpt>
      <trkpt lat="49.12625" lon="1.9629">
        <ele>95.8</ele>
        <time>2024-02-04T13:44:37Z</time>
      </trkpt>
      <trkpt lat="49.12624" lon="1.9628">
        <ele>95.3</ele>
        <time>2024-02-04T13:44:42Z</time>
      </trkpt>
      <trkpt lat="49.12624" lon="1.96269">
        <ele>94.9</ele>
        <time>2024-02-04T13:44:47Z</time>
      </trkpt>
      <trkpt lat="49.12624" lon="1.96258">
        <ele>94.4</ele>
        <time>2024-02-04T13:44:53Z</time>
      </trkpt>
      <trkpt lat="49.12626" lon="1.96246">
        <ele>93.4</ele>
        <time>2024-02-04T13:44:58Z</time>
      </trkpt>
      <trkpt lat="49.1263" lon="1.96232">
        <ele>91.9</ele>
        <time>2024-02-04T13:45:04Z</time>
      </trkpt>
      <trkpt lat="49.12629" lon="1.96224">
        <ele>91.6</ele>
        <time>2024-02-04T13:45:09Z</time>
      </trkpt>
      <trkpt lat="49.1263" lon="1.96214">
        <ele>90.7</ele>
        <time>2024-02-04T13:45:15Z</time>
      </trkpt>
      <trkpt lat="49.1263" lon="1.96204">
        <ele>89.9</ele>
        <time>2024-02-04T13:45:20Z</time>
      </trkpt>
      <trkpt lat="49.12632" lon="1.9619">
        <ele>88.8</ele>
        <time>2024-02-04T13:45:26Z</time>
      </trkpt>
      <trkpt lat="49.12633" lon="1.9618">
        <ele>88.2</ele>
        <time>2024-02-04T13:45:32Z</time>
      </trkpt>
      <trkpt lat="49.12633" lon="1.96169">
        <ele>87.7</ele>
        <time>2024-02-04T13:45:38Z</time>
      </trkpt>
      <trkpt lat="49.12632" lon="1.96158">
        <ele>87.4</ele>
        <time>2024-02-04T13:45:43Z</time>
      </trkpt>
      <trkpt lat="49.12632" lon="1.96147">
        <ele>87</ele>
        <time>2024-02-04T13:45:49Z</time>
      </trkpt>
      <trkpt lat="49.12633" lon="1.96139">
        <ele>86.6</ele>
        <time>2024-02-04T13:45:54Z</time>
      </trkpt>
      <trkpt lat="49.12636" lon="1.96127">
        <ele>85.9</ele>
        <time>2024-02-04T13:46:00Z</time>
      </trkpt>
      <trkpt lat="49.12636" lon="1.96116">
        <ele>85.4</ele>
        <time>2024-02-04T13:46:05Z</time>
      </trkpt>
      <trkpt lat="49.12637" lon="1.96105">
        <ele>85.1</ele>
        <time>2024-02-04T13:46:11Z</time>
      </trkpt>
      <trkpt lat="49.12633" lon="1.96094">
        <ele>85.2</ele>
        <time>2024-02-04T13:46:17Z</time>
      </trkpt>
      <trkpt lat="49.12629" lon="1.96094">
        <ele>85.3</ele>
        <time>2024-02-04T13:46:22Z</time>
      </trkpt>
      <trkpt lat="49.12625" lon="1.96095">
        <ele>85.4</ele>
        <time>2024-02-04T13:46:28Z</time>
      </trkpt>
      <trkpt lat="49.1262" lon="1.96093">
        <ele>85.5</ele>
        <time>2024-02-04T13:46:33Z</time>
      </trkpt>
      <trkpt lat="49.12616" lon="1.96088">
        <ele>85.3</ele>
        <time>2024-02-04T13:46:39Z</time>
      </trkpt>
      <trkpt lat="49.12613" lon="1.96082">
        <ele>84.9</ele>
        <time>2024-02-04T13:46:45Z</time>
      </trkpt>
      <trkpt lat="49.12608" lon="1.96076">
        <ele>84.8</ele>
        <time>2024-02-04T13:46:50Z</time>
      </trkpt>
      <trkpt lat="49.12601" lon="1.96068">
        <ele>85.2</ele>
        <time>2024-02-04T13:46:56Z</time>
      </trkpt>
      <trkpt lat="49.12595" lon="1.96062">
        <ele>85.6</ele>
        <time>2024-02-04T13:47:02Z</time>
      </trkpt>
      <trkpt lat="49.1259" lon="1.96058">
        <ele>86.1</ele>
        <time>2024-02-04T13:47:07Z</time>
      </trkpt>
      <trkpt lat="49.12585" lon="1.96053">
        <ele>86.4</ele>
        <time>2024-02-04T13:47:13Z</time>
      </trkpt>
      <trkpt lat="49.1258" lon="1.96049">
        <ele>86.4</ele>
        <time>2024-02-04T13:47:19Z</time>
      </trkpt>
      <trkpt lat="49.12575" lon="1.96045">
        <ele>86.3</ele>
        <time>2024-02-04T13:47:25Z</time>
      </trkpt>
      <trkpt lat="49.12571" lon="1.96041">
        <ele>86.2</ele>
        <time>2024-02-04T13:47:31Z</time>
      </trkpt>
      <trkpt lat="49.12566" lon="1.96038">
        <ele>86.4</ele>
        <time>2024-02-04T13:47:37Z</time>
      </trkpt>
      <trkpt lat="49.12558" lon="1.96032">
        <ele>87</ele>
        <time>2024-02-04T13:47:43Z</time>
      </trkpt>
      <trkpt lat="49.12551" lon="1.96026">
        <ele>87.5</ele>
        <time>2024-02-04T13:47:48Z</time>
      </trkpt>
      <trkpt lat="49.12542" lon="1.96018">
        <ele>87.7</ele>
        <time>2024-02-04T13:47:54Z</time>
      </trkpt>
      <trkpt lat="49.12536" lon="1.9601">
        <ele>87.7</ele>
        <time>2024-02-04T13:47:59Z</time>
      </trkpt>
      <trkpt lat="49.12532" lon="1.96003">
        <ele>87.6</ele>
        <time>2024-02-04T13:48:04Z</time>
      </trkpt>
      <trkpt lat="49.12526" lon="1.95996">
        <ele>88</ele>
        <time>2024-02-04T13:48:09Z</time>
      </trkpt>
      <trkpt lat="49.12519" lon="1.95988">
        <ele>88.4</ele>
        <time>2024-02-04T13:48:14Z</time>
      </trkpt>
      <trkpt lat="49.12513" lon="1.95979">
        <ele>88.7</ele>
        <time>2024-02-04T13:48:20Z</time>
      </trkpt>
      <trkpt lat="49.12508" lon="1.95968">
        <ele>88.8</ele>
        <time>2024-02-04T13:48:26Z</time>
      </trkpt>
      <trkpt lat="49.12504" lon="1.95962">
        <ele>88.9</ele>
        <time>2024-02-04T13:48:31Z</time>
      </trkpt>
      <trkpt lat="49.12499" lon="1.95955">
        <ele>89.3</ele>
        <time>2024-02-04T13:48:36Z</time>
      </trkpt>
      <trkpt lat="49.12494" lon="1.95948">
        <ele>89.4</ele>
        <time>2024-02-04T13:48:41Z</time>
      </trkpt>
      <trkpt lat="49.12489" lon="1.95939">
        <ele>89.5</ele>
        <time>2024-02-04T13:48:47Z</time>
      </trkpt>
      <trkpt lat="49.12481" lon="1.95928">
        <ele>90.4</ele>
        <time>2024-02-04T13:48:53Z</time>
      </trkpt>
      <trkpt lat="49.12475" lon="1.95919">
        <ele>91.4</ele>
        <time>2024-02-04T13:48:59Z</time>
      </trkpt>
      <trkpt lat="49.12471" lon="1.95911">
        <ele>91.6</ele>
        <time>2024-02-04T13:49:05Z</time>
      </trkpt>
      <trkpt lat="49.12469" lon="1.95906">
        <ele>91.5</ele>
        <time>2024-02-04T13:49:10Z</time>
      </trkpt>
      <trkpt lat="49.12464" lon="1.959">
        <ele>91.5</ele>
        <time>2024-02-04T13:49:15Z</time>
      </trkpt>
      <trkpt lat="49.1246" lon="1.95895">
        <ele>91.6</ele>
        <time>2024-02-04T13:49:20Z</time>
      </trkpt>
      <trkpt lat="49.12452" lon="1.95889">
        <ele>92.1</ele>
        <time>2024-02-04T13:49:26Z</time>
      </trkpt>
      <trkpt lat="49.12445" lon="1.95883">
        <ele>92.8</ele>
        <time>2024-02-04T13:49:32Z</time>
      </trkpt>
      <trkpt lat="49.12436" lon="1.95877">
        <ele>93.1</ele>
        <time>2024-02-04T13:49:38Z</time>
      </trkpt>
      <trkpt lat="49.12429" lon="1.95872">
        <ele>93.5</ele>
        <time>2024-02-04T13:49:44Z</time>
      </trkpt>
      <trkpt lat="49.12423" lon="1.95869">
        <ele>93.9</ele>
        <time>2024-02-04T13:49:50Z</time>
      </trkpt>
      <trkpt lat="49.12417" lon="1.95866">
        <ele>94.2</ele>
        <time>2024-02-04T13:49:55Z</time>
      </trkpt>
      <trkpt lat="49.1241" lon="1.95864">
        <ele>94.5</ele>
        <time>2024-02-04T13:50:01Z</time>
      </trkpt>
      <trkpt lat="49.12406" lon="1.95863">
        <ele>94.8</ele>
        <time>2024-02-04T13:50:06Z</time>
      </trkpt>
      <trkpt lat="49.12406" lon="1.95863">
        <ele>94.8</ele>
        <time>2024-02-04T13:50:11Z</time>
      </trkpt>
      <trkpt lat="49.12401" lon="1.95863">
        <ele>95.2</ele>
        <time>2024-02-04T13:50:17Z</time>
      </trkpt>
      <trkpt lat="49.12395" lon="1.95863">
        <ele>95.6</ele>
        <time>2024-02-04T13:50:22Z</time>
      </trkpt>
      <trkpt lat="49.12386" lon="1.95863">
        <ele>96.2</ele>
        <time>2024-02-04T13:50:28Z</time>
      </trkpt>
      <trkpt lat="49.12376" lon="1.95862">
        <ele>96.5</ele>
        <time>2024-02-04T13:50:34Z</time>
      </trkpt>
      <trkpt lat="49.12367" lon="1.95863">
        <ele>96.8</ele>
        <time>2024-02-04T13:50:39Z</time>
      </trkpt>
      <trkpt lat="49.12358" lon="1.95864">
        <ele>97.1</ele>
        <time>2024-02-04T13:50:45Z</time>
      </trkpt>
      <trkpt lat="49.1235" lon="1.95868">
        <ele>97.1</ele>
        <time>2024-02-04T13:50:51Z</time>
      </trkpt>
      <trkpt lat="49.12342" lon="1.95876">
        <ele>97.2</ele>
        <time>2024-02-04T13:50:57Z</time>
      </trkpt>
      <trkpt lat="49.12337" lon="1.95882">
        <ele>97.1</ele>
        <time>2024-02-04T13:51:02Z</time>
      </trkpt>
      <trkpt lat="49.12331" lon="1.95886">
        <ele>97</ele>
        <time>2024-02-04T13:51:07Z</time>
      </trkpt>
      <trkpt lat="49.12325" lon="1.95893">
        <ele>97</ele>
        <time>2024-02-04T13:51:13Z</time>
      </trkpt>
      <trkpt lat="49.12321" lon="1.95897">
        <ele>97</ele>
        <time>2024-02-04T13:51:18Z</time>
      </trkpt>
      <trkpt lat="49.12313" lon="1.95903">
        <ele>97</ele>
        <time>2024-02-04T13:51:24Z</time>
      </trkpt>
      <trkpt lat="49.12305" lon="1.95908">
        <ele>97</ele>
        <time>2024-02-04T13:51:30Z</time>
      </trkpt>
      <trkpt lat="49.12298" lon="1.95915">
        <ele>97</ele>
        <time>2024-02-04T13:51:35Z</time>
      </trkpt>
      <trkpt lat="49.12293" lon="1.9592">
        <ele>97</ele>
        <time>2024-02-04T13:51:41Z</time>
      </trkpt>
      <trkpt lat="49.12289" lon="1.95924">
        <ele>97</ele>
        <time>2024-02-04T13:51:46Z</time>
      </trkpt>
      <trkpt lat="49.12283" lon="1.9593">
        <ele>97</ele>
        <time>2024-02-04T13:51:52Z</time>
      </trkpt>
      <trkpt lat="49.12278" lon="1.95936">
        <ele>97</ele>
        <time>2024-02-04T13:51:58Z</time>
      </trkpt>
      <trkpt lat="49.12273" lon="1.9594">
        <ele>96.8</ele>
        <time>2024-02-04T13:52:03Z</time>
      </trkpt>
      <trkpt lat="49.12268" lon="1.95945">
        <ele>96.6</ele>
        <time>2024-02-04T13:52:09Z</time>
      </trkpt>
      <trkpt lat="49.12263" lon="1.95948">
        <ele>96.5</ele>
        <time>2024-02-04T13:52:15Z</time>
      </trkpt>
      <trkpt lat="49.12256" lon="1.95952">
        <ele>96.2</ele>
        <time>2024-02-04T13:52:20Z</time>
      </trkpt>
      <trkpt lat="49.1225" lon="1.95957">
        <ele>96</ele>
        <time>2024-02-04T13:52:26Z</time>
      </trkpt>
      <trkpt lat="49.12245" lon="1.95963">
        <ele>95.6</ele>
        <time>2024-02-04T13:52:31Z</time>
      </trkpt>
      <trkpt lat="49.12238" lon="1.95968">
        <ele>95.1</ele>
        <time>2024-02-04T13:52:37Z</time>
      </trkpt>
      <trkpt lat="49.1223" lon="1.95974">
        <ele>94.6</ele>
        <time>2024-02-04T13:52:43Z</time>
      </trkpt>
      <trkpt lat="49.12224" lon="1.95979">
        <ele>94.1</ele>
        <time>2024-02-04T13:52:48Z</time>
      </trkpt>
      <trkpt lat="49.12218" lon="1.95984">
        <ele>93.6</ele>
        <time>2024-02-04T13:52:54Z</time>
      </trkpt>
      <trkpt lat="49.12213" lon="1.95989">
        <ele>93.2</ele>
        <time>2024-02-04T13:52:59Z</time>
      </trkpt>
      <trkpt lat="49.12209" lon="1.95998">
        <ele>92.6</ele>
        <time>2024-02-04T13:53:05Z</time>
      </trkpt>
      <trkpt lat="49.12206" lon="1.96008">
        <ele>92.2</ele>
        <time>2024-02-04T13:53:10Z</time>
      </trkpt>
      <trkpt lat="49.12203" lon="1.96019">
        <ele>91.7</ele>
        <time>2024-02-04T13:53:16Z</time>
      </trkpt>
      <trkpt lat="49.122" lon="1.9603">
        <ele>91.4</ele>
        <time>2024-02-04T13:53:21Z</time>
      </trkpt>
      <trkpt lat="49.12196" lon="1.96044">
        <ele>91.1</ele>
        <time>2024-02-04T13:53:27Z</time>
      </trkpt>
      <trkpt lat="49.12192" lon="1.96052">
        <ele>90.8</ele>
        <time>2024-02-04T13:53:33Z</time>
      </trkpt>
      <trkpt lat="49.12188" lon="1.96058">
        <ele>90.3</ele>
        <time>2024-02-04T13:53:38Z</time>
      </trkpt>
      <trkpt lat="49.12183" lon="1.96068">
        <ele>89.8</ele>
        <time>2024-02-04T13:53:44Z</time>
      </trkpt>
      <trkpt lat="49.1218" lon="1.96074">
        <ele>89.5</ele>
        <time>2024-02-04T13:53:49Z</time>
      </trkpt>
      <trkpt lat="49.12175" lon="1.96082">
        <ele>88.9</ele>
        <time>2024-02-04T13:53:55Z</time>
      </trkpt>
      <trkpt lat="49.1217" lon="1.9609">
        <ele>88.1</ele>
        <time>2024-02-04T13:54:00Z</time>
      </trkpt>
      <trkpt lat="49.12164" lon="1.96098">
        <ele>87.2</ele>
        <time>2024-02-04T13:54:05Z</time>
      </trkpt>
      <trkpt lat="49.12159" lon="1.96106">
        <ele>86.3</ele>
        <time>2024-02-04T13:54:11Z</time>
      </trkpt>
      <trkpt lat="49.12155" lon="1.96114">
        <ele>85.7</ele>
        <time>2024-02-04T13:54:16Z</time>
      </trkpt>
      <trkpt lat="49.1215" lon="1.96122">
        <ele>85.2</ele>
        <time>2024-02-04T13:54:22Z</time>
      </trkpt>
      <trkpt lat="49.12149" lon="1.96128">
        <ele>85.1</ele>
        <time>2024-02-04T13:54:27Z</time>
      </trkpt>
      <trkpt lat="49.12145" lon="1.96136">
        <ele>84.7</ele>
        <time>2024-02-04T13:54:32Z</time>
      </trkpt>
      <trkpt lat="49.12141" lon="1.96146">
        <ele>84.2</ele>
        <time>2024-02-04T13:54:38Z</time>
      </trkpt>
      <trkpt lat="49.12138" lon="1.96153">
        <ele>83.8</ele>
        <time>2024-02-04T13:54:43Z</time>
      </trkpt>
      <trkpt lat="49.12134" lon="1.96162">
        <ele>83.3</ele>
        <time>2024-02-04T13:54:49Z</time>
      </trkpt>
      <trkpt lat="49.1213" lon="1.9617">
        <ele>82.8</ele>
        <time>2024-02-04T13:54:54Z</time>
      </trkpt>
      <trkpt lat="49.12125" lon="1.96179">
        <ele>82.3</ele>
        <time>2024-02-04T13:54:59Z</time>
      </trkpt>
      <trkpt lat="49.12121" lon="1.96187">
        <ele>81.9</ele>
        <time>2024-02-04T13:55:05Z</time>
      </trkpt>
      <trkpt lat="49.12118" lon="1.96195">
        <ele>81.8</ele>
        <time>2024-02-04T13:55:11Z</time>
      </trkpt>
      <trkpt lat="49.12114" lon="1.96202">
        <ele>81</ele>
        <time>2024-02-04T13:55:16Z</time>
      </trkpt>
      <trkpt lat="49.1211" lon="1.96211">
        <ele>80.2</ele>
        <time>2024-02-04T13:55:22Z</time>
      </trkpt>
      <trkpt lat="49.12106" lon="1.96221">
        <ele>78.9</ele>
        <time>2024-02-04T13:55:28Z</time>
      </trkpt>
      <trkpt lat="49.12102" lon="1.96231">
        <ele>78</ele>
        <time>2024-02-04T13:55:34Z</time>
      </trkpt>
      <trkpt lat="49.12099" lon="1.9624">
        <ele>77.3</ele>
        <time>2024-02-04T13:55:40Z</time>
      </trkpt>
      <trkpt lat="49.12097" lon="1.96249">
        <ele>76.9</ele>
        <time>2024-02-04T13:55:45Z</time>
      </trkpt>
      <trkpt lat="49.12095" lon="1.96258">
        <ele>76.3</ele>
        <time>2024-02-04T13:55:50Z</time>
      </trkpt>
      <trkpt lat="49.1209" lon="1.96267">
        <ele>75.1</ele>
        <time>2024-02-04T13:55:56Z</time>
      </trkpt>
      <trkpt lat="49.12085" lon="1.96276">
        <ele>73.6</ele>
        <time>2024-02-04T13:56:02Z</time>
      </trkpt>
      <trkpt lat="49.12082" lon="1.96281">
        <ele>72.6</ele>
        <time>2024-02-04T13:56:07Z</time>
      </trkpt>
      <trkpt lat="49.12077" lon="1.96286">
        <ele>71</ele>
        <time>2024-02-04T13:56:13Z</time>
      </trkpt>
      <trkpt lat="49.1207" lon="1.96293">
        <ele>68.7</ele>
        <time>2024-02-04T13:56:19Z</time>
      </trkpt>
      <trkpt lat="49.12065" lon="1.96303">
        <ele>67</ele>
        <time>2024-02-04T13:56:25Z</time>
      </trkpt>
      <trkpt lat="49.12061" lon="1.96312">
        <ele>65.7</ele>
        <time>2024-02-04T13:56:30Z</time>
      </trkpt>
      <trkpt lat="49.12059" lon="1.96323">
        <ele>64.6</ele>
        <time>2024-02-04T13:56:36Z</time>
      </trkpt>
      <trkpt lat="49.12057" lon="1.96332">
        <ele>63.6</ele>
        <time>2024-02-04T13:56:41Z</time>
      </trkpt>
      <trkpt lat="49.12055" lon="1.96343">
        <ele>62.3</ele>
        <time>2024-02-04T13:56:47Z</time>
      </trkpt>
      <trkpt lat="49.12052" lon="1.96353">
        <ele>61.1</ele>
        <time>2024-02-04T13:56:53Z</time>
      </trkpt>
      <trkpt lat="49.12049" lon="1.96362">
        <ele>59.9</ele>
        <time>2024-02-04T13:56:58Z</time>
      </trkpt>
      <trkpt lat="49.12047" lon="1.96373">
        <ele>59.4</ele>
        <time>2024-02-04T13:57:04Z</time>
      </trkpt>
      <trkpt lat="49.12045" lon="1.96383">
        <ele>59</ele>
        <time>2024-02-04T13:57:09Z</time>
      </trkpt>
      <trkpt lat="49.12042" lon="1.96393">
        <ele>58.5</ele>
        <time>2024-02-04T13:57:15Z</time>
      </trkpt>
      <trkpt lat="49.12042" lon="1.96401">
        <ele>58.3</ele>
        <time>2024-02-04T13:57:20Z</time>
      </trkpt>
      <trkpt lat="49.12042" lon="1.96408">
        <ele>58.2</ele>
        <time>2024-02-04T13:57:26Z</time>
      </trkpt>
      <trkpt lat="49.12046" lon="1.96414">
        <ele>58.3</ele>
        <time>2024-02-04T13:57:32Z</time>
      </trkpt>
      <trkpt lat="49.12047" lon="1.96421">
        <ele>58.4</ele>
        <time>2024-02-04T13:57:37Z</time>
      </trkpt>
      <trkpt lat="49.12049" lon="1.96431">
        <ele>58.5</ele>
        <time>2024-02-04T13:57:42Z</time>
      </trkpt>
      <trkpt lat="49.12052" lon="1.96443">
        <ele>58.7</ele>
        <time>2024-02-04T13:57:48Z</time>
      </trkpt>
      <trkpt lat="49.12056" lon="1.96458">
        <ele>59</ele>
        <time>2024-02-04T13:57:54Z</time>
      </trkpt>
      <trkpt lat="49.12061" lon="1.96474">
        <ele>59.8</ele>
        <time>2024-02-04T13:58:00Z</time>
      </trkpt>
      <trkpt lat="49.12067" lon="1.96489">
        <ele>60.4</ele>
        <time>2024-02-04T13:58:06Z</time>
      </trkpt>
      <trkpt lat="49.12068" lon="1.965">
        <ele>60.3</ele>
        <time>2024-02-04T13:58:12Z</time>
      </trkpt>
      <trkpt lat="49.12067" lon="1.96509">
        <ele>60.1</ele>
        <time>2024-02-04T13:58:18Z</time>
      </trkpt>
      <trkpt lat="49.12065" lon="1.96514">
        <ele>59.8</ele>
        <time>2024-02-04T13:58:23Z</time>
      </trkpt>
      <trkpt lat="49.12062" lon="1.96519">
        <ele>59.6</ele>
        <time>2024-02-04T13:58:29Z</time>
      </trkpt>
      <trkpt lat="49.12059" lon="1.96523">
        <ele>59.3</ele>
        <time>2024-02-04T13:58:35Z</time>
      </trkpt>
      <trkpt lat="49.12055" lon="1.96527">
        <ele>59</ele>
        <time>2024-02-04T13:58:41Z</time>
      </trkpt>
      <trkpt lat="49.12051" lon="1.96529">
        <ele>58.8</ele>
        <time>2024-02-04T13:58:46Z</time>
      </trkpt>
      <trkpt lat="49.12044" lon="1.9653">
        <ele>58.6</ele>
        <time>2024-02-04T13:58:52Z</time>
      </trkpt>
      <trkpt lat="49.12037" lon="1.96532">
        <ele>58.4</ele>
        <time>2024-02-04T13:58:57Z</time>
      </trkpt>
      <trkpt lat="49.12032" lon="1.96533">
        <ele>58.3</ele>
        <time>2024-02-04T13:59:02Z</time>
      </trkpt>
      <trkpt lat="49.12025" lon="1.96537">
        <ele>58.6</ele>
        <time>2024-02-04T13:59:08Z</time>
      </trkpt>
      <trkpt lat="49.12021" lon="1.96537">
        <ele>59.2</ele>
        <time>2024-02-04T13:59:13Z</time>
      </trkpt>
      <trkpt lat="49.12017" lon="1.96535">
        <ele>59.6</ele>
        <time>2024-02-04T13:59:18Z</time>
      </trkpt>
      <trkpt lat="49.1201" lon="1.96531">
        <ele>60.1</ele>
        <time>2024-02-04T13:59:24Z</time>
      </trkpt>
      <trkpt lat="49.12007" lon="1.96527">
        <ele>60.2</ele>
        <time>2024-02-04T13:59:29Z</time>
      </trkpt>
      <trkpt lat="49.12004" lon="1.96522">
        <ele>60.2</ele>
        <time>2024-02-04T13:59:35Z</time>
      </trkpt>
      <trkpt lat="49.12002" lon="1.96517">
        <ele>60.1</ele>
        <time>2024-02-04T13:59:40Z</time>
      </trkpt>
      <trkpt lat="49.11998" lon="1.96513">
        <ele>60.3</ele>
        <time>2024-02-04T13:59:46Z</time>
      </trkpt>
      <trkpt lat="49.11993" lon="1.96507">
        <ele>61</ele>
        <time>2024-02-04T13:59:52Z</time>
      </trkpt>
      <trkpt lat="49.1199" lon="1.96504">
        <ele>61.4</ele>
        <time>2024-02-04T13:59:57Z</time>
      </trkpt>
      <trkpt lat="49.11987" lon="1.965">
        <ele>61.7</ele>
        <time>2024-02-04T14:00:03Z</time>
      </trkpt>
      <trkpt lat="49.11985" lon="1.96495">
        <ele>62.1</ele>
        <time>2024-02-04T14:00:08Z</time>
      </trkpt>
      <trkpt lat="49.11982" lon="1.96491">
        <ele>62.4</ele>
        <time>2024-02-04T14:00:14Z</time>
      </trkpt>
      <trkpt lat="49.11979" lon="1.96488">
        <ele>62.7</ele>
        <time>2024-02-04T14:00:19Z</time>
      </trkpt>
      <trkpt lat="49.11976" lon="1.96483">
        <ele>63.1</ele>
        <time>2024-02-04T14:00:25Z</time>
      </trkpt>
      <trkpt lat="49.1197" lon="1.96478">
        <ele>64</ele>
        <time>2024-02-04T14:00:31Z</time>
      </trkpt>
      <trkpt lat="49.11964" lon="1.96473">
        <ele>65.7</ele>
        <time>2024-02-04T14:00:36Z</time>
      </trkpt>
      <trkpt lat="49.11959" lon="1.9647">
        <ele>67.2</ele>
        <time>2024-02-04T14:00:41Z</time>
      </trkpt>
      <trkpt lat="49.11953" lon="1.96467">
        <ele>68.6</ele>
        <time>2024-02-04T14:00:47Z</time>
      </trkpt>
      <trkpt lat="49.11949" lon="1.96464">
        <ele>69.6</ele>
        <time>2024-02-04T14:00:52Z</time>
      </trkpt>
      <trkpt lat="49.11944" lon="1.96462">
        <ele>70.5</ele>
        <time>2024-02-04T14:00:58Z</time>
      </trkpt>
      <trkpt lat="49.1194" lon="1.96458">
        <ele>71.4</ele>
        <time>2024-02-04T14:01:04Z</time>
      </trkpt>
      <trkpt lat="49.11935" lon="1.96453">
        <ele>72.3</ele>
        <time>2024-02-04T14:01:10Z</time>
      </trkpt>
      <trkpt lat="49.11932" lon="1.96449">
        <ele>73</ele>
        <time>2024-02-04T14:01:16Z</time>
      </trkpt>
      <trkpt lat="49.1193" lon="1.96445">
        <ele>73.3</ele>
        <time>2024-02-04T14:01:22Z</time>
      </trkpt>
      <trkpt lat="49.11927" lon="1.96441">
        <ele>74</ele>
        <time>2024-02-04T14:01:27Z</time>
      </trkpt>
      <trkpt lat="49.11923" lon="1.96438">
        <ele>75.1</ele>
        <time>2024-02-04T14:01:32Z</time>
      </trkpt>
      <trkpt lat="49.11918" lon="1.96433">
        <ele>76.8</ele>
        <time>2024-02-04T14:01:38Z</time>
      </trkpt>
      <trkpt lat="49.11912" lon="1.96429">
        <ele>78</ele>
        <time>2024-02-04T14:01:43Z</time>
      </trkpt>
      <trkpt lat="49.11908" lon="1.96426">
        <ele>78.9</ele>
        <time>2024-02-04T14:01:48Z</time>
      </trkpt>
      <trkpt lat="49.11901" lon="1.96425">
        <ele>80.4</ele>
        <time>2024-02-04T14:01:54Z</time>
      </trkpt>
      <trkpt lat="49.11895" lon="1.96424">
        <ele>81.7</ele>
        <time>2024-02-04T14:02:00Z</time>
      </trkpt>
      <trkpt lat="49.11889" lon="1.96421">
        <ele>83.1</ele>
        <time>2024-02-04T14:02:05Z</time>
      </trkpt>
      <trkpt lat="49.11881" lon="1.96418">
        <ele>83.8</ele>
        <time>2024-02-04T14:02:10Z</time>
      </trkpt>
      <trkpt lat="49.11876" lon="1.96419">
        <ele>84.4</ele>
        <time>2024-02-04T14:02:16Z</time>
      </trkpt>
      <trkpt lat="49.11873" lon="1.9642">
        <ele>84.8</ele>
        <time>2024-02-04T14:02:21Z</time>
      </trkpt>
      <trkpt lat="49.11868" lon="1.9642">
        <ele>85.3</ele>
        <time>2024-02-04T14:02:27Z</time>
      </trkpt>
      <trkpt lat="49.11864" lon="1.96421">
        <ele>85.7</ele>
        <time>2024-02-04T14:02:32Z</time>
      </trkpt>
      <trkpt lat="49.11856" lon="1.96423">
        <ele>86.2</ele>
        <time>2024-02-04T14:02:38Z</time>
      </trkpt>
      <trkpt lat="49.1185" lon="1.96424">
        <ele>86.4</ele>
        <time>2024-02-04T14:02:43Z</time>
      </trkpt>
      <trkpt lat="49.11844" lon="1.96427">
        <ele>86.6</ele>
        <time>2024-02-04T14:02:49Z</time>
      </trkpt>
      <trkpt lat="49.1184" lon="1.9643">
        <ele>86.8</ele>
        <time>2024-02-04T14:02:55Z</time>
      </trkpt>
      <trkpt lat="49.11834" lon="1.96433">
        <ele>87</ele>
        <time>2024-02-04T14:03:00Z</time>
      </trkpt>
      <trkpt lat="49.11828" lon="1.96436">
        <ele>87</ele>
        <time>2024-02-04T14:03:05Z</time>
      </trkpt>
      <trkpt lat="49.1182" lon="1.96436">
        <ele>87</ele>
        <time>2024-02-04T14:03:11Z</time>
      </trkpt>
      <trkpt lat="49.11813" lon="1.96435">
        <ele>87</ele>
        <time>2024-02-04T14:03:17Z</time>
      </trkpt>
      <trkpt lat="49.11806" lon="1.96433">
        <ele>87</ele>
        <time>2024-02-04T14:03:22Z</time>
      </trkpt>
      <trkpt lat="49.118" lon="1.96432">
        <ele>86.8</ele>
        <time>2024-02-04T14:03:27Z</time>
      </trkpt>
      <trkpt lat="49.11796" lon="1.96433">
        <ele>86.6</ele>
        <time>2024-02-04T14:03:32Z</time>
      </trkpt>
      <trkpt lat="49.1179" lon="1.96433">
        <ele>86.4</ele>
        <time>2024-02-04T14:03:38Z</time>
      </trkpt>
      <trkpt lat="49.11784" lon="1.96433">
        <ele>86.2</ele>
        <time>2024-02-04T14:03:43Z</time>
      </trkpt>
      <trkpt lat="49.11777" lon="1.96435">
        <ele>86</ele>
        <time>2024-02-04T14:03:49Z</time>
      </trkpt>
      <trkpt lat="49.11773" lon="1.96436">
        <ele>85.8</ele>
        <time>2024-02-04T14:03:54Z</time>
      </trkpt>
      <trkpt lat="49.11768" lon="1.96435">
        <ele>85.6</ele>
        <time>2024-02-04T14:04:00Z</time>
      </trkpt>
      <trkpt lat="49.11763" lon="1.96435">
        <ele>85.5</ele>
        <time>2024-02-04T14:04:06Z</time>
      </trkpt>
      <trkpt lat="49.11759" lon="1.96437">
        <ele>85.3</ele>
        <time>2024-02-04T14:04:12Z</time>
      </trkpt>
      <trkpt lat="49.11755" lon="1.96439">
        <ele>85.2</ele>
        <time>2024-02-04T14:04:17Z</time>
      </trkpt>
      <trkpt lat="49.11749" lon="1.96439">
        <ele>84.9</ele>
        <time>2024-02-04T14:04:22Z</time>
      </trkpt>
      <trkpt lat="49.11743" lon="1.96439">
        <ele>84.3</ele>
        <time>2024-02-04T14:04:28Z</time>
      </trkpt>
      <trkpt lat="49.11737" lon="1.96439">
        <ele>83.6</ele>
        <time>2024-02-04T14:04:33Z</time>
      </trkpt>
      <trkpt lat="49.11731" lon="1.96441">
        <ele>83</ele>
        <time>2024-02-04T14:04:38Z</time>
      </trkpt>
      <trkpt lat="49.11724" lon="1.96443">
        <ele>82.3</ele>
        <time>2024-02-04T14:04:44Z</time>
      </trkpt>
      <trkpt lat="49.11715" lon="1.96446">
        <ele>81.2</ele>
        <time>2024-02-04T14:04:49Z</time>
      </trkpt>
      <trkpt lat="49.11707" lon="1.96447">
        <ele>80.3</ele>
        <time>2024-02-04T14:04:54Z</time>
      </trkpt>
      <trkpt lat="49.11699" lon="1.96443">
        <ele>79.5</ele>
        <time>2024-02-04T14:05:00Z</time>
      </trkpt>
      <trkpt lat="49.11686" lon="1.96437">
        <ele>77.9</ele>
        <time>2024-02-04T14:05:06Z</time>
      </trkpt>
      <trkpt lat="49.11681" lon="1.96434">
        <ele>77.2</ele>
        <time>2024-02-04T14:05:11Z</time>
      </trkpt>
      <trkpt lat="49.11678" lon="1.96429">
        <ele>76.9</ele>
        <time>2024-02-04T14:05:16Z</time>
      </trkpt>
      <trkpt lat="49.11673" lon="1.9642">
        <ele>76.6</ele>
        <time>2024-02-04T14:05:22Z</time>
      </trkpt>
      <trkpt lat="49.11669" lon="1.96415">
        <ele>76.3</ele>
        <time>2024-02-04T14:05:28Z</time>
      </trkpt>
      <trkpt lat="49.11666" lon="1.96409">
        <ele>76.3</ele>
        <time>2024-02-04T14:05:33Z</time>
      </trkpt>
      <trkpt lat="49.11662" lon="1.96405">
        <ele>76.1</ele>
        <time>2024-02-04T14:05:38Z</time>
      </trkpt>
      <trkpt lat="49.11655" lon="1.96401">
        <ele>75.7</ele>
        <time>2024-02-04T14:05:44Z</time>
      </trkpt>
      <trkpt lat="49.11649" lon="1.96394">
        <ele>75.1</ele>
        <time>2024-02-04T14:05:49Z</time>
      </trkpt>
      <trkpt lat="49.11642" lon="1.96389">
        <ele>74.3</ele>
        <time>2024-02-04T14:05:55Z</time>
      </trkpt>
      <trkpt lat="49.11636" lon="1.96387">
        <ele>73.9</ele>
        <time>2024-02-04T14:06:00Z</time>
      </trkpt>
      <trkpt lat="49.11628" lon="1.96383">
        <ele>73.4</ele>
        <time>2024-02-04T14:06:06Z</time>
      </trkpt>
      <trkpt lat="49.11623" lon="1.96378">
        <ele>72.8</ele>
        <time>2024-02-04T14:06:12Z</time>
      </trkpt>
      <trkpt lat="49.11617" lon="1.96375">
        <ele>72.2</ele>
        <time>2024-02-04T14:06:17Z</time>
      </trkpt>
      <trkpt lat="49.11611" lon="1.96375">
        <ele>71.9</ele>
        <time>2024-02-04T14:06:23Z</time>
      </trkpt>
      <trkpt lat="49.11606" lon="1.96371">
        <ele>71.7</ele>
        <time>2024-02-04T14:06:28Z</time>
      </trkpt>
      <trkpt lat="49.11599" lon="1.96368">
        <ele>71.5</ele>
        <time>2024-02-04T14:06:33Z</time>
      </trkpt>
      <trkpt lat="49.11593" lon="1.96363">
        <ele>71</ele>
        <time>2024-02-04T14:06:39Z</time>
      </trkpt>
      <trkpt lat="49.11587" lon="1.96363">
        <ele>71.2</ele>
        <time>2024-02-04T14:06:44Z</time>
      </trkpt>
      <trkpt lat="49.11578" lon="1.96361">
        <ele>71.6</ele>
        <time>2024-02-04T14:06:50Z</time>
      </trkpt>
      <trkpt lat="49.11572" lon="1.96357">
        <ele>71.5</ele>
        <time>2024-02-04T14:06:55Z</time>
      </trkpt>
      <trkpt lat="49.11563" lon="1.96355">
        <ele>71.9</ele>
        <time>2024-02-04T14:07:01Z</time>
      </trkpt>
      <trkpt lat="49.11557" lon="1.96352">
        <ele>71.9</ele>
        <time>2024-02-04T14:07:06Z</time>
      </trkpt>
      <trkpt lat="49.11548" lon="1.96352">
        <ele>72.3</ele>
        <time>2024-02-04T14:07:12Z</time>
      </trkpt>
      <trkpt lat="49.11543" lon="1.96351">
        <ele>72.1</ele>
        <time>2024-02-04T14:07:17Z</time>
      </trkpt>
      <trkpt lat="49.11539" lon="1.96353">
        <ele>72.6</ele>
        <time>2024-02-04T14:07:23Z</time>
      </trkpt>
      <trkpt lat="49.11534" lon="1.96357">
        <ele>73.4</ele>
        <time>2024-02-04T14:07:28Z</time>
      </trkpt>
      <trkpt lat="49.11528" lon="1.9636">
        <ele>73.9</ele>
        <time>2024-02-04T14:07:33Z</time>
      </trkpt>
      <trkpt lat="49.11522" lon="1.96362">
        <ele>73.7</ele>
        <time>2024-02-04T14:07:38Z</time>
      </trkpt>
      <trkpt lat="49.11516" lon="1.96365">
        <ele>73.7</ele>
        <time>2024-02-04T14:07:44Z</time>
      </trkpt>
      <trkpt lat="49.1151" lon="1.9637">
        <ele>73.8</ele>
        <time>2024-02-04T14:07:49Z</time>
      </trkpt>
      <trkpt lat="49.11503" lon="1.96376">
        <ele>73.9</ele>
        <time>2024-02-04T14:07:54Z</time>
      </trkpt>
      <trkpt lat="49.11497" lon="1.96382">
        <ele>73.8</ele>
        <time>2024-02-04T14:08:00Z</time>
      </trkpt>
      <trkpt lat="49.11492" lon="1.9639">
        <ele>73.7</ele>
        <time>2024-02-04T14:08:05Z</time>
      </trkpt>
      <trkpt lat="49.11486" lon="1.96397">
        <ele>73.2</ele>
        <time>2024-02-04T14:08:10Z</time>
      </trkpt>
      <trkpt lat="49.11482" lon="1.96404">
        <ele>73</ele>
        <time>2024-02-04T14:08:15Z</time>
      </trkpt>
      <trkpt lat="49.11478" lon="1.96415">
        <ele>73</ele>
        <time>2024-02-04T14:08:21Z</time>
      </trkpt>
      <trkpt lat="49.11474" lon="1.96422">
        <ele>73</ele>
        <time>2024-02-04T14:08:26Z</time>
      </trkpt>
      <trkpt lat="49.11466" lon="1.96428">
        <ele>71.9</ele>
        <time>2024-02-04T14:08:32Z</time>
      </trkpt>
      <trkpt lat="49.11461" lon="1.96435">
        <ele>71.4</ele>
        <time>2024-02-04T14:08:37Z</time>
      </trkpt>
      <trkpt lat="49.11457" lon="1.9644">
        <ele>70.9</ele>
        <time>2024-02-04T14:08:42Z</time>
      </trkpt>
      <trkpt lat="49.11452" lon="1.96446">
        <ele>69.9</ele>
        <time>2024-02-04T14:08:48Z</time>
      </trkpt>
      <trkpt lat="49.11449" lon="1.96455">
        <ele>69.9</ele>
        <time>2024-02-04T14:08:53Z</time>
      </trkpt>
      <trkpt lat="49.11445" lon="1.96464">
        <ele>69.5</ele>
        <time>2024-02-04T14:08:58Z</time>
      </trkpt>
      <trkpt lat="49.11441" lon="1.96475">
        <ele>69.5</ele>
        <time>2024-02-04T14:09:04Z</time>
      </trkpt>
      <trkpt lat="49.11438" lon="1.96483">
        <ele>69.5</ele>
        <time>2024-02-04T14:09:09Z</time>
      </trkpt>
      <trkpt lat="49.11434" lon="1.96492">
        <ele>69.2</ele>
        <time>2024-02-04T14:09:15Z</time>
      </trkpt>
      <trkpt lat="49.1143" lon="1.96497">
        <ele>68.7</ele>
        <time>2024-02-04T14:09:20Z</time>
      </trkpt>
      <trkpt lat="49.11424" lon="1.96504">
        <ele>67.9</ele>
        <time>2024-02-04T14:09:26Z</time>
      </trkpt>
      <trkpt lat="49.11417" lon="1.96514">
        <ele>67.6</ele>
        <time>2024-02-04T14:09:32Z</time>
      </trkpt>
      <trkpt lat="49.11414" lon="1.96521">
        <ele>67.6</ele>
        <time>2024-02-04T14:09:37Z</time>
      </trkpt>
      <trkpt lat="49.11412" lon="1.9653">
        <ele>67.9</ele>
        <time>2024-02-04T14:09:43Z</time>
      </trkpt>
      <trkpt lat="49.11408" lon="1.96539">
        <ele>67.4</ele>
        <time>2024-02-04T14:09:48Z</time>
      </trkpt>
      <trkpt lat="49.11404" lon="1.9655">
        <ele>66.9</ele>
        <time>2024-02-04T14:09:54Z</time>
      </trkpt>
      <trkpt lat="49.11397" lon="1.96559">
        <ele>65.9</ele>
        <time>2024-02-04T14:10:00Z</time>
      </trkpt>
      <trkpt lat="49.11393" lon="1.96569">
        <ele>64.9</ele>
        <time>2024-02-04T14:10:06Z</time>
      </trkpt>
      <trkpt lat="49.11389" lon="1.96578">
        <ele>64</ele>
        <time>2024-02-04T14:10:12Z</time>
      </trkpt>
      <trkpt lat="49.11385" lon="1.96586">
        <ele>63.4</ele>
        <time>2024-02-04T14:10:17Z</time>
      </trkpt>
      <trkpt lat="49.11381" lon="1.96594">
        <ele>62.8</ele>
        <time>2024-02-04T14:10:22Z</time>
      </trkpt>
      <trkpt lat="49.11376" lon="1.96602">
        <ele>62.1</ele>
        <time>2024-02-04T14:10:28Z</time>
      </trkpt>
      <trkpt lat="49.11368" lon="1.96605">
        <ele>61</ele>
        <time>2024-02-04T14:10:33Z</time>
      </trkpt>
      <trkpt lat="49.1136" lon="1.96609">
        <ele>59.9</ele>
        <time>2024-02-04T14:10:39Z</time>
      </trkpt>
      <trkpt lat="49.11356" lon="1.96609">
        <ele>59.4</ele>
        <time>2024-02-04T14:10:45Z</time>
      </trkpt>
      <trkpt lat="49.11351" lon="1.9661">
        <ele>58.9</ele>
        <time>2024-02-04T14:10:50Z</time>
      </trkpt>
      <trkpt lat="49.11342" lon="1.96608">
        <ele>57.9</ele>
        <time>2024-02-04T14:10:56Z</time>
      </trkpt>
      <trkpt lat="49.11334" lon="1.96601">
        <ele>57.1</ele>
        <time>2024-02-04T14:11:02Z</time>
      </trkpt>
      <trkpt lat="49.11335" lon="1.96591">
        <ele>57.2</ele>
        <time>2024-02-04T14:11:08Z</time>
      </trkpt>
      <trkpt lat="49.11335" lon="1.96583">
        <ele>57.1</ele>
        <time>2024-02-04T14:11:13Z</time>
      </trkpt>
      <trkpt lat="49.11334" lon="1.96571">
        <ele>56.6</ele>
        <time>2024-02-04T14:11:19Z</time>
      </trkpt>
      <trkpt lat="49.11333" lon="1.96562">
        <ele>56.2</ele>
        <time>2024-02-04T14:11:24Z</time>
      </trkpt>
      <trkpt lat="49.11331" lon="1.96552">
        <ele>55.7</ele>
        <time>2024-02-04T14:11:30Z</time>
      </trkpt>
      <trkpt lat="49.11332" lon="1.9654">
        <ele>55.3</ele>
        <time>2024-02-04T14:11:36Z</time>
      </trkpt>
      <trkpt lat="49.11329" lon="1.96529">
        <ele>54.8</ele>
        <time>2024-02-04T14:11:42Z</time>
      </trkpt>
      <trkpt lat="49.11327" lon="1.96516">
        <ele>54.5</ele>
        <time>2024-02-04T14:11:48Z</time>
      </trkpt>
      <trkpt lat="49.11327" lon="1.96508">
        <ele>54.4</ele>
        <time>2024-02-04T14:11:53Z</time>
      </trkpt>
      <trkpt lat="49.11326" lon="1.965">
        <ele>54.2</ele>
        <time>2024-02-04T14:11:59Z</time>
      </trkpt>
      <trkpt lat="49.11325" lon="1.96489">
        <ele>53.8</ele>
        <time>2024-02-04T14:12:05Z</time>
      </trkpt>
      <trkpt lat="49.11323" lon="1.96479">
        <ele>53.4</ele>
        <time>2024-02-04T14:12:11Z</time>
      </trkpt>
      <trkpt lat="49.11322" lon="1.96465">
        <ele>53</ele>
        <time>2024-02-04T14:12:17Z</time>
      </trkpt>
      <trkpt lat="49.1132" lon="1.96456">
        <ele>52.7</ele>
        <time>2024-02-04T14:12:23Z</time>
      </trkpt>
      <trkpt lat="49.11317" lon="1.96446">
        <ele>52.5</ele>
        <time>2024-02-04T14:12:28Z</time>
      </trkpt>
      <trkpt lat="49.11314" lon="1.96436">
        <ele>52</ele>
        <time>2024-02-04T14:12:33Z</time>
      </trkpt>
      <trkpt lat="49.1131" lon="1.96425">
        <ele>51.5</ele>
        <time>2024-02-04T14:12:39Z</time>
      </trkpt>
      <trkpt lat="49.11307" lon="1.96416">
        <ele>51</ele>
        <time>2024-02-04T14:12:44Z</time>
      </trkpt>
      <trkpt lat="49.11304" lon="1.96404">
        <ele>51</ele>
        <time>2024-02-04T14:12:50Z</time>
      </trkpt>
      <trkpt lat="49.11302" lon="1.96396">
        <ele>51</ele>
        <time>2024-02-04T14:12:55Z</time>
      </trkpt>
      <trkpt lat="49.11301" lon="1.96388">
        <ele>51</ele>
        <time>2024-02-04T14:13:00Z</time>
      </trkpt>
      <trkpt lat="49.113" lon="1.96377">
        <ele>51</ele>
        <time>2024-02-04T14:13:06Z</time>
      </trkpt>
      <trkpt lat="49.11299" lon="1.96366">
        <ele>51</ele>
        <time>2024-02-04T14:13:12Z</time>
      </trkpt>
      <trkpt lat="49.11291" lon="1.96358">
        <ele>51.1</ele>
        <time>2024-02-04T14:13:18Z</time>
      </trkpt>
      <trkpt lat="49.11283" lon="1.96352">
        <ele>51.3</ele>
        <time>2024-02-04T14:13:24Z</time>
      </trkpt>
      <trkpt lat="49.11276" lon="1.96352">
        <ele>51.4</ele>
        <time>2024-02-04T14:13:30Z</time>
      </trkpt>
      <trkpt lat="49.1127" lon="1.96354">
        <ele>51.6</ele>
        <time>2024-02-04T14:13:36Z</time>
      </trkpt>
      <trkpt lat="49.11265" lon="1.96361">
        <ele>51.5</ele>
        <time>2024-02-04T14:13:42Z</time>
      </trkpt>
      <trkpt lat="49.11258" lon="1.96366">
        <ele>51.7</ele>
        <time>2024-02-04T14:13:48Z</time>
      </trkpt>
      <trkpt lat="49.11253" lon="1.96371">
        <ele>51.9</ele>
        <time>2024-02-04T14:13:53Z</time>
      </trkpt>
      <trkpt lat="49.11247" lon="1.96377">
        <ele>52.1</ele>
        <time>2024-02-04T14:13:59Z</time>
      </trkpt>
      <trkpt lat="49.11241" lon="1.96384">
        <ele>52.3</ele>
        <time>2024-02-04T14:14:05Z</time>
      </trkpt>
      <trkpt lat="49.11232" lon="1.96387">
        <ele>52.6</ele>
        <time>2024-02-04T14:14:11Z</time>
      </trkpt>
      <trkpt lat="49.11225" lon="1.96389">
        <ele>52.9</ele>
        <time>2024-02-04T14:14:16Z</time>
      </trkpt>
      <trkpt lat="49.11218" lon="1.9639">
        <ele>53</ele>
        <time>2024-02-04T14:14:21Z</time>
      </trkpt>
      <trkpt lat="49.11212" lon="1.96391">
        <ele>53</ele>
        <time>2024-02-04T14:14:27Z</time>
      </trkpt>
      <trkpt lat="49.11206" lon="1.96393">
        <ele>52.9</ele>
        <time>2024-02-04T14:14:32Z</time>
      </trkpt>
      <trkpt lat="49.112" lon="1.96391">
        <ele>53</ele>
        <time>2024-02-04T14:14:38Z</time>
      </trkpt>
      <trkpt lat="49.11192" lon="1.96388">
        <ele>53.1</ele>
        <time>2024-02-04T14:14:44Z</time>
      </trkpt>
      <trkpt lat="49.11185" lon="1.96383">
        <ele>54</ele>
        <time>2024-02-04T14:14:50Z</time>
      </trkpt>
      <trkpt lat="49.11182" lon="1.96381">
        <ele>54.3</ele>
        <time>2024-02-04T14:14:55Z</time>
      </trkpt>
      <trkpt lat="49.11175" lon="1.96376">
        <ele>55</ele>
        <time>2024-02-04T14:15:01Z</time>
      </trkpt>
      <trkpt lat="49.1117" lon="1.96373">
        <ele>55.6</ele>
        <time>2024-02-04T14:15:06Z</time>
      </trkpt>
      <trkpt lat="49.11166" lon="1.96369">
        <ele>56.2</ele>
        <time>2024-02-04T14:15:12Z</time>
      </trkpt>
      <trkpt lat="49.1116" lon="1.96365">
        <ele>56.8</ele>
        <time>2024-02-04T14:15:17Z</time>
      </trkpt>
      <trkpt lat="49.1115" lon="1.96362">
        <ele>57.5</ele>
        <time>2024-02-04T14:15:23Z</time>
      </trkpt>
      <trkpt lat="49.11142" lon="1.96358">
        <ele>58.2</ele>
        <time>2024-02-04T14:15:28Z</time>
      </trkpt>
      <trkpt lat="49.11138" lon="1.96355">
        <ele>58.7</ele>
        <time>2024-02-04T14:15:33Z</time>
      </trkpt>
      <trkpt lat="49.11131" lon="1.96352">
        <ele>59.1</ele>
        <time>2024-02-04T14:15:39Z</time>
      </trkpt>
      <trkpt lat="49.11124" lon="1.96352">
        <ele>59.2</ele>
        <time>2024-02-04T14:15:44Z</time>
      </trkpt>
      <trkpt lat="49.11117" lon="1.96351">
        <ele>59.4</ele>
        <time>2024-02-04T14:15:50Z</time>
      </trkpt>
      <trkpt lat="49.11112" lon="1.96351">
        <ele>59.4</ele>
        <time>2024-02-04T14:15:55Z</time>
      </trkpt>
      <trkpt lat="49.11107" lon="1.96352">
        <ele>59.6</ele>
        <time>2024-02-04T14:16:00Z</time>
      </trkpt>
      <trkpt lat="49.111" lon="1.96352">
        <ele>59.9</ele>
        <time>2024-02-04T14:16:06Z</time>
      </trkpt>
      <trkpt lat="49.11094" lon="1.96352">
        <ele>60.3</ele>
        <time>2024-02-04T14:16:11Z</time>
      </trkpt>
      <trkpt lat="49.11085" lon="1.96354">
        <ele>60.7</ele>
        <time>2024-02-04T14:16:17Z</time>
      </trkpt>
      <trkpt lat="49.11077" lon="1.96355">
        <ele>60.8</ele>
        <time>2024-02-04T14:16:23Z</time>
      </trkpt>
      <trkpt lat="49.11071" lon="1.96358">
        <ele>60.8</ele>
        <time>2024-02-04T14:16:28Z</time>
      </trkpt>
      <trkpt lat="49.11065" lon="1.9636">
        <ele>60.7</ele>
        <time>2024-02-04T14:16:33Z</time>
      </trkpt>
      <trkpt lat="49.11057" lon="1.96364">
        <ele>60.9</ele>
        <time>2024-02-04T14:16:39Z</time>
      </trkpt>
      <trkpt lat="49.11051" lon="1.96366">
        <ele>61.2</ele>
        <time>2024-02-04T14:16:44Z</time>
      </trkpt>
      <trkpt lat="49.11044" lon="1.96369">
        <ele>61.4</ele>
        <time>2024-02-04T14:16:50Z</time>
      </trkpt>
      <trkpt lat="49.11038" lon="1.96371">
        <ele>61.6</ele>
        <time>2024-02-04T14:16:55Z</time>
      </trkpt>
      <trkpt lat="49.11031" lon="1.96374">
        <ele>61.9</ele>
        <time>2024-02-04T14:17:01Z</time>
      </trkpt>
      <trkpt lat="49.11023" lon="1.96375">
        <ele>62.1</ele>
        <time>2024-02-04T14:17:07Z</time>
      </trkpt>
      <trkpt lat="49.11016" lon="1.96376">
        <ele>62.2</ele>
        <time>2024-02-04T14:17:12Z</time>
      </trkpt>
      <trkpt lat="49.11008" lon="1.96376">
        <ele>62.3</ele>
        <time>2024-02-04T14:17:18Z</time>
      </trkpt>
      <trkpt lat="49.11" lon="1.96376">
        <ele>62.5</ele>
        <time>2024-02-04T14:17:24Z</time>
      </trkpt>
      <trkpt lat="49.10994" lon="1.96376">
        <ele>62.5</ele>
        <time>2024-02-04T14:17:29Z</time>
      </trkpt>
      <trkpt lat="49.10989" lon="1.96376">
        <ele>62.5</ele>
        <time>2024-02-04T14:17:34Z</time>
      </trkpt>
      <trkpt lat="49.10985" lon="1.96375">
        <ele>62.5</ele>
        <time>2024-02-04T14:17:39Z</time>
      </trkpt>
      <trkpt lat="49.10977" lon="1.96375">
        <ele>62.5</ele>
        <time>2024-02-04T14:17:45Z</time>
      </trkpt>
      <trkpt lat="49.10969" lon="1.96375">
        <ele>62.5</ele>
        <time>2024-02-04T14:17:51Z</time>
      </trkpt>
      <trkpt lat="49.10962" lon="1.96377">
        <ele>62.6</ele>
        <time>2024-02-04T14:17:56Z</time>
      </trkpt>
      <trkpt lat="49.10955" lon="1.96378">
        <ele>62.6</ele>
        <time>2024-02-04T14:18:02Z</time>
      </trkpt>
      <trkpt lat="49.10949" lon="1.9638">
        <ele>62.6</ele>
        <time>2024-02-04T14:18:07Z</time>
      </trkpt>
      <trkpt lat="49.1094" lon="1.96383">
        <ele>62.4</ele>
        <time>2024-02-04T14:18:13Z</time>
      </trkpt>
      <trkpt lat="49.10934" lon="1.96385">
        <ele>62.3</ele>
        <time>2024-02-04T14:18:18Z</time>
      </trkpt>
      <trkpt lat="49.10926" lon="1.96388">
        <ele>62.1</ele>
        <time>2024-02-04T14:18:24Z</time>
      </trkpt>
      <trkpt lat="49.10918" lon="1.9639">
        <ele>62</ele>
        <time>2024-02-04T14:18:30Z</time>
      </trkpt>
      <trkpt lat="49.10911" lon="1.96392">
        <ele>61.9</ele>
        <time>2024-02-04T14:18:36Z</time>
      </trkpt>
      <trkpt lat="49.10904" lon="1.96395">
        <ele>61.8</ele>
        <time>2024-02-04T14:18:41Z</time>
      </trkpt>
      <trkpt lat="49.10897" lon="1.96397">
        <ele>61.7</ele>
        <time>2024-02-04T14:18:47Z</time>
      </trkpt>
      <trkpt lat="49.1089" lon="1.96398">
        <ele>61.7</ele>
        <time>2024-02-04T14:18:53Z</time>
      </trkpt>
      <trkpt lat="49.10884" lon="1.96399">
        <ele>61.5</ele>
        <time>2024-02-04T14:18:58Z</time>
      </trkpt>
      <trkpt lat="49.10876" lon="1.964">
        <ele>61.1</ele>
        <time>2024-02-04T14:19:04Z</time>
      </trkpt>
      <trkpt lat="49.10869" lon="1.96401">
        <ele>60.9</ele>
        <time>2024-02-04T14:19:09Z</time>
      </trkpt>
      <trkpt lat="49.1086" lon="1.964">
        <ele>60.5</ele>
        <time>2024-02-04T14:19:15Z</time>
      </trkpt>
      <trkpt lat="49.10851" lon="1.964">
        <ele>59.9</ele>
        <time>2024-02-04T14:19:20Z</time>
      </trkpt>
      <trkpt lat="49.10841" lon="1.964">
        <ele>59.2</ele>
        <time>2024-02-04T14:19:26Z</time>
      </trkpt>
      <trkpt lat="49.10834" lon="1.96399">
        <ele>58.7</ele>
        <time>2024-02-04T14:19:31Z</time>
      </trkpt>
      <trkpt lat="49.10827" lon="1.96399">
        <ele>58.5</ele>
        <time>2024-02-04T14:19:37Z</time>
      </trkpt>
      <trkpt lat="49.1082" lon="1.96399">
        <ele>58.3</ele>
        <time>2024-02-04T14:19:42Z</time>
      </trkpt>
      <trkpt lat="49.10814" lon="1.96398">
        <ele>58.2</ele>
        <time>2024-02-04T14:19:47Z</time>
      </trkpt>
      <trkpt lat="49.10807" lon="1.96398">
        <ele>58</ele>
        <time>2024-02-04T14:19:52Z</time>
      </trkpt>
      <trkpt lat="49.10801" lon="1.96398">
        <ele>57.9</ele>
        <time>2024-02-04T14:19:58Z</time>
      </trkpt>
      <trkpt lat="49.10793" lon="1.96395">
        <ele>58</ele>
        <time>2024-02-04T14:20:04Z</time>
      </trkpt>
      <trkpt lat="49.10786" lon="1.96395">
        <ele>57.8</ele>
        <time>2024-02-04T14:20:09Z</time>
      </trkpt>
      <trkpt lat="49.1078" lon="1.96396">
        <ele>57.5</ele>
        <time>2024-02-04T14:20:14Z</time>
      </trkpt>
      <trkpt lat="49.10772" lon="1.96398">
        <ele>57.6</ele>
        <time>2024-02-04T14:20:20Z</time>
      </trkpt>
      <trkpt lat="49.10766" lon="1.96399">
        <ele>57.7</ele>
        <time>2024-02-04T14:20:25Z</time>
      </trkpt>
      <trkpt lat="49.10759" lon="1.96401">
        <ele>57.8</ele>
        <time>2024-02-04T14:20:31Z</time>
      </trkpt>
      <trkpt lat="49.10751" lon="1.96402">
        <ele>58</ele>
        <time>2024-02-04T14:20:37Z</time>
      </trkpt>
      <trkpt lat="49.10746" lon="1.96404">
        <ele>58.1</ele>
        <time>2024-02-04T14:20:42Z</time>
      </trkpt>
      <trkpt lat="49.1074" lon="1.96406">
        <ele>58.4</ele>
        <time>2024-02-04T14:20:48Z</time>
      </trkpt>
      <trkpt lat="49.10734" lon="1.96409">
        <ele>58.6</ele>
        <time>2024-02-04T14:20:54Z</time>
      </trkpt>
      <trkpt lat="49.10726" lon="1.96412">
        <ele>58.9</ele>
        <time>2024-02-04T14:21:00Z</time>
      </trkpt>
      <trkpt lat="49.1072" lon="1.96414">
        <ele>59.2</ele>
        <time>2024-02-04T14:21:05Z</time>
      </trkpt>
      <trkpt lat="49.10713" lon="1.96418">
        <ele>59.3</ele>
        <time>2024-02-04T14:21:11Z</time>
      </trkpt>
      <trkpt lat="49.10706" lon="1.96421">
        <ele>59.4</ele>
        <time>2024-02-04T14:21:16Z</time>
      </trkpt>
      <trkpt lat="49.10699" lon="1.96425">
        <ele>59.5</ele>
        <time>2024-02-04T14:21:22Z</time>
      </trkpt>
      <trkpt lat="49.10694" lon="1.96429">
        <ele>59.6</ele>
        <time>2024-02-04T14:21:27Z</time>
      </trkpt>
      <trkpt lat="49.10688" lon="1.96432">
        <ele>59.6</ele>
        <time>2024-02-04T14:21:32Z</time>
      </trkpt>
      <trkpt lat="49.1068" lon="1.96435">
        <ele>59.5</ele>
        <time>2024-02-04T14:21:38Z</time>
      </trkpt>
      <trkpt lat="49.10671" lon="1.9644">
        <ele>59.3</ele>
        <time>2024-02-04T14:21:44Z</time>
      </trkpt>
      <trkpt lat="49.10662" lon="1.96444">
        <ele>59.2</ele>
        <time>2024-02-04T14:21:50Z</time>
      </trkpt>
      <trkpt lat="49.10653" lon="1.96447">
        <ele>59.4</ele>
        <time>2024-02-04T14:21:56Z</time>
      </trkpt>
      <trkpt lat="49.10645" lon="1.96449">
        <ele>59.6</ele>
        <time>2024-02-04T14:22:02Z</time>
      </trkpt>
      <trkpt lat="49.1064" lon="1.96452">
        <ele>59.7</ele>
        <time>2024-02-04T14:22:07Z</time>
      </trkpt>
      <trkpt lat="49.10636" lon="1.96455">
        <ele>59.6</ele>
        <time>2024-02-04T14:22:12Z</time>
      </trkpt>
      <trkpt lat="49.10629" lon="1.96458">
        <ele>59.5</ele>
        <time>2024-02-04T14:22:18Z</time>
      </trkpt>
      <trkpt lat="49.10622" lon="1.96461">
        <ele>59.4</ele>
        <time>2024-02-04T14:22:24Z</time>
      </trkpt>
      <trkpt lat="49.10616" lon="1.96463">
        <ele>59.3</ele>
        <time>2024-02-04T14:22:29Z</time>
      </trkpt>
      <trkpt lat="49.1061" lon="1.96467">
        <ele>59.2</ele>
        <time>2024-02-04T14:22:34Z</time>
      </trkpt>
      <trkpt lat="49.10601" lon="1.96469">
        <ele>59.4</ele>
        <time>2024-02-04T14:22:40Z</time>
      </trkpt>
      <trkpt lat="49.10591" lon="1.96473">
        <ele>59.7</ele>
        <time>2024-02-04T14:22:46Z</time>
      </trkpt>
      <trkpt lat="49.10586" lon="1.96478">
        <ele>59.7</ele>
        <time>2024-02-04T14:22:51Z</time>
      </trkpt>
      <trkpt lat="49.1058" lon="1.9648">
        <ele>59.8</ele>
        <time>2024-02-04T14:22:57Z</time>
      </trkpt>
      <trkpt lat="49.10573" lon="1.96482">
        <ele>59.8</ele>
        <time>2024-02-04T14:23:03Z</time>
      </trkpt>
      <trkpt lat="49.10566" lon="1.96485">
        <ele>59.8</ele>
        <time>2024-02-04T14:23:09Z</time>
      </trkpt>
      <trkpt lat="49.10561" lon="1.96489">
        <ele>59.9</ele>
        <time>2024-02-04T14:23:14Z</time>
      </trkpt>
      <trkpt lat="49.10553" lon="1.96492">
        <ele>60</ele>
        <time>2024-02-04T14:23:20Z</time>
      </trkpt>
      <trkpt lat="49.10548" lon="1.96496">
        <ele>60</ele>
        <time>2024-02-04T14:23:25Z</time>
      </trkpt>
      <trkpt lat="49.10539" lon="1.965">
        <ele>60</ele>
        <time>2024-02-04T14:23:31Z</time>
      </trkpt>
      <trkpt lat="49.10532" lon="1.96503">
        <ele>59.9</ele>
        <time>2024-02-04T14:23:37Z</time>
      </trkpt>
      <trkpt lat="49.10526" lon="1.96505">
        <ele>59.9</ele>
        <time>2024-02-04T14:23:42Z</time>
      </trkpt>
      <trkpt lat="49.10519" lon="1.96509">
        <ele>60.2</ele>
        <time>2024-02-04T14:23:48Z</time>
      </trkpt>
      <trkpt lat="49.10513" lon="1.96514">
        <ele>60.3</ele>
        <time>2024-02-04T14:23:54Z</time>
      </trkpt>
      <trkpt lat="49.10504" lon="1.96517">
        <ele>60.6</ele>
        <time>2024-02-04T14:24:00Z</time>
      </trkpt>
      <trkpt lat="49.10497" lon="1.96521">
        <ele>60.6</ele>
        <time>2024-02-04T14:24:06Z</time>
      </trkpt>
      <trkpt lat="49.10489" lon="1.96524">
        <ele>60.6</ele>
        <time>2024-02-04T14:24:12Z</time>
      </trkpt>
      <trkpt lat="49.10482" lon="1.96529">
        <ele>60.6</ele>
        <time>2024-02-04T14:24:17Z</time>
      </trkpt>
      <trkpt lat="49.10474" lon="1.96534">
        <ele>60.7</ele>
        <time>2024-02-04T14:24:23Z</time>
      </trkpt>
      <trkpt lat="49.10469" lon="1.96541">
        <ele>60.5</ele>
        <time>2024-02-04T14:24:29Z</time>
      </trkpt>
      <trkpt lat="49.10462" lon="1.96547">
        <ele>60.3</ele>
        <time>2024-02-04T14:24:35Z</time>
      </trkpt>
      <trkpt lat="49.10457" lon="1.96552">
        <ele>60.1</ele>
        <time>2024-02-04T14:24:40Z</time>
      </trkpt>
      <trkpt lat="49.10451" lon="1.96557">
        <ele>59.9</ele>
        <time>2024-02-04T14:24:45Z</time>
      </trkpt>
      <trkpt lat="49.10443" lon="1.96563">
        <ele>59.5</ele>
        <time>2024-02-04T14:24:51Z</time>
      </trkpt>
      <trkpt lat="49.10438" lon="1.96568">
        <ele>59.2</ele>
        <time>2024-02-04T14:24:56Z</time>
      </trkpt>
      <trkpt lat="49.10432" lon="1.96573">
        <ele>59</ele>
        <time>2024-02-04T14:25:02Z</time>
      </trkpt>
      <trkpt lat="49.10424" lon="1.96579">
        <ele>59</ele>
        <time>2024-02-04T14:25:07Z</time>
      </trkpt>
      <trkpt lat="49.10415" lon="1.96585">
        <ele>58.8</ele>
        <time>2024-02-04T14:25:13Z</time>
      </trkpt>
      <trkpt lat="49.10408" lon="1.96589">
        <ele>58.4</ele>
        <time>2024-02-04T14:25:19Z</time>
      </trkpt>
      <trkpt lat="49.10401" lon="1.96591">
        <ele>58.2</ele>
        <time>2024-02-04T14:25:25Z</time>
      </trkpt>
      <trkpt lat="49.10393" lon="1.96595">
        <ele>58</ele>
        <time>2024-02-04T14:25:31Z</time>
      </trkpt>
      <trkpt lat="49.10386" lon="1.96598">
        <ele>58.1</ele>
        <time>2024-02-04T14:25:37Z</time>
      </trkpt>
      <trkpt lat="49.10379" lon="1.96602">
        <ele>58.1</ele>
        <time>2024-02-04T14:25:43Z</time>
      </trkpt>
      <trkpt lat="49.1037" lon="1.96603">
        <ele>58.2</ele>
        <time>2024-02-04T14:25:49Z</time>
      </trkpt>
      <trkpt lat="49.10364" lon="1.96605">
        <ele>58.2</ele>
        <time>2024-02-04T14:25:55Z</time>
      </trkpt>
      <trkpt lat="49.10358" lon="1.96608">
        <ele>58.1</ele>
        <time>2024-02-04T14:26:00Z</time>
      </trkpt>
      <trkpt lat="49.10351" lon="1.96609">
        <ele>58.1</ele>
        <time>2024-02-04T14:26:06Z</time>
      </trkpt>
      <trkpt lat="49.10345" lon="1.96612">
        <ele>58</ele>
        <time>2024-02-04T14:26:11Z</time>
      </trkpt>
      <trkpt lat="49.10337" lon="1.96613">
        <ele>57.9</ele>
        <time>2024-02-04T14:26:17Z</time>
      </trkpt>
      <trkpt lat="49.10328" lon="1.96614">
        <ele>57.7</ele>
        <time>2024-02-04T14:26:23Z</time>
      </trkpt>
      <trkpt lat="49.10321" lon="1.96616">
        <ele>57.4</ele>
        <time>2024-02-04T14:26:29Z</time>
      </trkpt>
      <trkpt lat="49.10313" lon="1.96617">
        <ele>57.1</ele>
        <time>2024-02-04T14:26:34Z</time>
      </trkpt>
      <trkpt lat="49.10308" lon="1.96617">
        <ele>56.9</ele>
        <time>2024-02-04T14:26:39Z</time>
      </trkpt>
      <trkpt lat="49.10299" lon="1.96616">
        <ele>56.8</ele>
        <time>2024-02-04T14:26:45Z</time>
      </trkpt>
      <trkpt lat="49.1029" lon="1.96616">
        <ele>56.8</ele>
        <time>2024-02-04T14:26:51Z</time>
      </trkpt>
      <trkpt lat="49.10285" lon="1.96617">
        <ele>56.8</ele>
        <time>2024-02-04T14:26:57Z</time>
      </trkpt>
      <trkpt lat="49.10281" lon="1.96619">
        <ele>56.7</ele>
        <time>2024-02-04T14:27:02Z</time>
      </trkpt>
      <trkpt lat="49.10273" lon="1.96617">
        <ele>57</ele>
        <time>2024-02-04T14:27:08Z</time>
      </trkpt>
      <trkpt lat="49.10264" lon="1.96619">
        <ele>57.2</ele>
        <time>2024-02-04T14:27:14Z</time>
      </trkpt>
      <trkpt lat="49.10256" lon="1.96621">
        <ele>57.4</ele>
        <time>2024-02-04T14:27:19Z</time>
      </trkpt>
      <trkpt lat="49.10248" lon="1.96627">
        <ele>57.4</ele>
        <time>2024-02-04T14:27:25Z</time>
      </trkpt>
      <trkpt lat="49.10243" lon="1.96629">
        <ele>57.4</ele>
        <time>2024-02-04T14:27:30Z</time>
      </trkpt>
      <trkpt lat="49.10236" lon="1.96631">
        <ele>57.3</ele>
        <time>2024-02-04T14:27:35Z</time>
      </trkpt>
      <trkpt lat="49.1023" lon="1.96633">
        <ele>57.2</ele>
        <time>2024-02-04T14:27:41Z</time>
      </trkpt>
      <trkpt lat="49.10224" lon="1.96635">
        <ele>57.1</ele>
        <time>2024-02-04T14:27:47Z</time>
      </trkpt>
      <trkpt lat="49.10217" lon="1.96637">
        <ele>57.3</ele>
        <time>2024-02-04T14:27:52Z</time>
      </trkpt>
      <trkpt lat="49.10209" lon="1.96638">
        <ele>57.5</ele>
        <time>2024-02-04T14:27:58Z</time>
      </trkpt>
      <trkpt lat="49.10203" lon="1.96642">
        <ele>57.5</ele>
        <time>2024-02-04T14:28:03Z</time>
      </trkpt>
      <trkpt lat="49.10196" lon="1.9664">
        <ele>57.9</ele>
        <time>2024-02-04T14:28:08Z</time>
      </trkpt>
      <trkpt lat="49.10187" lon="1.96636">
        <ele>58.3</ele>
        <time>2024-02-04T14:28:14Z</time>
      </trkpt>
      <trkpt lat="49.10179" lon="1.96638">
        <ele>58.6</ele>
        <time>2024-02-04T14:28:20Z</time>
      </trkpt>
      <trkpt lat="49.10171" lon="1.96638">
        <ele>58.9</ele>
        <time>2024-02-04T14:28:26Z</time>
      </trkpt>
      <trkpt lat="49.10164" lon="1.96639">
        <ele>59.1</ele>
        <time>2024-02-04T14:28:32Z</time>
      </trkpt>
      <trkpt lat="49.10156" lon="1.96638">
        <ele>59.4</ele>
        <time>2024-02-04T14:28:38Z</time>
      </trkpt>
      <trkpt lat="49.10149" lon="1.96644">
        <ele>59.4</ele>
        <time>2024-02-04T14:28:44Z</time>
      </trkpt>
      <trkpt lat="49.10143" lon="1.96651">
        <ele>59.4</ele>
        <time>2024-02-04T14:28:50Z</time>
      </trkpt>
      <trkpt lat="49.1014" lon="1.9666">
        <ele>59.2</ele>
        <time>2024-02-04T14:28:55Z</time>
      </trkpt>
      <trkpt lat="49.10139" lon="1.96672">
        <ele>58.6</ele>
        <time>2024-02-04T14:29:01Z</time>
      </trkpt>
      <trkpt lat="49.10137" lon="1.9668">
        <ele>58.1</ele>
        <time>2024-02-04T14:29:06Z</time>
      </trkpt>
      <trkpt lat="49.10135" lon="1.96692">
        <ele>57.4</ele>
        <time>2024-02-04T14:29:12Z</time>
      </trkpt>
      <trkpt lat="49.10131" lon="1.96704">
        <ele>56.8</ele>
        <time>2024-02-04T14:29:17Z</time>
      </trkpt>
      <trkpt lat="49.1013" lon="1.96714">
        <ele>56.2</ele>
        <time>2024-02-04T14:29:22Z</time>
      </trkpt>
      <trkpt lat="49.10128" lon="1.96724">
        <ele>55.7</ele>
        <time>2024-02-04T14:29:28Z</time>
      </trkpt>
      <trkpt lat="49.10125" lon="1.96735">
        <ele>55.7</ele>
        <time>2024-02-04T14:29:33Z</time>
      </trkpt>
      <trkpt lat="49.10123" lon="1.96748">
        <ele>55.8</ele>
        <time>2024-02-04T14:29:39Z</time>
      </trkpt>
      <trkpt lat="49.10122" lon="1.96757">
        <ele>55.3</ele>
        <time>2024-02-04T14:29:44Z</time>
      </trkpt>
      <trkpt lat="49.10119" lon="1.96768">
        <ele>54.8</ele>
        <time>2024-02-04T14:29:50Z</time>
      </trkpt>
      <trkpt lat="49.10117" lon="1.96779">
        <ele>54.3</ele>
        <time>2024-02-04T14:29:55Z</time>
      </trkpt>
      <trkpt lat="49.10113" lon="1.96788">
        <ele>54</ele>
        <time>2024-02-04T14:30:01Z</time>
      </trkpt>
      <trkpt lat="49.10111" lon="1.96795">
        <ele>53.8</ele>
        <time>2024-02-04T14:30:06Z</time>
      </trkpt>
      <trkpt lat="49.10108" lon="1.96804">
        <ele>53.4</ele>
        <time>2024-02-04T14:30:12Z</time>
      </trkpt>
      <trkpt lat="49.10104" lon="1.96814">
        <ele>53.3</ele>
        <time>2024-02-04T14:30:17Z</time>
      </trkpt>
      <trkpt lat="49.10101" lon="1.96825">
        <ele>53.1</ele>
        <time>2024-02-04T14:30:23Z</time>
      </trkpt>
      <trkpt lat="49.10098" lon="1.96837">
        <ele>52.8</ele>
        <time>2024-02-04T14:30:29Z</time>
      </trkpt>
      <trkpt lat="49.10095" lon="1.96844">
        <ele>52.8</ele>
        <time>2024-02-04T14:30:34Z</time>
      </trkpt>
      <trkpt lat="49.10091" lon="1.96854">
        <ele>52.7</ele>
        <time>2024-02-04T14:30:40Z</time>
      </trkpt>
      <trkpt lat="49.10087" lon="1.96867">
        <ele>52.5</ele>
        <time>2024-02-04T14:30:46Z</time>
      </trkpt>
      <trkpt lat="49.10082" lon="1.96873">
        <ele>52.6</ele>
        <time>2024-02-04T14:30:51Z</time>
      </trkpt>
      <trkpt lat="49.10076" lon="1.96883">
        <ele>52.5</ele>
        <time>2024-02-04T14:30:57Z</time>
      </trkpt>
      <trkpt lat="49.10069" lon="1.96895">
        <ele>52.3</ele>
        <time>2024-02-04T14:31:03Z</time>
      </trkpt>
      <trkpt lat="49.10067" lon="1.96904">
        <ele>52</ele>
        <time>2024-02-04T14:31:08Z</time>
      </trkpt>
      <trkpt lat="49.10068" lon="1.96913">
        <ele>51.7</ele>
        <time>2024-02-04T14:31:14Z</time>
      </trkpt>
      <trkpt lat="49.10071" lon="1.96927">
        <ele>51.3</ele>
        <time>2024-02-04T14:31:20Z</time>
      </trkpt>
      <trkpt lat="49.10074" lon="1.96936">
        <ele>51.1</ele>
        <time>2024-02-04T14:31:25Z</time>
      </trkpt>
      <trkpt lat="49.10079" lon="1.96941">
        <ele>51</ele>
        <time>2024-02-04T14:31:31Z</time>
      </trkpt>
      <trkpt lat="49.10085" lon="1.96949">
        <ele>50.7</ele>
        <time>2024-02-04T14:31:37Z</time>
      </trkpt>
      <trkpt lat="49.10089" lon="1.96956">
        <ele>50.3</ele>
        <time>2024-02-04T14:31:43Z</time>
      </trkpt>
      <trkpt lat="49.10093" lon="1.96965">
        <ele>49.8</ele>
        <time>2024-02-04T14:31:49Z</time>
      </trkpt>
      <trkpt lat="49.10097" lon="1.96979">
        <ele>49.4</ele>
        <time>2024-02-04T14:31:55Z</time>
      </trkpt>
      <trkpt lat="49.10099" lon="1.96988">
        <ele>49.2</ele>
        <time>2024-02-04T14:32:00Z</time>
      </trkpt>
      <trkpt lat="49.101" lon="1.96997">
        <ele>49.1</ele>
        <time>2024-02-04T14:32:05Z</time>
      </trkpt>
      <trkpt lat="49.10099" lon="1.97007">
        <ele>49.1</ele>
        <time>2024-02-04T14:32:11Z</time>
      </trkpt>
      <trkpt lat="49.10098" lon="1.97017">
        <ele>49.3</ele>
        <time>2024-02-04T14:32:16Z</time>
      </trkpt>
      <trkpt lat="49.10095" lon="1.97029">
        <ele>49.5</ele>
        <time>2024-02-04T14:32:22Z</time>
      </trkpt>
      <trkpt lat="49.10089" lon="1.97036">
        <ele>49.3</ele>
        <time>2024-02-04T14:32:28Z</time>
      </trkpt>
      <trkpt lat="49.1008" lon="1.97037">
        <ele>49.4</ele>
        <time>2024-02-04T14:32:34Z</time>
      </trkpt>
      <trkpt lat="49.10072" lon="1.97038">
        <ele>49.6</ele>
        <time>2024-02-04T14:32:40Z</time>
      </trkpt>
      <trkpt lat="49.10065" lon="1.9704">
        <ele>49.7</ele>
        <time>2024-02-04T14:32:45Z</time>
      </trkpt>
      <trkpt lat="49.10058" lon="1.97043">
        <ele>49.9</ele>
        <time>2024-02-04T14:32:50Z</time>
      </trkpt>
      <trkpt lat="49.10051" lon="1.97047">
        <ele>50</ele>
        <time>2024-02-04T14:32:56Z</time>
      </trkpt>
      <trkpt lat="49.10043" lon="1.9705">
        <ele>50</ele>
        <time>2024-02-04T14:33:02Z</time>
      </trkpt>
      <trkpt lat="49.10037" lon="1.97051">
        <ele>50</ele>
        <time>2024-02-04T14:33:07Z</time>
      </trkpt>
      <trkpt lat="49.10031" lon="1.97056">
        <ele>50</ele>
        <time>2024-02-04T14:33:13Z</time>
      </trkpt>
      <trkpt lat="49.10025" lon="1.97059">
        <ele>50</ele>
        <time>2024-02-04T14:33:18Z</time>
      </trkpt>
      <trkpt lat="49.10018" lon="1.97063">
        <ele>50.1</ele>
        <time>2024-02-04T14:33:24Z</time>
      </trkpt>
      <trkpt lat="49.10013" lon="1.97064">
        <ele>50.2</ele>
        <time>2024-02-04T14:33:29Z</time>
      </trkpt>
      <trkpt lat="49.10005" lon="1.97067">
        <ele>50.3</ele>
        <time>2024-02-04T14:33:37Z</time>
      </trkpt>
      <trkpt lat="49.10004" lon="1.97067">
        <ele>50.3</ele>
        <time>2024-02-04T14:33:42Z</time>
      </trkpt>
      <trkpt lat="49.10003" lon="1.97066">
        <ele>50.3</ele>
        <time>2024-02-04T14:33:47Z</time>
      </trkpt>
      <trkpt lat="49.10002" lon="1.97067">
        <ele>50.4</ele>
        <time>2024-02-04T14:33:53Z</time>
      </trkpt>
      <trkpt lat="49.10002" lon="1.97067">
        <ele>50.4</ele>
        <time>2024-02-04T14:33:59Z</time>
      </trkpt>
    </trkseg>
  </trk>
</gpx>